<?xml version="1.0" encoding="UTF-8" standalone="no" ?>
<gpx xmlns="http://www.topografix.com/GPX/1/1" xmlns:xsi="http://www.w3.org/2001/XMLSchema-instance" xsi:schemaLocation="http://www.topografix.com/GPX/1/1 http://www.topografix.com/GPX/1/1/gpx.xsd" version="1.1" creator="VisuGPX - https://www.visugpx.com">
  <metadata>
    <name>MB. Sortie du 05/09/2019-2</name>
    <desc><![CDATA[Sortie VTT du jeudi 05 septembre 2019 Kerhinet retour.]]></desc>
  </metadata>
  <trk>
    <name><![CDATA[MB. Sortie du 05/09/2019-2_1]]></name>
    <trkseg>
      <trkpt lat="47.36347" lon="-2.35007">
        <ele>10</ele>
        <time>2019-09-05T12:24:22Z</time>
      </trkpt>
      <trkpt lat="47.36347" lon="-2.35007">
        <ele>72</ele>
        <time>2019-09-05T12:24:34Z</time>
      </trkpt>
      <trkpt lat="47.36358" lon="-2.35028">
        <ele>67</ele>
        <time>2019-09-05T12:33:42Z</time>
      </trkpt>
      <trkpt lat="47.36364" lon="-2.3503">
        <ele>66</ele>
        <time>2019-09-05T12:33:44Z</time>
      </trkpt>
      <trkpt lat="47.36368" lon="-2.35031">
        <ele>66</ele>
        <time>2019-09-05T12:33:45Z</time>
      </trkpt>
      <trkpt lat="47.36374" lon="-2.35032">
        <ele>65</ele>
        <time>2019-09-05T12:33:47Z</time>
      </trkpt>
      <trkpt lat="47.36378" lon="-2.35039">
        <ele>66</ele>
        <time>2019-09-05T12:33:50Z</time>
      </trkpt>
      <trkpt lat="47.3638" lon="-2.35045">
        <ele>66</ele>
        <time>2019-09-05T12:33:52Z</time>
      </trkpt>
      <trkpt lat="47.36382" lon="-2.35055">
        <ele>67</ele>
        <time>2019-09-05T12:33:54Z</time>
      </trkpt>
      <trkpt lat="47.36385" lon="-2.35066">
        <ele>67</ele>
        <time>2019-09-05T12:33:56Z</time>
      </trkpt>
      <trkpt lat="47.3639" lon="-2.35074">
        <ele>67</ele>
        <time>2019-09-05T12:33:58Z</time>
      </trkpt>
      <trkpt lat="47.36398" lon="-2.35078">
        <ele>67</ele>
        <time>2019-09-05T12:34:00Z</time>
      </trkpt>
      <trkpt lat="47.36409" lon="-2.35074">
        <ele>67</ele>
        <time>2019-09-05T12:34:03Z</time>
      </trkpt>
      <trkpt lat="47.36413" lon="-2.35077">
        <ele>66</ele>
        <time>2019-09-05T12:34:07Z</time>
      </trkpt>
      <trkpt lat="47.36413" lon="-2.35077">
        <ele>66</ele>
        <time>2019-09-05T12:34:16Z</time>
      </trkpt>
      <trkpt lat="47.36413" lon="-2.35077">
        <ele>9</ele>
        <time>2019-09-05T12:34:16Z</time>
      </trkpt>
      <trkpt lat="47.36413" lon="-2.35077">
        <ele>9</ele>
        <time>2019-09-05T12:34:26Z</time>
      </trkpt>
      <trkpt lat="47.36422" lon="-2.35067">
        <ele>64</ele>
        <time>2019-09-05T12:34:26Z</time>
      </trkpt>
      <trkpt lat="47.3644" lon="-2.35074">
        <ele>64</ele>
        <time>2019-09-05T12:34:32Z</time>
      </trkpt>
      <trkpt lat="47.36445" lon="-2.35077">
        <ele>61</ele>
        <time>2019-09-05T12:34:33Z</time>
      </trkpt>
      <trkpt lat="47.36453" lon="-2.3508">
        <ele>58</ele>
        <time>2019-09-05T12:34:35Z</time>
      </trkpt>
      <trkpt lat="47.36465" lon="-2.35086">
        <ele>56</ele>
        <time>2019-09-05T12:34:38Z</time>
      </trkpt>
      <trkpt lat="47.36475" lon="-2.35093">
        <ele>57</ele>
        <time>2019-09-05T12:34:41Z</time>
      </trkpt>
      <trkpt lat="47.36481" lon="-2.35098">
        <ele>58</ele>
        <time>2019-09-05T12:34:43Z</time>
      </trkpt>
      <trkpt lat="47.36487" lon="-2.35102">
        <ele>60</ele>
        <time>2019-09-05T12:34:45Z</time>
      </trkpt>
      <trkpt lat="47.36492" lon="-2.35105">
        <ele>62</ele>
        <time>2019-09-05T12:34:47Z</time>
      </trkpt>
      <trkpt lat="47.36495" lon="-2.35107">
        <ele>63</ele>
        <time>2019-09-05T12:34:48Z</time>
      </trkpt>
      <trkpt lat="47.36501" lon="-2.35108">
        <ele>65</ele>
        <time>2019-09-05T12:34:50Z</time>
      </trkpt>
      <trkpt lat="47.36509" lon="-2.35106">
        <ele>66</ele>
        <time>2019-09-05T12:34:52Z</time>
      </trkpt>
      <trkpt lat="47.36513" lon="-2.35106">
        <ele>67</ele>
        <time>2019-09-05T12:34:53Z</time>
      </trkpt>
      <trkpt lat="47.36519" lon="-2.35105">
        <ele>67</ele>
        <time>2019-09-05T12:34:54Z</time>
      </trkpt>
      <trkpt lat="47.36524" lon="-2.35104">
        <ele>66</ele>
        <time>2019-09-05T12:34:55Z</time>
      </trkpt>
      <trkpt lat="47.36529" lon="-2.35104">
        <ele>66</ele>
        <time>2019-09-05T12:34:56Z</time>
      </trkpt>
      <trkpt lat="47.36533" lon="-2.35104">
        <ele>66</ele>
        <time>2019-09-05T12:34:57Z</time>
      </trkpt>
      <trkpt lat="47.36541" lon="-2.35104">
        <ele>67</ele>
        <time>2019-09-05T12:34:59Z</time>
      </trkpt>
      <trkpt lat="47.36548" lon="-2.35101">
        <ele>67</ele>
        <time>2019-09-05T12:35:01Z</time>
      </trkpt>
      <trkpt lat="47.36543" lon="-2.35086">
        <ele>66</ele>
        <time>2019-09-05T12:35:05Z</time>
      </trkpt>
      <trkpt lat="47.36542" lon="-2.3508">
        <ele>65</ele>
        <time>2019-09-05T12:35:06Z</time>
      </trkpt>
      <trkpt lat="47.36539" lon="-2.35072">
        <ele>66</ele>
        <time>2019-09-05T12:35:08Z</time>
      </trkpt>
      <trkpt lat="47.36532" lon="-2.35059">
        <ele>66</ele>
        <time>2019-09-05T12:35:11Z</time>
      </trkpt>
      <trkpt lat="47.3653" lon="-2.35055">
        <ele>66</ele>
        <time>2019-09-05T12:35:12Z</time>
      </trkpt>
      <trkpt lat="47.36525" lon="-2.35047">
        <ele>66</ele>
        <time>2019-09-05T12:35:14Z</time>
      </trkpt>
      <trkpt lat="47.36516" lon="-2.35035">
        <ele>66</ele>
        <time>2019-09-05T12:35:17Z</time>
      </trkpt>
      <trkpt lat="47.36513" lon="-2.3503">
        <ele>67</ele>
        <time>2019-09-05T12:35:18Z</time>
      </trkpt>
      <trkpt lat="47.3651" lon="-2.35025">
        <ele>67</ele>
        <time>2019-09-05T12:35:19Z</time>
      </trkpt>
      <trkpt lat="47.36507" lon="-2.3502">
        <ele>66</ele>
        <time>2019-09-05T12:35:20Z</time>
      </trkpt>
      <trkpt lat="47.36502" lon="-2.3501">
        <ele>65</ele>
        <time>2019-09-05T12:35:22Z</time>
      </trkpt>
      <trkpt lat="47.36495" lon="-2.35">
        <ele>65</ele>
        <time>2019-09-05T12:35:25Z</time>
      </trkpt>
      <trkpt lat="47.36493" lon="-2.34991">
        <ele>65</ele>
        <time>2019-09-05T12:35:28Z</time>
      </trkpt>
      <trkpt lat="47.36493" lon="-2.34991">
        <ele>65</ele>
        <time>2019-09-05T12:35:33Z</time>
      </trkpt>
      <trkpt lat="47.36493" lon="-2.34991">
        <ele>10</ele>
        <time>2019-09-05T12:35:33Z</time>
      </trkpt>
      <trkpt lat="47.36493" lon="-2.34991">
        <ele>10</ele>
        <time>2019-09-05T12:35:37Z</time>
      </trkpt>
      <trkpt lat="47.36509" lon="-2.35016">
        <ele>65</ele>
        <time>2019-09-05T12:35:37Z</time>
      </trkpt>
      <trkpt lat="47.36525" lon="-2.35034">
        <ele>60</ele>
        <time>2019-09-05T12:35:43Z</time>
      </trkpt>
      <trkpt lat="47.36529" lon="-2.35041">
        <ele>59</ele>
        <time>2019-09-05T12:35:44Z</time>
      </trkpt>
      <trkpt lat="47.36532" lon="-2.35047">
        <ele>58</ele>
        <time>2019-09-05T12:35:45Z</time>
      </trkpt>
      <trkpt lat="47.36534" lon="-2.35053">
        <ele>57</ele>
        <time>2019-09-05T12:35:46Z</time>
      </trkpt>
      <trkpt lat="47.3654" lon="-2.35063">
        <ele>58</ele>
        <time>2019-09-05T12:35:48Z</time>
      </trkpt>
      <trkpt lat="47.36544" lon="-2.35069">
        <ele>58</ele>
        <time>2019-09-05T12:35:49Z</time>
      </trkpt>
      <trkpt lat="47.36547" lon="-2.35075">
        <ele>58</ele>
        <time>2019-09-05T12:35:50Z</time>
      </trkpt>
      <trkpt lat="47.36551" lon="-2.3508">
        <ele>58</ele>
        <time>2019-09-05T12:35:51Z</time>
      </trkpt>
      <trkpt lat="47.36554" lon="-2.35086">
        <ele>58</ele>
        <time>2019-09-05T12:35:52Z</time>
      </trkpt>
      <trkpt lat="47.36561" lon="-2.35097">
        <ele>57</ele>
        <time>2019-09-05T12:35:54Z</time>
      </trkpt>
      <trkpt lat="47.36564" lon="-2.35103">
        <ele>57</ele>
        <time>2019-09-05T12:35:55Z</time>
      </trkpt>
      <trkpt lat="47.36567" lon="-2.35108">
        <ele>57</ele>
        <time>2019-09-05T12:35:56Z</time>
      </trkpt>
      <trkpt lat="47.36574" lon="-2.3512">
        <ele>57</ele>
        <time>2019-09-05T12:35:58Z</time>
      </trkpt>
      <trkpt lat="47.36577" lon="-2.35126">
        <ele>57</ele>
        <time>2019-09-05T12:35:59Z</time>
      </trkpt>
      <trkpt lat="47.3658" lon="-2.35132">
        <ele>58</ele>
        <time>2019-09-05T12:36:00Z</time>
      </trkpt>
      <trkpt lat="47.36584" lon="-2.35139">
        <ele>58</ele>
        <time>2019-09-05T12:36:01Z</time>
      </trkpt>
      <trkpt lat="47.36588" lon="-2.35144">
        <ele>56</ele>
        <time>2019-09-05T12:36:02Z</time>
      </trkpt>
      <trkpt lat="47.36591" lon="-2.3515">
        <ele>56</ele>
        <time>2019-09-05T12:36:03Z</time>
      </trkpt>
      <trkpt lat="47.36599" lon="-2.35161">
        <ele>56</ele>
        <time>2019-09-05T12:36:05Z</time>
      </trkpt>
      <trkpt lat="47.36602" lon="-2.35167">
        <ele>56</ele>
        <time>2019-09-05T12:36:06Z</time>
      </trkpt>
      <trkpt lat="47.36606" lon="-2.35174">
        <ele>56</ele>
        <time>2019-09-05T12:36:07Z</time>
      </trkpt>
      <trkpt lat="47.3661" lon="-2.3518">
        <ele>56</ele>
        <time>2019-09-05T12:36:08Z</time>
      </trkpt>
      <trkpt lat="47.36613" lon="-2.35186">
        <ele>56</ele>
        <time>2019-09-05T12:36:09Z</time>
      </trkpt>
      <trkpt lat="47.36616" lon="-2.35192">
        <ele>56</ele>
        <time>2019-09-05T12:36:10Z</time>
      </trkpt>
      <trkpt lat="47.3662" lon="-2.35198">
        <ele>56</ele>
        <time>2019-09-05T12:36:11Z</time>
      </trkpt>
      <trkpt lat="47.36624" lon="-2.35204">
        <ele>56</ele>
        <time>2019-09-05T12:36:12Z</time>
      </trkpt>
      <trkpt lat="47.36634" lon="-2.35221">
        <ele>56</ele>
        <time>2019-09-05T12:36:15Z</time>
      </trkpt>
      <trkpt lat="47.36638" lon="-2.35226">
        <ele>56</ele>
        <time>2019-09-05T12:36:16Z</time>
      </trkpt>
      <trkpt lat="47.36649" lon="-2.3523">
        <ele>57</ele>
        <time>2019-09-05T12:36:19Z</time>
      </trkpt>
      <trkpt lat="47.36655" lon="-2.35221">
        <ele>57</ele>
        <time>2019-09-05T12:36:21Z</time>
      </trkpt>
      <trkpt lat="47.36658" lon="-2.35216">
        <ele>57</ele>
        <time>2019-09-05T12:36:22Z</time>
      </trkpt>
      <trkpt lat="47.36661" lon="-2.35211">
        <ele>58</ele>
        <time>2019-09-05T12:36:23Z</time>
      </trkpt>
      <trkpt lat="47.36668" lon="-2.35201">
        <ele>59</ele>
        <time>2019-09-05T12:36:25Z</time>
      </trkpt>
      <trkpt lat="47.36671" lon="-2.35196">
        <ele>59</ele>
        <time>2019-09-05T12:36:26Z</time>
      </trkpt>
      <trkpt lat="47.3668" lon="-2.3518">
        <ele>59</ele>
        <time>2019-09-05T12:36:29Z</time>
      </trkpt>
      <trkpt lat="47.36683" lon="-2.35174">
        <ele>59</ele>
        <time>2019-09-05T12:36:30Z</time>
      </trkpt>
      <trkpt lat="47.36686" lon="-2.35168">
        <ele>59</ele>
        <time>2019-09-05T12:36:31Z</time>
      </trkpt>
      <trkpt lat="47.36689" lon="-2.35162">
        <ele>59</ele>
        <time>2019-09-05T12:36:32Z</time>
      </trkpt>
      <trkpt lat="47.36692" lon="-2.35157">
        <ele>59</ele>
        <time>2019-09-05T12:36:33Z</time>
      </trkpt>
      <trkpt lat="47.36696" lon="-2.35151">
        <ele>59</ele>
        <time>2019-09-05T12:36:34Z</time>
      </trkpt>
      <trkpt lat="47.36699" lon="-2.35145">
        <ele>59</ele>
        <time>2019-09-05T12:36:35Z</time>
      </trkpt>
      <trkpt lat="47.36702" lon="-2.3514">
        <ele>60</ele>
        <time>2019-09-05T12:36:36Z</time>
      </trkpt>
      <trkpt lat="47.36705" lon="-2.35135">
        <ele>60</ele>
        <time>2019-09-05T12:36:37Z</time>
      </trkpt>
      <trkpt lat="47.36708" lon="-2.3513">
        <ele>59</ele>
        <time>2019-09-05T12:36:38Z</time>
      </trkpt>
      <trkpt lat="47.36711" lon="-2.35125">
        <ele>59</ele>
        <time>2019-09-05T12:36:39Z</time>
      </trkpt>
      <trkpt lat="47.3672" lon="-2.35108">
        <ele>59</ele>
        <time>2019-09-05T12:36:42Z</time>
      </trkpt>
      <trkpt lat="47.36723" lon="-2.35103">
        <ele>59</ele>
        <time>2019-09-05T12:36:43Z</time>
      </trkpt>
      <trkpt lat="47.36726" lon="-2.35098">
        <ele>59</ele>
        <time>2019-09-05T12:36:44Z</time>
      </trkpt>
      <trkpt lat="47.36729" lon="-2.35092">
        <ele>59</ele>
        <time>2019-09-05T12:36:45Z</time>
      </trkpt>
      <trkpt lat="47.36732" lon="-2.35088">
        <ele>59</ele>
        <time>2019-09-05T12:36:46Z</time>
      </trkpt>
      <trkpt lat="47.36735" lon="-2.35083">
        <ele>59</ele>
        <time>2019-09-05T12:36:47Z</time>
      </trkpt>
      <trkpt lat="47.36738" lon="-2.35078">
        <ele>59</ele>
        <time>2019-09-05T12:36:48Z</time>
      </trkpt>
      <trkpt lat="47.36744" lon="-2.35068">
        <ele>59</ele>
        <time>2019-09-05T12:36:50Z</time>
      </trkpt>
      <trkpt lat="47.3675" lon="-2.35058">
        <ele>60</ele>
        <time>2019-09-05T12:36:52Z</time>
      </trkpt>
      <trkpt lat="47.36752" lon="-2.35053">
        <ele>60</ele>
        <time>2019-09-05T12:36:53Z</time>
      </trkpt>
      <trkpt lat="47.36755" lon="-2.35049">
        <ele>60</ele>
        <time>2019-09-05T12:36:54Z</time>
      </trkpt>
      <trkpt lat="47.36758" lon="-2.35044">
        <ele>60</ele>
        <time>2019-09-05T12:36:55Z</time>
      </trkpt>
      <trkpt lat="47.36761" lon="-2.35039">
        <ele>60</ele>
        <time>2019-09-05T12:36:56Z</time>
      </trkpt>
      <trkpt lat="47.36764" lon="-2.35035">
        <ele>60</ele>
        <time>2019-09-05T12:36:57Z</time>
      </trkpt>
      <trkpt lat="47.36767" lon="-2.3503">
        <ele>60</ele>
        <time>2019-09-05T12:36:58Z</time>
      </trkpt>
      <trkpt lat="47.36773" lon="-2.3502">
        <ele>60</ele>
        <time>2019-09-05T12:37:00Z</time>
      </trkpt>
      <trkpt lat="47.36775" lon="-2.35015">
        <ele>60</ele>
        <time>2019-09-05T12:37:01Z</time>
      </trkpt>
      <trkpt lat="47.36778" lon="-2.3501">
        <ele>60</ele>
        <time>2019-09-05T12:37:02Z</time>
      </trkpt>
      <trkpt lat="47.36781" lon="-2.35005">
        <ele>60</ele>
        <time>2019-09-05T12:37:03Z</time>
      </trkpt>
      <trkpt lat="47.36784" lon="-2.35">
        <ele>60</ele>
        <time>2019-09-05T12:37:04Z</time>
      </trkpt>
      <trkpt lat="47.36788" lon="-2.34995">
        <ele>60</ele>
        <time>2019-09-05T12:37:05Z</time>
      </trkpt>
      <trkpt lat="47.36791" lon="-2.3499">
        <ele>61</ele>
        <time>2019-09-05T12:37:06Z</time>
      </trkpt>
      <trkpt lat="47.36795" lon="-2.34985">
        <ele>61</ele>
        <time>2019-09-05T12:37:07Z</time>
      </trkpt>
      <trkpt lat="47.36799" lon="-2.3498">
        <ele>61</ele>
        <time>2019-09-05T12:37:08Z</time>
      </trkpt>
      <trkpt lat="47.36804" lon="-2.34976">
        <ele>61</ele>
        <time>2019-09-05T12:37:09Z</time>
      </trkpt>
      <trkpt lat="47.36809" lon="-2.34973">
        <ele>61</ele>
        <time>2019-09-05T12:37:10Z</time>
      </trkpt>
      <trkpt lat="47.36814" lon="-2.34971">
        <ele>61</ele>
        <time>2019-09-05T12:37:11Z</time>
      </trkpt>
      <trkpt lat="47.3682" lon="-2.34969">
        <ele>61</ele>
        <time>2019-09-05T12:37:12Z</time>
      </trkpt>
      <trkpt lat="47.36826" lon="-2.34968">
        <ele>61</ele>
        <time>2019-09-05T12:37:13Z</time>
      </trkpt>
      <trkpt lat="47.36831" lon="-2.34966">
        <ele>61</ele>
        <time>2019-09-05T12:37:14Z</time>
      </trkpt>
      <trkpt lat="47.36837" lon="-2.34964">
        <ele>60</ele>
        <time>2019-09-05T12:37:15Z</time>
      </trkpt>
      <trkpt lat="47.36842" lon="-2.34962">
        <ele>61</ele>
        <time>2019-09-05T12:37:16Z</time>
      </trkpt>
      <trkpt lat="47.36848" lon="-2.3496">
        <ele>60</ele>
        <time>2019-09-05T12:37:17Z</time>
      </trkpt>
      <trkpt lat="47.36854" lon="-2.34958">
        <ele>60</ele>
        <time>2019-09-05T12:37:18Z</time>
      </trkpt>
      <trkpt lat="47.3686" lon="-2.34957">
        <ele>60</ele>
        <time>2019-09-05T12:37:19Z</time>
      </trkpt>
      <trkpt lat="47.36866" lon="-2.34955">
        <ele>60</ele>
        <time>2019-09-05T12:37:20Z</time>
      </trkpt>
      <trkpt lat="47.36872" lon="-2.34953">
        <ele>59</ele>
        <time>2019-09-05T12:37:21Z</time>
      </trkpt>
      <trkpt lat="47.36878" lon="-2.34951">
        <ele>59</ele>
        <time>2019-09-05T12:37:22Z</time>
      </trkpt>
      <trkpt lat="47.36885" lon="-2.34949">
        <ele>59</ele>
        <time>2019-09-05T12:37:23Z</time>
      </trkpt>
      <trkpt lat="47.36898" lon="-2.34945">
        <ele>59</ele>
        <time>2019-09-05T12:37:25Z</time>
      </trkpt>
      <trkpt lat="47.36905" lon="-2.34943">
        <ele>59</ele>
        <time>2019-09-05T12:37:26Z</time>
      </trkpt>
      <trkpt lat="47.36911" lon="-2.34942">
        <ele>59</ele>
        <time>2019-09-05T12:37:27Z</time>
      </trkpt>
      <trkpt lat="47.36917" lon="-2.34941">
        <ele>59</ele>
        <time>2019-09-05T12:37:28Z</time>
      </trkpt>
      <trkpt lat="47.36924" lon="-2.3494">
        <ele>59</ele>
        <time>2019-09-05T12:37:29Z</time>
      </trkpt>
      <trkpt lat="47.3693" lon="-2.34938">
        <ele>60</ele>
        <time>2019-09-05T12:37:30Z</time>
      </trkpt>
      <trkpt lat="47.36936" lon="-2.34935">
        <ele>60</ele>
        <time>2019-09-05T12:37:31Z</time>
      </trkpt>
      <trkpt lat="47.36942" lon="-2.34933">
        <ele>60</ele>
        <time>2019-09-05T12:37:32Z</time>
      </trkpt>
      <trkpt lat="47.36948" lon="-2.34929">
        <ele>60</ele>
        <time>2019-09-05T12:37:33Z</time>
      </trkpt>
      <trkpt lat="47.36961" lon="-2.3491">
        <ele>61</ele>
        <time>2019-09-05T12:37:36Z</time>
      </trkpt>
      <trkpt lat="47.36964" lon="-2.34903">
        <ele>61</ele>
        <time>2019-09-05T12:37:37Z</time>
      </trkpt>
      <trkpt lat="47.36967" lon="-2.34896">
        <ele>61</ele>
        <time>2019-09-05T12:37:38Z</time>
      </trkpt>
      <trkpt lat="47.3697" lon="-2.3489">
        <ele>61</ele>
        <time>2019-09-05T12:37:39Z</time>
      </trkpt>
      <trkpt lat="47.36972" lon="-2.34884">
        <ele>60</ele>
        <time>2019-09-05T12:37:40Z</time>
      </trkpt>
      <trkpt lat="47.36978" lon="-2.34879">
        <ele>60</ele>
        <time>2019-09-05T12:37:42Z</time>
      </trkpt>
      <trkpt lat="47.36983" lon="-2.34878">
        <ele>60</ele>
        <time>2019-09-05T12:37:43Z</time>
      </trkpt>
      <trkpt lat="47.36989" lon="-2.34878">
        <ele>60</ele>
        <time>2019-09-05T12:37:44Z</time>
      </trkpt>
      <trkpt lat="47.36995" lon="-2.34877">
        <ele>59</ele>
        <time>2019-09-05T12:37:45Z</time>
      </trkpt>
      <trkpt lat="47.37001" lon="-2.34876">
        <ele>59</ele>
        <time>2019-09-05T12:37:46Z</time>
      </trkpt>
      <trkpt lat="47.37007" lon="-2.34876">
        <ele>59</ele>
        <time>2019-09-05T12:37:47Z</time>
      </trkpt>
      <trkpt lat="47.37013" lon="-2.34876">
        <ele>59</ele>
        <time>2019-09-05T12:37:48Z</time>
      </trkpt>
      <trkpt lat="47.3702" lon="-2.34875">
        <ele>59</ele>
        <time>2019-09-05T12:37:49Z</time>
      </trkpt>
      <trkpt lat="47.37026" lon="-2.34874">
        <ele>58</ele>
        <time>2019-09-05T12:37:50Z</time>
      </trkpt>
      <trkpt lat="47.37033" lon="-2.34873">
        <ele>58</ele>
        <time>2019-09-05T12:37:51Z</time>
      </trkpt>
      <trkpt lat="47.37039" lon="-2.34872">
        <ele>58</ele>
        <time>2019-09-05T12:37:52Z</time>
      </trkpt>
      <trkpt lat="47.37046" lon="-2.3487">
        <ele>58</ele>
        <time>2019-09-05T12:37:53Z</time>
      </trkpt>
      <trkpt lat="47.37053" lon="-2.34868">
        <ele>58</ele>
        <time>2019-09-05T12:37:54Z</time>
      </trkpt>
      <trkpt lat="47.3706" lon="-2.34866">
        <ele>58</ele>
        <time>2019-09-05T12:37:55Z</time>
      </trkpt>
      <trkpt lat="47.37066" lon="-2.34866">
        <ele>58</ele>
        <time>2019-09-05T12:37:56Z</time>
      </trkpt>
      <trkpt lat="47.37079" lon="-2.34866">
        <ele>58</ele>
        <time>2019-09-05T12:37:58Z</time>
      </trkpt>
      <trkpt lat="47.37086" lon="-2.34868">
        <ele>58</ele>
        <time>2019-09-05T12:37:59Z</time>
      </trkpt>
      <trkpt lat="47.37093" lon="-2.34871">
        <ele>58</ele>
        <time>2019-09-05T12:38:00Z</time>
      </trkpt>
      <trkpt lat="47.37099" lon="-2.34874">
        <ele>58</ele>
        <time>2019-09-05T12:38:01Z</time>
      </trkpt>
      <trkpt lat="47.37106" lon="-2.34878">
        <ele>58</ele>
        <time>2019-09-05T12:38:02Z</time>
      </trkpt>
      <trkpt lat="47.37112" lon="-2.34882">
        <ele>58</ele>
        <time>2019-09-05T12:38:03Z</time>
      </trkpt>
      <trkpt lat="47.37119" lon="-2.34885">
        <ele>58</ele>
        <time>2019-09-05T12:38:04Z</time>
      </trkpt>
      <trkpt lat="47.37125" lon="-2.34889">
        <ele>58</ele>
        <time>2019-09-05T12:38:05Z</time>
      </trkpt>
      <trkpt lat="47.37132" lon="-2.34894">
        <ele>58</ele>
        <time>2019-09-05T12:38:06Z</time>
      </trkpt>
      <trkpt lat="47.37137" lon="-2.34898">
        <ele>58</ele>
        <time>2019-09-05T12:38:07Z</time>
      </trkpt>
      <trkpt lat="47.37144" lon="-2.34902">
        <ele>57</ele>
        <time>2019-09-05T12:38:08Z</time>
      </trkpt>
      <trkpt lat="47.37163" lon="-2.34919">
        <ele>56</ele>
        <time>2019-09-05T12:38:11Z</time>
      </trkpt>
      <trkpt lat="47.37168" lon="-2.34925">
        <ele>55</ele>
        <time>2019-09-05T12:38:12Z</time>
      </trkpt>
      <trkpt lat="47.37174" lon="-2.34933">
        <ele>56</ele>
        <time>2019-09-05T12:38:13Z</time>
      </trkpt>
      <trkpt lat="47.37182" lon="-2.34952">
        <ele>56</ele>
        <time>2019-09-05T12:38:15Z</time>
      </trkpt>
      <trkpt lat="47.37186" lon="-2.34962">
        <ele>56</ele>
        <time>2019-09-05T12:38:16Z</time>
      </trkpt>
      <trkpt lat="47.37194" lon="-2.34993">
        <ele>55</ele>
        <time>2019-09-05T12:38:19Z</time>
      </trkpt>
      <trkpt lat="47.37196" lon="-2.35004">
        <ele>55</ele>
        <time>2019-09-05T12:38:20Z</time>
      </trkpt>
      <trkpt lat="47.37202" lon="-2.35036">
        <ele>55</ele>
        <time>2019-09-05T12:38:23Z</time>
      </trkpt>
      <trkpt lat="47.37209" lon="-2.35075">
        <ele>55</ele>
        <time>2019-09-05T12:38:27Z</time>
      </trkpt>
      <trkpt lat="47.3721" lon="-2.35084">
        <ele>54</ele>
        <time>2019-09-05T12:38:28Z</time>
      </trkpt>
      <trkpt lat="47.37212" lon="-2.35094">
        <ele>54</ele>
        <time>2019-09-05T12:38:29Z</time>
      </trkpt>
      <trkpt lat="47.37213" lon="-2.35103">
        <ele>54</ele>
        <time>2019-09-05T12:38:30Z</time>
      </trkpt>
      <trkpt lat="47.37214" lon="-2.35112">
        <ele>54</ele>
        <time>2019-09-05T12:38:31Z</time>
      </trkpt>
      <trkpt lat="47.37216" lon="-2.35121">
        <ele>55</ele>
        <time>2019-09-05T12:38:32Z</time>
      </trkpt>
      <trkpt lat="47.37218" lon="-2.35129">
        <ele>54</ele>
        <time>2019-09-05T12:38:33Z</time>
      </trkpt>
      <trkpt lat="47.37219" lon="-2.35136">
        <ele>54</ele>
        <time>2019-09-05T12:38:34Z</time>
      </trkpt>
      <trkpt lat="47.37221" lon="-2.35144">
        <ele>54</ele>
        <time>2019-09-05T12:38:35Z</time>
      </trkpt>
      <trkpt lat="47.37223" lon="-2.35151">
        <ele>54</ele>
        <time>2019-09-05T12:38:36Z</time>
      </trkpt>
      <trkpt lat="47.37225" lon="-2.35157">
        <ele>54</ele>
        <time>2019-09-05T12:38:37Z</time>
      </trkpt>
      <trkpt lat="47.37226" lon="-2.35163">
        <ele>55</ele>
        <time>2019-09-05T12:38:38Z</time>
      </trkpt>
      <trkpt lat="47.37228" lon="-2.35169">
        <ele>54</ele>
        <time>2019-09-05T12:38:39Z</time>
      </trkpt>
      <trkpt lat="47.3723" lon="-2.35175">
        <ele>54</ele>
        <time>2019-09-05T12:38:40Z</time>
      </trkpt>
      <trkpt lat="47.37231" lon="-2.35182">
        <ele>54</ele>
        <time>2019-09-05T12:38:41Z</time>
      </trkpt>
      <trkpt lat="47.37233" lon="-2.35188">
        <ele>54</ele>
        <time>2019-09-05T12:38:42Z</time>
      </trkpt>
      <trkpt lat="47.37234" lon="-2.35195">
        <ele>54</ele>
        <time>2019-09-05T12:38:43Z</time>
      </trkpt>
      <trkpt lat="47.37236" lon="-2.35202">
        <ele>54</ele>
        <time>2019-09-05T12:38:44Z</time>
      </trkpt>
      <trkpt lat="47.37238" lon="-2.35209">
        <ele>53</ele>
        <time>2019-09-05T12:38:45Z</time>
      </trkpt>
      <trkpt lat="47.37239" lon="-2.35216">
        <ele>53</ele>
        <time>2019-09-05T12:38:46Z</time>
      </trkpt>
      <trkpt lat="47.37241" lon="-2.35223">
        <ele>53</ele>
        <time>2019-09-05T12:38:47Z</time>
      </trkpt>
      <trkpt lat="47.37243" lon="-2.35231">
        <ele>52</ele>
        <time>2019-09-05T12:38:48Z</time>
      </trkpt>
      <trkpt lat="47.37247" lon="-2.35244">
        <ele>52</ele>
        <time>2019-09-05T12:38:50Z</time>
      </trkpt>
      <trkpt lat="47.37249" lon="-2.3525">
        <ele>52</ele>
        <time>2019-09-05T12:38:51Z</time>
      </trkpt>
      <trkpt lat="47.37251" lon="-2.35257">
        <ele>51</ele>
        <time>2019-09-05T12:38:52Z</time>
      </trkpt>
      <trkpt lat="47.37253" lon="-2.35263">
        <ele>51</ele>
        <time>2019-09-05T12:38:53Z</time>
      </trkpt>
      <trkpt lat="47.37255" lon="-2.3527">
        <ele>51</ele>
        <time>2019-09-05T12:38:54Z</time>
      </trkpt>
      <trkpt lat="47.37257" lon="-2.35276">
        <ele>51</ele>
        <time>2019-09-05T12:38:55Z</time>
      </trkpt>
      <trkpt lat="47.37259" lon="-2.35283">
        <ele>52</ele>
        <time>2019-09-05T12:38:56Z</time>
      </trkpt>
      <trkpt lat="47.37261" lon="-2.35289">
        <ele>52</ele>
        <time>2019-09-05T12:38:57Z</time>
      </trkpt>
      <trkpt lat="47.37261" lon="-2.35297">
        <ele>51</ele>
        <time>2019-09-05T12:38:58Z</time>
      </trkpt>
      <trkpt lat="47.3726" lon="-2.35305">
        <ele>51</ele>
        <time>2019-09-05T12:38:59Z</time>
      </trkpt>
      <trkpt lat="47.37258" lon="-2.35312">
        <ele>51</ele>
        <time>2019-09-05T12:39:00Z</time>
      </trkpt>
      <trkpt lat="47.37255" lon="-2.35318">
        <ele>51</ele>
        <time>2019-09-05T12:39:01Z</time>
      </trkpt>
      <trkpt lat="47.37252" lon="-2.35325">
        <ele>51</ele>
        <time>2019-09-05T12:39:02Z</time>
      </trkpt>
      <trkpt lat="47.37243" lon="-2.35338">
        <ele>50</ele>
        <time>2019-09-05T12:39:04Z</time>
      </trkpt>
      <trkpt lat="47.37235" lon="-2.3535">
        <ele>51</ele>
        <time>2019-09-05T12:39:06Z</time>
      </trkpt>
      <trkpt lat="47.37228" lon="-2.35362">
        <ele>51</ele>
        <time>2019-09-05T12:39:08Z</time>
      </trkpt>
      <trkpt lat="47.3722" lon="-2.35374">
        <ele>51</ele>
        <time>2019-09-05T12:39:10Z</time>
      </trkpt>
      <trkpt lat="47.37216" lon="-2.35381">
        <ele>51</ele>
        <time>2019-09-05T12:39:11Z</time>
      </trkpt>
      <trkpt lat="47.37213" lon="-2.35388">
        <ele>51</ele>
        <time>2019-09-05T12:39:12Z</time>
      </trkpt>
      <trkpt lat="47.37209" lon="-2.35394">
        <ele>51</ele>
        <time>2019-09-05T12:39:13Z</time>
      </trkpt>
      <trkpt lat="47.37205" lon="-2.354">
        <ele>52</ele>
        <time>2019-09-05T12:39:14Z</time>
      </trkpt>
      <trkpt lat="47.372" lon="-2.35407">
        <ele>52</ele>
        <time>2019-09-05T12:39:15Z</time>
      </trkpt>
      <trkpt lat="47.37196" lon="-2.35413">
        <ele>52</ele>
        <time>2019-09-05T12:39:16Z</time>
      </trkpt>
      <trkpt lat="47.37188" lon="-2.35423">
        <ele>51</ele>
        <time>2019-09-05T12:39:18Z</time>
      </trkpt>
      <trkpt lat="47.37186" lon="-2.35436">
        <ele>52</ele>
        <time>2019-09-05T12:39:20Z</time>
      </trkpt>
      <trkpt lat="47.37192" lon="-2.35448">
        <ele>53</ele>
        <time>2019-09-05T12:39:22Z</time>
      </trkpt>
      <trkpt lat="47.37195" lon="-2.35454">
        <ele>53</ele>
        <time>2019-09-05T12:39:23Z</time>
      </trkpt>
      <trkpt lat="47.37198" lon="-2.3546">
        <ele>53</ele>
        <time>2019-09-05T12:39:24Z</time>
      </trkpt>
      <trkpt lat="47.37202" lon="-2.35466">
        <ele>53</ele>
        <time>2019-09-05T12:39:25Z</time>
      </trkpt>
      <trkpt lat="47.37209" lon="-2.35479">
        <ele>53</ele>
        <time>2019-09-05T12:39:27Z</time>
      </trkpt>
      <trkpt lat="47.37217" lon="-2.35491">
        <ele>53</ele>
        <time>2019-09-05T12:39:29Z</time>
      </trkpt>
      <trkpt lat="47.37221" lon="-2.35497">
        <ele>53</ele>
        <time>2019-09-05T12:39:30Z</time>
      </trkpt>
      <trkpt lat="47.37225" lon="-2.35504">
        <ele>53</ele>
        <time>2019-09-05T12:39:31Z</time>
      </trkpt>
      <trkpt lat="47.37229" lon="-2.35512">
        <ele>53</ele>
        <time>2019-09-05T12:39:32Z</time>
      </trkpt>
      <trkpt lat="47.37233" lon="-2.3552">
        <ele>53</ele>
        <time>2019-09-05T12:39:33Z</time>
      </trkpt>
      <trkpt lat="47.37238" lon="-2.35526">
        <ele>53</ele>
        <time>2019-09-05T12:39:34Z</time>
      </trkpt>
      <trkpt lat="47.37258" lon="-2.3555">
        <ele>66</ele>
        <time>2019-09-05T12:39:40Z</time>
      </trkpt>
      <trkpt lat="47.37263" lon="-2.35556">
        <ele>67</ele>
        <time>2019-09-05T12:39:41Z</time>
      </trkpt>
      <trkpt lat="47.37294" lon="-2.35601">
        <ele>65</ele>
        <time>2019-09-05T12:39:46Z</time>
      </trkpt>
      <trkpt lat="47.373" lon="-2.35607">
        <ele>64</ele>
        <time>2019-09-05T12:39:47Z</time>
      </trkpt>
      <trkpt lat="47.37306" lon="-2.3561">
        <ele>64</ele>
        <time>2019-09-05T12:39:48Z</time>
      </trkpt>
      <trkpt lat="47.37313" lon="-2.35614">
        <ele>63</ele>
        <time>2019-09-05T12:39:49Z</time>
      </trkpt>
      <trkpt lat="47.37327" lon="-2.35621">
        <ele>62</ele>
        <time>2019-09-05T12:39:51Z</time>
      </trkpt>
      <trkpt lat="47.37334" lon="-2.35624">
        <ele>62</ele>
        <time>2019-09-05T12:39:52Z</time>
      </trkpt>
      <trkpt lat="47.37341" lon="-2.35628">
        <ele>61</ele>
        <time>2019-09-05T12:39:53Z</time>
      </trkpt>
      <trkpt lat="47.37349" lon="-2.35631">
        <ele>60</ele>
        <time>2019-09-05T12:39:54Z</time>
      </trkpt>
      <trkpt lat="47.37357" lon="-2.35634">
        <ele>60</ele>
        <time>2019-09-05T12:39:55Z</time>
      </trkpt>
      <trkpt lat="47.37365" lon="-2.35636">
        <ele>60</ele>
        <time>2019-09-05T12:39:56Z</time>
      </trkpt>
      <trkpt lat="47.37371" lon="-2.35638">
        <ele>60</ele>
        <time>2019-09-05T12:39:57Z</time>
      </trkpt>
      <trkpt lat="47.37379" lon="-2.3564">
        <ele>60</ele>
        <time>2019-09-05T12:39:58Z</time>
      </trkpt>
      <trkpt lat="47.37385" lon="-2.35641">
        <ele>59</ele>
        <time>2019-09-05T12:39:59Z</time>
      </trkpt>
      <trkpt lat="47.37392" lon="-2.35643">
        <ele>59</ele>
        <time>2019-09-05T12:40:00Z</time>
      </trkpt>
      <trkpt lat="47.37398" lon="-2.35645">
        <ele>59</ele>
        <time>2019-09-05T12:40:01Z</time>
      </trkpt>
      <trkpt lat="47.37404" lon="-2.35647">
        <ele>58</ele>
        <time>2019-09-05T12:40:02Z</time>
      </trkpt>
      <trkpt lat="47.37415" lon="-2.35658">
        <ele>57</ele>
        <time>2019-09-05T12:40:04Z</time>
      </trkpt>
      <trkpt lat="47.37418" lon="-2.35666">
        <ele>57</ele>
        <time>2019-09-05T12:40:05Z</time>
      </trkpt>
      <trkpt lat="47.37419" lon="-2.35676">
        <ele>56</ele>
        <time>2019-09-05T12:40:06Z</time>
      </trkpt>
      <trkpt lat="47.37419" lon="-2.35685">
        <ele>55</ele>
        <time>2019-09-05T12:40:07Z</time>
      </trkpt>
      <trkpt lat="47.37419" lon="-2.35694">
        <ele>55</ele>
        <time>2019-09-05T12:40:08Z</time>
      </trkpt>
      <trkpt lat="47.3742" lon="-2.35711">
        <ele>55</ele>
        <time>2019-09-05T12:40:10Z</time>
      </trkpt>
      <trkpt lat="47.3742" lon="-2.35721">
        <ele>55</ele>
        <time>2019-09-05T12:40:11Z</time>
      </trkpt>
      <trkpt lat="47.37419" lon="-2.3573">
        <ele>55</ele>
        <time>2019-09-05T12:40:12Z</time>
      </trkpt>
      <trkpt lat="47.37418" lon="-2.35747">
        <ele>54</ele>
        <time>2019-09-05T12:40:14Z</time>
      </trkpt>
      <trkpt lat="47.37418" lon="-2.35788">
        <ele>54</ele>
        <time>2019-09-05T12:40:19Z</time>
      </trkpt>
      <trkpt lat="47.37416" lon="-2.35796">
        <ele>54</ele>
        <time>2019-09-05T12:40:20Z</time>
      </trkpt>
      <trkpt lat="47.37412" lon="-2.35803">
        <ele>54</ele>
        <time>2019-09-05T12:40:21Z</time>
      </trkpt>
      <trkpt lat="47.37407" lon="-2.35809">
        <ele>54</ele>
        <time>2019-09-05T12:40:22Z</time>
      </trkpt>
      <trkpt lat="47.37402" lon="-2.35814">
        <ele>54</ele>
        <time>2019-09-05T12:40:23Z</time>
      </trkpt>
      <trkpt lat="47.37396" lon="-2.35817">
        <ele>54</ele>
        <time>2019-09-05T12:40:24Z</time>
      </trkpt>
      <trkpt lat="47.37391" lon="-2.35821">
        <ele>55</ele>
        <time>2019-09-05T12:40:25Z</time>
      </trkpt>
      <trkpt lat="47.37379" lon="-2.35829">
        <ele>55</ele>
        <time>2019-09-05T12:40:27Z</time>
      </trkpt>
      <trkpt lat="47.37373" lon="-2.35832">
        <ele>55</ele>
        <time>2019-09-05T12:40:28Z</time>
      </trkpt>
      <trkpt lat="47.37369" lon="-2.35836">
        <ele>55</ele>
        <time>2019-09-05T12:40:29Z</time>
      </trkpt>
      <trkpt lat="47.37364" lon="-2.3584">
        <ele>55</ele>
        <time>2019-09-05T12:40:30Z</time>
      </trkpt>
      <trkpt lat="47.37341" lon="-2.35854">
        <ele>56</ele>
        <time>2019-09-05T12:40:34Z</time>
      </trkpt>
      <trkpt lat="47.37328" lon="-2.35862">
        <ele>57</ele>
        <time>2019-09-05T12:40:36Z</time>
      </trkpt>
      <trkpt lat="47.37323" lon="-2.35866">
        <ele>57</ele>
        <time>2019-09-05T12:40:37Z</time>
      </trkpt>
      <trkpt lat="47.37317" lon="-2.35871">
        <ele>57</ele>
        <time>2019-09-05T12:40:38Z</time>
      </trkpt>
      <trkpt lat="47.37302" lon="-2.35886">
        <ele>58</ele>
        <time>2019-09-05T12:40:41Z</time>
      </trkpt>
      <trkpt lat="47.37297" lon="-2.35892">
        <ele>58</ele>
        <time>2019-09-05T12:40:42Z</time>
      </trkpt>
      <trkpt lat="47.37293" lon="-2.359">
        <ele>58</ele>
        <time>2019-09-05T12:40:43Z</time>
      </trkpt>
      <trkpt lat="47.37289" lon="-2.35908">
        <ele>58</ele>
        <time>2019-09-05T12:40:44Z</time>
      </trkpt>
      <trkpt lat="47.3728" lon="-2.35927">
        <ele>58</ele>
        <time>2019-09-05T12:40:46Z</time>
      </trkpt>
      <trkpt lat="47.37274" lon="-2.35935">
        <ele>58</ele>
        <time>2019-09-05T12:40:47Z</time>
      </trkpt>
      <trkpt lat="47.3727" lon="-2.35944">
        <ele>57</ele>
        <time>2019-09-05T12:40:48Z</time>
      </trkpt>
      <trkpt lat="47.37266" lon="-2.35951">
        <ele>57</ele>
        <time>2019-09-05T12:40:49Z</time>
      </trkpt>
      <trkpt lat="47.37262" lon="-2.35959">
        <ele>57</ele>
        <time>2019-09-05T12:40:50Z</time>
      </trkpt>
      <trkpt lat="47.37245" lon="-2.36">
        <ele>57</ele>
        <time>2019-09-05T12:40:55Z</time>
      </trkpt>
      <trkpt lat="47.37241" lon="-2.36008">
        <ele>56</ele>
        <time>2019-09-05T12:40:56Z</time>
      </trkpt>
      <trkpt lat="47.37238" lon="-2.36017">
        <ele>55</ele>
        <time>2019-09-05T12:40:57Z</time>
      </trkpt>
      <trkpt lat="47.37235" lon="-2.36025">
        <ele>54</ele>
        <time>2019-09-05T12:40:58Z</time>
      </trkpt>
      <trkpt lat="47.37232" lon="-2.36032">
        <ele>54</ele>
        <time>2019-09-05T12:40:59Z</time>
      </trkpt>
      <trkpt lat="47.37228" lon="-2.36045">
        <ele>54</ele>
        <time>2019-09-05T12:41:01Z</time>
      </trkpt>
      <trkpt lat="47.37227" lon="-2.36058">
        <ele>53</ele>
        <time>2019-09-05T12:41:03Z</time>
      </trkpt>
      <trkpt lat="47.37229" lon="-2.36065">
        <ele>53</ele>
        <time>2019-09-05T12:41:04Z</time>
      </trkpt>
      <trkpt lat="47.37226" lon="-2.36077">
        <ele>53</ele>
        <time>2019-09-05T12:41:06Z</time>
      </trkpt>
      <trkpt lat="47.37222" lon="-2.36081">
        <ele>53</ele>
        <time>2019-09-05T12:41:08Z</time>
      </trkpt>
      <trkpt lat="47.37222" lon="-2.36081">
        <ele>4</ele>
        <time>2019-09-05T12:41:14Z</time>
      </trkpt>
      <trkpt lat="47.37222" lon="-2.36081">
        <ele>4</ele>
        <time>2019-09-05T12:42:46Z</time>
      </trkpt>
      <trkpt lat="47.37237" lon="-2.361">
        <ele>55</ele>
        <time>2019-09-05T12:42:46Z</time>
      </trkpt>
      <trkpt lat="47.37245" lon="-2.36109">
        <ele>53</ele>
        <time>2019-09-05T12:42:54Z</time>
      </trkpt>
      <trkpt lat="47.37245" lon="-2.36109">
        <ele>2.4</ele>
        <time>2019-09-05T12:43:00Z</time>
      </trkpt>
      <trkpt lat="47.37245" lon="-2.36109">
        <ele>2.4</ele>
        <time>2019-09-05T12:43:04Z</time>
      </trkpt>
      <trkpt lat="47.37251" lon="-2.36113">
        <ele>62</ele>
        <time>2019-09-05T12:43:04Z</time>
      </trkpt>
      <trkpt lat="47.37258" lon="-2.36114">
        <ele>53</ele>
        <time>2019-09-05T12:43:10Z</time>
      </trkpt>
      <trkpt lat="47.37262" lon="-2.36121">
        <ele>55</ele>
        <time>2019-09-05T12:43:17Z</time>
      </trkpt>
      <trkpt lat="47.37267" lon="-2.36124">
        <ele>57</ele>
        <time>2019-09-05T12:43:21Z</time>
      </trkpt>
      <trkpt lat="47.37278" lon="-2.36133">
        <ele>56</ele>
        <time>2019-09-05T12:43:25Z</time>
      </trkpt>
      <trkpt lat="47.37283" lon="-2.36133">
        <ele>55</ele>
        <time>2019-09-05T12:43:28Z</time>
      </trkpt>
      <trkpt lat="47.37289" lon="-2.36128">
        <ele>58</ele>
        <time>2019-09-05T12:43:32Z</time>
      </trkpt>
      <trkpt lat="47.37294" lon="-2.36126">
        <ele>61</ele>
        <time>2019-09-05T12:43:34Z</time>
      </trkpt>
      <trkpt lat="47.37297" lon="-2.36125">
        <ele>61</ele>
        <time>2019-09-05T12:43:35Z</time>
      </trkpt>
      <trkpt lat="47.37307" lon="-2.36122">
        <ele>61</ele>
        <time>2019-09-05T12:43:38Z</time>
      </trkpt>
      <trkpt lat="47.37314" lon="-2.36121">
        <ele>61</ele>
        <time>2019-09-05T12:43:40Z</time>
      </trkpt>
      <trkpt lat="47.37321" lon="-2.36123">
        <ele>61</ele>
        <time>2019-09-05T12:43:42Z</time>
      </trkpt>
      <trkpt lat="47.37325" lon="-2.36124">
        <ele>61</ele>
        <time>2019-09-05T12:43:43Z</time>
      </trkpt>
      <trkpt lat="47.3733" lon="-2.36125">
        <ele>61</ele>
        <time>2019-09-05T12:43:44Z</time>
      </trkpt>
      <trkpt lat="47.37335" lon="-2.36128">
        <ele>61</ele>
        <time>2019-09-05T12:43:45Z</time>
      </trkpt>
      <trkpt lat="47.37339" lon="-2.3613">
        <ele>60</ele>
        <time>2019-09-05T12:43:46Z</time>
      </trkpt>
      <trkpt lat="47.37356" lon="-2.36128">
        <ele>60</ele>
        <time>2019-09-05T12:43:49Z</time>
      </trkpt>
      <trkpt lat="47.37368" lon="-2.36121">
        <ele>59</ele>
        <time>2019-09-05T12:43:51Z</time>
      </trkpt>
      <trkpt lat="47.37373" lon="-2.36118">
        <ele>59</ele>
        <time>2019-09-05T12:43:52Z</time>
      </trkpt>
      <trkpt lat="47.37378" lon="-2.36115">
        <ele>59</ele>
        <time>2019-09-05T12:43:53Z</time>
      </trkpt>
      <trkpt lat="47.37383" lon="-2.36114">
        <ele>59</ele>
        <time>2019-09-05T12:43:54Z</time>
      </trkpt>
      <trkpt lat="47.37391" lon="-2.36122">
        <ele>58</ele>
        <time>2019-09-05T12:43:55Z</time>
      </trkpt>
      <trkpt lat="47.37395" lon="-2.36127">
        <ele>58</ele>
        <time>2019-09-05T12:43:57Z</time>
      </trkpt>
      <trkpt lat="47.37398" lon="-2.36131">
        <ele>58</ele>
        <time>2019-09-05T12:43:58Z</time>
      </trkpt>
      <trkpt lat="47.37402" lon="-2.36136">
        <ele>58</ele>
        <time>2019-09-05T12:43:59Z</time>
      </trkpt>
      <trkpt lat="47.37406" lon="-2.3614">
        <ele>58</ele>
        <time>2019-09-05T12:44:00Z</time>
      </trkpt>
      <trkpt lat="47.37414" lon="-2.36147">
        <ele>58</ele>
        <time>2019-09-05T12:44:02Z</time>
      </trkpt>
      <trkpt lat="47.37423" lon="-2.36146">
        <ele>57</ele>
        <time>2019-09-05T12:44:04Z</time>
      </trkpt>
      <trkpt lat="47.37443" lon="-2.36133">
        <ele>57</ele>
        <time>2019-09-05T12:44:08Z</time>
      </trkpt>
      <trkpt lat="47.37447" lon="-2.36128">
        <ele>57</ele>
        <time>2019-09-05T12:44:09Z</time>
      </trkpt>
      <trkpt lat="47.37451" lon="-2.36123">
        <ele>57</ele>
        <time>2019-09-05T12:44:10Z</time>
      </trkpt>
      <trkpt lat="47.37454" lon="-2.36119">
        <ele>57</ele>
        <time>2019-09-05T12:44:11Z</time>
      </trkpt>
      <trkpt lat="47.37459" lon="-2.36116">
        <ele>58</ele>
        <time>2019-09-05T12:44:12Z</time>
      </trkpt>
      <trkpt lat="47.37463" lon="-2.36114">
        <ele>58</ele>
        <time>2019-09-05T12:44:13Z</time>
      </trkpt>
      <trkpt lat="47.37467" lon="-2.36111">
        <ele>57</ele>
        <time>2019-09-05T12:44:14Z</time>
      </trkpt>
      <trkpt lat="47.37471" lon="-2.36109">
        <ele>57</ele>
        <time>2019-09-05T12:44:15Z</time>
      </trkpt>
      <trkpt lat="47.37475" lon="-2.36105">
        <ele>57</ele>
        <time>2019-09-05T12:44:16Z</time>
      </trkpt>
      <trkpt lat="47.37482" lon="-2.36101">
        <ele>57</ele>
        <time>2019-09-05T12:44:18Z</time>
      </trkpt>
      <trkpt lat="47.37485" lon="-2.36099">
        <ele>57</ele>
        <time>2019-09-05T12:44:19Z</time>
      </trkpt>
      <trkpt lat="47.37489" lon="-2.36097">
        <ele>57</ele>
        <time>2019-09-05T12:44:20Z</time>
      </trkpt>
      <trkpt lat="47.37497" lon="-2.36091">
        <ele>57</ele>
        <time>2019-09-05T12:44:22Z</time>
      </trkpt>
      <trkpt lat="47.37505" lon="-2.36087">
        <ele>57</ele>
        <time>2019-09-05T12:44:24Z</time>
      </trkpt>
      <trkpt lat="47.3751" lon="-2.36085">
        <ele>57</ele>
        <time>2019-09-05T12:44:25Z</time>
      </trkpt>
      <trkpt lat="47.37514" lon="-2.36083">
        <ele>57</ele>
        <time>2019-09-05T12:44:26Z</time>
      </trkpt>
      <trkpt lat="47.37524" lon="-2.36079">
        <ele>57</ele>
        <time>2019-09-05T12:44:28Z</time>
      </trkpt>
      <trkpt lat="47.37529" lon="-2.36077">
        <ele>57</ele>
        <time>2019-09-05T12:44:29Z</time>
      </trkpt>
      <trkpt lat="47.37533" lon="-2.36075">
        <ele>57</ele>
        <time>2019-09-05T12:44:30Z</time>
      </trkpt>
      <trkpt lat="47.37537" lon="-2.36073">
        <ele>57</ele>
        <time>2019-09-05T12:44:31Z</time>
      </trkpt>
      <trkpt lat="47.37542" lon="-2.36071">
        <ele>57</ele>
        <time>2019-09-05T12:44:32Z</time>
      </trkpt>
      <trkpt lat="47.37552" lon="-2.36068">
        <ele>56</ele>
        <time>2019-09-05T12:44:34Z</time>
      </trkpt>
      <trkpt lat="47.37557" lon="-2.36066">
        <ele>57</ele>
        <time>2019-09-05T12:44:35Z</time>
      </trkpt>
      <trkpt lat="47.37561" lon="-2.36065">
        <ele>57</ele>
        <time>2019-09-05T12:44:36Z</time>
      </trkpt>
      <trkpt lat="47.37566" lon="-2.36062">
        <ele>57</ele>
        <time>2019-09-05T12:44:37Z</time>
      </trkpt>
      <trkpt lat="47.37571" lon="-2.36061">
        <ele>57</ele>
        <time>2019-09-05T12:44:38Z</time>
      </trkpt>
      <trkpt lat="47.37575" lon="-2.36059">
        <ele>58</ele>
        <time>2019-09-05T12:44:39Z</time>
      </trkpt>
      <trkpt lat="47.3758" lon="-2.36058">
        <ele>58</ele>
        <time>2019-09-05T12:44:40Z</time>
      </trkpt>
      <trkpt lat="47.37584" lon="-2.36057">
        <ele>58</ele>
        <time>2019-09-05T12:44:41Z</time>
      </trkpt>
      <trkpt lat="47.37592" lon="-2.36054">
        <ele>58</ele>
        <time>2019-09-05T12:44:43Z</time>
      </trkpt>
      <trkpt lat="47.37599" lon="-2.36053">
        <ele>57</ele>
        <time>2019-09-05T12:44:45Z</time>
      </trkpt>
      <trkpt lat="47.37603" lon="-2.36052">
        <ele>57</ele>
        <time>2019-09-05T12:44:46Z</time>
      </trkpt>
      <trkpt lat="47.37607" lon="-2.36052">
        <ele>58</ele>
        <time>2019-09-05T12:44:47Z</time>
      </trkpt>
      <trkpt lat="47.37611" lon="-2.36051">
        <ele>58</ele>
        <time>2019-09-05T12:44:48Z</time>
      </trkpt>
      <trkpt lat="47.3762" lon="-2.3605">
        <ele>57</ele>
        <time>2019-09-05T12:44:50Z</time>
      </trkpt>
      <trkpt lat="47.37624" lon="-2.36049">
        <ele>57</ele>
        <time>2019-09-05T12:44:51Z</time>
      </trkpt>
      <trkpt lat="47.37632" lon="-2.36045">
        <ele>57</ele>
        <time>2019-09-05T12:44:53Z</time>
      </trkpt>
      <trkpt lat="47.37638" lon="-2.36036">
        <ele>57</ele>
        <time>2019-09-05T12:44:55Z</time>
      </trkpt>
      <trkpt lat="47.3764" lon="-2.36026">
        <ele>56</ele>
        <time>2019-09-05T12:44:57Z</time>
      </trkpt>
      <trkpt lat="47.37642" lon="-2.36011">
        <ele>57</ele>
        <time>2019-09-05T12:45:00Z</time>
      </trkpt>
      <trkpt lat="47.37652" lon="-2.3601">
        <ele>57</ele>
        <time>2019-09-05T12:45:03Z</time>
      </trkpt>
      <trkpt lat="47.37664" lon="-2.36014">
        <ele>58</ele>
        <time>2019-09-05T12:45:06Z</time>
      </trkpt>
      <trkpt lat="47.37673" lon="-2.36016">
        <ele>58</ele>
        <time>2019-09-05T12:45:08Z</time>
      </trkpt>
      <trkpt lat="47.37677" lon="-2.36018">
        <ele>58</ele>
        <time>2019-09-05T12:45:09Z</time>
      </trkpt>
      <trkpt lat="47.37691" lon="-2.36023">
        <ele>58</ele>
        <time>2019-09-05T12:45:12Z</time>
      </trkpt>
      <trkpt lat="47.37695" lon="-2.36024">
        <ele>58</ele>
        <time>2019-09-05T12:45:13Z</time>
      </trkpt>
      <trkpt lat="47.37704" lon="-2.36029">
        <ele>58</ele>
        <time>2019-09-05T12:45:15Z</time>
      </trkpt>
      <trkpt lat="47.37709" lon="-2.36032">
        <ele>59</ele>
        <time>2019-09-05T12:45:16Z</time>
      </trkpt>
      <trkpt lat="47.37723" lon="-2.36042">
        <ele>59</ele>
        <time>2019-09-05T12:45:19Z</time>
      </trkpt>
      <trkpt lat="47.37729" lon="-2.36045">
        <ele>59</ele>
        <time>2019-09-05T12:45:20Z</time>
      </trkpt>
      <trkpt lat="47.37733" lon="-2.36048">
        <ele>59</ele>
        <time>2019-09-05T12:45:21Z</time>
      </trkpt>
      <trkpt lat="47.37738" lon="-2.3605">
        <ele>59</ele>
        <time>2019-09-05T12:45:22Z</time>
      </trkpt>
      <trkpt lat="47.37743" lon="-2.36053">
        <ele>59</ele>
        <time>2019-09-05T12:45:23Z</time>
      </trkpt>
      <trkpt lat="47.37747" lon="-2.36056">
        <ele>59</ele>
        <time>2019-09-05T12:45:24Z</time>
      </trkpt>
      <trkpt lat="47.37757" lon="-2.36062">
        <ele>59</ele>
        <time>2019-09-05T12:45:26Z</time>
      </trkpt>
      <trkpt lat="47.37762" lon="-2.36064">
        <ele>59</ele>
        <time>2019-09-05T12:45:27Z</time>
      </trkpt>
      <trkpt lat="47.37767" lon="-2.36066">
        <ele>59</ele>
        <time>2019-09-05T12:45:28Z</time>
      </trkpt>
      <trkpt lat="47.37772" lon="-2.3607">
        <ele>59</ele>
        <time>2019-09-05T12:45:29Z</time>
      </trkpt>
      <trkpt lat="47.37777" lon="-2.36073">
        <ele>59</ele>
        <time>2019-09-05T12:45:30Z</time>
      </trkpt>
      <trkpt lat="47.37782" lon="-2.36076">
        <ele>59</ele>
        <time>2019-09-05T12:45:31Z</time>
      </trkpt>
      <trkpt lat="47.37787" lon="-2.36079">
        <ele>59</ele>
        <time>2019-09-05T12:45:32Z</time>
      </trkpt>
      <trkpt lat="47.37806" lon="-2.36089">
        <ele>60</ele>
        <time>2019-09-05T12:45:36Z</time>
      </trkpt>
      <trkpt lat="47.37811" lon="-2.36093">
        <ele>60</ele>
        <time>2019-09-05T12:45:37Z</time>
      </trkpt>
      <trkpt lat="47.37825" lon="-2.36099">
        <ele>60</ele>
        <time>2019-09-05T12:45:40Z</time>
      </trkpt>
      <trkpt lat="47.3783" lon="-2.36101">
        <ele>60</ele>
        <time>2019-09-05T12:45:41Z</time>
      </trkpt>
      <trkpt lat="47.37834" lon="-2.36103">
        <ele>60</ele>
        <time>2019-09-05T12:45:42Z</time>
      </trkpt>
      <trkpt lat="47.37838" lon="-2.36106">
        <ele>60</ele>
        <time>2019-09-05T12:45:43Z</time>
      </trkpt>
      <trkpt lat="47.37842" lon="-2.36108">
        <ele>60</ele>
        <time>2019-09-05T12:45:44Z</time>
      </trkpt>
      <trkpt lat="47.37846" lon="-2.36109">
        <ele>60</ele>
        <time>2019-09-05T12:45:45Z</time>
      </trkpt>
      <trkpt lat="47.3785" lon="-2.36111">
        <ele>60</ele>
        <time>2019-09-05T12:45:46Z</time>
      </trkpt>
      <trkpt lat="47.37853" lon="-2.36114">
        <ele>60</ele>
        <time>2019-09-05T12:45:47Z</time>
      </trkpt>
      <trkpt lat="47.37864" lon="-2.36119">
        <ele>60</ele>
        <time>2019-09-05T12:45:50Z</time>
      </trkpt>
      <trkpt lat="47.37869" lon="-2.36121">
        <ele>60</ele>
        <time>2019-09-05T12:45:52Z</time>
      </trkpt>
      <trkpt lat="47.37875" lon="-2.36125">
        <ele>60</ele>
        <time>2019-09-05T12:45:55Z</time>
      </trkpt>
      <trkpt lat="47.37881" lon="-2.3613">
        <ele>61</ele>
        <time>2019-09-05T12:45:58Z</time>
      </trkpt>
      <trkpt lat="47.37887" lon="-2.36132">
        <ele>61</ele>
        <time>2019-09-05T12:46:02Z</time>
      </trkpt>
      <trkpt lat="47.37893" lon="-2.36131">
        <ele>62</ele>
        <time>2019-09-05T12:46:06Z</time>
      </trkpt>
      <trkpt lat="47.37898" lon="-2.36127">
        <ele>62</ele>
        <time>2019-09-05T12:46:09Z</time>
      </trkpt>
      <trkpt lat="47.37901" lon="-2.36125">
        <ele>62</ele>
        <time>2019-09-05T12:46:11Z</time>
      </trkpt>
      <trkpt lat="47.37906" lon="-2.36124">
        <ele>62</ele>
        <time>2019-09-05T12:46:13Z</time>
      </trkpt>
      <trkpt lat="47.37913" lon="-2.36121">
        <ele>62</ele>
        <time>2019-09-05T12:46:16Z</time>
      </trkpt>
      <trkpt lat="47.37915" lon="-2.3612">
        <ele>62</ele>
        <time>2019-09-05T12:46:17Z</time>
      </trkpt>
      <trkpt lat="47.37919" lon="-2.36116">
        <ele>63</ele>
        <time>2019-09-05T12:46:19Z</time>
      </trkpt>
      <trkpt lat="47.37924" lon="-2.36115">
        <ele>64</ele>
        <time>2019-09-05T12:46:22Z</time>
      </trkpt>
      <trkpt lat="47.37929" lon="-2.36111">
        <ele>65</ele>
        <time>2019-09-05T12:46:25Z</time>
      </trkpt>
      <trkpt lat="47.37935" lon="-2.36108">
        <ele>64</ele>
        <time>2019-09-05T12:46:28Z</time>
      </trkpt>
      <trkpt lat="47.37941" lon="-2.36104">
        <ele>64</ele>
        <time>2019-09-05T12:46:32Z</time>
      </trkpt>
      <trkpt lat="47.37946" lon="-2.36101">
        <ele>66</ele>
        <time>2019-09-05T12:46:35Z</time>
      </trkpt>
      <trkpt lat="47.37957" lon="-2.36099">
        <ele>66</ele>
        <time>2019-09-05T12:46:38Z</time>
      </trkpt>
      <trkpt lat="47.37964" lon="-2.36095">
        <ele>66</ele>
        <time>2019-09-05T12:46:40Z</time>
      </trkpt>
      <trkpt lat="47.37973" lon="-2.36091">
        <ele>76</ele>
        <time>2019-09-05T12:46:44Z</time>
      </trkpt>
      <trkpt lat="47.37982" lon="-2.36083">
        <ele>73</ele>
        <time>2019-09-05T12:46:47Z</time>
      </trkpt>
      <trkpt lat="47.37989" lon="-2.36079">
        <ele>72</ele>
        <time>2019-09-05T12:46:49Z</time>
      </trkpt>
      <trkpt lat="47.37995" lon="-2.36076">
        <ele>72</ele>
        <time>2019-09-05T12:46:51Z</time>
      </trkpt>
      <trkpt lat="47.37998" lon="-2.36075">
        <ele>71</ele>
        <time>2019-09-05T12:46:52Z</time>
      </trkpt>
      <trkpt lat="47.38005" lon="-2.36071">
        <ele>70</ele>
        <time>2019-09-05T12:46:55Z</time>
      </trkpt>
      <trkpt lat="47.38011" lon="-2.36069">
        <ele>70</ele>
        <time>2019-09-05T12:46:57Z</time>
      </trkpt>
      <trkpt lat="47.38013" lon="-2.36068">
        <ele>69</ele>
        <time>2019-09-05T12:46:58Z</time>
      </trkpt>
      <trkpt lat="47.38016" lon="-2.36067">
        <ele>69</ele>
        <time>2019-09-05T12:46:59Z</time>
      </trkpt>
      <trkpt lat="47.38019" lon="-2.36066">
        <ele>69</ele>
        <time>2019-09-05T12:47:00Z</time>
      </trkpt>
      <trkpt lat="47.38022" lon="-2.36065">
        <ele>69</ele>
        <time>2019-09-05T12:47:01Z</time>
      </trkpt>
      <trkpt lat="47.38025" lon="-2.36064">
        <ele>69</ele>
        <time>2019-09-05T12:47:02Z</time>
      </trkpt>
      <trkpt lat="47.38028" lon="-2.36063">
        <ele>69</ele>
        <time>2019-09-05T12:47:03Z</time>
      </trkpt>
      <trkpt lat="47.3803" lon="-2.36062">
        <ele>69</ele>
        <time>2019-09-05T12:47:04Z</time>
      </trkpt>
      <trkpt lat="47.3806" lon="-2.36053">
        <ele>56</ele>
        <time>2019-09-05T12:47:16Z</time>
      </trkpt>
      <trkpt lat="47.38067" lon="-2.3605">
        <ele>52</ele>
        <time>2019-09-05T12:47:19Z</time>
      </trkpt>
      <trkpt lat="47.38075" lon="-2.3605">
        <ele>54</ele>
        <time>2019-09-05T12:47:21Z</time>
      </trkpt>
      <trkpt lat="47.38081" lon="-2.36048">
        <ele>55</ele>
        <time>2019-09-05T12:47:23Z</time>
      </trkpt>
      <trkpt lat="47.38089" lon="-2.36044">
        <ele>51</ele>
        <time>2019-09-05T12:47:25Z</time>
      </trkpt>
      <trkpt lat="47.381" lon="-2.36042">
        <ele>51</ele>
        <time>2019-09-05T12:47:28Z</time>
      </trkpt>
      <trkpt lat="47.38103" lon="-2.36041">
        <ele>53</ele>
        <time>2019-09-05T12:47:29Z</time>
      </trkpt>
      <trkpt lat="47.38106" lon="-2.36041">
        <ele>53</ele>
        <time>2019-09-05T12:47:30Z</time>
      </trkpt>
      <trkpt lat="47.38116" lon="-2.36039">
        <ele>54</ele>
        <time>2019-09-05T12:47:33Z</time>
      </trkpt>
      <trkpt lat="47.38126" lon="-2.36035">
        <ele>55</ele>
        <time>2019-09-05T12:47:36Z</time>
      </trkpt>
      <trkpt lat="47.3813" lon="-2.36033">
        <ele>55</ele>
        <time>2019-09-05T12:47:37Z</time>
      </trkpt>
      <trkpt lat="47.38134" lon="-2.36032">
        <ele>55</ele>
        <time>2019-09-05T12:47:38Z</time>
      </trkpt>
      <trkpt lat="47.3814" lon="-2.36027">
        <ele>54</ele>
        <time>2019-09-05T12:47:40Z</time>
      </trkpt>
      <trkpt lat="47.38146" lon="-2.36022">
        <ele>54</ele>
        <time>2019-09-05T12:47:42Z</time>
      </trkpt>
      <trkpt lat="47.38149" lon="-2.36019">
        <ele>54</ele>
        <time>2019-09-05T12:47:43Z</time>
      </trkpt>
      <trkpt lat="47.38152" lon="-2.36016">
        <ele>54</ele>
        <time>2019-09-05T12:47:44Z</time>
      </trkpt>
      <trkpt lat="47.38162" lon="-2.36009">
        <ele>54</ele>
        <time>2019-09-05T12:47:47Z</time>
      </trkpt>
      <trkpt lat="47.38166" lon="-2.36007">
        <ele>53</ele>
        <time>2019-09-05T12:47:48Z</time>
      </trkpt>
      <trkpt lat="47.38176" lon="-2.35999">
        <ele>53</ele>
        <time>2019-09-05T12:47:51Z</time>
      </trkpt>
      <trkpt lat="47.38179" lon="-2.35996">
        <ele>53</ele>
        <time>2019-09-05T12:47:52Z</time>
      </trkpt>
      <trkpt lat="47.38189" lon="-2.35987">
        <ele>54</ele>
        <time>2019-09-05T12:47:55Z</time>
      </trkpt>
      <trkpt lat="47.38193" lon="-2.35984">
        <ele>54</ele>
        <time>2019-09-05T12:47:56Z</time>
      </trkpt>
      <trkpt lat="47.382" lon="-2.35979">
        <ele>55</ele>
        <time>2019-09-05T12:47:58Z</time>
      </trkpt>
      <trkpt lat="47.38208" lon="-2.3597">
        <ele>55</ele>
        <time>2019-09-05T12:48:01Z</time>
      </trkpt>
      <trkpt lat="47.38216" lon="-2.35968">
        <ele>55</ele>
        <time>2019-09-05T12:48:03Z</time>
      </trkpt>
      <trkpt lat="47.3822" lon="-2.35967">
        <ele>55</ele>
        <time>2019-09-05T12:48:04Z</time>
      </trkpt>
      <trkpt lat="47.38225" lon="-2.35963">
        <ele>55</ele>
        <time>2019-09-05T12:48:06Z</time>
      </trkpt>
      <trkpt lat="47.38229" lon="-2.35961">
        <ele>54</ele>
        <time>2019-09-05T12:48:07Z</time>
      </trkpt>
      <trkpt lat="47.38232" lon="-2.35959">
        <ele>54</ele>
        <time>2019-09-05T12:48:08Z</time>
      </trkpt>
      <trkpt lat="47.38235" lon="-2.35957">
        <ele>54</ele>
        <time>2019-09-05T12:48:09Z</time>
      </trkpt>
      <trkpt lat="47.38239" lon="-2.35954">
        <ele>54</ele>
        <time>2019-09-05T12:48:10Z</time>
      </trkpt>
      <trkpt lat="47.38254" lon="-2.35944">
        <ele>54</ele>
        <time>2019-09-05T12:48:14Z</time>
      </trkpt>
      <trkpt lat="47.38258" lon="-2.35942">
        <ele>54</ele>
        <time>2019-09-05T12:48:15Z</time>
      </trkpt>
      <trkpt lat="47.38262" lon="-2.3594">
        <ele>54</ele>
        <time>2019-09-05T12:48:16Z</time>
      </trkpt>
      <trkpt lat="47.38266" lon="-2.35937">
        <ele>54</ele>
        <time>2019-09-05T12:48:17Z</time>
      </trkpt>
      <trkpt lat="47.38271" lon="-2.35934">
        <ele>54</ele>
        <time>2019-09-05T12:48:18Z</time>
      </trkpt>
      <trkpt lat="47.38275" lon="-2.35931">
        <ele>54</ele>
        <time>2019-09-05T12:48:19Z</time>
      </trkpt>
      <trkpt lat="47.38281" lon="-2.35926">
        <ele>53</ele>
        <time>2019-09-05T12:48:21Z</time>
      </trkpt>
      <trkpt lat="47.38287" lon="-2.35924">
        <ele>53</ele>
        <time>2019-09-05T12:48:23Z</time>
      </trkpt>
      <trkpt lat="47.38291" lon="-2.35928">
        <ele>54</ele>
        <time>2019-09-05T12:48:27Z</time>
      </trkpt>
      <trkpt lat="47.38293" lon="-2.35935">
        <ele>53</ele>
        <time>2019-09-05T12:48:31Z</time>
      </trkpt>
      <trkpt lat="47.38294" lon="-2.35938">
        <ele>53</ele>
        <time>2019-09-05T12:48:32Z</time>
      </trkpt>
      <trkpt lat="47.38298" lon="-2.35953">
        <ele>54</ele>
        <time>2019-09-05T12:48:35Z</time>
      </trkpt>
      <trkpt lat="47.38299" lon="-2.35959">
        <ele>54</ele>
        <time>2019-09-05T12:48:36Z</time>
      </trkpt>
      <trkpt lat="47.38302" lon="-2.35977">
        <ele>54</ele>
        <time>2019-09-05T12:48:39Z</time>
      </trkpt>
      <trkpt lat="47.38303" lon="-2.35983">
        <ele>54</ele>
        <time>2019-09-05T12:48:40Z</time>
      </trkpt>
      <trkpt lat="47.38306" lon="-2.35994">
        <ele>54</ele>
        <time>2019-09-05T12:48:42Z</time>
      </trkpt>
      <trkpt lat="47.38308" lon="-2.36007">
        <ele>54</ele>
        <time>2019-09-05T12:48:44Z</time>
      </trkpt>
      <trkpt lat="47.38311" lon="-2.3602">
        <ele>53</ele>
        <time>2019-09-05T12:48:46Z</time>
      </trkpt>
      <trkpt lat="47.38312" lon="-2.36027">
        <ele>54</ele>
        <time>2019-09-05T12:48:47Z</time>
      </trkpt>
      <trkpt lat="47.38313" lon="-2.36035">
        <ele>54</ele>
        <time>2019-09-05T12:48:48Z</time>
      </trkpt>
      <trkpt lat="47.38314" lon="-2.36042">
        <ele>53</ele>
        <time>2019-09-05T12:48:49Z</time>
      </trkpt>
      <trkpt lat="47.38316" lon="-2.36049">
        <ele>53</ele>
        <time>2019-09-05T12:48:50Z</time>
      </trkpt>
      <trkpt lat="47.38322" lon="-2.36063">
        <ele>53</ele>
        <time>2019-09-05T12:48:52Z</time>
      </trkpt>
      <trkpt lat="47.38325" lon="-2.36071">
        <ele>53</ele>
        <time>2019-09-05T12:48:53Z</time>
      </trkpt>
      <trkpt lat="47.38328" lon="-2.36079">
        <ele>54</ele>
        <time>2019-09-05T12:48:54Z</time>
      </trkpt>
      <trkpt lat="47.3833" lon="-2.36086">
        <ele>54</ele>
        <time>2019-09-05T12:48:55Z</time>
      </trkpt>
      <trkpt lat="47.38333" lon="-2.36093">
        <ele>54</ele>
        <time>2019-09-05T12:48:56Z</time>
      </trkpt>
      <trkpt lat="47.38341" lon="-2.36117">
        <ele>54</ele>
        <time>2019-09-05T12:48:59Z</time>
      </trkpt>
      <trkpt lat="47.38344" lon="-2.36125">
        <ele>54</ele>
        <time>2019-09-05T12:49:00Z</time>
      </trkpt>
      <trkpt lat="47.38351" lon="-2.36145">
        <ele>55</ele>
        <time>2019-09-05T12:49:03Z</time>
      </trkpt>
      <trkpt lat="47.38353" lon="-2.36151">
        <ele>55</ele>
        <time>2019-09-05T12:49:04Z</time>
      </trkpt>
      <trkpt lat="47.38356" lon="-2.36158">
        <ele>55</ele>
        <time>2019-09-05T12:49:05Z</time>
      </trkpt>
      <trkpt lat="47.38358" lon="-2.36164">
        <ele>55</ele>
        <time>2019-09-05T12:49:06Z</time>
      </trkpt>
      <trkpt lat="47.3836" lon="-2.3617">
        <ele>55</ele>
        <time>2019-09-05T12:49:07Z</time>
      </trkpt>
      <trkpt lat="47.38364" lon="-2.36175">
        <ele>55</ele>
        <time>2019-09-05T12:49:08Z</time>
      </trkpt>
      <trkpt lat="47.38375" lon="-2.36183">
        <ele>56</ele>
        <time>2019-09-05T12:49:11Z</time>
      </trkpt>
      <trkpt lat="47.38392" lon="-2.36192">
        <ele>56</ele>
        <time>2019-09-05T12:49:14Z</time>
      </trkpt>
      <trkpt lat="47.38397" lon="-2.36196">
        <ele>57</ele>
        <time>2019-09-05T12:49:15Z</time>
      </trkpt>
      <trkpt lat="47.38403" lon="-2.36199">
        <ele>58</ele>
        <time>2019-09-05T12:49:16Z</time>
      </trkpt>
      <trkpt lat="47.38408" lon="-2.36201">
        <ele>58</ele>
        <time>2019-09-05T12:49:17Z</time>
      </trkpt>
      <trkpt lat="47.38413" lon="-2.36203">
        <ele>58</ele>
        <time>2019-09-05T12:49:18Z</time>
      </trkpt>
      <trkpt lat="47.38418" lon="-2.36204">
        <ele>60</ele>
        <time>2019-09-05T12:49:20Z</time>
      </trkpt>
      <trkpt lat="47.38416" lon="-2.36078">
        <ele>120</ele>
        <time>2019-09-05T12:49:30Z</time>
      </trkpt>
      <trkpt lat="47.38444" lon="-2.36216">
        <ele>148</ele>
        <time>2019-09-05T12:49:39Z</time>
      </trkpt>
      <trkpt lat="47.38449" lon="-2.36222">
        <ele>157</ele>
        <time>2019-09-05T12:49:42Z</time>
      </trkpt>
      <trkpt lat="47.38456" lon="-2.36229">
        <ele>155</ele>
        <time>2019-09-05T12:49:44Z</time>
      </trkpt>
      <trkpt lat="47.38461" lon="-2.36232">
        <ele>154</ele>
        <time>2019-09-05T12:49:45Z</time>
      </trkpt>
      <trkpt lat="47.38471" lon="-2.36237">
        <ele>149</ele>
        <time>2019-09-05T12:49:47Z</time>
      </trkpt>
      <trkpt lat="47.38476" lon="-2.36241">
        <ele>147</ele>
        <time>2019-09-05T12:49:48Z</time>
      </trkpt>
      <trkpt lat="47.38481" lon="-2.36242">
        <ele>145</ele>
        <time>2019-09-05T12:49:49Z</time>
      </trkpt>
      <trkpt lat="47.38546" lon="-2.36266">
        <ele>64</ele>
        <time>2019-09-05T12:49:55Z</time>
      </trkpt>
      <trkpt lat="47.38551" lon="-2.36261">
        <ele>65</ele>
        <time>2019-09-05T12:49:56Z</time>
      </trkpt>
      <trkpt lat="47.38556" lon="-2.36251">
        <ele>71</ele>
        <time>2019-09-05T12:49:58Z</time>
      </trkpt>
      <trkpt lat="47.38561" lon="-2.36241">
        <ele>84</ele>
        <time>2019-09-05T12:49:59Z</time>
      </trkpt>
      <trkpt lat="47.38567" lon="-2.36242">
        <ele>97</ele>
        <time>2019-09-05T12:50:02Z</time>
      </trkpt>
      <trkpt lat="47.38578" lon="-2.36243">
        <ele>115</ele>
        <time>2019-09-05T12:50:05Z</time>
      </trkpt>
      <trkpt lat="47.38586" lon="-2.36251">
        <ele>119</ele>
        <time>2019-09-05T12:50:07Z</time>
      </trkpt>
      <trkpt lat="47.38589" lon="-2.36255">
        <ele>120</ele>
        <time>2019-09-05T12:50:08Z</time>
      </trkpt>
      <trkpt lat="47.38594" lon="-2.36262">
        <ele>119</ele>
        <time>2019-09-05T12:50:09Z</time>
      </trkpt>
      <trkpt lat="47.38597" lon="-2.3627">
        <ele>117</ele>
        <time>2019-09-05T12:50:10Z</time>
      </trkpt>
      <trkpt lat="47.38603" lon="-2.36281">
        <ele>106</ele>
        <time>2019-09-05T12:50:11Z</time>
      </trkpt>
      <trkpt lat="47.38612" lon="-2.3631">
        <ele>79</ele>
        <time>2019-09-05T12:50:13Z</time>
      </trkpt>
      <trkpt lat="47.38613" lon="-2.3632">
        <ele>71</ele>
        <time>2019-09-05T12:50:14Z</time>
      </trkpt>
      <trkpt lat="47.38612" lon="-2.36338">
        <ele>62</ele>
        <time>2019-09-05T12:50:16Z</time>
      </trkpt>
      <trkpt lat="47.3861" lon="-2.36346">
        <ele>57</ele>
        <time>2019-09-05T12:50:17Z</time>
      </trkpt>
      <trkpt lat="47.38607" lon="-2.36355">
        <ele>55</ele>
        <time>2019-09-05T12:50:18Z</time>
      </trkpt>
      <trkpt lat="47.38605" lon="-2.36363">
        <ele>53</ele>
        <time>2019-09-05T12:50:19Z</time>
      </trkpt>
      <trkpt lat="47.38602" lon="-2.36371">
        <ele>51</ele>
        <time>2019-09-05T12:50:20Z</time>
      </trkpt>
      <trkpt lat="47.38599" lon="-2.36379">
        <ele>51</ele>
        <time>2019-09-05T12:50:21Z</time>
      </trkpt>
      <trkpt lat="47.38595" lon="-2.36387">
        <ele>48</ele>
        <time>2019-09-05T12:50:22Z</time>
      </trkpt>
      <trkpt lat="47.38592" lon="-2.36394">
        <ele>48</ele>
        <time>2019-09-05T12:50:23Z</time>
      </trkpt>
      <trkpt lat="47.38583" lon="-2.36412">
        <ele>50</ele>
        <time>2019-09-05T12:50:26Z</time>
      </trkpt>
      <trkpt lat="47.38581" lon="-2.36419">
        <ele>51</ele>
        <time>2019-09-05T12:50:27Z</time>
      </trkpt>
      <trkpt lat="47.38579" lon="-2.36425">
        <ele>52</ele>
        <time>2019-09-05T12:50:28Z</time>
      </trkpt>
      <trkpt lat="47.38574" lon="-2.36438">
        <ele>53</ele>
        <time>2019-09-05T12:50:30Z</time>
      </trkpt>
      <trkpt lat="47.38571" lon="-2.36446">
        <ele>53</ele>
        <time>2019-09-05T12:50:31Z</time>
      </trkpt>
      <trkpt lat="47.38568" lon="-2.36454">
        <ele>53</ele>
        <time>2019-09-05T12:50:32Z</time>
      </trkpt>
      <trkpt lat="47.38566" lon="-2.36461">
        <ele>54</ele>
        <time>2019-09-05T12:50:33Z</time>
      </trkpt>
      <trkpt lat="47.38561" lon="-2.36475">
        <ele>55</ele>
        <time>2019-09-05T12:50:35Z</time>
      </trkpt>
      <trkpt lat="47.38557" lon="-2.36482">
        <ele>56</ele>
        <time>2019-09-05T12:50:36Z</time>
      </trkpt>
      <trkpt lat="47.38554" lon="-2.36488">
        <ele>57</ele>
        <time>2019-09-05T12:50:37Z</time>
      </trkpt>
      <trkpt lat="47.3855" lon="-2.36495">
        <ele>56</ele>
        <time>2019-09-05T12:50:38Z</time>
      </trkpt>
      <trkpt lat="47.38546" lon="-2.36502">
        <ele>56</ele>
        <time>2019-09-05T12:50:39Z</time>
      </trkpt>
      <trkpt lat="47.38542" lon="-2.36508">
        <ele>57</ele>
        <time>2019-09-05T12:50:40Z</time>
      </trkpt>
      <trkpt lat="47.38537" lon="-2.36514">
        <ele>57</ele>
        <time>2019-09-05T12:50:41Z</time>
      </trkpt>
      <trkpt lat="47.38532" lon="-2.3652">
        <ele>57</ele>
        <time>2019-09-05T12:50:42Z</time>
      </trkpt>
      <trkpt lat="47.38527" lon="-2.36526">
        <ele>57</ele>
        <time>2019-09-05T12:50:43Z</time>
      </trkpt>
      <trkpt lat="47.38523" lon="-2.36531">
        <ele>57</ele>
        <time>2019-09-05T12:50:44Z</time>
      </trkpt>
      <trkpt lat="47.38518" lon="-2.36536">
        <ele>56</ele>
        <time>2019-09-05T12:50:45Z</time>
      </trkpt>
      <trkpt lat="47.38504" lon="-2.36554">
        <ele>56</ele>
        <time>2019-09-05T12:50:48Z</time>
      </trkpt>
      <trkpt lat="47.38499" lon="-2.36558">
        <ele>55</ele>
        <time>2019-09-05T12:50:49Z</time>
      </trkpt>
      <trkpt lat="47.38488" lon="-2.36566">
        <ele>55</ele>
        <time>2019-09-05T12:50:51Z</time>
      </trkpt>
      <trkpt lat="47.38483" lon="-2.36569">
        <ele>56</ele>
        <time>2019-09-05T12:50:52Z</time>
      </trkpt>
      <trkpt lat="47.38472" lon="-2.36574">
        <ele>56</ele>
        <time>2019-09-05T12:50:54Z</time>
      </trkpt>
      <trkpt lat="47.38467" lon="-2.36576">
        <ele>57</ele>
        <time>2019-09-05T12:50:55Z</time>
      </trkpt>
      <trkpt lat="47.38461" lon="-2.36579">
        <ele>57</ele>
        <time>2019-09-05T12:50:56Z</time>
      </trkpt>
      <trkpt lat="47.38456" lon="-2.36582">
        <ele>57</ele>
        <time>2019-09-05T12:50:57Z</time>
      </trkpt>
      <trkpt lat="47.38439" lon="-2.36587">
        <ele>57</ele>
        <time>2019-09-05T12:51:00Z</time>
      </trkpt>
      <trkpt lat="47.38431" lon="-2.36595">
        <ele>64</ele>
        <time>2019-09-05T12:51:03Z</time>
      </trkpt>
      <trkpt lat="47.38428" lon="-2.36602">
        <ele>64</ele>
        <time>2019-09-05T12:51:04Z</time>
      </trkpt>
      <trkpt lat="47.38424" lon="-2.36607">
        <ele>64</ele>
        <time>2019-09-05T12:51:05Z</time>
      </trkpt>
      <trkpt lat="47.38419" lon="-2.36613">
        <ele>64</ele>
        <time>2019-09-05T12:51:06Z</time>
      </trkpt>
      <trkpt lat="47.38413" lon="-2.36619">
        <ele>64</ele>
        <time>2019-09-05T12:51:07Z</time>
      </trkpt>
      <trkpt lat="47.38407" lon="-2.36625">
        <ele>64</ele>
        <time>2019-09-05T12:51:08Z</time>
      </trkpt>
      <trkpt lat="47.38403" lon="-2.36632">
        <ele>63</ele>
        <time>2019-09-05T12:51:09Z</time>
      </trkpt>
      <trkpt lat="47.384" lon="-2.3664">
        <ele>62</ele>
        <time>2019-09-05T12:51:10Z</time>
      </trkpt>
      <trkpt lat="47.38398" lon="-2.36648">
        <ele>63</ele>
        <time>2019-09-05T12:51:11Z</time>
      </trkpt>
      <trkpt lat="47.38395" lon="-2.36656">
        <ele>62</ele>
        <time>2019-09-05T12:51:12Z</time>
      </trkpt>
      <trkpt lat="47.38393" lon="-2.36664">
        <ele>63</ele>
        <time>2019-09-05T12:51:13Z</time>
      </trkpt>
      <trkpt lat="47.3839" lon="-2.36672">
        <ele>63</ele>
        <time>2019-09-05T12:51:14Z</time>
      </trkpt>
      <trkpt lat="47.38388" lon="-2.3668">
        <ele>62</ele>
        <time>2019-09-05T12:51:15Z</time>
      </trkpt>
      <trkpt lat="47.38378" lon="-2.36711">
        <ele>62</ele>
        <time>2019-09-05T12:51:18Z</time>
      </trkpt>
      <trkpt lat="47.38376" lon="-2.36719">
        <ele>61</ele>
        <time>2019-09-05T12:51:19Z</time>
      </trkpt>
      <trkpt lat="47.38374" lon="-2.36727">
        <ele>60</ele>
        <time>2019-09-05T12:51:20Z</time>
      </trkpt>
      <trkpt lat="47.38371" lon="-2.36733">
        <ele>60</ele>
        <time>2019-09-05T12:51:21Z</time>
      </trkpt>
      <trkpt lat="47.38362" lon="-2.36752">
        <ele>71</ele>
        <time>2019-09-05T12:51:25Z</time>
      </trkpt>
      <trkpt lat="47.38358" lon="-2.3677">
        <ele>73</ele>
        <time>2019-09-05T12:51:27Z</time>
      </trkpt>
      <trkpt lat="47.38355" lon="-2.36776">
        <ele>74</ele>
        <time>2019-09-05T12:51:28Z</time>
      </trkpt>
      <trkpt lat="47.38351" lon="-2.3678">
        <ele>74</ele>
        <time>2019-09-05T12:51:29Z</time>
      </trkpt>
      <trkpt lat="47.38337" lon="-2.3679">
        <ele>68</ele>
        <time>2019-09-05T12:51:32Z</time>
      </trkpt>
      <trkpt lat="47.38318" lon="-2.36801">
        <ele>61</ele>
        <time>2019-09-05T12:51:36Z</time>
      </trkpt>
      <trkpt lat="47.38306" lon="-2.36801">
        <ele>62</ele>
        <time>2019-09-05T12:51:37Z</time>
      </trkpt>
      <trkpt lat="47.383" lon="-2.36802">
        <ele>63</ele>
        <time>2019-09-05T12:51:38Z</time>
      </trkpt>
      <trkpt lat="47.38294" lon="-2.36804">
        <ele>62</ele>
        <time>2019-09-05T12:51:39Z</time>
      </trkpt>
      <trkpt lat="47.38288" lon="-2.36806">
        <ele>62</ele>
        <time>2019-09-05T12:51:40Z</time>
      </trkpt>
      <trkpt lat="47.38282" lon="-2.36808">
        <ele>61</ele>
        <time>2019-09-05T12:51:41Z</time>
      </trkpt>
      <trkpt lat="47.38272" lon="-2.36812">
        <ele>60</ele>
        <time>2019-09-05T12:51:43Z</time>
      </trkpt>
      <trkpt lat="47.38261" lon="-2.36819">
        <ele>60</ele>
        <time>2019-09-05T12:51:45Z</time>
      </trkpt>
      <trkpt lat="47.38256" lon="-2.36822">
        <ele>61</ele>
        <time>2019-09-05T12:51:46Z</time>
      </trkpt>
      <trkpt lat="47.38246" lon="-2.36828">
        <ele>61</ele>
        <time>2019-09-05T12:51:48Z</time>
      </trkpt>
      <trkpt lat="47.3824" lon="-2.36831">
        <ele>61</ele>
        <time>2019-09-05T12:51:49Z</time>
      </trkpt>
      <trkpt lat="47.3823" lon="-2.36837">
        <ele>61</ele>
        <time>2019-09-05T12:51:51Z</time>
      </trkpt>
      <trkpt lat="47.38226" lon="-2.36858">
        <ele>70</ele>
        <time>2019-09-05T12:51:55Z</time>
      </trkpt>
      <trkpt lat="47.38236" lon="-2.36874">
        <ele>81</ele>
        <time>2019-09-05T12:51:58Z</time>
      </trkpt>
      <trkpt lat="47.38232" lon="-2.36891">
        <ele>116</ele>
        <time>2019-09-05T12:52:03Z</time>
      </trkpt>
      <trkpt lat="47.38213" lon="-2.3688">
        <ele>128</ele>
        <time>2019-09-05T12:52:06Z</time>
      </trkpt>
      <trkpt lat="47.38206" lon="-2.36885">
        <ele>129</ele>
        <time>2019-09-05T12:52:07Z</time>
      </trkpt>
      <trkpt lat="47.38195" lon="-2.36889">
        <ele>130</ele>
        <time>2019-09-05T12:52:09Z</time>
      </trkpt>
      <trkpt lat="47.38119" lon="-2.36899">
        <ele>65</ele>
        <time>2019-09-05T12:52:17Z</time>
      </trkpt>
      <trkpt lat="47.3811" lon="-2.36899">
        <ele>61</ele>
        <time>2019-09-05T12:52:18Z</time>
      </trkpt>
      <trkpt lat="47.3811" lon="-2.36899">
        <ele>61</ele>
        <time>2019-09-05T12:52:25Z</time>
      </trkpt>
      <trkpt lat="47.3811" lon="-2.36899">
        <ele>9</ele>
        <time>2019-09-05T12:52:25Z</time>
      </trkpt>
      <trkpt lat="47.3811" lon="-2.36899">
        <ele>9</ele>
        <time>2019-09-05T12:52:35Z</time>
      </trkpt>
      <trkpt lat="47.38111" lon="-2.36937">
        <ele>81</ele>
        <time>2019-09-05T12:52:35Z</time>
      </trkpt>
      <trkpt lat="47.38138" lon="-2.36979">
        <ele>77</ele>
        <time>2019-09-05T12:52:41Z</time>
      </trkpt>
      <trkpt lat="47.38138" lon="-2.36988">
        <ele>75</ele>
        <time>2019-09-05T12:52:42Z</time>
      </trkpt>
      <trkpt lat="47.38139" lon="-2.36996">
        <ele>72</ele>
        <time>2019-09-05T12:52:43Z</time>
      </trkpt>
      <trkpt lat="47.3814" lon="-2.37005">
        <ele>69</ele>
        <time>2019-09-05T12:52:44Z</time>
      </trkpt>
      <trkpt lat="47.38141" lon="-2.37013">
        <ele>74</ele>
        <time>2019-09-05T12:52:46Z</time>
      </trkpt>
      <trkpt lat="47.38148" lon="-2.37024">
        <ele>69</ele>
        <time>2019-09-05T12:52:48Z</time>
      </trkpt>
      <trkpt lat="47.38151" lon="-2.37031">
        <ele>66</ele>
        <time>2019-09-05T12:52:49Z</time>
      </trkpt>
      <trkpt lat="47.38159" lon="-2.37044">
        <ele>67</ele>
        <time>2019-09-05T12:52:51Z</time>
      </trkpt>
      <trkpt lat="47.38162" lon="-2.37052">
        <ele>68</ele>
        <time>2019-09-05T12:52:52Z</time>
      </trkpt>
      <trkpt lat="47.38166" lon="-2.3706">
        <ele>69</ele>
        <time>2019-09-05T12:52:53Z</time>
      </trkpt>
      <trkpt lat="47.38171" lon="-2.37073">
        <ele>68</ele>
        <time>2019-09-05T12:52:55Z</time>
      </trkpt>
      <trkpt lat="47.38174" lon="-2.37079">
        <ele>68</ele>
        <time>2019-09-05T12:52:56Z</time>
      </trkpt>
      <trkpt lat="47.38188" lon="-2.37112">
        <ele>66</ele>
        <time>2019-09-05T12:53:00Z</time>
      </trkpt>
      <trkpt lat="47.38192" lon="-2.37121">
        <ele>67</ele>
        <time>2019-09-05T12:53:01Z</time>
      </trkpt>
      <trkpt lat="47.38197" lon="-2.37132">
        <ele>66</ele>
        <time>2019-09-05T12:53:02Z</time>
      </trkpt>
      <trkpt lat="47.38202" lon="-2.37141">
        <ele>66</ele>
        <time>2019-09-05T12:53:03Z</time>
      </trkpt>
      <trkpt lat="47.38213" lon="-2.37162">
        <ele>66</ele>
        <time>2019-09-05T12:53:05Z</time>
      </trkpt>
      <trkpt lat="47.38218" lon="-2.37172">
        <ele>66</ele>
        <time>2019-09-05T12:53:06Z</time>
      </trkpt>
      <trkpt lat="47.38223" lon="-2.37182">
        <ele>66</ele>
        <time>2019-09-05T12:53:07Z</time>
      </trkpt>
      <trkpt lat="47.38228" lon="-2.37192">
        <ele>66</ele>
        <time>2019-09-05T12:53:08Z</time>
      </trkpt>
      <trkpt lat="47.38235" lon="-2.37209">
        <ele>65</ele>
        <time>2019-09-05T12:53:10Z</time>
      </trkpt>
      <trkpt lat="47.38238" lon="-2.37215">
        <ele>65</ele>
        <time>2019-09-05T12:53:11Z</time>
      </trkpt>
      <trkpt lat="47.38242" lon="-2.3722">
        <ele>66</ele>
        <time>2019-09-05T12:53:12Z</time>
      </trkpt>
      <trkpt lat="47.38253" lon="-2.3722">
        <ele>65</ele>
        <time>2019-09-05T12:53:15Z</time>
      </trkpt>
      <trkpt lat="47.38259" lon="-2.37222">
        <ele>66</ele>
        <time>2019-09-05T12:53:18Z</time>
      </trkpt>
      <trkpt lat="47.38268" lon="-2.37218">
        <ele>66</ele>
        <time>2019-09-05T12:53:22Z</time>
      </trkpt>
      <trkpt lat="47.38272" lon="-2.37213">
        <ele>66</ele>
        <time>2019-09-05T12:53:25Z</time>
      </trkpt>
      <trkpt lat="47.38277" lon="-2.37214">
        <ele>66</ele>
        <time>2019-09-05T12:53:29Z</time>
      </trkpt>
      <trkpt lat="47.38277" lon="-2.37214">
        <ele>66</ele>
        <time>2019-09-05T12:53:37Z</time>
      </trkpt>
      <trkpt lat="47.38277" lon="-2.37214">
        <ele>3</ele>
        <time>2019-09-05T12:53:37Z</time>
      </trkpt>
      <trkpt lat="47.38277" lon="-2.37214">
        <ele>3</ele>
        <time>2019-09-05T12:53:44Z</time>
      </trkpt>
      <trkpt lat="47.38296" lon="-2.37237">
        <ele>104</ele>
        <time>2019-09-05T12:53:44Z</time>
      </trkpt>
      <trkpt lat="47.38326" lon="-2.37281">
        <ele>69</ele>
        <time>2019-09-05T12:53:49Z</time>
      </trkpt>
      <trkpt lat="47.3833" lon="-2.37284">
        <ele>75</ele>
        <time>2019-09-05T12:53:51Z</time>
      </trkpt>
      <trkpt lat="47.38331" lon="-2.37298">
        <ele>73</ele>
        <time>2019-09-05T12:53:53Z</time>
      </trkpt>
      <trkpt lat="47.3833" lon="-2.37305">
        <ele>74</ele>
        <time>2019-09-05T12:53:54Z</time>
      </trkpt>
      <trkpt lat="47.38332" lon="-2.37318">
        <ele>72</ele>
        <time>2019-09-05T12:53:56Z</time>
      </trkpt>
      <trkpt lat="47.38331" lon="-2.37324">
        <ele>72</ele>
        <time>2019-09-05T12:53:57Z</time>
      </trkpt>
      <trkpt lat="47.38332" lon="-2.37338">
        <ele>70</ele>
        <time>2019-09-05T12:53:59Z</time>
      </trkpt>
      <trkpt lat="47.38333" lon="-2.37349">
        <ele>70</ele>
        <time>2019-09-05T12:54:01Z</time>
      </trkpt>
      <trkpt lat="47.38334" lon="-2.37361">
        <ele>72</ele>
        <time>2019-09-05T12:54:03Z</time>
      </trkpt>
      <trkpt lat="47.38334" lon="-2.37373">
        <ele>72</ele>
        <time>2019-09-05T12:54:05Z</time>
      </trkpt>
      <trkpt lat="47.38335" lon="-2.3738">
        <ele>73</ele>
        <time>2019-09-05T12:54:06Z</time>
      </trkpt>
      <trkpt lat="47.38336" lon="-2.37387">
        <ele>72</ele>
        <time>2019-09-05T12:54:07Z</time>
      </trkpt>
      <trkpt lat="47.38337" lon="-2.37393">
        <ele>71</ele>
        <time>2019-09-05T12:54:08Z</time>
      </trkpt>
      <trkpt lat="47.38343" lon="-2.37426">
        <ele>72</ele>
        <time>2019-09-05T12:54:12Z</time>
      </trkpt>
      <trkpt lat="47.38345" lon="-2.37433">
        <ele>71</ele>
        <time>2019-09-05T12:54:13Z</time>
      </trkpt>
      <trkpt lat="47.38346" lon="-2.37439">
        <ele>72</ele>
        <time>2019-09-05T12:54:14Z</time>
      </trkpt>
      <trkpt lat="47.38348" lon="-2.37447">
        <ele>71</ele>
        <time>2019-09-05T12:54:16Z</time>
      </trkpt>
      <trkpt lat="47.38352" lon="-2.37462">
        <ele>71</ele>
        <time>2019-09-05T12:54:18Z</time>
      </trkpt>
      <trkpt lat="47.38355" lon="-2.37477">
        <ele>70</ele>
        <time>2019-09-05T12:54:20Z</time>
      </trkpt>
      <trkpt lat="47.38356" lon="-2.37483">
        <ele>70</ele>
        <time>2019-09-05T12:54:21Z</time>
      </trkpt>
      <trkpt lat="47.38357" lon="-2.37491">
        <ele>70</ele>
        <time>2019-09-05T12:54:22Z</time>
      </trkpt>
      <trkpt lat="47.38357" lon="-2.375">
        <ele>71</ele>
        <time>2019-09-05T12:54:23Z</time>
      </trkpt>
      <trkpt lat="47.38358" lon="-2.37508">
        <ele>70</ele>
        <time>2019-09-05T12:54:24Z</time>
      </trkpt>
      <trkpt lat="47.38358" lon="-2.37516">
        <ele>71</ele>
        <time>2019-09-05T12:54:25Z</time>
      </trkpt>
      <trkpt lat="47.38357" lon="-2.37524">
        <ele>71</ele>
        <time>2019-09-05T12:54:26Z</time>
      </trkpt>
      <trkpt lat="47.38357" lon="-2.37545">
        <ele>70</ele>
        <time>2019-09-05T12:54:29Z</time>
      </trkpt>
      <trkpt lat="47.38358" lon="-2.37559">
        <ele>70</ele>
        <time>2019-09-05T12:54:31Z</time>
      </trkpt>
      <trkpt lat="47.38358" lon="-2.37566">
        <ele>69</ele>
        <time>2019-09-05T12:54:32Z</time>
      </trkpt>
      <trkpt lat="47.38357" lon="-2.37572">
        <ele>69</ele>
        <time>2019-09-05T12:54:33Z</time>
      </trkpt>
      <trkpt lat="47.38351" lon="-2.37581">
        <ele>69</ele>
        <time>2019-09-05T12:54:35Z</time>
      </trkpt>
      <trkpt lat="47.38342" lon="-2.37585">
        <ele>69</ele>
        <time>2019-09-05T12:54:37Z</time>
      </trkpt>
      <trkpt lat="47.38337" lon="-2.37587">
        <ele>69</ele>
        <time>2019-09-05T12:54:38Z</time>
      </trkpt>
      <trkpt lat="47.38332" lon="-2.37589">
        <ele>68</ele>
        <time>2019-09-05T12:54:39Z</time>
      </trkpt>
      <trkpt lat="47.38323" lon="-2.37594">
        <ele>68</ele>
        <time>2019-09-05T12:54:41Z</time>
      </trkpt>
      <trkpt lat="47.38313" lon="-2.37602">
        <ele>75</ele>
        <time>2019-09-05T12:54:44Z</time>
      </trkpt>
      <trkpt lat="47.38302" lon="-2.3761">
        <ele>76</ele>
        <time>2019-09-05T12:54:47Z</time>
      </trkpt>
      <trkpt lat="47.38295" lon="-2.37612">
        <ele>76</ele>
        <time>2019-09-05T12:54:49Z</time>
      </trkpt>
      <trkpt lat="47.38287" lon="-2.37616">
        <ele>76</ele>
        <time>2019-09-05T12:54:51Z</time>
      </trkpt>
      <trkpt lat="47.38281" lon="-2.37622">
        <ele>86</ele>
        <time>2019-09-05T12:54:53Z</time>
      </trkpt>
      <trkpt lat="47.38272" lon="-2.37627">
        <ele>97</ele>
        <time>2019-09-05T12:54:56Z</time>
      </trkpt>
      <trkpt lat="47.38266" lon="-2.37629">
        <ele>99</ele>
        <time>2019-09-05T12:54:58Z</time>
      </trkpt>
      <trkpt lat="47.38251" lon="-2.37637">
        <ele>97</ele>
        <time>2019-09-05T12:55:01Z</time>
      </trkpt>
      <trkpt lat="47.38243" lon="-2.37638">
        <ele>98</ele>
        <time>2019-09-05T12:55:02Z</time>
      </trkpt>
      <trkpt lat="47.38232" lon="-2.37635">
        <ele>102</ele>
        <time>2019-09-05T12:55:05Z</time>
      </trkpt>
      <trkpt lat="47.38226" lon="-2.37636">
        <ele>115</ele>
        <time>2019-09-05T12:55:09Z</time>
      </trkpt>
      <trkpt lat="47.38222" lon="-2.37643">
        <ele>116</ele>
        <time>2019-09-05T12:55:10Z</time>
      </trkpt>
      <trkpt lat="47.38218" lon="-2.37648">
        <ele>117</ele>
        <time>2019-09-05T12:55:11Z</time>
      </trkpt>
      <trkpt lat="47.38214" lon="-2.37652">
        <ele>118</ele>
        <time>2019-09-05T12:55:12Z</time>
      </trkpt>
      <trkpt lat="47.38209" lon="-2.37656">
        <ele>116</ele>
        <time>2019-09-05T12:55:13Z</time>
      </trkpt>
      <trkpt lat="47.38205" lon="-2.37661">
        <ele>113</ele>
        <time>2019-09-05T12:55:14Z</time>
      </trkpt>
      <trkpt lat="47.38199" lon="-2.37665">
        <ele>112</ele>
        <time>2019-09-05T12:55:15Z</time>
      </trkpt>
      <trkpt lat="47.38189" lon="-2.37672">
        <ele>107</ele>
        <time>2019-09-05T12:55:17Z</time>
      </trkpt>
      <trkpt lat="47.38184" lon="-2.37676">
        <ele>105</ele>
        <time>2019-09-05T12:55:18Z</time>
      </trkpt>
      <trkpt lat="47.38179" lon="-2.37679">
        <ele>102</ele>
        <time>2019-09-05T12:55:19Z</time>
      </trkpt>
      <trkpt lat="47.38174" lon="-2.37683">
        <ele>99</ele>
        <time>2019-09-05T12:55:20Z</time>
      </trkpt>
      <trkpt lat="47.3817" lon="-2.37688">
        <ele>96</ele>
        <time>2019-09-05T12:55:21Z</time>
      </trkpt>
      <trkpt lat="47.38165" lon="-2.37694">
        <ele>94</ele>
        <time>2019-09-05T12:55:22Z</time>
      </trkpt>
      <trkpt lat="47.38161" lon="-2.37699">
        <ele>92</ele>
        <time>2019-09-05T12:55:23Z</time>
      </trkpt>
      <trkpt lat="47.38156" lon="-2.37704">
        <ele>91</ele>
        <time>2019-09-05T12:55:24Z</time>
      </trkpt>
      <trkpt lat="47.38148" lon="-2.37714">
        <ele>88</ele>
        <time>2019-09-05T12:55:26Z</time>
      </trkpt>
      <trkpt lat="47.38143" lon="-2.37717">
        <ele>88</ele>
        <time>2019-09-05T12:55:27Z</time>
      </trkpt>
      <trkpt lat="47.38132" lon="-2.37724">
        <ele>85</ele>
        <time>2019-09-05T12:55:29Z</time>
      </trkpt>
      <trkpt lat="47.38128" lon="-2.37727">
        <ele>85</ele>
        <time>2019-09-05T12:55:30Z</time>
      </trkpt>
      <trkpt lat="47.3812" lon="-2.37735">
        <ele>84</ele>
        <time>2019-09-05T12:55:32Z</time>
      </trkpt>
      <trkpt lat="47.38116" lon="-2.37739">
        <ele>83</ele>
        <time>2019-09-05T12:55:33Z</time>
      </trkpt>
      <trkpt lat="47.38112" lon="-2.37742">
        <ele>83</ele>
        <time>2019-09-05T12:55:34Z</time>
      </trkpt>
      <trkpt lat="47.38107" lon="-2.37746">
        <ele>82</ele>
        <time>2019-09-05T12:55:35Z</time>
      </trkpt>
      <trkpt lat="47.38103" lon="-2.3775">
        <ele>81</ele>
        <time>2019-09-05T12:55:36Z</time>
      </trkpt>
      <trkpt lat="47.38099" lon="-2.37754">
        <ele>81</ele>
        <time>2019-09-05T12:55:37Z</time>
      </trkpt>
      <trkpt lat="47.38082" lon="-2.37765">
        <ele>73</ele>
        <time>2019-09-05T12:55:40Z</time>
      </trkpt>
      <trkpt lat="47.38065" lon="-2.37777">
        <ele>63</ele>
        <time>2019-09-05T12:55:43Z</time>
      </trkpt>
      <trkpt lat="47.38056" lon="-2.37785">
        <ele>62</ele>
        <time>2019-09-05T12:55:45Z</time>
      </trkpt>
      <trkpt lat="47.38049" lon="-2.37792">
        <ele>64</ele>
        <time>2019-09-05T12:55:46Z</time>
      </trkpt>
      <trkpt lat="47.38046" lon="-2.37796">
        <ele>65</ele>
        <time>2019-09-05T12:55:48Z</time>
      </trkpt>
      <trkpt lat="47.38041" lon="-2.37799">
        <ele>66</ele>
        <time>2019-09-05T12:55:49Z</time>
      </trkpt>
      <trkpt lat="47.38036" lon="-2.37803">
        <ele>66</ele>
        <time>2019-09-05T12:55:50Z</time>
      </trkpt>
      <trkpt lat="47.38032" lon="-2.37806">
        <ele>66</ele>
        <time>2019-09-05T12:55:51Z</time>
      </trkpt>
      <trkpt lat="47.38027" lon="-2.3781">
        <ele>66</ele>
        <time>2019-09-05T12:55:52Z</time>
      </trkpt>
      <trkpt lat="47.3802" lon="-2.37814">
        <ele>67</ele>
        <time>2019-09-05T12:55:54Z</time>
      </trkpt>
      <trkpt lat="47.38015" lon="-2.37817">
        <ele>67</ele>
        <time>2019-09-05T12:55:55Z</time>
      </trkpt>
      <trkpt lat="47.38006" lon="-2.37827">
        <ele>67</ele>
        <time>2019-09-05T12:55:57Z</time>
      </trkpt>
      <trkpt lat="47.37998" lon="-2.37834">
        <ele>68</ele>
        <time>2019-09-05T12:55:59Z</time>
      </trkpt>
      <trkpt lat="47.37993" lon="-2.37837">
        <ele>68</ele>
        <time>2019-09-05T12:56:00Z</time>
      </trkpt>
      <trkpt lat="47.37978" lon="-2.37847">
        <ele>69</ele>
        <time>2019-09-05T12:56:03Z</time>
      </trkpt>
      <trkpt lat="47.37971" lon="-2.37855">
        <ele>70</ele>
        <time>2019-09-05T12:56:05Z</time>
      </trkpt>
      <trkpt lat="47.37948" lon="-2.37874">
        <ele>70</ele>
        <time>2019-09-05T12:56:09Z</time>
      </trkpt>
      <trkpt lat="47.37942" lon="-2.37878">
        <ele>71</ele>
        <time>2019-09-05T12:56:10Z</time>
      </trkpt>
      <trkpt lat="47.37937" lon="-2.37881">
        <ele>71</ele>
        <time>2019-09-05T12:56:11Z</time>
      </trkpt>
      <trkpt lat="47.37931" lon="-2.37884">
        <ele>70</ele>
        <time>2019-09-05T12:56:12Z</time>
      </trkpt>
      <trkpt lat="47.37907" lon="-2.37899">
        <ele>69</ele>
        <time>2019-09-05T12:56:16Z</time>
      </trkpt>
      <trkpt lat="47.37901" lon="-2.37904">
        <ele>68</ele>
        <time>2019-09-05T12:56:17Z</time>
      </trkpt>
      <trkpt lat="47.37896" lon="-2.37907">
        <ele>68</ele>
        <time>2019-09-05T12:56:18Z</time>
      </trkpt>
      <trkpt lat="47.37885" lon="-2.37914">
        <ele>69</ele>
        <time>2019-09-05T12:56:20Z</time>
      </trkpt>
      <trkpt lat="47.37875" lon="-2.3792">
        <ele>74</ele>
        <time>2019-09-05T12:56:22Z</time>
      </trkpt>
      <trkpt lat="47.37865" lon="-2.37926">
        <ele>76</ele>
        <time>2019-09-05T12:56:24Z</time>
      </trkpt>
      <trkpt lat="47.3786" lon="-2.3793">
        <ele>75</ele>
        <time>2019-09-05T12:56:25Z</time>
      </trkpt>
      <trkpt lat="47.37845" lon="-2.3794">
        <ele>74</ele>
        <time>2019-09-05T12:56:28Z</time>
      </trkpt>
      <trkpt lat="47.37839" lon="-2.37946">
        <ele>74</ele>
        <time>2019-09-05T12:56:29Z</time>
      </trkpt>
      <trkpt lat="47.37815" lon="-2.37961">
        <ele>74</ele>
        <time>2019-09-05T12:56:33Z</time>
      </trkpt>
      <trkpt lat="47.37811" lon="-2.37966">
        <ele>72</ele>
        <time>2019-09-05T12:56:34Z</time>
      </trkpt>
      <trkpt lat="47.37802" lon="-2.37975">
        <ele>70</ele>
        <time>2019-09-05T12:56:36Z</time>
      </trkpt>
      <trkpt lat="47.37797" lon="-2.37979">
        <ele>69</ele>
        <time>2019-09-05T12:56:37Z</time>
      </trkpt>
      <trkpt lat="47.37792" lon="-2.37983">
        <ele>69</ele>
        <time>2019-09-05T12:56:38Z</time>
      </trkpt>
      <trkpt lat="47.37786" lon="-2.37988">
        <ele>68</ele>
        <time>2019-09-05T12:56:39Z</time>
      </trkpt>
      <trkpt lat="47.37781" lon="-2.3799">
        <ele>67</ele>
        <time>2019-09-05T12:56:40Z</time>
      </trkpt>
      <trkpt lat="47.3777" lon="-2.37998">
        <ele>67</ele>
        <time>2019-09-05T12:56:42Z</time>
      </trkpt>
      <trkpt lat="47.37765" lon="-2.38002">
        <ele>66</ele>
        <time>2019-09-05T12:56:43Z</time>
      </trkpt>
      <trkpt lat="47.37738" lon="-2.38021">
        <ele>67</ele>
        <time>2019-09-05T12:56:48Z</time>
      </trkpt>
      <trkpt lat="47.37728" lon="-2.38029">
        <ele>68</ele>
        <time>2019-09-05T12:56:50Z</time>
      </trkpt>
      <trkpt lat="47.37722" lon="-2.38032">
        <ele>68</ele>
        <time>2019-09-05T12:56:51Z</time>
      </trkpt>
      <trkpt lat="47.37712" lon="-2.3804">
        <ele>68</ele>
        <time>2019-09-05T12:56:53Z</time>
      </trkpt>
      <trkpt lat="47.37708" lon="-2.38044">
        <ele>68</ele>
        <time>2019-09-05T12:56:54Z</time>
      </trkpt>
      <trkpt lat="47.37703" lon="-2.38049">
        <ele>67</ele>
        <time>2019-09-05T12:56:55Z</time>
      </trkpt>
      <trkpt lat="47.37693" lon="-2.3806">
        <ele>65</ele>
        <time>2019-09-05T12:56:58Z</time>
      </trkpt>
      <trkpt lat="47.37685" lon="-2.3807">
        <ele>65</ele>
        <time>2019-09-05T12:57:01Z</time>
      </trkpt>
      <trkpt lat="47.37682" lon="-2.38073">
        <ele>64</ele>
        <time>2019-09-05T12:57:02Z</time>
      </trkpt>
      <trkpt lat="47.37679" lon="-2.38077">
        <ele>63</ele>
        <time>2019-09-05T12:57:03Z</time>
      </trkpt>
      <trkpt lat="47.37672" lon="-2.38084">
        <ele>63</ele>
        <time>2019-09-05T12:57:04Z</time>
      </trkpt>
      <trkpt lat="47.37668" lon="-2.38088">
        <ele>62</ele>
        <time>2019-09-05T12:57:06Z</time>
      </trkpt>
      <trkpt lat="47.37661" lon="-2.38094">
        <ele>62</ele>
        <time>2019-09-05T12:57:08Z</time>
      </trkpt>
      <trkpt lat="47.37652" lon="-2.38101">
        <ele>62</ele>
        <time>2019-09-05T12:57:10Z</time>
      </trkpt>
      <trkpt lat="47.37648" lon="-2.38103">
        <ele>62</ele>
        <time>2019-09-05T12:57:11Z</time>
      </trkpt>
      <trkpt lat="47.37644" lon="-2.38106">
        <ele>62</ele>
        <time>2019-09-05T12:57:12Z</time>
      </trkpt>
      <trkpt lat="47.37639" lon="-2.38109">
        <ele>62</ele>
        <time>2019-09-05T12:57:13Z</time>
      </trkpt>
      <trkpt lat="47.37635" lon="-2.38112">
        <ele>62</ele>
        <time>2019-09-05T12:57:14Z</time>
      </trkpt>
      <trkpt lat="47.37631" lon="-2.38115">
        <ele>62</ele>
        <time>2019-09-05T12:57:15Z</time>
      </trkpt>
      <trkpt lat="47.37627" lon="-2.38117">
        <ele>62</ele>
        <time>2019-09-05T12:57:16Z</time>
      </trkpt>
      <trkpt lat="47.37613" lon="-2.38125">
        <ele>62</ele>
        <time>2019-09-05T12:57:19Z</time>
      </trkpt>
      <trkpt lat="47.37608" lon="-2.38128">
        <ele>62</ele>
        <time>2019-09-05T12:57:20Z</time>
      </trkpt>
      <trkpt lat="47.37599" lon="-2.38134">
        <ele>63</ele>
        <time>2019-09-05T12:57:22Z</time>
      </trkpt>
      <trkpt lat="47.37595" lon="-2.38137">
        <ele>62</ele>
        <time>2019-09-05T12:57:23Z</time>
      </trkpt>
      <trkpt lat="47.37585" lon="-2.38143">
        <ele>62</ele>
        <time>2019-09-05T12:57:25Z</time>
      </trkpt>
      <trkpt lat="47.3758" lon="-2.38145">
        <ele>62</ele>
        <time>2019-09-05T12:57:26Z</time>
      </trkpt>
      <trkpt lat="47.37576" lon="-2.38147">
        <ele>62</ele>
        <time>2019-09-05T12:57:27Z</time>
      </trkpt>
      <trkpt lat="47.37567" lon="-2.38152">
        <ele>62</ele>
        <time>2019-09-05T12:57:29Z</time>
      </trkpt>
      <trkpt lat="47.37554" lon="-2.3816">
        <ele>63</ele>
        <time>2019-09-05T12:57:32Z</time>
      </trkpt>
      <trkpt lat="47.37545" lon="-2.38164">
        <ele>63</ele>
        <time>2019-09-05T12:57:34Z</time>
      </trkpt>
      <trkpt lat="47.3754" lon="-2.38167">
        <ele>63</ele>
        <time>2019-09-05T12:57:35Z</time>
      </trkpt>
      <trkpt lat="47.37536" lon="-2.3817">
        <ele>63</ele>
        <time>2019-09-05T12:57:36Z</time>
      </trkpt>
      <trkpt lat="47.37527" lon="-2.38174">
        <ele>63</ele>
        <time>2019-09-05T12:57:38Z</time>
      </trkpt>
      <trkpt lat="47.37522" lon="-2.38177">
        <ele>64</ele>
        <time>2019-09-05T12:57:39Z</time>
      </trkpt>
      <trkpt lat="47.37519" lon="-2.3818">
        <ele>64</ele>
        <time>2019-09-05T12:57:40Z</time>
      </trkpt>
      <trkpt lat="47.37515" lon="-2.38182">
        <ele>64</ele>
        <time>2019-09-05T12:57:41Z</time>
      </trkpt>
      <trkpt lat="47.3751" lon="-2.38186">
        <ele>65</ele>
        <time>2019-09-05T12:57:42Z</time>
      </trkpt>
      <trkpt lat="47.37505" lon="-2.38189">
        <ele>65</ele>
        <time>2019-09-05T12:57:43Z</time>
      </trkpt>
      <trkpt lat="47.37491" lon="-2.38201">
        <ele>75</ele>
        <time>2019-09-05T12:57:47Z</time>
      </trkpt>
      <trkpt lat="47.3748" lon="-2.38207">
        <ele>77</ele>
        <time>2019-09-05T12:57:49Z</time>
      </trkpt>
      <trkpt lat="47.37476" lon="-2.38209">
        <ele>77</ele>
        <time>2019-09-05T12:57:50Z</time>
      </trkpt>
      <trkpt lat="47.37471" lon="-2.3821">
        <ele>77</ele>
        <time>2019-09-05T12:57:51Z</time>
      </trkpt>
      <trkpt lat="47.37465" lon="-2.38213">
        <ele>80</ele>
        <time>2019-09-05T12:57:53Z</time>
      </trkpt>
      <trkpt lat="47.37461" lon="-2.38219">
        <ele>81</ele>
        <time>2019-09-05T12:57:54Z</time>
      </trkpt>
      <trkpt lat="47.37456" lon="-2.38222">
        <ele>80</ele>
        <time>2019-09-05T12:57:55Z</time>
      </trkpt>
      <trkpt lat="47.37449" lon="-2.38228">
        <ele>81</ele>
        <time>2019-09-05T12:57:57Z</time>
      </trkpt>
      <trkpt lat="47.37444" lon="-2.38232">
        <ele>80</ele>
        <time>2019-09-05T12:57:58Z</time>
      </trkpt>
      <trkpt lat="47.37438" lon="-2.38234">
        <ele>79</ele>
        <time>2019-09-05T12:57:59Z</time>
      </trkpt>
      <trkpt lat="47.37422" lon="-2.38244">
        <ele>76</ele>
        <time>2019-09-05T12:58:02Z</time>
      </trkpt>
      <trkpt lat="47.37418" lon="-2.38247">
        <ele>77</ele>
        <time>2019-09-05T12:58:03Z</time>
      </trkpt>
      <trkpt lat="47.37414" lon="-2.38249">
        <ele>76</ele>
        <time>2019-09-05T12:58:04Z</time>
      </trkpt>
      <trkpt lat="47.37409" lon="-2.38252">
        <ele>76</ele>
        <time>2019-09-05T12:58:05Z</time>
      </trkpt>
      <trkpt lat="47.37404" lon="-2.38255">
        <ele>76</ele>
        <time>2019-09-05T12:58:06Z</time>
      </trkpt>
      <trkpt lat="47.37397" lon="-2.38257">
        <ele>75</ele>
        <time>2019-09-05T12:58:07Z</time>
      </trkpt>
      <trkpt lat="47.37385" lon="-2.38261">
        <ele>76</ele>
        <time>2019-09-05T12:58:09Z</time>
      </trkpt>
      <trkpt lat="47.37374" lon="-2.38267">
        <ele>76</ele>
        <time>2019-09-05T12:58:11Z</time>
      </trkpt>
      <trkpt lat="47.37369" lon="-2.3827">
        <ele>75</ele>
        <time>2019-09-05T12:58:12Z</time>
      </trkpt>
      <trkpt lat="47.37363" lon="-2.38274">
        <ele>75</ele>
        <time>2019-09-05T12:58:13Z</time>
      </trkpt>
      <trkpt lat="47.37358" lon="-2.38276">
        <ele>75</ele>
        <time>2019-09-05T12:58:14Z</time>
      </trkpt>
      <trkpt lat="47.37352" lon="-2.3828">
        <ele>74</ele>
        <time>2019-09-05T12:58:15Z</time>
      </trkpt>
      <trkpt lat="47.37346" lon="-2.38283">
        <ele>74</ele>
        <time>2019-09-05T12:58:16Z</time>
      </trkpt>
      <trkpt lat="47.37333" lon="-2.38289">
        <ele>73</ele>
        <time>2019-09-05T12:58:18Z</time>
      </trkpt>
      <trkpt lat="47.37328" lon="-2.38292">
        <ele>73</ele>
        <time>2019-09-05T12:58:19Z</time>
      </trkpt>
      <trkpt lat="47.37317" lon="-2.383">
        <ele>73</ele>
        <time>2019-09-05T12:58:21Z</time>
      </trkpt>
      <trkpt lat="47.37312" lon="-2.38305">
        <ele>72</ele>
        <time>2019-09-05T12:58:22Z</time>
      </trkpt>
      <trkpt lat="47.37302" lon="-2.3831">
        <ele>72</ele>
        <time>2019-09-05T12:58:24Z</time>
      </trkpt>
      <trkpt lat="47.37297" lon="-2.38314">
        <ele>72</ele>
        <time>2019-09-05T12:58:25Z</time>
      </trkpt>
      <trkpt lat="47.37292" lon="-2.38316">
        <ele>72</ele>
        <time>2019-09-05T12:58:26Z</time>
      </trkpt>
      <trkpt lat="47.37287" lon="-2.3832">
        <ele>71</ele>
        <time>2019-09-05T12:58:27Z</time>
      </trkpt>
      <trkpt lat="47.37283" lon="-2.38323">
        <ele>71</ele>
        <time>2019-09-05T12:58:28Z</time>
      </trkpt>
      <trkpt lat="47.37273" lon="-2.3833">
        <ele>71</ele>
        <time>2019-09-05T12:58:30Z</time>
      </trkpt>
      <trkpt lat="47.37268" lon="-2.38333">
        <ele>71</ele>
        <time>2019-09-05T12:58:31Z</time>
      </trkpt>
      <trkpt lat="47.37262" lon="-2.38335">
        <ele>72</ele>
        <time>2019-09-05T12:58:32Z</time>
      </trkpt>
      <trkpt lat="47.37245" lon="-2.38344">
        <ele>72</ele>
        <time>2019-09-05T12:58:35Z</time>
      </trkpt>
      <trkpt lat="47.37239" lon="-2.38347">
        <ele>71</ele>
        <time>2019-09-05T12:58:36Z</time>
      </trkpt>
      <trkpt lat="47.37233" lon="-2.3835">
        <ele>71</ele>
        <time>2019-09-05T12:58:37Z</time>
      </trkpt>
      <trkpt lat="47.37227" lon="-2.38351">
        <ele>71</ele>
        <time>2019-09-05T12:58:38Z</time>
      </trkpt>
      <trkpt lat="47.37209" lon="-2.38351">
        <ele>71</ele>
        <time>2019-09-05T12:58:40Z</time>
      </trkpt>
      <trkpt lat="47.37203" lon="-2.38351">
        <ele>71</ele>
        <time>2019-09-05T12:58:42Z</time>
      </trkpt>
      <trkpt lat="47.37189" lon="-2.38353">
        <ele>70</ele>
        <time>2019-09-05T12:58:44Z</time>
      </trkpt>
      <trkpt lat="47.37176" lon="-2.38355">
        <ele>70</ele>
        <time>2019-09-05T12:58:45Z</time>
      </trkpt>
      <trkpt lat="47.37169" lon="-2.38356">
        <ele>70</ele>
        <time>2019-09-05T12:58:46Z</time>
      </trkpt>
      <trkpt lat="47.37157" lon="-2.38359">
        <ele>70</ele>
        <time>2019-09-05T12:58:49Z</time>
      </trkpt>
      <trkpt lat="47.37144" lon="-2.38363">
        <ele>70</ele>
        <time>2019-09-05T12:58:51Z</time>
      </trkpt>
      <trkpt lat="47.37138" lon="-2.38364">
        <ele>71</ele>
        <time>2019-09-05T12:58:52Z</time>
      </trkpt>
      <trkpt lat="47.3712" lon="-2.38368">
        <ele>70</ele>
        <time>2019-09-05T12:58:55Z</time>
      </trkpt>
      <trkpt lat="47.37115" lon="-2.3837">
        <ele>70</ele>
        <time>2019-09-05T12:58:56Z</time>
      </trkpt>
      <trkpt lat="47.37104" lon="-2.38379">
        <ele>71</ele>
        <time>2019-09-05T12:58:58Z</time>
      </trkpt>
      <trkpt lat="47.37098" lon="-2.38384">
        <ele>71</ele>
        <time>2019-09-05T12:58:59Z</time>
      </trkpt>
      <trkpt lat="47.37091" lon="-2.3839">
        <ele>70</ele>
        <time>2019-09-05T12:59:00Z</time>
      </trkpt>
      <trkpt lat="47.37086" lon="-2.38399">
        <ele>70</ele>
        <time>2019-09-05T12:59:01Z</time>
      </trkpt>
      <trkpt lat="47.3708" lon="-2.38407">
        <ele>70</ele>
        <time>2019-09-05T12:59:02Z</time>
      </trkpt>
      <trkpt lat="47.37075" lon="-2.38417">
        <ele>69</ele>
        <time>2019-09-05T12:59:03Z</time>
      </trkpt>
      <trkpt lat="47.3707" lon="-2.38425">
        <ele>68</ele>
        <time>2019-09-05T12:59:04Z</time>
      </trkpt>
      <trkpt lat="47.37066" lon="-2.38433">
        <ele>67</ele>
        <time>2019-09-05T12:59:05Z</time>
      </trkpt>
      <trkpt lat="47.37059" lon="-2.38446">
        <ele>65</ele>
        <time>2019-09-05T12:59:07Z</time>
      </trkpt>
      <trkpt lat="47.37057" lon="-2.38453">
        <ele>64</ele>
        <time>2019-09-05T12:59:08Z</time>
      </trkpt>
      <trkpt lat="47.37064" lon="-2.38466">
        <ele>63</ele>
        <time>2019-09-05T12:59:11Z</time>
      </trkpt>
      <trkpt lat="47.37069" lon="-2.3847">
        <ele>63</ele>
        <time>2019-09-05T12:59:12Z</time>
      </trkpt>
      <trkpt lat="47.37072" lon="-2.38473">
        <ele>62</ele>
        <time>2019-09-05T12:59:13Z</time>
      </trkpt>
      <trkpt lat="47.37081" lon="-2.3848">
        <ele>62</ele>
        <time>2019-09-05T12:59:15Z</time>
      </trkpt>
      <trkpt lat="47.37089" lon="-2.38486">
        <ele>62</ele>
        <time>2019-09-05T12:59:17Z</time>
      </trkpt>
      <trkpt lat="47.37094" lon="-2.38489">
        <ele>61</ele>
        <time>2019-09-05T12:59:18Z</time>
      </trkpt>
      <trkpt lat="47.37098" lon="-2.38492">
        <ele>61</ele>
        <time>2019-09-05T12:59:19Z</time>
      </trkpt>
      <trkpt lat="47.37102" lon="-2.38496">
        <ele>60</ele>
        <time>2019-09-05T12:59:20Z</time>
      </trkpt>
      <trkpt lat="47.37107" lon="-2.38498">
        <ele>60</ele>
        <time>2019-09-05T12:59:21Z</time>
      </trkpt>
      <trkpt lat="47.37112" lon="-2.38501">
        <ele>60</ele>
        <time>2019-09-05T12:59:22Z</time>
      </trkpt>
      <trkpt lat="47.37116" lon="-2.38505">
        <ele>60</ele>
        <time>2019-09-05T12:59:23Z</time>
      </trkpt>
      <trkpt lat="47.37121" lon="-2.38508">
        <ele>60</ele>
        <time>2019-09-05T12:59:24Z</time>
      </trkpt>
      <trkpt lat="47.37129" lon="-2.38514">
        <ele>60</ele>
        <time>2019-09-05T12:59:26Z</time>
      </trkpt>
      <trkpt lat="47.37133" lon="-2.38518">
        <ele>60</ele>
        <time>2019-09-05T12:59:27Z</time>
      </trkpt>
      <trkpt lat="47.37137" lon="-2.38523">
        <ele>60</ele>
        <time>2019-09-05T12:59:28Z</time>
      </trkpt>
      <trkpt lat="47.37141" lon="-2.38527">
        <ele>61</ele>
        <time>2019-09-05T12:59:29Z</time>
      </trkpt>
      <trkpt lat="47.37145" lon="-2.38532">
        <ele>61</ele>
        <time>2019-09-05T12:59:30Z</time>
      </trkpt>
      <trkpt lat="47.37149" lon="-2.38537">
        <ele>61</ele>
        <time>2019-09-05T12:59:31Z</time>
      </trkpt>
      <trkpt lat="47.37156" lon="-2.3855">
        <ele>61</ele>
        <time>2019-09-05T12:59:33Z</time>
      </trkpt>
      <trkpt lat="47.3716" lon="-2.38556">
        <ele>62</ele>
        <time>2019-09-05T12:59:34Z</time>
      </trkpt>
      <trkpt lat="47.37166" lon="-2.38569">
        <ele>62</ele>
        <time>2019-09-05T12:59:36Z</time>
      </trkpt>
      <trkpt lat="47.37173" lon="-2.38586">
        <ele>62</ele>
        <time>2019-09-05T12:59:37Z</time>
      </trkpt>
      <trkpt lat="47.37176" lon="-2.38594">
        <ele>63</ele>
        <time>2019-09-05T12:59:38Z</time>
      </trkpt>
      <trkpt lat="47.37188" lon="-2.38622">
        <ele>62</ele>
        <time>2019-09-05T12:59:41Z</time>
      </trkpt>
      <trkpt lat="47.37191" lon="-2.38633">
        <ele>62</ele>
        <time>2019-09-05T12:59:42Z</time>
      </trkpt>
      <trkpt lat="47.37195" lon="-2.38643">
        <ele>62</ele>
        <time>2019-09-05T12:59:43Z</time>
      </trkpt>
      <trkpt lat="47.37199" lon="-2.38653">
        <ele>62</ele>
        <time>2019-09-05T12:59:44Z</time>
      </trkpt>
      <trkpt lat="47.37203" lon="-2.38663">
        <ele>63</ele>
        <time>2019-09-05T12:59:45Z</time>
      </trkpt>
      <trkpt lat="47.37206" lon="-2.38673">
        <ele>63</ele>
        <time>2019-09-05T12:59:46Z</time>
      </trkpt>
      <trkpt lat="47.3721" lon="-2.38682">
        <ele>64</ele>
        <time>2019-09-05T12:59:47Z</time>
      </trkpt>
      <trkpt lat="47.37214" lon="-2.38691">
        <ele>64</ele>
        <time>2019-09-05T12:59:48Z</time>
      </trkpt>
      <trkpt lat="47.37225" lon="-2.38719">
        <ele>65</ele>
        <time>2019-09-05T12:59:51Z</time>
      </trkpt>
      <trkpt lat="47.37228" lon="-2.38728">
        <ele>65</ele>
        <time>2019-09-05T12:59:52Z</time>
      </trkpt>
      <trkpt lat="47.37232" lon="-2.38737">
        <ele>65</ele>
        <time>2019-09-05T12:59:53Z</time>
      </trkpt>
      <trkpt lat="47.37239" lon="-2.38754">
        <ele>65</ele>
        <time>2019-09-05T12:59:55Z</time>
      </trkpt>
      <trkpt lat="47.37242" lon="-2.38762">
        <ele>64</ele>
        <time>2019-09-05T12:59:56Z</time>
      </trkpt>
      <trkpt lat="47.37246" lon="-2.3877">
        <ele>64</ele>
        <time>2019-09-05T12:59:57Z</time>
      </trkpt>
      <trkpt lat="47.3725" lon="-2.38778">
        <ele>63</ele>
        <time>2019-09-05T12:59:58Z</time>
      </trkpt>
      <trkpt lat="47.37253" lon="-2.38787">
        <ele>62</ele>
        <time>2019-09-05T12:59:59Z</time>
      </trkpt>
      <trkpt lat="47.37257" lon="-2.38795">
        <ele>62</ele>
        <time>2019-09-05T13:00:00Z</time>
      </trkpt>
      <trkpt lat="47.3726" lon="-2.38804">
        <ele>62</ele>
        <time>2019-09-05T13:00:01Z</time>
      </trkpt>
      <trkpt lat="47.37263" lon="-2.38813">
        <ele>62</ele>
        <time>2019-09-05T13:00:02Z</time>
      </trkpt>
      <trkpt lat="47.37269" lon="-2.38831">
        <ele>62</ele>
        <time>2019-09-05T13:00:04Z</time>
      </trkpt>
      <trkpt lat="47.37271" lon="-2.3884">
        <ele>62</ele>
        <time>2019-09-05T13:00:05Z</time>
      </trkpt>
      <trkpt lat="47.37274" lon="-2.38849">
        <ele>62</ele>
        <time>2019-09-05T13:00:06Z</time>
      </trkpt>
      <trkpt lat="47.37277" lon="-2.38858">
        <ele>63</ele>
        <time>2019-09-05T13:00:07Z</time>
      </trkpt>
      <trkpt lat="47.37279" lon="-2.38866">
        <ele>63</ele>
        <time>2019-09-05T13:00:08Z</time>
      </trkpt>
      <trkpt lat="47.37282" lon="-2.38875">
        <ele>63</ele>
        <time>2019-09-05T13:00:09Z</time>
      </trkpt>
      <trkpt lat="47.37285" lon="-2.38883">
        <ele>63</ele>
        <time>2019-09-05T13:00:10Z</time>
      </trkpt>
      <trkpt lat="47.37287" lon="-2.38892">
        <ele>62</ele>
        <time>2019-09-05T13:00:11Z</time>
      </trkpt>
      <trkpt lat="47.37292" lon="-2.38909">
        <ele>62</ele>
        <time>2019-09-05T13:00:13Z</time>
      </trkpt>
      <trkpt lat="47.37294" lon="-2.38917">
        <ele>63</ele>
        <time>2019-09-05T13:00:14Z</time>
      </trkpt>
      <trkpt lat="47.37296" lon="-2.38925">
        <ele>63</ele>
        <time>2019-09-05T13:00:15Z</time>
      </trkpt>
      <trkpt lat="47.37299" lon="-2.38934">
        <ele>63</ele>
        <time>2019-09-05T13:00:16Z</time>
      </trkpt>
      <trkpt lat="47.37301" lon="-2.38944">
        <ele>63</ele>
        <time>2019-09-05T13:00:17Z</time>
      </trkpt>
      <trkpt lat="47.37302" lon="-2.38953">
        <ele>62</ele>
        <time>2019-09-05T13:00:18Z</time>
      </trkpt>
      <trkpt lat="47.37304" lon="-2.38963">
        <ele>62</ele>
        <time>2019-09-05T13:00:19Z</time>
      </trkpt>
      <trkpt lat="47.37306" lon="-2.38982">
        <ele>62</ele>
        <time>2019-09-05T13:00:21Z</time>
      </trkpt>
      <trkpt lat="47.37307" lon="-2.38993">
        <ele>62</ele>
        <time>2019-09-05T13:00:22Z</time>
      </trkpt>
      <trkpt lat="47.37309" lon="-2.39023">
        <ele>63</ele>
        <time>2019-09-05T13:00:25Z</time>
      </trkpt>
      <trkpt lat="47.3731" lon="-2.39033">
        <ele>63</ele>
        <time>2019-09-05T13:00:26Z</time>
      </trkpt>
      <trkpt lat="47.37311" lon="-2.39052">
        <ele>63</ele>
        <time>2019-09-05T13:00:28Z</time>
      </trkpt>
      <trkpt lat="47.37311" lon="-2.3906">
        <ele>63</ele>
        <time>2019-09-05T13:00:29Z</time>
      </trkpt>
      <trkpt lat="47.37312" lon="-2.39074">
        <ele>64</ele>
        <time>2019-09-05T13:00:31Z</time>
      </trkpt>
      <trkpt lat="47.37312" lon="-2.39086">
        <ele>65</ele>
        <time>2019-09-05T13:00:33Z</time>
      </trkpt>
      <trkpt lat="47.37313" lon="-2.39098">
        <ele>65</ele>
        <time>2019-09-05T13:00:35Z</time>
      </trkpt>
      <trkpt lat="47.37313" lon="-2.39103">
        <ele>65</ele>
        <time>2019-09-05T13:00:36Z</time>
      </trkpt>
      <trkpt lat="47.37314" lon="-2.39115">
        <ele>66</ele>
        <time>2019-09-05T13:00:38Z</time>
      </trkpt>
      <trkpt lat="47.37314" lon="-2.39122">
        <ele>66</ele>
        <time>2019-09-05T13:00:39Z</time>
      </trkpt>
      <trkpt lat="47.37314" lon="-2.39135">
        <ele>67</ele>
        <time>2019-09-05T13:00:41Z</time>
      </trkpt>
      <trkpt lat="47.37315" lon="-2.39146">
        <ele>67</ele>
        <time>2019-09-05T13:00:43Z</time>
      </trkpt>
      <trkpt lat="47.37312" lon="-2.39156">
        <ele>67</ele>
        <time>2019-09-05T13:00:45Z</time>
      </trkpt>
      <trkpt lat="47.37306" lon="-2.39163">
        <ele>67</ele>
        <time>2019-09-05T13:00:47Z</time>
      </trkpt>
      <trkpt lat="47.37295" lon="-2.39172">
        <ele>67</ele>
        <time>2019-09-05T13:00:50Z</time>
      </trkpt>
      <trkpt lat="47.37281" lon="-2.39183">
        <ele>67</ele>
        <time>2019-09-05T13:00:53Z</time>
      </trkpt>
      <trkpt lat="47.37277" lon="-2.39187">
        <ele>68</ele>
        <time>2019-09-05T13:00:54Z</time>
      </trkpt>
      <trkpt lat="47.37268" lon="-2.39196">
        <ele>68</ele>
        <time>2019-09-05T13:00:56Z</time>
      </trkpt>
      <trkpt lat="47.37265" lon="-2.39201">
        <ele>68</ele>
        <time>2019-09-05T13:00:57Z</time>
      </trkpt>
      <trkpt lat="47.37251" lon="-2.39215">
        <ele>68</ele>
        <time>2019-09-05T13:01:00Z</time>
      </trkpt>
      <trkpt lat="47.37247" lon="-2.3922">
        <ele>68</ele>
        <time>2019-09-05T13:01:01Z</time>
      </trkpt>
      <trkpt lat="47.37242" lon="-2.39224">
        <ele>69</ele>
        <time>2019-09-05T13:01:02Z</time>
      </trkpt>
      <trkpt lat="47.37237" lon="-2.39229">
        <ele>69</ele>
        <time>2019-09-05T13:01:03Z</time>
      </trkpt>
      <trkpt lat="47.37233" lon="-2.39233">
        <ele>69</ele>
        <time>2019-09-05T13:01:04Z</time>
      </trkpt>
      <trkpt lat="47.37228" lon="-2.39237">
        <ele>69</ele>
        <time>2019-09-05T13:01:05Z</time>
      </trkpt>
      <trkpt lat="47.37224" lon="-2.39242">
        <ele>69</ele>
        <time>2019-09-05T13:01:06Z</time>
      </trkpt>
      <trkpt lat="47.3722" lon="-2.39246">
        <ele>69</ele>
        <time>2019-09-05T13:01:07Z</time>
      </trkpt>
      <trkpt lat="47.37211" lon="-2.39254">
        <ele>68</ele>
        <time>2019-09-05T13:01:09Z</time>
      </trkpt>
      <trkpt lat="47.37207" lon="-2.39257">
        <ele>68</ele>
        <time>2019-09-05T13:01:10Z</time>
      </trkpt>
      <trkpt lat="47.37203" lon="-2.39261">
        <ele>69</ele>
        <time>2019-09-05T13:01:11Z</time>
      </trkpt>
      <trkpt lat="47.37199" lon="-2.39265">
        <ele>68</ele>
        <time>2019-09-05T13:01:12Z</time>
      </trkpt>
      <trkpt lat="47.37194" lon="-2.39269">
        <ele>68</ele>
        <time>2019-09-05T13:01:13Z</time>
      </trkpt>
      <trkpt lat="47.3719" lon="-2.39272">
        <ele>68</ele>
        <time>2019-09-05T13:01:14Z</time>
      </trkpt>
      <trkpt lat="47.37183" lon="-2.39281">
        <ele>69</ele>
        <time>2019-09-05T13:01:16Z</time>
      </trkpt>
      <trkpt lat="47.37178" lon="-2.39285">
        <ele>69</ele>
        <time>2019-09-05T13:01:17Z</time>
      </trkpt>
      <trkpt lat="47.37174" lon="-2.39289">
        <ele>69</ele>
        <time>2019-09-05T13:01:18Z</time>
      </trkpt>
      <trkpt lat="47.3717" lon="-2.39291">
        <ele>68</ele>
        <time>2019-09-05T13:01:19Z</time>
      </trkpt>
      <trkpt lat="47.37165" lon="-2.39295">
        <ele>68</ele>
        <time>2019-09-05T13:01:20Z</time>
      </trkpt>
      <trkpt lat="47.37161" lon="-2.39299">
        <ele>68</ele>
        <time>2019-09-05T13:01:21Z</time>
      </trkpt>
      <trkpt lat="47.37157" lon="-2.39303">
        <ele>68</ele>
        <time>2019-09-05T13:01:22Z</time>
      </trkpt>
      <trkpt lat="47.37153" lon="-2.39306">
        <ele>68</ele>
        <time>2019-09-05T13:01:23Z</time>
      </trkpt>
      <trkpt lat="47.3715" lon="-2.39309">
        <ele>68</ele>
        <time>2019-09-05T13:01:24Z</time>
      </trkpt>
      <trkpt lat="47.37146" lon="-2.39313">
        <ele>68</ele>
        <time>2019-09-05T13:01:25Z</time>
      </trkpt>
      <trkpt lat="47.37135" lon="-2.39324">
        <ele>67</ele>
        <time>2019-09-05T13:01:28Z</time>
      </trkpt>
      <trkpt lat="47.37131" lon="-2.39328">
        <ele>67</ele>
        <time>2019-09-05T13:01:29Z</time>
      </trkpt>
      <trkpt lat="47.37127" lon="-2.39332">
        <ele>67</ele>
        <time>2019-09-05T13:01:30Z</time>
      </trkpt>
      <trkpt lat="47.37123" lon="-2.39335">
        <ele>67</ele>
        <time>2019-09-05T13:01:31Z</time>
      </trkpt>
      <trkpt lat="47.37119" lon="-2.39338">
        <ele>67</ele>
        <time>2019-09-05T13:01:32Z</time>
      </trkpt>
      <trkpt lat="47.37112" lon="-2.39345">
        <ele>66</ele>
        <time>2019-09-05T13:01:34Z</time>
      </trkpt>
      <trkpt lat="47.37108" lon="-2.39349">
        <ele>66</ele>
        <time>2019-09-05T13:01:35Z</time>
      </trkpt>
      <trkpt lat="47.37103" lon="-2.39353">
        <ele>65</ele>
        <time>2019-09-05T13:01:36Z</time>
      </trkpt>
      <trkpt lat="47.371" lon="-2.39358">
        <ele>65</ele>
        <time>2019-09-05T13:01:37Z</time>
      </trkpt>
      <trkpt lat="47.37086" lon="-2.39369">
        <ele>64</ele>
        <time>2019-09-05T13:01:40Z</time>
      </trkpt>
      <trkpt lat="47.37081" lon="-2.39373">
        <ele>64</ele>
        <time>2019-09-05T13:01:41Z</time>
      </trkpt>
      <trkpt lat="47.37077" lon="-2.39378">
        <ele>64</ele>
        <time>2019-09-05T13:01:42Z</time>
      </trkpt>
      <trkpt lat="47.37072" lon="-2.39382">
        <ele>64</ele>
        <time>2019-09-05T13:01:43Z</time>
      </trkpt>
      <trkpt lat="47.37063" lon="-2.3939">
        <ele>64</ele>
        <time>2019-09-05T13:01:45Z</time>
      </trkpt>
      <trkpt lat="47.37058" lon="-2.39395">
        <ele>64</ele>
        <time>2019-09-05T13:01:46Z</time>
      </trkpt>
      <trkpt lat="47.37044" lon="-2.39409">
        <ele>64</ele>
        <time>2019-09-05T13:01:49Z</time>
      </trkpt>
      <trkpt lat="47.37039" lon="-2.39414">
        <ele>64</ele>
        <time>2019-09-05T13:01:50Z</time>
      </trkpt>
      <trkpt lat="47.37035" lon="-2.39418">
        <ele>64</ele>
        <time>2019-09-05T13:01:51Z</time>
      </trkpt>
      <trkpt lat="47.3703" lon="-2.39423">
        <ele>64</ele>
        <time>2019-09-05T13:01:52Z</time>
      </trkpt>
      <trkpt lat="47.37027" lon="-2.39429">
        <ele>64</ele>
        <time>2019-09-05T13:01:53Z</time>
      </trkpt>
      <trkpt lat="47.37022" lon="-2.39435">
        <ele>63</ele>
        <time>2019-09-05T13:01:54Z</time>
      </trkpt>
      <trkpt lat="47.37017" lon="-2.3944">
        <ele>64</ele>
        <time>2019-09-05T13:01:55Z</time>
      </trkpt>
      <trkpt lat="47.37013" lon="-2.39444">
        <ele>64</ele>
        <time>2019-09-05T13:01:56Z</time>
      </trkpt>
      <trkpt lat="47.37008" lon="-2.39449">
        <ele>64</ele>
        <time>2019-09-05T13:01:57Z</time>
      </trkpt>
      <trkpt lat="47.37003" lon="-2.39453">
        <ele>63</ele>
        <time>2019-09-05T13:01:58Z</time>
      </trkpt>
      <trkpt lat="47.36998" lon="-2.39458">
        <ele>63</ele>
        <time>2019-09-05T13:01:59Z</time>
      </trkpt>
      <trkpt lat="47.36993" lon="-2.39462">
        <ele>63</ele>
        <time>2019-09-05T13:02:00Z</time>
      </trkpt>
      <trkpt lat="47.36987" lon="-2.39467">
        <ele>63</ele>
        <time>2019-09-05T13:02:01Z</time>
      </trkpt>
      <trkpt lat="47.36982" lon="-2.39472">
        <ele>63</ele>
        <time>2019-09-05T13:02:02Z</time>
      </trkpt>
      <trkpt lat="47.36976" lon="-2.39477">
        <ele>64</ele>
        <time>2019-09-05T13:02:03Z</time>
      </trkpt>
      <trkpt lat="47.3697" lon="-2.39482">
        <ele>63</ele>
        <time>2019-09-05T13:02:04Z</time>
      </trkpt>
      <trkpt lat="47.36964" lon="-2.39487">
        <ele>63</ele>
        <time>2019-09-05T13:02:05Z</time>
      </trkpt>
      <trkpt lat="47.36958" lon="-2.39492">
        <ele>63</ele>
        <time>2019-09-05T13:02:06Z</time>
      </trkpt>
      <trkpt lat="47.36942" lon="-2.39508">
        <ele>63</ele>
        <time>2019-09-05T13:02:09Z</time>
      </trkpt>
      <trkpt lat="47.36937" lon="-2.39513">
        <ele>62</ele>
        <time>2019-09-05T13:02:10Z</time>
      </trkpt>
      <trkpt lat="47.36927" lon="-2.39526">
        <ele>62</ele>
        <time>2019-09-05T13:02:12Z</time>
      </trkpt>
      <trkpt lat="47.36923" lon="-2.39532">
        <ele>62</ele>
        <time>2019-09-05T13:02:13Z</time>
      </trkpt>
      <trkpt lat="47.36918" lon="-2.39539">
        <ele>62</ele>
        <time>2019-09-05T13:02:14Z</time>
      </trkpt>
      <trkpt lat="47.36914" lon="-2.39547">
        <ele>62</ele>
        <time>2019-09-05T13:02:15Z</time>
      </trkpt>
      <trkpt lat="47.3691" lon="-2.39554">
        <ele>62</ele>
        <time>2019-09-05T13:02:16Z</time>
      </trkpt>
      <trkpt lat="47.36906" lon="-2.39561">
        <ele>62</ele>
        <time>2019-09-05T13:02:17Z</time>
      </trkpt>
      <trkpt lat="47.36902" lon="-2.39567">
        <ele>61</ele>
        <time>2019-09-05T13:02:18Z</time>
      </trkpt>
      <trkpt lat="47.36897" lon="-2.39573">
        <ele>61</ele>
        <time>2019-09-05T13:02:19Z</time>
      </trkpt>
      <trkpt lat="47.36892" lon="-2.39579">
        <ele>62</ele>
        <time>2019-09-05T13:02:20Z</time>
      </trkpt>
      <trkpt lat="47.36887" lon="-2.39585">
        <ele>62</ele>
        <time>2019-09-05T13:02:21Z</time>
      </trkpt>
      <trkpt lat="47.36871" lon="-2.39603">
        <ele>62</ele>
        <time>2019-09-05T13:02:24Z</time>
      </trkpt>
      <trkpt lat="47.36866" lon="-2.39609">
        <ele>61</ele>
        <time>2019-09-05T13:02:25Z</time>
      </trkpt>
      <trkpt lat="47.36854" lon="-2.3962">
        <ele>61</ele>
        <time>2019-09-05T13:02:27Z</time>
      </trkpt>
      <trkpt lat="47.36848" lon="-2.39624">
        <ele>62</ele>
        <time>2019-09-05T13:02:28Z</time>
      </trkpt>
      <trkpt lat="47.36842" lon="-2.39629">
        <ele>62</ele>
        <time>2019-09-05T13:02:29Z</time>
      </trkpt>
      <trkpt lat="47.36838" lon="-2.39635">
        <ele>61</ele>
        <time>2019-09-05T13:02:30Z</time>
      </trkpt>
      <trkpt lat="47.36832" lon="-2.39641">
        <ele>62</ele>
        <time>2019-09-05T13:02:31Z</time>
      </trkpt>
      <trkpt lat="47.36828" lon="-2.39647">
        <ele>62</ele>
        <time>2019-09-05T13:02:32Z</time>
      </trkpt>
      <trkpt lat="47.36815" lon="-2.39654">
        <ele>62</ele>
        <time>2019-09-05T13:02:34Z</time>
      </trkpt>
      <trkpt lat="47.36809" lon="-2.39656">
        <ele>62</ele>
        <time>2019-09-05T13:02:35Z</time>
      </trkpt>
      <trkpt lat="47.36783" lon="-2.39672">
        <ele>61</ele>
        <time>2019-09-05T13:02:39Z</time>
      </trkpt>
      <trkpt lat="47.36776" lon="-2.39674">
        <ele>61</ele>
        <time>2019-09-05T13:02:40Z</time>
      </trkpt>
      <trkpt lat="47.3677" lon="-2.39674">
        <ele>61</ele>
        <time>2019-09-05T13:02:41Z</time>
      </trkpt>
      <trkpt lat="47.36765" lon="-2.39675">
        <ele>61</ele>
        <time>2019-09-05T13:02:42Z</time>
      </trkpt>
      <trkpt lat="47.36759" lon="-2.39675">
        <ele>61</ele>
        <time>2019-09-05T13:02:43Z</time>
      </trkpt>
      <trkpt lat="47.36753" lon="-2.39674">
        <ele>61</ele>
        <time>2019-09-05T13:02:44Z</time>
      </trkpt>
      <trkpt lat="47.36747" lon="-2.39673">
        <ele>60</ele>
        <time>2019-09-05T13:02:45Z</time>
      </trkpt>
      <trkpt lat="47.36741" lon="-2.39672">
        <ele>60</ele>
        <time>2019-09-05T13:02:46Z</time>
      </trkpt>
      <trkpt lat="47.36735" lon="-2.39671">
        <ele>60</ele>
        <time>2019-09-05T13:02:47Z</time>
      </trkpt>
      <trkpt lat="47.36729" lon="-2.3967">
        <ele>60</ele>
        <time>2019-09-05T13:02:48Z</time>
      </trkpt>
      <trkpt lat="47.36718" lon="-2.39667">
        <ele>60</ele>
        <time>2019-09-05T13:02:50Z</time>
      </trkpt>
      <trkpt lat="47.36711" lon="-2.39665">
        <ele>60</ele>
        <time>2019-09-05T13:02:51Z</time>
      </trkpt>
      <trkpt lat="47.36705" lon="-2.39663">
        <ele>60</ele>
        <time>2019-09-05T13:02:52Z</time>
      </trkpt>
      <trkpt lat="47.367" lon="-2.39659">
        <ele>61</ele>
        <time>2019-09-05T13:02:53Z</time>
      </trkpt>
      <trkpt lat="47.36694" lon="-2.39655">
        <ele>61</ele>
        <time>2019-09-05T13:02:54Z</time>
      </trkpt>
      <trkpt lat="47.36683" lon="-2.39645">
        <ele>61</ele>
        <time>2019-09-05T13:02:56Z</time>
      </trkpt>
      <trkpt lat="47.36677" lon="-2.3964">
        <ele>62</ele>
        <time>2019-09-05T13:02:57Z</time>
      </trkpt>
      <trkpt lat="47.36663" lon="-2.39624">
        <ele>63</ele>
        <time>2019-09-05T13:03:00Z</time>
      </trkpt>
      <trkpt lat="47.36657" lon="-2.3962">
        <ele>63</ele>
        <time>2019-09-05T13:03:01Z</time>
      </trkpt>
      <trkpt lat="47.36651" lon="-2.39617">
        <ele>63</ele>
        <time>2019-09-05T13:03:02Z</time>
      </trkpt>
      <trkpt lat="47.36647" lon="-2.39615">
        <ele>63</ele>
        <time>2019-09-05T13:03:03Z</time>
      </trkpt>
      <trkpt lat="47.36642" lon="-2.39613">
        <ele>63</ele>
        <time>2019-09-05T13:03:04Z</time>
      </trkpt>
      <trkpt lat="47.36636" lon="-2.39612">
        <ele>63</ele>
        <time>2019-09-05T13:03:05Z</time>
      </trkpt>
      <trkpt lat="47.36631" lon="-2.3961">
        <ele>63</ele>
        <time>2019-09-05T13:03:06Z</time>
      </trkpt>
      <trkpt lat="47.36625" lon="-2.39608">
        <ele>62</ele>
        <time>2019-09-05T13:03:07Z</time>
      </trkpt>
      <trkpt lat="47.36619" lon="-2.39606">
        <ele>62</ele>
        <time>2019-09-05T13:03:08Z</time>
      </trkpt>
      <trkpt lat="47.36614" lon="-2.39604">
        <ele>62</ele>
        <time>2019-09-05T13:03:09Z</time>
      </trkpt>
      <trkpt lat="47.36608" lon="-2.39603">
        <ele>62</ele>
        <time>2019-09-05T13:03:10Z</time>
      </trkpt>
      <trkpt lat="47.36603" lon="-2.39603">
        <ele>62</ele>
        <time>2019-09-05T13:03:11Z</time>
      </trkpt>
      <trkpt lat="47.36598" lon="-2.39602">
        <ele>62</ele>
        <time>2019-09-05T13:03:12Z</time>
      </trkpt>
      <trkpt lat="47.36592" lon="-2.39601">
        <ele>62</ele>
        <time>2019-09-05T13:03:13Z</time>
      </trkpt>
      <trkpt lat="47.36586" lon="-2.39601">
        <ele>62</ele>
        <time>2019-09-05T13:03:14Z</time>
      </trkpt>
      <trkpt lat="47.36581" lon="-2.396">
        <ele>62</ele>
        <time>2019-09-05T13:03:15Z</time>
      </trkpt>
      <trkpt lat="47.36569" lon="-2.39599">
        <ele>62</ele>
        <time>2019-09-05T13:03:17Z</time>
      </trkpt>
      <trkpt lat="47.36564" lon="-2.39599">
        <ele>62</ele>
        <time>2019-09-05T13:03:18Z</time>
      </trkpt>
      <trkpt lat="47.36558" lon="-2.396">
        <ele>62</ele>
        <time>2019-09-05T13:03:19Z</time>
      </trkpt>
      <trkpt lat="47.36553" lon="-2.39601">
        <ele>62</ele>
        <time>2019-09-05T13:03:20Z</time>
      </trkpt>
      <trkpt lat="47.36547" lon="-2.39602">
        <ele>61</ele>
        <time>2019-09-05T13:03:21Z</time>
      </trkpt>
      <trkpt lat="47.36542" lon="-2.39604">
        <ele>61</ele>
        <time>2019-09-05T13:03:22Z</time>
      </trkpt>
      <trkpt lat="47.36537" lon="-2.39606">
        <ele>62</ele>
        <time>2019-09-05T13:03:23Z</time>
      </trkpt>
      <trkpt lat="47.36531" lon="-2.39608">
        <ele>62</ele>
        <time>2019-09-05T13:03:24Z</time>
      </trkpt>
      <trkpt lat="47.36526" lon="-2.39611">
        <ele>62</ele>
        <time>2019-09-05T13:03:25Z</time>
      </trkpt>
      <trkpt lat="47.36521" lon="-2.39615">
        <ele>62</ele>
        <time>2019-09-05T13:03:26Z</time>
      </trkpt>
      <trkpt lat="47.36516" lon="-2.39618">
        <ele>61</ele>
        <time>2019-09-05T13:03:27Z</time>
      </trkpt>
      <trkpt lat="47.3651" lon="-2.39621">
        <ele>61</ele>
        <time>2019-09-05T13:03:28Z</time>
      </trkpt>
      <trkpt lat="47.36504" lon="-2.39625">
        <ele>61</ele>
        <time>2019-09-05T13:03:29Z</time>
      </trkpt>
      <trkpt lat="47.36499" lon="-2.39629">
        <ele>60</ele>
        <time>2019-09-05T13:03:30Z</time>
      </trkpt>
      <trkpt lat="47.36493" lon="-2.39633">
        <ele>60</ele>
        <time>2019-09-05T13:03:31Z</time>
      </trkpt>
      <trkpt lat="47.36487" lon="-2.39636">
        <ele>61</ele>
        <time>2019-09-05T13:03:32Z</time>
      </trkpt>
      <trkpt lat="47.36482" lon="-2.39639">
        <ele>60</ele>
        <time>2019-09-05T13:03:33Z</time>
      </trkpt>
      <trkpt lat="47.36476" lon="-2.39642">
        <ele>60</ele>
        <time>2019-09-05T13:03:34Z</time>
      </trkpt>
      <trkpt lat="47.36465" lon="-2.39645">
        <ele>60</ele>
        <time>2019-09-05T13:03:36Z</time>
      </trkpt>
      <trkpt lat="47.3646" lon="-2.39647">
        <ele>60</ele>
        <time>2019-09-05T13:03:37Z</time>
      </trkpt>
      <trkpt lat="47.36449" lon="-2.39654">
        <ele>79</ele>
        <time>2019-09-05T13:03:42Z</time>
      </trkpt>
      <trkpt lat="47.36443" lon="-2.39668">
        <ele>88</ele>
        <time>2019-09-05T13:03:45Z</time>
      </trkpt>
      <trkpt lat="47.36445" lon="-2.39676">
        <ele>88</ele>
        <time>2019-09-05T13:03:46Z</time>
      </trkpt>
      <trkpt lat="47.36448" lon="-2.39686">
        <ele>85</ele>
        <time>2019-09-05T13:03:47Z</time>
      </trkpt>
      <trkpt lat="47.36452" lon="-2.39694">
        <ele>83</ele>
        <time>2019-09-05T13:03:48Z</time>
      </trkpt>
      <trkpt lat="47.36456" lon="-2.397">
        <ele>80</ele>
        <time>2019-09-05T13:03:49Z</time>
      </trkpt>
      <trkpt lat="47.36459" lon="-2.39707">
        <ele>79</ele>
        <time>2019-09-05T13:03:50Z</time>
      </trkpt>
      <trkpt lat="47.36462" lon="-2.39714">
        <ele>78</ele>
        <time>2019-09-05T13:03:51Z</time>
      </trkpt>
      <trkpt lat="47.3647" lon="-2.39727">
        <ele>75</ele>
        <time>2019-09-05T13:03:53Z</time>
      </trkpt>
      <trkpt lat="47.36472" lon="-2.39735">
        <ele>74</ele>
        <time>2019-09-05T13:03:54Z</time>
      </trkpt>
      <trkpt lat="47.36485" lon="-2.39758">
        <ele>73</ele>
        <time>2019-09-05T13:03:57Z</time>
      </trkpt>
      <trkpt lat="47.36496" lon="-2.39766">
        <ele>73</ele>
        <time>2019-09-05T13:03:59Z</time>
      </trkpt>
      <trkpt lat="47.36501" lon="-2.3977">
        <ele>73</ele>
        <time>2019-09-05T13:04:00Z</time>
      </trkpt>
      <trkpt lat="47.36511" lon="-2.39781">
        <ele>73</ele>
        <time>2019-09-05T13:04:02Z</time>
      </trkpt>
      <trkpt lat="47.36515" lon="-2.39789">
        <ele>72</ele>
        <time>2019-09-05T13:04:03Z</time>
      </trkpt>
      <trkpt lat="47.36518" lon="-2.39798">
        <ele>72</ele>
        <time>2019-09-05T13:04:04Z</time>
      </trkpt>
      <trkpt lat="47.36521" lon="-2.39806">
        <ele>72</ele>
        <time>2019-09-05T13:04:05Z</time>
      </trkpt>
      <trkpt lat="47.36527" lon="-2.3982">
        <ele>74</ele>
        <time>2019-09-05T13:04:07Z</time>
      </trkpt>
      <trkpt lat="47.36532" lon="-2.39827">
        <ele>74</ele>
        <time>2019-09-05T13:04:08Z</time>
      </trkpt>
      <trkpt lat="47.36538" lon="-2.39834">
        <ele>74</ele>
        <time>2019-09-05T13:04:09Z</time>
      </trkpt>
      <trkpt lat="47.36542" lon="-2.39842">
        <ele>73</ele>
        <time>2019-09-05T13:04:10Z</time>
      </trkpt>
      <trkpt lat="47.36547" lon="-2.39848">
        <ele>72</ele>
        <time>2019-09-05T13:04:11Z</time>
      </trkpt>
      <trkpt lat="47.36552" lon="-2.39854">
        <ele>72</ele>
        <time>2019-09-05T13:04:12Z</time>
      </trkpt>
      <trkpt lat="47.36561" lon="-2.39865">
        <ele>72</ele>
        <time>2019-09-05T13:04:14Z</time>
      </trkpt>
      <trkpt lat="47.36566" lon="-2.39869">
        <ele>71</ele>
        <time>2019-09-05T13:04:15Z</time>
      </trkpt>
      <trkpt lat="47.36571" lon="-2.39875">
        <ele>71</ele>
        <time>2019-09-05T13:04:16Z</time>
      </trkpt>
      <trkpt lat="47.36576" lon="-2.3988">
        <ele>71</ele>
        <time>2019-09-05T13:04:17Z</time>
      </trkpt>
      <trkpt lat="47.3658" lon="-2.39886">
        <ele>71</ele>
        <time>2019-09-05T13:04:18Z</time>
      </trkpt>
      <trkpt lat="47.36584" lon="-2.39892">
        <ele>71</ele>
        <time>2019-09-05T13:04:19Z</time>
      </trkpt>
      <trkpt lat="47.36587" lon="-2.399">
        <ele>71</ele>
        <time>2019-09-05T13:04:20Z</time>
      </trkpt>
      <trkpt lat="47.36588" lon="-2.39912">
        <ele>68</ele>
        <time>2019-09-05T13:04:22Z</time>
      </trkpt>
      <trkpt lat="47.36586" lon="-2.39919">
        <ele>67</ele>
        <time>2019-09-05T13:04:23Z</time>
      </trkpt>
      <trkpt lat="47.36583" lon="-2.39925">
        <ele>67</ele>
        <time>2019-09-05T13:04:24Z</time>
      </trkpt>
      <trkpt lat="47.36579" lon="-2.39931">
        <ele>67</ele>
        <time>2019-09-05T13:04:25Z</time>
      </trkpt>
      <trkpt lat="47.36575" lon="-2.39937">
        <ele>67</ele>
        <time>2019-09-05T13:04:26Z</time>
      </trkpt>
      <trkpt lat="47.36571" lon="-2.39943">
        <ele>67</ele>
        <time>2019-09-05T13:04:27Z</time>
      </trkpt>
      <trkpt lat="47.36566" lon="-2.39949">
        <ele>67</ele>
        <time>2019-09-05T13:04:28Z</time>
      </trkpt>
      <trkpt lat="47.36562" lon="-2.39956">
        <ele>67</ele>
        <time>2019-09-05T13:04:29Z</time>
      </trkpt>
      <trkpt lat="47.36558" lon="-2.39962">
        <ele>67</ele>
        <time>2019-09-05T13:04:30Z</time>
      </trkpt>
      <trkpt lat="47.36548" lon="-2.39971">
        <ele>66</ele>
        <time>2019-09-05T13:04:32Z</time>
      </trkpt>
      <trkpt lat="47.36534" lon="-2.39982">
        <ele>70</ele>
        <time>2019-09-05T13:04:35Z</time>
      </trkpt>
      <trkpt lat="47.36529" lon="-2.39987">
        <ele>71</ele>
        <time>2019-09-05T13:04:36Z</time>
      </trkpt>
      <trkpt lat="47.36519" lon="-2.39998">
        <ele>73</ele>
        <time>2019-09-05T13:04:38Z</time>
      </trkpt>
      <trkpt lat="47.36514" lon="-2.40004">
        <ele>73</ele>
        <time>2019-09-05T13:04:39Z</time>
      </trkpt>
      <trkpt lat="47.36497" lon="-2.40021">
        <ele>73</ele>
        <time>2019-09-05T13:04:42Z</time>
      </trkpt>
      <trkpt lat="47.36491" lon="-2.40028">
        <ele>73</ele>
        <time>2019-09-05T13:04:43Z</time>
      </trkpt>
      <trkpt lat="47.3648" lon="-2.40038">
        <ele>72</ele>
        <time>2019-09-05T13:04:45Z</time>
      </trkpt>
      <trkpt lat="47.36462" lon="-2.40053">
        <ele>70</ele>
        <time>2019-09-05T13:04:48Z</time>
      </trkpt>
      <trkpt lat="47.36455" lon="-2.40057">
        <ele>70</ele>
        <time>2019-09-05T13:04:49Z</time>
      </trkpt>
      <trkpt lat="47.36449" lon="-2.40061">
        <ele>69</ele>
        <time>2019-09-05T13:04:50Z</time>
      </trkpt>
      <trkpt lat="47.36445" lon="-2.40064">
        <ele>69</ele>
        <time>2019-09-05T13:04:51Z</time>
      </trkpt>
      <trkpt lat="47.36437" lon="-2.40066">
        <ele>70</ele>
        <time>2019-09-05T13:04:53Z</time>
      </trkpt>
      <trkpt lat="47.36432" lon="-2.40067">
        <ele>69</ele>
        <time>2019-09-05T13:04:54Z</time>
      </trkpt>
      <trkpt lat="47.3642" lon="-2.40068">
        <ele>70</ele>
        <time>2019-09-05T13:04:57Z</time>
      </trkpt>
      <trkpt lat="47.36414" lon="-2.40071">
        <ele>69</ele>
        <time>2019-09-05T13:04:58Z</time>
      </trkpt>
      <trkpt lat="47.36407" lon="-2.40073">
        <ele>68</ele>
        <time>2019-09-05T13:04:59Z</time>
      </trkpt>
      <trkpt lat="47.364" lon="-2.40075">
        <ele>67</ele>
        <time>2019-09-05T13:05:00Z</time>
      </trkpt>
      <trkpt lat="47.36394" lon="-2.40077">
        <ele>66</ele>
        <time>2019-09-05T13:05:01Z</time>
      </trkpt>
      <trkpt lat="47.36386" lon="-2.40079">
        <ele>66</ele>
        <time>2019-09-05T13:05:02Z</time>
      </trkpt>
      <trkpt lat="47.36379" lon="-2.40081">
        <ele>65</ele>
        <time>2019-09-05T13:05:03Z</time>
      </trkpt>
      <trkpt lat="47.36373" lon="-2.40083">
        <ele>65</ele>
        <time>2019-09-05T13:05:04Z</time>
      </trkpt>
      <trkpt lat="47.36367" lon="-2.40085">
        <ele>64</ele>
        <time>2019-09-05T13:05:05Z</time>
      </trkpt>
      <trkpt lat="47.36361" lon="-2.40087">
        <ele>64</ele>
        <time>2019-09-05T13:05:06Z</time>
      </trkpt>
      <trkpt lat="47.36355" lon="-2.40089">
        <ele>64</ele>
        <time>2019-09-05T13:05:07Z</time>
      </trkpt>
      <trkpt lat="47.36337" lon="-2.40096">
        <ele>63</ele>
        <time>2019-09-05T13:05:10Z</time>
      </trkpt>
      <trkpt lat="47.36331" lon="-2.40097">
        <ele>63</ele>
        <time>2019-09-05T13:05:11Z</time>
      </trkpt>
      <trkpt lat="47.36315" lon="-2.40106">
        <ele>63</ele>
        <time>2019-09-05T13:05:14Z</time>
      </trkpt>
      <trkpt lat="47.3631" lon="-2.40108">
        <ele>63</ele>
        <time>2019-09-05T13:05:15Z</time>
      </trkpt>
      <trkpt lat="47.36304" lon="-2.4011">
        <ele>63</ele>
        <time>2019-09-05T13:05:16Z</time>
      </trkpt>
      <trkpt lat="47.36299" lon="-2.40112">
        <ele>63</ele>
        <time>2019-09-05T13:05:17Z</time>
      </trkpt>
      <trkpt lat="47.36287" lon="-2.40116">
        <ele>64</ele>
        <time>2019-09-05T13:05:19Z</time>
      </trkpt>
      <trkpt lat="47.36268" lon="-2.40121">
        <ele>64</ele>
        <time>2019-09-05T13:05:22Z</time>
      </trkpt>
      <trkpt lat="47.36262" lon="-2.40124">
        <ele>64</ele>
        <time>2019-09-05T13:05:23Z</time>
      </trkpt>
      <trkpt lat="47.36251" lon="-2.40131">
        <ele>62</ele>
        <time>2019-09-05T13:05:25Z</time>
      </trkpt>
      <trkpt lat="47.36246" lon="-2.40136">
        <ele>62</ele>
        <time>2019-09-05T13:05:26Z</time>
      </trkpt>
      <trkpt lat="47.3624" lon="-2.40139">
        <ele>62</ele>
        <time>2019-09-05T13:05:27Z</time>
      </trkpt>
      <trkpt lat="47.3623" lon="-2.40146">
        <ele>62</ele>
        <time>2019-09-05T13:05:29Z</time>
      </trkpt>
      <trkpt lat="47.36224" lon="-2.4015">
        <ele>62</ele>
        <time>2019-09-05T13:05:30Z</time>
      </trkpt>
      <trkpt lat="47.36218" lon="-2.40154">
        <ele>62</ele>
        <time>2019-09-05T13:05:31Z</time>
      </trkpt>
      <trkpt lat="47.36213" lon="-2.40159">
        <ele>62</ele>
        <time>2019-09-05T13:05:32Z</time>
      </trkpt>
      <trkpt lat="47.36204" lon="-2.40169">
        <ele>63</ele>
        <time>2019-09-05T13:05:34Z</time>
      </trkpt>
      <trkpt lat="47.36198" lon="-2.40175">
        <ele>63</ele>
        <time>2019-09-05T13:05:35Z</time>
      </trkpt>
      <trkpt lat="47.36192" lon="-2.40181">
        <ele>63</ele>
        <time>2019-09-05T13:05:36Z</time>
      </trkpt>
      <trkpt lat="47.36187" lon="-2.40186">
        <ele>63</ele>
        <time>2019-09-05T13:05:37Z</time>
      </trkpt>
      <trkpt lat="47.36182" lon="-2.4019">
        <ele>63</ele>
        <time>2019-09-05T13:05:38Z</time>
      </trkpt>
      <trkpt lat="47.36177" lon="-2.40195">
        <ele>63</ele>
        <time>2019-09-05T13:05:39Z</time>
      </trkpt>
      <trkpt lat="47.36166" lon="-2.40204">
        <ele>63</ele>
        <time>2019-09-05T13:05:41Z</time>
      </trkpt>
      <trkpt lat="47.36161" lon="-2.40208">
        <ele>63</ele>
        <time>2019-09-05T13:05:42Z</time>
      </trkpt>
      <trkpt lat="47.36156" lon="-2.40213">
        <ele>62</ele>
        <time>2019-09-05T13:05:43Z</time>
      </trkpt>
      <trkpt lat="47.36142" lon="-2.40226">
        <ele>63</ele>
        <time>2019-09-05T13:05:46Z</time>
      </trkpt>
      <trkpt lat="47.36132" lon="-2.40235">
        <ele>63</ele>
        <time>2019-09-05T13:05:48Z</time>
      </trkpt>
      <trkpt lat="47.36127" lon="-2.40239">
        <ele>64</ele>
        <time>2019-09-05T13:05:49Z</time>
      </trkpt>
      <trkpt lat="47.36121" lon="-2.40243">
        <ele>64</ele>
        <time>2019-09-05T13:05:50Z</time>
      </trkpt>
      <trkpt lat="47.36116" lon="-2.40248">
        <ele>64</ele>
        <time>2019-09-05T13:05:51Z</time>
      </trkpt>
      <trkpt lat="47.36111" lon="-2.40253">
        <ele>64</ele>
        <time>2019-09-05T13:05:52Z</time>
      </trkpt>
      <trkpt lat="47.36105" lon="-2.40257">
        <ele>64</ele>
        <time>2019-09-05T13:05:53Z</time>
      </trkpt>
      <trkpt lat="47.36099" lon="-2.40262">
        <ele>64</ele>
        <time>2019-09-05T13:05:54Z</time>
      </trkpt>
      <trkpt lat="47.36093" lon="-2.40267">
        <ele>64</ele>
        <time>2019-09-05T13:05:55Z</time>
      </trkpt>
      <trkpt lat="47.36088" lon="-2.40271">
        <ele>64</ele>
        <time>2019-09-05T13:05:56Z</time>
      </trkpt>
      <trkpt lat="47.36082" lon="-2.40275">
        <ele>64</ele>
        <time>2019-09-05T13:05:57Z</time>
      </trkpt>
      <trkpt lat="47.36075" lon="-2.4028">
        <ele>64</ele>
        <time>2019-09-05T13:05:58Z</time>
      </trkpt>
      <trkpt lat="47.36069" lon="-2.40286">
        <ele>65</ele>
        <time>2019-09-05T13:05:59Z</time>
      </trkpt>
      <trkpt lat="47.36064" lon="-2.40291">
        <ele>65</ele>
        <time>2019-09-05T13:06:00Z</time>
      </trkpt>
      <trkpt lat="47.36058" lon="-2.40296">
        <ele>65</ele>
        <time>2019-09-05T13:06:01Z</time>
      </trkpt>
      <trkpt lat="47.36042" lon="-2.40315">
        <ele>65</ele>
        <time>2019-09-05T13:06:04Z</time>
      </trkpt>
      <trkpt lat="47.36038" lon="-2.40321">
        <ele>65</ele>
        <time>2019-09-05T13:06:05Z</time>
      </trkpt>
      <trkpt lat="47.36034" lon="-2.4033">
        <ele>65</ele>
        <time>2019-09-05T13:06:06Z</time>
      </trkpt>
      <trkpt lat="47.3603" lon="-2.40339">
        <ele>64</ele>
        <time>2019-09-05T13:06:07Z</time>
      </trkpt>
      <trkpt lat="47.36026" lon="-2.40347">
        <ele>64</ele>
        <time>2019-09-05T13:06:08Z</time>
      </trkpt>
      <trkpt lat="47.36022" lon="-2.40367">
        <ele>64</ele>
        <time>2019-09-05T13:06:10Z</time>
      </trkpt>
      <trkpt lat="47.36023" lon="-2.40377">
        <ele>64</ele>
        <time>2019-09-05T13:06:11Z</time>
      </trkpt>
      <trkpt lat="47.36023" lon="-2.40407">
        <ele>62</ele>
        <time>2019-09-05T13:06:14Z</time>
      </trkpt>
      <trkpt lat="47.36019" lon="-2.40435">
        <ele>62</ele>
        <time>2019-09-05T13:06:17Z</time>
      </trkpt>
      <trkpt lat="47.36015" lon="-2.40443">
        <ele>62</ele>
        <time>2019-09-05T13:06:18Z</time>
      </trkpt>
      <trkpt lat="47.36011" lon="-2.40451">
        <ele>62</ele>
        <time>2019-09-05T13:06:19Z</time>
      </trkpt>
      <trkpt lat="47.36005" lon="-2.40457">
        <ele>62</ele>
        <time>2019-09-05T13:06:20Z</time>
      </trkpt>
      <trkpt lat="47.36" lon="-2.40464">
        <ele>62</ele>
        <time>2019-09-05T13:06:21Z</time>
      </trkpt>
      <trkpt lat="47.35995" lon="-2.4047">
        <ele>62</ele>
        <time>2019-09-05T13:06:22Z</time>
      </trkpt>
      <trkpt lat="47.35989" lon="-2.40477">
        <ele>62</ele>
        <time>2019-09-05T13:06:23Z</time>
      </trkpt>
      <trkpt lat="47.35984" lon="-2.40484">
        <ele>62</ele>
        <time>2019-09-05T13:06:24Z</time>
      </trkpt>
      <trkpt lat="47.35979" lon="-2.40492">
        <ele>62</ele>
        <time>2019-09-05T13:06:25Z</time>
      </trkpt>
      <trkpt lat="47.35973" lon="-2.40499">
        <ele>62</ele>
        <time>2019-09-05T13:06:26Z</time>
      </trkpt>
      <trkpt lat="47.35968" lon="-2.40506">
        <ele>62</ele>
        <time>2019-09-05T13:06:27Z</time>
      </trkpt>
      <trkpt lat="47.35963" lon="-2.40513">
        <ele>62</ele>
        <time>2019-09-05T13:06:28Z</time>
      </trkpt>
      <trkpt lat="47.35958" lon="-2.40519">
        <ele>62</ele>
        <time>2019-09-05T13:06:29Z</time>
      </trkpt>
      <trkpt lat="47.35953" lon="-2.40526">
        <ele>62</ele>
        <time>2019-09-05T13:06:30Z</time>
      </trkpt>
      <trkpt lat="47.35949" lon="-2.40532">
        <ele>62</ele>
        <time>2019-09-05T13:06:31Z</time>
      </trkpt>
      <trkpt lat="47.35944" lon="-2.40539">
        <ele>62</ele>
        <time>2019-09-05T13:06:32Z</time>
      </trkpt>
      <trkpt lat="47.35939" lon="-2.40545">
        <ele>62</ele>
        <time>2019-09-05T13:06:33Z</time>
      </trkpt>
      <trkpt lat="47.35935" lon="-2.40552">
        <ele>61</ele>
        <time>2019-09-05T13:06:34Z</time>
      </trkpt>
      <trkpt lat="47.3593" lon="-2.4056">
        <ele>61</ele>
        <time>2019-09-05T13:06:35Z</time>
      </trkpt>
      <trkpt lat="47.35925" lon="-2.40567">
        <ele>61</ele>
        <time>2019-09-05T13:06:36Z</time>
      </trkpt>
      <trkpt lat="47.3592" lon="-2.40573">
        <ele>61</ele>
        <time>2019-09-05T13:06:37Z</time>
      </trkpt>
      <trkpt lat="47.35916" lon="-2.4058">
        <ele>61</ele>
        <time>2019-09-05T13:06:38Z</time>
      </trkpt>
      <trkpt lat="47.35906" lon="-2.40593">
        <ele>61</ele>
        <time>2019-09-05T13:06:40Z</time>
      </trkpt>
      <trkpt lat="47.35902" lon="-2.40601">
        <ele>61</ele>
        <time>2019-09-05T13:06:41Z</time>
      </trkpt>
      <trkpt lat="47.35897" lon="-2.40608">
        <ele>62</ele>
        <time>2019-09-05T13:06:42Z</time>
      </trkpt>
      <trkpt lat="47.35893" lon="-2.40616">
        <ele>62</ele>
        <time>2019-09-05T13:06:43Z</time>
      </trkpt>
      <trkpt lat="47.35885" lon="-2.40631">
        <ele>62</ele>
        <time>2019-09-05T13:06:45Z</time>
      </trkpt>
      <trkpt lat="47.35876" lon="-2.40647">
        <ele>62</ele>
        <time>2019-09-05T13:06:47Z</time>
      </trkpt>
      <trkpt lat="47.35872" lon="-2.40655">
        <ele>62</ele>
        <time>2019-09-05T13:06:48Z</time>
      </trkpt>
      <trkpt lat="47.35868" lon="-2.40664">
        <ele>62</ele>
        <time>2019-09-05T13:06:49Z</time>
      </trkpt>
      <trkpt lat="47.35864" lon="-2.40673">
        <ele>62</ele>
        <time>2019-09-05T13:06:50Z</time>
      </trkpt>
      <trkpt lat="47.35861" lon="-2.40682">
        <ele>62</ele>
        <time>2019-09-05T13:06:51Z</time>
      </trkpt>
      <trkpt lat="47.35855" lon="-2.40709">
        <ele>61</ele>
        <time>2019-09-05T13:06:54Z</time>
      </trkpt>
      <trkpt lat="47.35855" lon="-2.40717">
        <ele>61</ele>
        <time>2019-09-05T13:06:55Z</time>
      </trkpt>
      <trkpt lat="47.35851" lon="-2.40733">
        <ele>61</ele>
        <time>2019-09-05T13:06:57Z</time>
      </trkpt>
      <trkpt lat="47.35848" lon="-2.4074">
        <ele>61</ele>
        <time>2019-09-05T13:06:58Z</time>
      </trkpt>
      <trkpt lat="47.35839" lon="-2.40754">
        <ele>62</ele>
        <time>2019-09-05T13:07:00Z</time>
      </trkpt>
      <trkpt lat="47.35834" lon="-2.40761">
        <ele>62</ele>
        <time>2019-09-05T13:07:01Z</time>
      </trkpt>
      <trkpt lat="47.3583" lon="-2.40768">
        <ele>62</ele>
        <time>2019-09-05T13:07:02Z</time>
      </trkpt>
      <trkpt lat="47.35825" lon="-2.40776">
        <ele>61</ele>
        <time>2019-09-05T13:07:03Z</time>
      </trkpt>
      <trkpt lat="47.35821" lon="-2.40783">
        <ele>62</ele>
        <time>2019-09-05T13:07:04Z</time>
      </trkpt>
      <trkpt lat="47.35811" lon="-2.40797">
        <ele>62</ele>
        <time>2019-09-05T13:07:06Z</time>
      </trkpt>
      <trkpt lat="47.35807" lon="-2.40804">
        <ele>62</ele>
        <time>2019-09-05T13:07:07Z</time>
      </trkpt>
      <trkpt lat="47.35802" lon="-2.40811">
        <ele>62</ele>
        <time>2019-09-05T13:07:08Z</time>
      </trkpt>
      <trkpt lat="47.35797" lon="-2.40818">
        <ele>62</ele>
        <time>2019-09-05T13:07:09Z</time>
      </trkpt>
      <trkpt lat="47.35783" lon="-2.40838">
        <ele>63</ele>
        <time>2019-09-05T13:07:12Z</time>
      </trkpt>
      <trkpt lat="47.35778" lon="-2.40844">
        <ele>63</ele>
        <time>2019-09-05T13:07:13Z</time>
      </trkpt>
      <trkpt lat="47.35773" lon="-2.40851">
        <ele>63</ele>
        <time>2019-09-05T13:07:14Z</time>
      </trkpt>
      <trkpt lat="47.35769" lon="-2.40858">
        <ele>63</ele>
        <time>2019-09-05T13:07:15Z</time>
      </trkpt>
      <trkpt lat="47.35764" lon="-2.40865">
        <ele>64</ele>
        <time>2019-09-05T13:07:16Z</time>
      </trkpt>
      <trkpt lat="47.3576" lon="-2.40871">
        <ele>64</ele>
        <time>2019-09-05T13:07:17Z</time>
      </trkpt>
      <trkpt lat="47.35755" lon="-2.40878">
        <ele>65</ele>
        <time>2019-09-05T13:07:18Z</time>
      </trkpt>
      <trkpt lat="47.3575" lon="-2.40886">
        <ele>64</ele>
        <time>2019-09-05T13:07:19Z</time>
      </trkpt>
      <trkpt lat="47.35746" lon="-2.40893">
        <ele>65</ele>
        <time>2019-09-05T13:07:20Z</time>
      </trkpt>
      <trkpt lat="47.35741" lon="-2.409">
        <ele>65</ele>
        <time>2019-09-05T13:07:21Z</time>
      </trkpt>
      <trkpt lat="47.35731" lon="-2.40911">
        <ele>65</ele>
        <time>2019-09-05T13:07:23Z</time>
      </trkpt>
      <trkpt lat="47.35722" lon="-2.40924">
        <ele>65</ele>
        <time>2019-09-05T13:07:25Z</time>
      </trkpt>
      <trkpt lat="47.35718" lon="-2.4093">
        <ele>65</ele>
        <time>2019-09-05T13:07:26Z</time>
      </trkpt>
      <trkpt lat="47.35714" lon="-2.40936">
        <ele>65</ele>
        <time>2019-09-05T13:07:27Z</time>
      </trkpt>
      <trkpt lat="47.35711" lon="-2.4094">
        <ele>65</ele>
        <time>2019-09-05T13:07:28Z</time>
      </trkpt>
      <trkpt lat="47.35709" lon="-2.40945">
        <ele>66</ele>
        <time>2019-09-05T13:07:29Z</time>
      </trkpt>
      <trkpt lat="47.35706" lon="-2.40949">
        <ele>66</ele>
        <time>2019-09-05T13:07:30Z</time>
      </trkpt>
      <trkpt lat="47.35704" lon="-2.40953">
        <ele>66</ele>
        <time>2019-09-05T13:07:31Z</time>
      </trkpt>
      <trkpt lat="47.35702" lon="-2.40957">
        <ele>66</ele>
        <time>2019-09-05T13:07:32Z</time>
      </trkpt>
      <trkpt lat="47.35699" lon="-2.40962">
        <ele>65</ele>
        <time>2019-09-05T13:07:33Z</time>
      </trkpt>
      <trkpt lat="47.35696" lon="-2.40967">
        <ele>65</ele>
        <time>2019-09-05T13:07:34Z</time>
      </trkpt>
      <trkpt lat="47.35692" lon="-2.40972">
        <ele>65</ele>
        <time>2019-09-05T13:07:35Z</time>
      </trkpt>
      <trkpt lat="47.35688" lon="-2.40977">
        <ele>65</ele>
        <time>2019-09-05T13:07:36Z</time>
      </trkpt>
      <trkpt lat="47.35684" lon="-2.40982">
        <ele>65</ele>
        <time>2019-09-05T13:07:37Z</time>
      </trkpt>
      <trkpt lat="47.3568" lon="-2.40987">
        <ele>65</ele>
        <time>2019-09-05T13:07:38Z</time>
      </trkpt>
      <trkpt lat="47.35676" lon="-2.40993">
        <ele>65</ele>
        <time>2019-09-05T13:07:39Z</time>
      </trkpt>
      <trkpt lat="47.35672" lon="-2.40999">
        <ele>65</ele>
        <time>2019-09-05T13:07:40Z</time>
      </trkpt>
      <trkpt lat="47.35667" lon="-2.41005">
        <ele>64</ele>
        <time>2019-09-05T13:07:41Z</time>
      </trkpt>
      <trkpt lat="47.35662" lon="-2.41012">
        <ele>64</ele>
        <time>2019-09-05T13:07:42Z</time>
      </trkpt>
      <trkpt lat="47.35658" lon="-2.41019">
        <ele>64</ele>
        <time>2019-09-05T13:07:43Z</time>
      </trkpt>
      <trkpt lat="47.35648" lon="-2.41032">
        <ele>64</ele>
        <time>2019-09-05T13:07:45Z</time>
      </trkpt>
      <trkpt lat="47.35643" lon="-2.41039">
        <ele>63</ele>
        <time>2019-09-05T13:07:46Z</time>
      </trkpt>
      <trkpt lat="47.35623" lon="-2.41064">
        <ele>65</ele>
        <time>2019-09-05T13:07:50Z</time>
      </trkpt>
      <trkpt lat="47.35618" lon="-2.4107">
        <ele>65</ele>
        <time>2019-09-05T13:07:51Z</time>
      </trkpt>
      <trkpt lat="47.35612" lon="-2.41075">
        <ele>65</ele>
        <time>2019-09-05T13:07:52Z</time>
      </trkpt>
      <trkpt lat="47.35607" lon="-2.41081">
        <ele>65</ele>
        <time>2019-09-05T13:07:53Z</time>
      </trkpt>
      <trkpt lat="47.35596" lon="-2.41092">
        <ele>65</ele>
        <time>2019-09-05T13:07:55Z</time>
      </trkpt>
      <trkpt lat="47.3559" lon="-2.41099">
        <ele>65</ele>
        <time>2019-09-05T13:07:56Z</time>
      </trkpt>
      <trkpt lat="47.35584" lon="-2.41105">
        <ele>66</ele>
        <time>2019-09-05T13:07:57Z</time>
      </trkpt>
      <trkpt lat="47.35574" lon="-2.41115">
        <ele>66</ele>
        <time>2019-09-05T13:07:59Z</time>
      </trkpt>
      <trkpt lat="47.35568" lon="-2.41121">
        <ele>65</ele>
        <time>2019-09-05T13:08:00Z</time>
      </trkpt>
      <trkpt lat="47.35562" lon="-2.41127">
        <ele>65</ele>
        <time>2019-09-05T13:08:01Z</time>
      </trkpt>
      <trkpt lat="47.35556" lon="-2.41132">
        <ele>65</ele>
        <time>2019-09-05T13:08:02Z</time>
      </trkpt>
      <trkpt lat="47.35549" lon="-2.41136">
        <ele>65</ele>
        <time>2019-09-05T13:08:03Z</time>
      </trkpt>
      <trkpt lat="47.35543" lon="-2.41141">
        <ele>65</ele>
        <time>2019-09-05T13:08:04Z</time>
      </trkpt>
      <trkpt lat="47.35537" lon="-2.41145">
        <ele>65</ele>
        <time>2019-09-05T13:08:05Z</time>
      </trkpt>
      <trkpt lat="47.3553" lon="-2.41149">
        <ele>65</ele>
        <time>2019-09-05T13:08:06Z</time>
      </trkpt>
      <trkpt lat="47.35524" lon="-2.41154">
        <ele>65</ele>
        <time>2019-09-05T13:08:07Z</time>
      </trkpt>
      <trkpt lat="47.35517" lon="-2.41159">
        <ele>65</ele>
        <time>2019-09-05T13:08:08Z</time>
      </trkpt>
      <trkpt lat="47.3551" lon="-2.41164">
        <ele>65</ele>
        <time>2019-09-05T13:08:09Z</time>
      </trkpt>
      <trkpt lat="47.35497" lon="-2.41175">
        <ele>64</ele>
        <time>2019-09-05T13:08:11Z</time>
      </trkpt>
      <trkpt lat="47.35491" lon="-2.4118">
        <ele>64</ele>
        <time>2019-09-05T13:08:12Z</time>
      </trkpt>
      <trkpt lat="47.35485" lon="-2.41185">
        <ele>64</ele>
        <time>2019-09-05T13:08:13Z</time>
      </trkpt>
      <trkpt lat="47.35479" lon="-2.4119">
        <ele>64</ele>
        <time>2019-09-05T13:08:14Z</time>
      </trkpt>
      <trkpt lat="47.35461" lon="-2.41205">
        <ele>64</ele>
        <time>2019-09-05T13:08:17Z</time>
      </trkpt>
      <trkpt lat="47.35456" lon="-2.41211">
        <ele>64</ele>
        <time>2019-09-05T13:08:18Z</time>
      </trkpt>
      <trkpt lat="47.35452" lon="-2.41217">
        <ele>64</ele>
        <time>2019-09-05T13:08:19Z</time>
      </trkpt>
      <trkpt lat="47.35448" lon="-2.41224">
        <ele>64</ele>
        <time>2019-09-05T13:08:20Z</time>
      </trkpt>
      <trkpt lat="47.35443" lon="-2.4123">
        <ele>64</ele>
        <time>2019-09-05T13:08:21Z</time>
      </trkpt>
      <trkpt lat="47.35438" lon="-2.41238">
        <ele>64</ele>
        <time>2019-09-05T13:08:22Z</time>
      </trkpt>
      <trkpt lat="47.35433" lon="-2.41245">
        <ele>63</ele>
        <time>2019-09-05T13:08:23Z</time>
      </trkpt>
      <trkpt lat="47.35428" lon="-2.41253">
        <ele>64</ele>
        <time>2019-09-05T13:08:24Z</time>
      </trkpt>
      <trkpt lat="47.35423" lon="-2.4126">
        <ele>64</ele>
        <time>2019-09-05T13:08:25Z</time>
      </trkpt>
      <trkpt lat="47.35418" lon="-2.41266">
        <ele>63</ele>
        <time>2019-09-05T13:08:26Z</time>
      </trkpt>
      <trkpt lat="47.35412" lon="-2.41271">
        <ele>64</ele>
        <time>2019-09-05T13:08:27Z</time>
      </trkpt>
      <trkpt lat="47.35393" lon="-2.41284">
        <ele>64</ele>
        <time>2019-09-05T13:08:30Z</time>
      </trkpt>
      <trkpt lat="47.35387" lon="-2.4129">
        <ele>64</ele>
        <time>2019-09-05T13:08:31Z</time>
      </trkpt>
      <trkpt lat="47.35381" lon="-2.41296">
        <ele>64</ele>
        <time>2019-09-05T13:08:32Z</time>
      </trkpt>
      <trkpt lat="47.35376" lon="-2.41302">
        <ele>64</ele>
        <time>2019-09-05T13:08:33Z</time>
      </trkpt>
      <trkpt lat="47.35359" lon="-2.41324">
        <ele>64</ele>
        <time>2019-09-05T13:08:36Z</time>
      </trkpt>
      <trkpt lat="47.35354" lon="-2.41332">
        <ele>64</ele>
        <time>2019-09-05T13:08:37Z</time>
      </trkpt>
      <trkpt lat="47.35344" lon="-2.41348">
        <ele>65</ele>
        <time>2019-09-05T13:08:39Z</time>
      </trkpt>
      <trkpt lat="47.35339" lon="-2.41355">
        <ele>64</ele>
        <time>2019-09-05T13:08:40Z</time>
      </trkpt>
      <trkpt lat="47.35333" lon="-2.41361">
        <ele>65</ele>
        <time>2019-09-05T13:08:41Z</time>
      </trkpt>
      <trkpt lat="47.35328" lon="-2.41368">
        <ele>65</ele>
        <time>2019-09-05T13:08:42Z</time>
      </trkpt>
      <trkpt lat="47.35313" lon="-2.41392">
        <ele>64</ele>
        <time>2019-09-05T13:08:45Z</time>
      </trkpt>
      <trkpt lat="47.35309" lon="-2.414">
        <ele>65</ele>
        <time>2019-09-05T13:08:46Z</time>
      </trkpt>
      <trkpt lat="47.353" lon="-2.41413">
        <ele>65</ele>
        <time>2019-09-05T13:08:48Z</time>
      </trkpt>
      <trkpt lat="47.35296" lon="-2.4142">
        <ele>66</ele>
        <time>2019-09-05T13:08:49Z</time>
      </trkpt>
      <trkpt lat="47.35281" lon="-2.41436">
        <ele>67</ele>
        <time>2019-09-05T13:08:52Z</time>
      </trkpt>
      <trkpt lat="47.35276" lon="-2.41441">
        <ele>67</ele>
        <time>2019-09-05T13:08:53Z</time>
      </trkpt>
      <trkpt lat="47.35271" lon="-2.41444">
        <ele>68</ele>
        <time>2019-09-05T13:08:54Z</time>
      </trkpt>
      <trkpt lat="47.35265" lon="-2.41446">
        <ele>68</ele>
        <time>2019-09-05T13:08:55Z</time>
      </trkpt>
      <trkpt lat="47.35258" lon="-2.41447">
        <ele>68</ele>
        <time>2019-09-05T13:08:56Z</time>
      </trkpt>
      <trkpt lat="47.35247" lon="-2.4144">
        <ele>68</ele>
        <time>2019-09-05T13:08:58Z</time>
      </trkpt>
      <trkpt lat="47.35226" lon="-2.41411">
        <ele>68</ele>
        <time>2019-09-05T13:09:02Z</time>
      </trkpt>
      <trkpt lat="47.35222" lon="-2.41402">
        <ele>68</ele>
        <time>2019-09-05T13:09:03Z</time>
      </trkpt>
      <trkpt lat="47.35218" lon="-2.41393">
        <ele>68</ele>
        <time>2019-09-05T13:09:04Z</time>
      </trkpt>
      <trkpt lat="47.35203" lon="-2.4137">
        <ele>69</ele>
        <time>2019-09-05T13:09:07Z</time>
      </trkpt>
      <trkpt lat="47.35199" lon="-2.41363">
        <ele>69</ele>
        <time>2019-09-05T13:09:08Z</time>
      </trkpt>
      <trkpt lat="47.35194" lon="-2.41358">
        <ele>69</ele>
        <time>2019-09-05T13:09:09Z</time>
      </trkpt>
      <trkpt lat="47.35184" lon="-2.4135">
        <ele>69</ele>
        <time>2019-09-05T13:09:11Z</time>
      </trkpt>
      <trkpt lat="47.35159" lon="-2.41358">
        <ele>69</ele>
        <time>2019-09-05T13:09:15Z</time>
      </trkpt>
      <trkpt lat="47.35152" lon="-2.41362">
        <ele>69</ele>
        <time>2019-09-05T13:09:16Z</time>
      </trkpt>
      <trkpt lat="47.35145" lon="-2.41367">
        <ele>69</ele>
        <time>2019-09-05T13:09:17Z</time>
      </trkpt>
      <trkpt lat="47.35139" lon="-2.4137">
        <ele>69</ele>
        <time>2019-09-05T13:09:18Z</time>
      </trkpt>
      <trkpt lat="47.35132" lon="-2.41375">
        <ele>69</ele>
        <time>2019-09-05T13:09:19Z</time>
      </trkpt>
      <trkpt lat="47.35126" lon="-2.41379">
        <ele>69</ele>
        <time>2019-09-05T13:09:20Z</time>
      </trkpt>
      <trkpt lat="47.3512" lon="-2.41383">
        <ele>69</ele>
        <time>2019-09-05T13:09:21Z</time>
      </trkpt>
      <trkpt lat="47.35115" lon="-2.41386">
        <ele>69</ele>
        <time>2019-09-05T13:09:22Z</time>
      </trkpt>
      <trkpt lat="47.3511" lon="-2.4139">
        <ele>69</ele>
        <time>2019-09-05T13:09:23Z</time>
      </trkpt>
      <trkpt lat="47.35104" lon="-2.41394">
        <ele>69</ele>
        <time>2019-09-05T13:09:24Z</time>
      </trkpt>
      <trkpt lat="47.35099" lon="-2.41397">
        <ele>70</ele>
        <time>2019-09-05T13:09:25Z</time>
      </trkpt>
      <trkpt lat="47.35095" lon="-2.414">
        <ele>70</ele>
        <time>2019-09-05T13:09:26Z</time>
      </trkpt>
      <trkpt lat="47.35085" lon="-2.41402">
        <ele>70</ele>
        <time>2019-09-05T13:09:28Z</time>
      </trkpt>
      <trkpt lat="47.35079" lon="-2.41399">
        <ele>70</ele>
        <time>2019-09-05T13:09:29Z</time>
      </trkpt>
      <trkpt lat="47.35075" lon="-2.41393">
        <ele>69</ele>
        <time>2019-09-05T13:09:30Z</time>
      </trkpt>
      <trkpt lat="47.35065" lon="-2.41368">
        <ele>70</ele>
        <time>2019-09-05T13:09:33Z</time>
      </trkpt>
      <trkpt lat="47.35062" lon="-2.4136">
        <ele>70</ele>
        <time>2019-09-05T13:09:34Z</time>
      </trkpt>
      <trkpt lat="47.35059" lon="-2.41352">
        <ele>70</ele>
        <time>2019-09-05T13:09:35Z</time>
      </trkpt>
      <trkpt lat="47.35055" lon="-2.41344">
        <ele>70</ele>
        <time>2019-09-05T13:09:36Z</time>
      </trkpt>
      <trkpt lat="47.35052" lon="-2.41336">
        <ele>70</ele>
        <time>2019-09-05T13:09:37Z</time>
      </trkpt>
      <trkpt lat="47.35049" lon="-2.41327">
        <ele>69</ele>
        <time>2019-09-05T13:09:38Z</time>
      </trkpt>
      <trkpt lat="47.35046" lon="-2.41318">
        <ele>69</ele>
        <time>2019-09-05T13:09:39Z</time>
      </trkpt>
      <trkpt lat="47.35042" lon="-2.41309">
        <ele>69</ele>
        <time>2019-09-05T13:09:40Z</time>
      </trkpt>
      <trkpt lat="47.3504" lon="-2.41301">
        <ele>69</ele>
        <time>2019-09-05T13:09:41Z</time>
      </trkpt>
      <trkpt lat="47.35033" lon="-2.41284">
        <ele>70</ele>
        <time>2019-09-05T13:09:43Z</time>
      </trkpt>
      <trkpt lat="47.3503" lon="-2.41274">
        <ele>70</ele>
        <time>2019-09-05T13:09:44Z</time>
      </trkpt>
      <trkpt lat="47.35026" lon="-2.41266">
        <ele>70</ele>
        <time>2019-09-05T13:09:45Z</time>
      </trkpt>
      <trkpt lat="47.35023" lon="-2.41258">
        <ele>69</ele>
        <time>2019-09-05T13:09:46Z</time>
      </trkpt>
      <trkpt lat="47.35019" lon="-2.4125">
        <ele>69</ele>
        <time>2019-09-05T13:09:47Z</time>
      </trkpt>
      <trkpt lat="47.35015" lon="-2.41242">
        <ele>70</ele>
        <time>2019-09-05T13:09:48Z</time>
      </trkpt>
      <trkpt lat="47.35012" lon="-2.41234">
        <ele>70</ele>
        <time>2019-09-05T13:09:49Z</time>
      </trkpt>
      <trkpt lat="47.35006" lon="-2.4122">
        <ele>70</ele>
        <time>2019-09-05T13:09:51Z</time>
      </trkpt>
      <trkpt lat="47.35003" lon="-2.41212">
        <ele>70</ele>
        <time>2019-09-05T13:09:52Z</time>
      </trkpt>
      <trkpt lat="47.34999" lon="-2.41203">
        <ele>70</ele>
        <time>2019-09-05T13:09:53Z</time>
      </trkpt>
      <trkpt lat="47.34995" lon="-2.41195">
        <ele>70</ele>
        <time>2019-09-05T13:09:54Z</time>
      </trkpt>
      <trkpt lat="47.34993" lon="-2.41187">
        <ele>71</ele>
        <time>2019-09-05T13:09:55Z</time>
      </trkpt>
      <trkpt lat="47.3499" lon="-2.41178">
        <ele>71</ele>
        <time>2019-09-05T13:09:56Z</time>
      </trkpt>
      <trkpt lat="47.34983" lon="-2.41161">
        <ele>71</ele>
        <time>2019-09-05T13:09:58Z</time>
      </trkpt>
      <trkpt lat="47.34979" lon="-2.41151">
        <ele>71</ele>
        <time>2019-09-05T13:09:59Z</time>
      </trkpt>
      <trkpt lat="47.34975" lon="-2.41142">
        <ele>70</ele>
        <time>2019-09-05T13:10:00Z</time>
      </trkpt>
      <trkpt lat="47.3497" lon="-2.41133">
        <ele>70</ele>
        <time>2019-09-05T13:10:01Z</time>
      </trkpt>
      <trkpt lat="47.34966" lon="-2.41125">
        <ele>70</ele>
        <time>2019-09-05T13:10:02Z</time>
      </trkpt>
      <trkpt lat="47.34962" lon="-2.41116">
        <ele>70</ele>
        <time>2019-09-05T13:10:03Z</time>
      </trkpt>
      <trkpt lat="47.34958" lon="-2.41108">
        <ele>70</ele>
        <time>2019-09-05T13:10:04Z</time>
      </trkpt>
      <trkpt lat="47.34955" lon="-2.41101">
        <ele>70</ele>
        <time>2019-09-05T13:10:05Z</time>
      </trkpt>
      <trkpt lat="47.34951" lon="-2.41092">
        <ele>69</ele>
        <time>2019-09-05T13:10:06Z</time>
      </trkpt>
      <trkpt lat="47.34947" lon="-2.41085">
        <ele>69</ele>
        <time>2019-09-05T13:10:07Z</time>
      </trkpt>
      <trkpt lat="47.34944" lon="-2.41076">
        <ele>69</ele>
        <time>2019-09-05T13:10:08Z</time>
      </trkpt>
      <trkpt lat="47.34936" lon="-2.41051">
        <ele>70</ele>
        <time>2019-09-05T13:10:11Z</time>
      </trkpt>
      <trkpt lat="47.34934" lon="-2.41033">
        <ele>71</ele>
        <time>2019-09-05T13:10:13Z</time>
      </trkpt>
      <trkpt lat="47.34935" lon="-2.41017">
        <ele>71</ele>
        <time>2019-09-05T13:10:15Z</time>
      </trkpt>
      <trkpt lat="47.34936" lon="-2.41008">
        <ele>72</ele>
        <time>2019-09-05T13:10:16Z</time>
      </trkpt>
      <trkpt lat="47.34937" lon="-2.41">
        <ele>71</ele>
        <time>2019-09-05T13:10:17Z</time>
      </trkpt>
      <trkpt lat="47.34938" lon="-2.40991">
        <ele>72</ele>
        <time>2019-09-05T13:10:18Z</time>
      </trkpt>
      <trkpt lat="47.34939" lon="-2.40982">
        <ele>72</ele>
        <time>2019-09-05T13:10:19Z</time>
      </trkpt>
      <trkpt lat="47.3494" lon="-2.40973">
        <ele>72</ele>
        <time>2019-09-05T13:10:20Z</time>
      </trkpt>
      <trkpt lat="47.34941" lon="-2.40964">
        <ele>72</ele>
        <time>2019-09-05T13:10:21Z</time>
      </trkpt>
      <trkpt lat="47.34942" lon="-2.40946">
        <ele>71</ele>
        <time>2019-09-05T13:10:23Z</time>
      </trkpt>
      <trkpt lat="47.34941" lon="-2.40937">
        <ele>71</ele>
        <time>2019-09-05T13:10:24Z</time>
      </trkpt>
      <trkpt lat="47.34941" lon="-2.40927">
        <ele>71</ele>
        <time>2019-09-05T13:10:25Z</time>
      </trkpt>
      <trkpt lat="47.34941" lon="-2.40907">
        <ele>71</ele>
        <time>2019-09-05T13:10:27Z</time>
      </trkpt>
      <trkpt lat="47.3494" lon="-2.40887">
        <ele>71</ele>
        <time>2019-09-05T13:10:29Z</time>
      </trkpt>
      <trkpt lat="47.34938" lon="-2.40877">
        <ele>71</ele>
        <time>2019-09-05T13:10:30Z</time>
      </trkpt>
      <trkpt lat="47.34937" lon="-2.40867">
        <ele>71</ele>
        <time>2019-09-05T13:10:31Z</time>
      </trkpt>
      <trkpt lat="47.34929" lon="-2.40839">
        <ele>71</ele>
        <time>2019-09-05T13:10:34Z</time>
      </trkpt>
      <trkpt lat="47.34921" lon="-2.40823">
        <ele>72</ele>
        <time>2019-09-05T13:10:36Z</time>
      </trkpt>
      <trkpt lat="47.34917" lon="-2.40815">
        <ele>72</ele>
        <time>2019-09-05T13:10:37Z</time>
      </trkpt>
      <trkpt lat="47.34912" lon="-2.40806">
        <ele>73</ele>
        <time>2019-09-05T13:10:38Z</time>
      </trkpt>
      <trkpt lat="47.34908" lon="-2.40798">
        <ele>72</ele>
        <time>2019-09-05T13:10:39Z</time>
      </trkpt>
      <trkpt lat="47.34904" lon="-2.4079">
        <ele>72</ele>
        <time>2019-09-05T13:10:40Z</time>
      </trkpt>
      <trkpt lat="47.34895" lon="-2.40776">
        <ele>72</ele>
        <time>2019-09-05T13:10:42Z</time>
      </trkpt>
      <trkpt lat="47.3489" lon="-2.40773">
        <ele>72</ele>
        <time>2019-09-05T13:10:43Z</time>
      </trkpt>
      <trkpt lat="47.34876" lon="-2.4077">
        <ele>73</ele>
        <time>2019-09-05T13:10:45Z</time>
      </trkpt>
      <trkpt lat="47.3487" lon="-2.40771">
        <ele>73</ele>
        <time>2019-09-05T13:10:46Z</time>
      </trkpt>
      <trkpt lat="47.34863" lon="-2.40772">
        <ele>73</ele>
        <time>2019-09-05T13:10:47Z</time>
      </trkpt>
      <trkpt lat="47.34856" lon="-2.40772">
        <ele>72</ele>
        <time>2019-09-05T13:10:48Z</time>
      </trkpt>
      <trkpt lat="47.34849" lon="-2.40771">
        <ele>73</ele>
        <time>2019-09-05T13:10:49Z</time>
      </trkpt>
      <trkpt lat="47.34842" lon="-2.40768">
        <ele>72</ele>
        <time>2019-09-05T13:10:50Z</time>
      </trkpt>
      <trkpt lat="47.34837" lon="-2.40765">
        <ele>71</ele>
        <time>2019-09-05T13:10:51Z</time>
      </trkpt>
      <trkpt lat="47.34832" lon="-2.4076">
        <ele>71</ele>
        <time>2019-09-05T13:10:52Z</time>
      </trkpt>
      <trkpt lat="47.34828" lon="-2.40751">
        <ele>70</ele>
        <time>2019-09-05T13:10:53Z</time>
      </trkpt>
      <trkpt lat="47.34825" lon="-2.40741">
        <ele>70</ele>
        <time>2019-09-05T13:10:54Z</time>
      </trkpt>
      <trkpt lat="47.34822" lon="-2.40732">
        <ele>69</ele>
        <time>2019-09-05T13:10:55Z</time>
      </trkpt>
      <trkpt lat="47.34821" lon="-2.40721">
        <ele>68</ele>
        <time>2019-09-05T13:10:56Z</time>
      </trkpt>
      <trkpt lat="47.34821" lon="-2.4071">
        <ele>68</ele>
        <time>2019-09-05T13:10:57Z</time>
      </trkpt>
      <trkpt lat="47.34821" lon="-2.40699">
        <ele>67</ele>
        <time>2019-09-05T13:10:58Z</time>
      </trkpt>
      <trkpt lat="47.34822" lon="-2.40687">
        <ele>67</ele>
        <time>2019-09-05T13:10:59Z</time>
      </trkpt>
      <trkpt lat="47.34831" lon="-2.40642">
        <ele>66</ele>
        <time>2019-09-05T13:11:03Z</time>
      </trkpt>
      <trkpt lat="47.34834" lon="-2.4063">
        <ele>66</ele>
        <time>2019-09-05T13:11:04Z</time>
      </trkpt>
      <trkpt lat="47.34838" lon="-2.40619">
        <ele>66</ele>
        <time>2019-09-05T13:11:05Z</time>
      </trkpt>
      <trkpt lat="47.34849" lon="-2.40601">
        <ele>66</ele>
        <time>2019-09-05T13:11:07Z</time>
      </trkpt>
      <trkpt lat="47.34855" lon="-2.40594">
        <ele>65</ele>
        <time>2019-09-05T13:11:08Z</time>
      </trkpt>
      <trkpt lat="47.34867" lon="-2.4058">
        <ele>65</ele>
        <time>2019-09-05T13:11:10Z</time>
      </trkpt>
      <trkpt lat="47.3488" lon="-2.40563">
        <ele>65</ele>
        <time>2019-09-05T13:11:12Z</time>
      </trkpt>
      <trkpt lat="47.34888" lon="-2.4053">
        <ele>66</ele>
        <time>2019-09-05T13:11:15Z</time>
      </trkpt>
      <trkpt lat="47.34884" lon="-2.40482">
        <ele>67</ele>
        <time>2019-09-05T13:11:19Z</time>
      </trkpt>
      <trkpt lat="47.34881" lon="-2.4047">
        <ele>68</ele>
        <time>2019-09-05T13:11:20Z</time>
      </trkpt>
      <trkpt lat="47.34878" lon="-2.40459">
        <ele>68</ele>
        <time>2019-09-05T13:11:21Z</time>
      </trkpt>
      <trkpt lat="47.34876" lon="-2.40447">
        <ele>68</ele>
        <time>2019-09-05T13:11:22Z</time>
      </trkpt>
      <trkpt lat="47.34874" lon="-2.40436">
        <ele>68</ele>
        <time>2019-09-05T13:11:23Z</time>
      </trkpt>
      <trkpt lat="47.34871" lon="-2.40425">
        <ele>68</ele>
        <time>2019-09-05T13:11:24Z</time>
      </trkpt>
      <trkpt lat="47.3487" lon="-2.40414">
        <ele>68</ele>
        <time>2019-09-05T13:11:25Z</time>
      </trkpt>
      <trkpt lat="47.34868" lon="-2.40403">
        <ele>68</ele>
        <time>2019-09-05T13:11:26Z</time>
      </trkpt>
      <trkpt lat="47.34866" lon="-2.40394">
        <ele>68</ele>
        <time>2019-09-05T13:11:27Z</time>
      </trkpt>
      <trkpt lat="47.34864" lon="-2.40384">
        <ele>68</ele>
        <time>2019-09-05T13:11:28Z</time>
      </trkpt>
      <trkpt lat="47.34863" lon="-2.40374">
        <ele>69</ele>
        <time>2019-09-05T13:11:29Z</time>
      </trkpt>
      <trkpt lat="47.34861" lon="-2.40365">
        <ele>69</ele>
        <time>2019-09-05T13:11:30Z</time>
      </trkpt>
      <trkpt lat="47.34858" lon="-2.40356">
        <ele>69</ele>
        <time>2019-09-05T13:11:31Z</time>
      </trkpt>
      <trkpt lat="47.34856" lon="-2.40348">
        <ele>69</ele>
        <time>2019-09-05T13:11:32Z</time>
      </trkpt>
      <trkpt lat="47.34854" lon="-2.40339">
        <ele>69</ele>
        <time>2019-09-05T13:11:33Z</time>
      </trkpt>
      <trkpt lat="47.34852" lon="-2.40331">
        <ele>69</ele>
        <time>2019-09-05T13:11:34Z</time>
      </trkpt>
      <trkpt lat="47.3485" lon="-2.40323">
        <ele>69</ele>
        <time>2019-09-05T13:11:35Z</time>
      </trkpt>
      <trkpt lat="47.3484" lon="-2.403">
        <ele>69</ele>
        <time>2019-09-05T13:11:38Z</time>
      </trkpt>
      <trkpt lat="47.34836" lon="-2.40292">
        <ele>70</ele>
        <time>2019-09-05T13:11:39Z</time>
      </trkpt>
      <trkpt lat="47.34831" lon="-2.40285">
        <ele>70</ele>
        <time>2019-09-05T13:11:40Z</time>
      </trkpt>
      <trkpt lat="47.34823" lon="-2.4027">
        <ele>70</ele>
        <time>2019-09-05T13:11:42Z</time>
      </trkpt>
      <trkpt lat="47.34818" lon="-2.40261">
        <ele>69</ele>
        <time>2019-09-05T13:11:43Z</time>
      </trkpt>
      <trkpt lat="47.34814" lon="-2.40253">
        <ele>70</ele>
        <time>2019-09-05T13:11:44Z</time>
      </trkpt>
      <trkpt lat="47.3481" lon="-2.40245">
        <ele>70</ele>
        <time>2019-09-05T13:11:45Z</time>
      </trkpt>
      <trkpt lat="47.34806" lon="-2.40237">
        <ele>70</ele>
        <time>2019-09-05T13:11:46Z</time>
      </trkpt>
      <trkpt lat="47.34802" lon="-2.4023">
        <ele>71</ele>
        <time>2019-09-05T13:11:47Z</time>
      </trkpt>
      <trkpt lat="47.34787" lon="-2.40215">
        <ele>71</ele>
        <time>2019-09-05T13:11:50Z</time>
      </trkpt>
      <trkpt lat="47.34782" lon="-2.4021">
        <ele>72</ele>
        <time>2019-09-05T13:11:51Z</time>
      </trkpt>
      <trkpt lat="47.34776" lon="-2.40206">
        <ele>72</ele>
        <time>2019-09-05T13:11:52Z</time>
      </trkpt>
      <trkpt lat="47.34771" lon="-2.402">
        <ele>72</ele>
        <time>2019-09-05T13:11:53Z</time>
      </trkpt>
      <trkpt lat="47.34761" lon="-2.40189">
        <ele>72</ele>
        <time>2019-09-05T13:11:55Z</time>
      </trkpt>
      <trkpt lat="47.34752" lon="-2.40176">
        <ele>72</ele>
        <time>2019-09-05T13:11:57Z</time>
      </trkpt>
      <trkpt lat="47.34742" lon="-2.40163">
        <ele>72</ele>
        <time>2019-09-05T13:11:59Z</time>
      </trkpt>
      <trkpt lat="47.34738" lon="-2.40156">
        <ele>72</ele>
        <time>2019-09-05T13:12:00Z</time>
      </trkpt>
      <trkpt lat="47.34722" lon="-2.40139">
        <ele>72</ele>
        <time>2019-09-05T13:12:03Z</time>
      </trkpt>
      <trkpt lat="47.34716" lon="-2.40136">
        <ele>72</ele>
        <time>2019-09-05T13:12:04Z</time>
      </trkpt>
      <trkpt lat="47.3471" lon="-2.40133">
        <ele>72</ele>
        <time>2019-09-05T13:12:05Z</time>
      </trkpt>
      <trkpt lat="47.34703" lon="-2.40131">
        <ele>72</ele>
        <time>2019-09-05T13:12:06Z</time>
      </trkpt>
      <trkpt lat="47.34696" lon="-2.40129">
        <ele>72</ele>
        <time>2019-09-05T13:12:07Z</time>
      </trkpt>
      <trkpt lat="47.3469" lon="-2.40127">
        <ele>72</ele>
        <time>2019-09-05T13:12:08Z</time>
      </trkpt>
      <trkpt lat="47.34676" lon="-2.40122">
        <ele>72</ele>
        <time>2019-09-05T13:12:10Z</time>
      </trkpt>
      <trkpt lat="47.34669" lon="-2.40118">
        <ele>71</ele>
        <time>2019-09-05T13:12:11Z</time>
      </trkpt>
      <trkpt lat="47.34664" lon="-2.40113">
        <ele>71</ele>
        <time>2019-09-05T13:12:12Z</time>
      </trkpt>
      <trkpt lat="47.34658" lon="-2.40107">
        <ele>71</ele>
        <time>2019-09-05T13:12:13Z</time>
      </trkpt>
      <trkpt lat="47.34652" lon="-2.40101">
        <ele>71</ele>
        <time>2019-09-05T13:12:14Z</time>
      </trkpt>
      <trkpt lat="47.34648" lon="-2.40094">
        <ele>72</ele>
        <time>2019-09-05T13:12:15Z</time>
      </trkpt>
      <trkpt lat="47.34643" lon="-2.40087">
        <ele>72</ele>
        <time>2019-09-05T13:12:16Z</time>
      </trkpt>
      <trkpt lat="47.34639" lon="-2.4008">
        <ele>72</ele>
        <time>2019-09-05T13:12:17Z</time>
      </trkpt>
      <trkpt lat="47.34631" lon="-2.40067">
        <ele>72</ele>
        <time>2019-09-05T13:12:19Z</time>
      </trkpt>
      <trkpt lat="47.34627" lon="-2.4006">
        <ele>72</ele>
        <time>2019-09-05T13:12:20Z</time>
      </trkpt>
      <trkpt lat="47.34623" lon="-2.40054">
        <ele>72</ele>
        <time>2019-09-05T13:12:21Z</time>
      </trkpt>
      <trkpt lat="47.34619" lon="-2.40048">
        <ele>73</ele>
        <time>2019-09-05T13:12:22Z</time>
      </trkpt>
      <trkpt lat="47.34615" lon="-2.40042">
        <ele>73</ele>
        <time>2019-09-05T13:12:23Z</time>
      </trkpt>
      <trkpt lat="47.34612" lon="-2.40037">
        <ele>73</ele>
        <time>2019-09-05T13:12:24Z</time>
      </trkpt>
      <trkpt lat="47.34609" lon="-2.40032">
        <ele>73</ele>
        <time>2019-09-05T13:12:25Z</time>
      </trkpt>
      <trkpt lat="47.34605" lon="-2.40026">
        <ele>73</ele>
        <time>2019-09-05T13:12:26Z</time>
      </trkpt>
      <trkpt lat="47.34603" lon="-2.40021">
        <ele>73</ele>
        <time>2019-09-05T13:12:27Z</time>
      </trkpt>
      <trkpt lat="47.34597" lon="-2.40013">
        <ele>73</ele>
        <time>2019-09-05T13:12:29Z</time>
      </trkpt>
      <trkpt lat="47.34588" lon="-2.40003">
        <ele>73</ele>
        <time>2019-09-05T13:12:32Z</time>
      </trkpt>
      <trkpt lat="47.34586" lon="-2.39999">
        <ele>73</ele>
        <time>2019-09-05T13:12:33Z</time>
      </trkpt>
      <trkpt lat="47.34583" lon="-2.39996">
        <ele>73</ele>
        <time>2019-09-05T13:12:34Z</time>
      </trkpt>
      <trkpt lat="47.3458" lon="-2.39988">
        <ele>74</ele>
        <time>2019-09-05T13:12:36Z</time>
      </trkpt>
      <trkpt lat="47.3458" lon="-2.39977">
        <ele>73</ele>
        <time>2019-09-05T13:12:38Z</time>
      </trkpt>
      <trkpt lat="47.34583" lon="-2.39966">
        <ele>73</ele>
        <time>2019-09-05T13:12:40Z</time>
      </trkpt>
      <trkpt lat="47.34585" lon="-2.39959">
        <ele>73</ele>
        <time>2019-09-05T13:12:41Z</time>
      </trkpt>
      <trkpt lat="47.34587" lon="-2.39953">
        <ele>73</ele>
        <time>2019-09-05T13:12:42Z</time>
      </trkpt>
      <trkpt lat="47.34589" lon="-2.39946">
        <ele>73</ele>
        <time>2019-09-05T13:12:43Z</time>
      </trkpt>
      <trkpt lat="47.34591" lon="-2.39941">
        <ele>73</ele>
        <time>2019-09-05T13:12:45Z</time>
      </trkpt>
      <trkpt lat="47.34599" lon="-2.39923">
        <ele>73</ele>
        <time>2019-09-05T13:12:47Z</time>
      </trkpt>
      <trkpt lat="47.34601" lon="-2.39917">
        <ele>73</ele>
        <time>2019-09-05T13:12:48Z</time>
      </trkpt>
      <trkpt lat="47.34605" lon="-2.39903">
        <ele>73</ele>
        <time>2019-09-05T13:12:50Z</time>
      </trkpt>
      <trkpt lat="47.34607" lon="-2.39896">
        <ele>73</ele>
        <time>2019-09-05T13:12:51Z</time>
      </trkpt>
      <trkpt lat="47.34609" lon="-2.39888">
        <ele>73</ele>
        <time>2019-09-05T13:12:52Z</time>
      </trkpt>
      <trkpt lat="47.3461" lon="-2.3988">
        <ele>73</ele>
        <time>2019-09-05T13:12:53Z</time>
      </trkpt>
      <trkpt lat="47.34609" lon="-2.39865">
        <ele>74</ele>
        <time>2019-09-05T13:12:55Z</time>
      </trkpt>
      <trkpt lat="47.34603" lon="-2.39857">
        <ele>74</ele>
        <time>2019-09-05T13:12:57Z</time>
      </trkpt>
      <trkpt lat="47.34593" lon="-2.39853">
        <ele>74</ele>
        <time>2019-09-05T13:13:00Z</time>
      </trkpt>
      <trkpt lat="47.3459" lon="-2.39851">
        <ele>75</ele>
        <time>2019-09-05T13:13:01Z</time>
      </trkpt>
      <trkpt lat="47.34587" lon="-2.3985">
        <ele>75</ele>
        <time>2019-09-05T13:13:02Z</time>
      </trkpt>
      <trkpt lat="47.34584" lon="-2.39848">
        <ele>75</ele>
        <time>2019-09-05T13:13:03Z</time>
      </trkpt>
      <trkpt lat="47.34577" lon="-2.39843">
        <ele>75</ele>
        <time>2019-09-05T13:13:05Z</time>
      </trkpt>
      <trkpt lat="47.34571" lon="-2.3984">
        <ele>75</ele>
        <time>2019-09-05T13:13:07Z</time>
      </trkpt>
      <trkpt lat="47.34562" lon="-2.39834">
        <ele>75</ele>
        <time>2019-09-05T13:13:10Z</time>
      </trkpt>
      <trkpt lat="47.34557" lon="-2.3983">
        <ele>76</ele>
        <time>2019-09-05T13:13:12Z</time>
      </trkpt>
      <trkpt lat="47.34552" lon="-2.39824">
        <ele>76</ele>
        <time>2019-09-05T13:13:14Z</time>
      </trkpt>
      <trkpt lat="47.3455" lon="-2.39821">
        <ele>76</ele>
        <time>2019-09-05T13:13:15Z</time>
      </trkpt>
      <trkpt lat="47.34547" lon="-2.39819">
        <ele>76</ele>
        <time>2019-09-05T13:13:16Z</time>
      </trkpt>
      <trkpt lat="47.34542" lon="-2.39812">
        <ele>77</ele>
        <time>2019-09-05T13:13:18Z</time>
      </trkpt>
      <trkpt lat="47.34536" lon="-2.39808">
        <ele>76</ele>
        <time>2019-09-05T13:13:20Z</time>
      </trkpt>
      <trkpt lat="47.3453" lon="-2.39801">
        <ele>76</ele>
        <time>2019-09-05T13:13:22Z</time>
      </trkpt>
      <trkpt lat="47.34523" lon="-2.39797">
        <ele>76</ele>
        <time>2019-09-05T13:13:24Z</time>
      </trkpt>
      <trkpt lat="47.34516" lon="-2.39791">
        <ele>76</ele>
        <time>2019-09-05T13:13:27Z</time>
      </trkpt>
      <trkpt lat="47.3451" lon="-2.39787">
        <ele>76</ele>
        <time>2019-09-05T13:13:32Z</time>
      </trkpt>
      <trkpt lat="47.34505" lon="-2.39782">
        <ele>76</ele>
        <time>2019-09-05T13:13:34Z</time>
      </trkpt>
      <trkpt lat="47.34499" lon="-2.3978">
        <ele>76</ele>
        <time>2019-09-05T13:13:36Z</time>
      </trkpt>
      <trkpt lat="47.34496" lon="-2.39779">
        <ele>76</ele>
        <time>2019-09-05T13:13:37Z</time>
      </trkpt>
      <trkpt lat="47.34489" lon="-2.39777">
        <ele>76</ele>
        <time>2019-09-05T13:13:39Z</time>
      </trkpt>
      <trkpt lat="47.34482" lon="-2.39773">
        <ele>76</ele>
        <time>2019-09-05T13:13:41Z</time>
      </trkpt>
      <trkpt lat="47.34475" lon="-2.39769">
        <ele>75</ele>
        <time>2019-09-05T13:13:43Z</time>
      </trkpt>
      <trkpt lat="47.34472" lon="-2.39767">
        <ele>75</ele>
        <time>2019-09-05T13:13:44Z</time>
      </trkpt>
      <trkpt lat="47.34468" lon="-2.39758">
        <ele>75</ele>
        <time>2019-09-05T13:13:46Z</time>
      </trkpt>
      <trkpt lat="47.34469" lon="-2.39748">
        <ele>75</ele>
        <time>2019-09-05T13:13:48Z</time>
      </trkpt>
      <trkpt lat="47.3447" lon="-2.39742">
        <ele>75</ele>
        <time>2019-09-05T13:13:49Z</time>
      </trkpt>
      <trkpt lat="47.34471" lon="-2.39731">
        <ele>75</ele>
        <time>2019-09-05T13:13:51Z</time>
      </trkpt>
      <trkpt lat="47.34473" lon="-2.3972">
        <ele>75</ele>
        <time>2019-09-05T13:13:53Z</time>
      </trkpt>
      <trkpt lat="47.34474" lon="-2.39715">
        <ele>75</ele>
        <time>2019-09-05T13:13:54Z</time>
      </trkpt>
      <trkpt lat="47.34475" lon="-2.39701">
        <ele>75</ele>
        <time>2019-09-05T13:13:57Z</time>
      </trkpt>
      <trkpt lat="47.34477" lon="-2.3969">
        <ele>76</ele>
        <time>2019-09-05T13:13:59Z</time>
      </trkpt>
      <trkpt lat="47.34482" lon="-2.39678">
        <ele>76</ele>
        <time>2019-09-05T13:14:01Z</time>
      </trkpt>
      <trkpt lat="47.34489" lon="-2.39664">
        <ele>76</ele>
        <time>2019-09-05T13:14:04Z</time>
      </trkpt>
      <trkpt lat="47.34491" lon="-2.3966">
        <ele>76</ele>
        <time>2019-09-05T13:14:05Z</time>
      </trkpt>
      <trkpt lat="47.34494" lon="-2.39656">
        <ele>76</ele>
        <time>2019-09-05T13:14:06Z</time>
      </trkpt>
      <trkpt lat="47.34496" lon="-2.39651">
        <ele>76</ele>
        <time>2019-09-05T13:14:07Z</time>
      </trkpt>
      <trkpt lat="47.34499" lon="-2.39647">
        <ele>76</ele>
        <time>2019-09-05T13:14:08Z</time>
      </trkpt>
      <trkpt lat="47.34504" lon="-2.3964">
        <ele>77</ele>
        <time>2019-09-05T13:14:10Z</time>
      </trkpt>
      <trkpt lat="47.34506" lon="-2.39636">
        <ele>77</ele>
        <time>2019-09-05T13:14:11Z</time>
      </trkpt>
      <trkpt lat="47.34508" lon="-2.39633">
        <ele>77</ele>
        <time>2019-09-05T13:14:12Z</time>
      </trkpt>
      <trkpt lat="47.34511" lon="-2.39623">
        <ele>77</ele>
        <time>2019-09-05T13:14:14Z</time>
      </trkpt>
      <trkpt lat="47.34514" lon="-2.39617">
        <ele>76</ele>
        <time>2019-09-05T13:14:15Z</time>
      </trkpt>
      <trkpt lat="47.34518" lon="-2.39608">
        <ele>76</ele>
        <time>2019-09-05T13:14:17Z</time>
      </trkpt>
      <trkpt lat="47.3452" lon="-2.39603">
        <ele>76</ele>
        <time>2019-09-05T13:14:18Z</time>
      </trkpt>
      <trkpt lat="47.34522" lon="-2.39598">
        <ele>76</ele>
        <time>2019-09-05T13:14:19Z</time>
      </trkpt>
      <trkpt lat="47.34529" lon="-2.39583">
        <ele>76</ele>
        <time>2019-09-05T13:14:23Z</time>
      </trkpt>
      <trkpt lat="47.34534" lon="-2.39573">
        <ele>77</ele>
        <time>2019-09-05T13:14:26Z</time>
      </trkpt>
      <trkpt lat="47.34537" lon="-2.39566">
        <ele>77</ele>
        <time>2019-09-05T13:14:28Z</time>
      </trkpt>
      <trkpt lat="47.34539" lon="-2.39558">
        <ele>77</ele>
        <time>2019-09-05T13:14:30Z</time>
      </trkpt>
      <trkpt lat="47.34541" lon="-2.39551">
        <ele>77</ele>
        <time>2019-09-05T13:14:32Z</time>
      </trkpt>
      <trkpt lat="47.34542" lon="-2.39548">
        <ele>77</ele>
        <time>2019-09-05T13:14:33Z</time>
      </trkpt>
      <trkpt lat="47.34545" lon="-2.3954">
        <ele>77</ele>
        <time>2019-09-05T13:14:35Z</time>
      </trkpt>
      <trkpt lat="47.34547" lon="-2.39531">
        <ele>77</ele>
        <time>2019-09-05T13:14:37Z</time>
      </trkpt>
      <trkpt lat="47.34548" lon="-2.39527">
        <ele>77</ele>
        <time>2019-09-05T13:14:38Z</time>
      </trkpt>
      <trkpt lat="47.34548" lon="-2.39521">
        <ele>77</ele>
        <time>2019-09-05T13:14:39Z</time>
      </trkpt>
      <trkpt lat="47.34549" lon="-2.39516">
        <ele>77</ele>
        <time>2019-09-05T13:14:40Z</time>
      </trkpt>
      <trkpt lat="47.3455" lon="-2.39511">
        <ele>77</ele>
        <time>2019-09-05T13:14:41Z</time>
      </trkpt>
      <trkpt lat="47.34551" lon="-2.39505">
        <ele>76</ele>
        <time>2019-09-05T13:14:42Z</time>
      </trkpt>
      <trkpt lat="47.34554" lon="-2.39487">
        <ele>75</ele>
        <time>2019-09-05T13:14:45Z</time>
      </trkpt>
      <trkpt lat="47.34554" lon="-2.39482">
        <ele>75</ele>
        <time>2019-09-05T13:14:46Z</time>
      </trkpt>
      <trkpt lat="47.34555" lon="-2.39476">
        <ele>75</ele>
        <time>2019-09-05T13:14:47Z</time>
      </trkpt>
      <trkpt lat="47.34562" lon="-2.39462">
        <ele>74</ele>
        <time>2019-09-05T13:14:50Z</time>
      </trkpt>
      <trkpt lat="47.34568" lon="-2.39455">
        <ele>74</ele>
        <time>2019-09-05T13:14:52Z</time>
      </trkpt>
      <trkpt lat="47.34575" lon="-2.39448">
        <ele>74</ele>
        <time>2019-09-05T13:14:54Z</time>
      </trkpt>
      <trkpt lat="47.34578" lon="-2.39446">
        <ele>73</ele>
        <time>2019-09-05T13:14:55Z</time>
      </trkpt>
      <trkpt lat="47.34584" lon="-2.39438">
        <ele>73</ele>
        <time>2019-09-05T13:14:57Z</time>
      </trkpt>
      <trkpt lat="47.34587" lon="-2.39435">
        <ele>73</ele>
        <time>2019-09-05T13:14:58Z</time>
      </trkpt>
      <trkpt lat="47.3459" lon="-2.39431">
        <ele>73</ele>
        <time>2019-09-05T13:14:59Z</time>
      </trkpt>
      <trkpt lat="47.34593" lon="-2.39427">
        <ele>73</ele>
        <time>2019-09-05T13:15:00Z</time>
      </trkpt>
      <trkpt lat="47.34601" lon="-2.39414">
        <ele>72</ele>
        <time>2019-09-05T13:15:03Z</time>
      </trkpt>
      <trkpt lat="47.34606" lon="-2.39405">
        <ele>72</ele>
        <time>2019-09-05T13:15:05Z</time>
      </trkpt>
      <trkpt lat="47.34609" lon="-2.394">
        <ele>72</ele>
        <time>2019-09-05T13:15:06Z</time>
      </trkpt>
      <trkpt lat="47.34613" lon="-2.39395">
        <ele>72</ele>
        <time>2019-09-05T13:15:07Z</time>
      </trkpt>
      <trkpt lat="47.34618" lon="-2.39386">
        <ele>71</ele>
        <time>2019-09-05T13:15:09Z</time>
      </trkpt>
      <trkpt lat="47.34621" lon="-2.39381">
        <ele>71</ele>
        <time>2019-09-05T13:15:10Z</time>
      </trkpt>
      <trkpt lat="47.34624" lon="-2.39376">
        <ele>71</ele>
        <time>2019-09-05T13:15:11Z</time>
      </trkpt>
      <trkpt lat="47.34627" lon="-2.39371">
        <ele>71</ele>
        <time>2019-09-05T13:15:12Z</time>
      </trkpt>
      <trkpt lat="47.3463" lon="-2.39366">
        <ele>71</ele>
        <time>2019-09-05T13:15:13Z</time>
      </trkpt>
      <trkpt lat="47.34633" lon="-2.39361">
        <ele>70</ele>
        <time>2019-09-05T13:15:14Z</time>
      </trkpt>
      <trkpt lat="47.34636" lon="-2.39356">
        <ele>70</ele>
        <time>2019-09-05T13:15:15Z</time>
      </trkpt>
      <trkpt lat="47.3464" lon="-2.39351">
        <ele>70</ele>
        <time>2019-09-05T13:15:16Z</time>
      </trkpt>
      <trkpt lat="47.3465" lon="-2.39336">
        <ele>70</ele>
        <time>2019-09-05T13:15:19Z</time>
      </trkpt>
      <trkpt lat="47.34653" lon="-2.39331">
        <ele>70</ele>
        <time>2019-09-05T13:15:20Z</time>
      </trkpt>
      <trkpt lat="47.34656" lon="-2.39327">
        <ele>70</ele>
        <time>2019-09-05T13:15:21Z</time>
      </trkpt>
      <trkpt lat="47.3466" lon="-2.39318">
        <ele>70</ele>
        <time>2019-09-05T13:15:23Z</time>
      </trkpt>
      <trkpt lat="47.34661" lon="-2.39308">
        <ele>71</ele>
        <time>2019-09-05T13:15:25Z</time>
      </trkpt>
      <trkpt lat="47.34656" lon="-2.39302">
        <ele>71</ele>
        <time>2019-09-05T13:15:27Z</time>
      </trkpt>
      <trkpt lat="47.34652" lon="-2.39298">
        <ele>71</ele>
        <time>2019-09-05T13:15:28Z</time>
      </trkpt>
      <trkpt lat="47.34643" lon="-2.3929">
        <ele>70</ele>
        <time>2019-09-05T13:15:31Z</time>
      </trkpt>
      <trkpt lat="47.34637" lon="-2.39283">
        <ele>70</ele>
        <time>2019-09-05T13:15:33Z</time>
      </trkpt>
      <trkpt lat="47.34633" lon="-2.3928">
        <ele>70</ele>
        <time>2019-09-05T13:15:34Z</time>
      </trkpt>
      <trkpt lat="47.34629" lon="-2.39277">
        <ele>70</ele>
        <time>2019-09-05T13:15:35Z</time>
      </trkpt>
      <trkpt lat="47.34612" lon="-2.39263">
        <ele>70</ele>
        <time>2019-09-05T13:15:39Z</time>
      </trkpt>
      <trkpt lat="47.34603" lon="-2.39257">
        <ele>70</ele>
        <time>2019-09-05T13:15:41Z</time>
      </trkpt>
      <trkpt lat="47.34598" lon="-2.39254">
        <ele>69</ele>
        <time>2019-09-05T13:15:42Z</time>
      </trkpt>
      <trkpt lat="47.34593" lon="-2.3925">
        <ele>69</ele>
        <time>2019-09-05T13:15:43Z</time>
      </trkpt>
      <trkpt lat="47.34588" lon="-2.39247">
        <ele>69</ele>
        <time>2019-09-05T13:15:44Z</time>
      </trkpt>
      <trkpt lat="47.34582" lon="-2.39244">
        <ele>69</ele>
        <time>2019-09-05T13:15:45Z</time>
      </trkpt>
      <trkpt lat="47.34577" lon="-2.39241">
        <ele>69</ele>
        <time>2019-09-05T13:15:46Z</time>
      </trkpt>
      <trkpt lat="47.34571" lon="-2.39239">
        <ele>69</ele>
        <time>2019-09-05T13:15:47Z</time>
      </trkpt>
      <trkpt lat="47.34566" lon="-2.39236">
        <ele>69</ele>
        <time>2019-09-05T13:15:48Z</time>
      </trkpt>
      <trkpt lat="47.34561" lon="-2.39234">
        <ele>69</ele>
        <time>2019-09-05T13:15:49Z</time>
      </trkpt>
      <trkpt lat="47.34555" lon="-2.39232">
        <ele>69</ele>
        <time>2019-09-05T13:15:50Z</time>
      </trkpt>
      <trkpt lat="47.3455" lon="-2.39231">
        <ele>69</ele>
        <time>2019-09-05T13:15:51Z</time>
      </trkpt>
      <trkpt lat="47.34545" lon="-2.39229">
        <ele>69</ele>
        <time>2019-09-05T13:15:52Z</time>
      </trkpt>
      <trkpt lat="47.34529" lon="-2.39228">
        <ele>69</ele>
        <time>2019-09-05T13:15:55Z</time>
      </trkpt>
      <trkpt lat="47.34518" lon="-2.39229">
        <ele>70</ele>
        <time>2019-09-05T13:15:57Z</time>
      </trkpt>
      <trkpt lat="47.34507" lon="-2.3923">
        <ele>69</ele>
        <time>2019-09-05T13:15:59Z</time>
      </trkpt>
      <trkpt lat="47.34498" lon="-2.39232">
        <ele>70</ele>
        <time>2019-09-05T13:16:01Z</time>
      </trkpt>
      <trkpt lat="47.34493" lon="-2.39233">
        <ele>70</ele>
        <time>2019-09-05T13:16:02Z</time>
      </trkpt>
      <trkpt lat="47.34488" lon="-2.39234">
        <ele>70</ele>
        <time>2019-09-05T13:16:03Z</time>
      </trkpt>
      <trkpt lat="47.34483" lon="-2.39236">
        <ele>70</ele>
        <time>2019-09-05T13:16:04Z</time>
      </trkpt>
      <trkpt lat="47.34478" lon="-2.39237">
        <ele>70</ele>
        <time>2019-09-05T13:16:05Z</time>
      </trkpt>
      <trkpt lat="47.34473" lon="-2.39239">
        <ele>69</ele>
        <time>2019-09-05T13:16:06Z</time>
      </trkpt>
      <trkpt lat="47.34468" lon="-2.3924">
        <ele>69</ele>
        <time>2019-09-05T13:16:07Z</time>
      </trkpt>
      <trkpt lat="47.34463" lon="-2.39241">
        <ele>70</ele>
        <time>2019-09-05T13:16:08Z</time>
      </trkpt>
      <trkpt lat="47.34458" lon="-2.39242">
        <ele>70</ele>
        <time>2019-09-05T13:16:09Z</time>
      </trkpt>
      <trkpt lat="47.34453" lon="-2.39244">
        <ele>70</ele>
        <time>2019-09-05T13:16:10Z</time>
      </trkpt>
      <trkpt lat="47.34448" lon="-2.39246">
        <ele>70</ele>
        <time>2019-09-05T13:16:11Z</time>
      </trkpt>
      <trkpt lat="47.34444" lon="-2.39248">
        <ele>71</ele>
        <time>2019-09-05T13:16:12Z</time>
      </trkpt>
      <trkpt lat="47.34434" lon="-2.3925">
        <ele>71</ele>
        <time>2019-09-05T13:16:14Z</time>
      </trkpt>
      <trkpt lat="47.34429" lon="-2.39252">
        <ele>71</ele>
        <time>2019-09-05T13:16:15Z</time>
      </trkpt>
      <trkpt lat="47.34424" lon="-2.39254">
        <ele>71</ele>
        <time>2019-09-05T13:16:16Z</time>
      </trkpt>
      <trkpt lat="47.34419" lon="-2.39255">
        <ele>72</ele>
        <time>2019-09-05T13:16:17Z</time>
      </trkpt>
      <trkpt lat="47.34414" lon="-2.39256">
        <ele>72</ele>
        <time>2019-09-05T13:16:18Z</time>
      </trkpt>
      <trkpt lat="47.34405" lon="-2.39258">
        <ele>72</ele>
        <time>2019-09-05T13:16:20Z</time>
      </trkpt>
      <trkpt lat="47.344" lon="-2.39259">
        <ele>72</ele>
        <time>2019-09-05T13:16:21Z</time>
      </trkpt>
      <trkpt lat="47.34395" lon="-2.39261">
        <ele>73</ele>
        <time>2019-09-05T13:16:22Z</time>
      </trkpt>
      <trkpt lat="47.34391" lon="-2.39263">
        <ele>73</ele>
        <time>2019-09-05T13:16:23Z</time>
      </trkpt>
      <trkpt lat="47.34382" lon="-2.39267">
        <ele>73</ele>
        <time>2019-09-05T13:16:25Z</time>
      </trkpt>
      <trkpt lat="47.34378" lon="-2.39269">
        <ele>72</ele>
        <time>2019-09-05T13:16:26Z</time>
      </trkpt>
      <trkpt lat="47.34369" lon="-2.39273">
        <ele>72</ele>
        <time>2019-09-05T13:16:28Z</time>
      </trkpt>
      <trkpt lat="47.34365" lon="-2.39275">
        <ele>73</ele>
        <time>2019-09-05T13:16:29Z</time>
      </trkpt>
      <trkpt lat="47.34361" lon="-2.39278">
        <ele>73</ele>
        <time>2019-09-05T13:16:30Z</time>
      </trkpt>
      <trkpt lat="47.34356" lon="-2.3928">
        <ele>74</ele>
        <time>2019-09-05T13:16:31Z</time>
      </trkpt>
      <trkpt lat="47.34335" lon="-2.3929">
        <ele>75</ele>
        <time>2019-09-05T13:16:36Z</time>
      </trkpt>
      <trkpt lat="47.34327" lon="-2.39296">
        <ele>75</ele>
        <time>2019-09-05T13:16:38Z</time>
      </trkpt>
      <trkpt lat="47.34319" lon="-2.393">
        <ele>76</ele>
        <time>2019-09-05T13:16:40Z</time>
      </trkpt>
      <trkpt lat="47.34314" lon="-2.39302">
        <ele>76</ele>
        <time>2019-09-05T13:16:41Z</time>
      </trkpt>
      <trkpt lat="47.34307" lon="-2.39306">
        <ele>76</ele>
        <time>2019-09-05T13:16:43Z</time>
      </trkpt>
      <trkpt lat="47.34303" lon="-2.39309">
        <ele>77</ele>
        <time>2019-09-05T13:16:44Z</time>
      </trkpt>
      <trkpt lat="47.34298" lon="-2.39312">
        <ele>77</ele>
        <time>2019-09-05T13:16:45Z</time>
      </trkpt>
      <trkpt lat="47.34294" lon="-2.39314">
        <ele>78</ele>
        <time>2019-09-05T13:16:46Z</time>
      </trkpt>
      <trkpt lat="47.34289" lon="-2.39316">
        <ele>78</ele>
        <time>2019-09-05T13:16:47Z</time>
      </trkpt>
      <trkpt lat="47.34285" lon="-2.39318">
        <ele>78</ele>
        <time>2019-09-05T13:16:48Z</time>
      </trkpt>
      <trkpt lat="47.3428" lon="-2.39321">
        <ele>78</ele>
        <time>2019-09-05T13:16:49Z</time>
      </trkpt>
      <trkpt lat="47.34276" lon="-2.39323">
        <ele>79</ele>
        <time>2019-09-05T13:16:50Z</time>
      </trkpt>
      <trkpt lat="47.34272" lon="-2.39325">
        <ele>79</ele>
        <time>2019-09-05T13:16:51Z</time>
      </trkpt>
      <trkpt lat="47.34263" lon="-2.39329">
        <ele>79</ele>
        <time>2019-09-05T13:16:53Z</time>
      </trkpt>
      <trkpt lat="47.34258" lon="-2.39332">
        <ele>79</ele>
        <time>2019-09-05T13:16:54Z</time>
      </trkpt>
      <trkpt lat="47.34254" lon="-2.39335">
        <ele>79</ele>
        <time>2019-09-05T13:16:55Z</time>
      </trkpt>
      <trkpt lat="47.3425" lon="-2.39339">
        <ele>79</ele>
        <time>2019-09-05T13:16:56Z</time>
      </trkpt>
      <trkpt lat="47.34245" lon="-2.39342">
        <ele>79</ele>
        <time>2019-09-05T13:16:57Z</time>
      </trkpt>
      <trkpt lat="47.34241" lon="-2.39345">
        <ele>80</ele>
        <time>2019-09-05T13:16:58Z</time>
      </trkpt>
      <trkpt lat="47.34237" lon="-2.39348">
        <ele>79</ele>
        <time>2019-09-05T13:16:59Z</time>
      </trkpt>
      <trkpt lat="47.34232" lon="-2.39351">
        <ele>79</ele>
        <time>2019-09-05T13:17:00Z</time>
      </trkpt>
      <trkpt lat="47.34224" lon="-2.39357">
        <ele>80</ele>
        <time>2019-09-05T13:17:02Z</time>
      </trkpt>
      <trkpt lat="47.34219" lon="-2.39359">
        <ele>80</ele>
        <time>2019-09-05T13:17:03Z</time>
      </trkpt>
      <trkpt lat="47.34206" lon="-2.39366">
        <ele>80</ele>
        <time>2019-09-05T13:17:06Z</time>
      </trkpt>
      <trkpt lat="47.34202" lon="-2.39369">
        <ele>81</ele>
        <time>2019-09-05T13:17:07Z</time>
      </trkpt>
      <trkpt lat="47.34193" lon="-2.39374">
        <ele>81</ele>
        <time>2019-09-05T13:17:09Z</time>
      </trkpt>
      <trkpt lat="47.34189" lon="-2.39376">
        <ele>81</ele>
        <time>2019-09-05T13:17:10Z</time>
      </trkpt>
      <trkpt lat="47.34184" lon="-2.39378">
        <ele>80</ele>
        <time>2019-09-05T13:17:11Z</time>
      </trkpt>
      <trkpt lat="47.34177" lon="-2.39383">
        <ele>81</ele>
        <time>2019-09-05T13:17:13Z</time>
      </trkpt>
      <trkpt lat="47.34173" lon="-2.39385">
        <ele>81</ele>
        <time>2019-09-05T13:17:14Z</time>
      </trkpt>
      <trkpt lat="47.34168" lon="-2.39387">
        <ele>81</ele>
        <time>2019-09-05T13:17:15Z</time>
      </trkpt>
      <trkpt lat="47.34154" lon="-2.39398">
        <ele>82</ele>
        <time>2019-09-05T13:17:18Z</time>
      </trkpt>
      <trkpt lat="47.34149" lon="-2.39401">
        <ele>82</ele>
        <time>2019-09-05T13:17:19Z</time>
      </trkpt>
      <trkpt lat="47.34134" lon="-2.3941">
        <ele>81</ele>
        <time>2019-09-05T13:17:22Z</time>
      </trkpt>
      <trkpt lat="47.3413" lon="-2.39414">
        <ele>81</ele>
        <time>2019-09-05T13:17:23Z</time>
      </trkpt>
      <trkpt lat="47.34125" lon="-2.39418">
        <ele>82</ele>
        <time>2019-09-05T13:17:24Z</time>
      </trkpt>
      <trkpt lat="47.34119" lon="-2.39422">
        <ele>82</ele>
        <time>2019-09-05T13:17:25Z</time>
      </trkpt>
      <trkpt lat="47.34114" lon="-2.39426">
        <ele>82</ele>
        <time>2019-09-05T13:17:26Z</time>
      </trkpt>
      <trkpt lat="47.34108" lon="-2.3943">
        <ele>81</ele>
        <time>2019-09-05T13:17:27Z</time>
      </trkpt>
      <trkpt lat="47.34102" lon="-2.39432">
        <ele>81</ele>
        <time>2019-09-05T13:17:28Z</time>
      </trkpt>
      <trkpt lat="47.34097" lon="-2.39431">
        <ele>81</ele>
        <time>2019-09-05T13:17:29Z</time>
      </trkpt>
      <trkpt lat="47.34092" lon="-2.39427">
        <ele>81</ele>
        <time>2019-09-05T13:17:30Z</time>
      </trkpt>
      <trkpt lat="47.34085" lon="-2.39407">
        <ele>81</ele>
        <time>2019-09-05T13:17:33Z</time>
      </trkpt>
      <trkpt lat="47.34084" lon="-2.39393">
        <ele>81</ele>
        <time>2019-09-05T13:17:35Z</time>
      </trkpt>
      <trkpt lat="47.34081" lon="-2.39379">
        <ele>82</ele>
        <time>2019-09-05T13:17:37Z</time>
      </trkpt>
      <trkpt lat="47.34079" lon="-2.39372">
        <ele>82</ele>
        <time>2019-09-05T13:17:38Z</time>
      </trkpt>
      <trkpt lat="47.34078" lon="-2.39363">
        <ele>82</ele>
        <time>2019-09-05T13:17:39Z</time>
      </trkpt>
      <trkpt lat="47.34077" lon="-2.39353">
        <ele>82</ele>
        <time>2019-09-05T13:17:40Z</time>
      </trkpt>
      <trkpt lat="47.34076" lon="-2.39344">
        <ele>82</ele>
        <time>2019-09-05T13:17:41Z</time>
      </trkpt>
      <trkpt lat="47.34075" lon="-2.39334">
        <ele>83</ele>
        <time>2019-09-05T13:17:42Z</time>
      </trkpt>
      <trkpt lat="47.34074" lon="-2.39325">
        <ele>83</ele>
        <time>2019-09-05T13:17:43Z</time>
      </trkpt>
      <trkpt lat="47.34072" lon="-2.39316">
        <ele>83</ele>
        <time>2019-09-05T13:17:44Z</time>
      </trkpt>
      <trkpt lat="47.34071" lon="-2.39307">
        <ele>83</ele>
        <time>2019-09-05T13:17:45Z</time>
      </trkpt>
      <trkpt lat="47.34069" lon="-2.39297">
        <ele>82</ele>
        <time>2019-09-05T13:17:46Z</time>
      </trkpt>
      <trkpt lat="47.34067" lon="-2.39288">
        <ele>82</ele>
        <time>2019-09-05T13:17:47Z</time>
      </trkpt>
      <trkpt lat="47.34066" lon="-2.39279">
        <ele>82</ele>
        <time>2019-09-05T13:17:48Z</time>
      </trkpt>
      <trkpt lat="47.34056" lon="-2.39258">
        <ele>83</ele>
        <time>2019-09-05T13:17:51Z</time>
      </trkpt>
      <trkpt lat="47.34052" lon="-2.39254">
        <ele>83</ele>
        <time>2019-09-05T13:17:52Z</time>
      </trkpt>
      <trkpt lat="47.34046" lon="-2.39252">
        <ele>83</ele>
        <time>2019-09-05T13:17:53Z</time>
      </trkpt>
      <trkpt lat="47.34041" lon="-2.39252">
        <ele>83</ele>
        <time>2019-09-05T13:17:54Z</time>
      </trkpt>
      <trkpt lat="47.34036" lon="-2.39254">
        <ele>83</ele>
        <time>2019-09-05T13:17:55Z</time>
      </trkpt>
      <trkpt lat="47.34029" lon="-2.39255">
        <ele>83</ele>
        <time>2019-09-05T13:17:56Z</time>
      </trkpt>
      <trkpt lat="47.34023" lon="-2.39256">
        <ele>82</ele>
        <time>2019-09-05T13:17:57Z</time>
      </trkpt>
      <trkpt lat="47.34017" lon="-2.39257">
        <ele>82</ele>
        <time>2019-09-05T13:17:58Z</time>
      </trkpt>
      <trkpt lat="47.34005" lon="-2.39259">
        <ele>83</ele>
        <time>2019-09-05T13:18:00Z</time>
      </trkpt>
      <trkpt lat="47.33999" lon="-2.39261">
        <ele>83</ele>
        <time>2019-09-05T13:18:01Z</time>
      </trkpt>
      <trkpt lat="47.33993" lon="-2.39262">
        <ele>83</ele>
        <time>2019-09-05T13:18:02Z</time>
      </trkpt>
      <trkpt lat="47.33987" lon="-2.39263">
        <ele>83</ele>
        <time>2019-09-05T13:18:03Z</time>
      </trkpt>
      <trkpt lat="47.33975" lon="-2.39265">
        <ele>83</ele>
        <time>2019-09-05T13:18:05Z</time>
      </trkpt>
      <trkpt lat="47.33969" lon="-2.39266">
        <ele>83</ele>
        <time>2019-09-05T13:18:06Z</time>
      </trkpt>
      <trkpt lat="47.33963" lon="-2.39267">
        <ele>83</ele>
        <time>2019-09-05T13:18:07Z</time>
      </trkpt>
      <trkpt lat="47.33957" lon="-2.39268">
        <ele>83</ele>
        <time>2019-09-05T13:18:08Z</time>
      </trkpt>
      <trkpt lat="47.33951" lon="-2.3927">
        <ele>83</ele>
        <time>2019-09-05T13:18:10Z</time>
      </trkpt>
      <trkpt lat="47.33932" lon="-2.39273">
        <ele>84</ele>
        <time>2019-09-05T13:18:12Z</time>
      </trkpt>
      <trkpt lat="47.33902" lon="-2.39278">
        <ele>83</ele>
        <time>2019-09-05T13:18:17Z</time>
      </trkpt>
      <trkpt lat="47.33896" lon="-2.39279">
        <ele>83</ele>
        <time>2019-09-05T13:18:18Z</time>
      </trkpt>
      <trkpt lat="47.33883" lon="-2.39281">
        <ele>83</ele>
        <time>2019-09-05T13:18:20Z</time>
      </trkpt>
      <trkpt lat="47.33877" lon="-2.39282">
        <ele>83</ele>
        <time>2019-09-05T13:18:21Z</time>
      </trkpt>
      <trkpt lat="47.33871" lon="-2.39283">
        <ele>83</ele>
        <time>2019-09-05T13:18:22Z</time>
      </trkpt>
      <trkpt lat="47.33866" lon="-2.39284">
        <ele>83</ele>
        <time>2019-09-05T13:18:23Z</time>
      </trkpt>
      <trkpt lat="47.33847" lon="-2.39287">
        <ele>83</ele>
        <time>2019-09-05T13:18:26Z</time>
      </trkpt>
      <trkpt lat="47.33841" lon="-2.39288">
        <ele>83</ele>
        <time>2019-09-05T13:18:27Z</time>
      </trkpt>
      <trkpt lat="47.33836" lon="-2.39289">
        <ele>84</ele>
        <time>2019-09-05T13:18:28Z</time>
      </trkpt>
      <trkpt lat="47.3383" lon="-2.39289">
        <ele>84</ele>
        <time>2019-09-05T13:18:29Z</time>
      </trkpt>
      <trkpt lat="47.33825" lon="-2.3929">
        <ele>84</ele>
        <time>2019-09-05T13:18:30Z</time>
      </trkpt>
      <trkpt lat="47.33819" lon="-2.39291">
        <ele>84</ele>
        <time>2019-09-05T13:18:31Z</time>
      </trkpt>
      <trkpt lat="47.33813" lon="-2.39292">
        <ele>83</ele>
        <time>2019-09-05T13:18:32Z</time>
      </trkpt>
      <trkpt lat="47.33808" lon="-2.39292">
        <ele>83</ele>
        <time>2019-09-05T13:18:33Z</time>
      </trkpt>
      <trkpt lat="47.33797" lon="-2.39294">
        <ele>84</ele>
        <time>2019-09-05T13:18:35Z</time>
      </trkpt>
      <trkpt lat="47.33792" lon="-2.39295">
        <ele>83</ele>
        <time>2019-09-05T13:18:36Z</time>
      </trkpt>
      <trkpt lat="47.33786" lon="-2.39297">
        <ele>83</ele>
        <time>2019-09-05T13:18:37Z</time>
      </trkpt>
      <trkpt lat="47.33776" lon="-2.39299">
        <ele>83</ele>
        <time>2019-09-05T13:18:39Z</time>
      </trkpt>
      <trkpt lat="47.3377" lon="-2.393">
        <ele>83</ele>
        <time>2019-09-05T13:18:40Z</time>
      </trkpt>
      <trkpt lat="47.33765" lon="-2.39301">
        <ele>83</ele>
        <time>2019-09-05T13:18:41Z</time>
      </trkpt>
      <trkpt lat="47.33761" lon="-2.39301">
        <ele>84</ele>
        <time>2019-09-05T13:18:42Z</time>
      </trkpt>
      <trkpt lat="47.33756" lon="-2.39302">
        <ele>84</ele>
        <time>2019-09-05T13:18:43Z</time>
      </trkpt>
      <trkpt lat="47.33737" lon="-2.39304">
        <ele>84</ele>
        <time>2019-09-05T13:18:47Z</time>
      </trkpt>
      <trkpt lat="47.33732" lon="-2.39305">
        <ele>84</ele>
        <time>2019-09-05T13:18:48Z</time>
      </trkpt>
      <trkpt lat="47.33728" lon="-2.39305">
        <ele>84</ele>
        <time>2019-09-05T13:18:49Z</time>
      </trkpt>
      <trkpt lat="47.33724" lon="-2.39306">
        <ele>84</ele>
        <time>2019-09-05T13:18:50Z</time>
      </trkpt>
      <trkpt lat="47.3372" lon="-2.39306">
        <ele>84</ele>
        <time>2019-09-05T13:18:51Z</time>
      </trkpt>
      <trkpt lat="47.33713" lon="-2.39311">
        <ele>85</ele>
        <time>2019-09-05T13:18:53Z</time>
      </trkpt>
      <trkpt lat="47.33708" lon="-2.39317">
        <ele>85</ele>
        <time>2019-09-05T13:18:57Z</time>
      </trkpt>
      <trkpt lat="47.33708" lon="-2.39317">
        <ele>37.9</ele>
        <time>2019-09-05T13:19:03Z</time>
      </trkpt>
      <trkpt lat="47.33708" lon="-2.39317">
        <ele>37.9</ele>
        <time>2019-09-05T13:24:29Z</time>
      </trkpt>
      <trkpt lat="47.33712" lon="-2.39335">
        <ele>89</ele>
        <time>2019-09-05T13:24:29Z</time>
      </trkpt>
      <trkpt lat="47.33709" lon="-2.39366">
        <ele>83</ele>
        <time>2019-09-05T13:24:34Z</time>
      </trkpt>
      <trkpt lat="47.33707" lon="-2.39372">
        <ele>85</ele>
        <time>2019-09-05T13:24:35Z</time>
      </trkpt>
      <trkpt lat="47.33706" lon="-2.39384">
        <ele>86</ele>
        <time>2019-09-05T13:24:37Z</time>
      </trkpt>
      <trkpt lat="47.33706" lon="-2.39389">
        <ele>86</ele>
        <time>2019-09-05T13:24:38Z</time>
      </trkpt>
      <trkpt lat="47.33705" lon="-2.39395">
        <ele>86</ele>
        <time>2019-09-05T13:24:39Z</time>
      </trkpt>
      <trkpt lat="47.33703" lon="-2.39414">
        <ele>87</ele>
        <time>2019-09-05T13:24:42Z</time>
      </trkpt>
      <trkpt lat="47.33702" lon="-2.39421">
        <ele>87</ele>
        <time>2019-09-05T13:24:43Z</time>
      </trkpt>
      <trkpt lat="47.33702" lon="-2.39427">
        <ele>87</ele>
        <time>2019-09-05T13:24:44Z</time>
      </trkpt>
      <trkpt lat="47.337" lon="-2.39434">
        <ele>87</ele>
        <time>2019-09-05T13:24:45Z</time>
      </trkpt>
      <trkpt lat="47.33698" lon="-2.39448">
        <ele>87</ele>
        <time>2019-09-05T13:24:47Z</time>
      </trkpt>
      <trkpt lat="47.33697" lon="-2.39455">
        <ele>87</ele>
        <time>2019-09-05T13:24:48Z</time>
      </trkpt>
      <trkpt lat="47.3369" lon="-2.39483">
        <ele>87</ele>
        <time>2019-09-05T13:24:52Z</time>
      </trkpt>
      <trkpt lat="47.33687" lon="-2.3949">
        <ele>87</ele>
        <time>2019-09-05T13:24:53Z</time>
      </trkpt>
      <trkpt lat="47.33685" lon="-2.39496">
        <ele>86</ele>
        <time>2019-09-05T13:24:54Z</time>
      </trkpt>
      <trkpt lat="47.33683" lon="-2.39503">
        <ele>86</ele>
        <time>2019-09-05T13:24:55Z</time>
      </trkpt>
      <trkpt lat="47.33681" lon="-2.39509">
        <ele>87</ele>
        <time>2019-09-05T13:24:56Z</time>
      </trkpt>
      <trkpt lat="47.33678" lon="-2.39516">
        <ele>87</ele>
        <time>2019-09-05T13:24:57Z</time>
      </trkpt>
      <trkpt lat="47.33676" lon="-2.39523">
        <ele>87</ele>
        <time>2019-09-05T13:24:58Z</time>
      </trkpt>
      <trkpt lat="47.33673" lon="-2.39531">
        <ele>86</ele>
        <time>2019-09-05T13:24:59Z</time>
      </trkpt>
      <trkpt lat="47.33671" lon="-2.39538">
        <ele>86</ele>
        <time>2019-09-05T13:25:00Z</time>
      </trkpt>
      <trkpt lat="47.33669" lon="-2.39545">
        <ele>86</ele>
        <time>2019-09-05T13:25:01Z</time>
      </trkpt>
      <trkpt lat="47.33667" lon="-2.39552">
        <ele>86</ele>
        <time>2019-09-05T13:25:02Z</time>
      </trkpt>
      <trkpt lat="47.33659" lon="-2.39574">
        <ele>85</ele>
        <time>2019-09-05T13:25:05Z</time>
      </trkpt>
      <trkpt lat="47.33656" lon="-2.39583">
        <ele>85</ele>
        <time>2019-09-05T13:25:06Z</time>
      </trkpt>
      <trkpt lat="47.33651" lon="-2.39598">
        <ele>85</ele>
        <time>2019-09-05T13:25:08Z</time>
      </trkpt>
      <trkpt lat="47.33647" lon="-2.39606">
        <ele>85</ele>
        <time>2019-09-05T13:25:09Z</time>
      </trkpt>
      <trkpt lat="47.33644" lon="-2.39615">
        <ele>85</ele>
        <time>2019-09-05T13:25:10Z</time>
      </trkpt>
      <trkpt lat="47.33641" lon="-2.39624">
        <ele>85</ele>
        <time>2019-09-05T13:25:11Z</time>
      </trkpt>
      <trkpt lat="47.33638" lon="-2.39633">
        <ele>85</ele>
        <time>2019-09-05T13:25:12Z</time>
      </trkpt>
      <trkpt lat="47.33635" lon="-2.39642">
        <ele>85</ele>
        <time>2019-09-05T13:25:13Z</time>
      </trkpt>
      <trkpt lat="47.33626" lon="-2.39659">
        <ele>84</ele>
        <time>2019-09-05T13:25:15Z</time>
      </trkpt>
      <trkpt lat="47.33621" lon="-2.39668">
        <ele>84</ele>
        <time>2019-09-05T13:25:16Z</time>
      </trkpt>
      <trkpt lat="47.33604" lon="-2.39693">
        <ele>83</ele>
        <time>2019-09-05T13:25:19Z</time>
      </trkpt>
      <trkpt lat="47.33598" lon="-2.39701">
        <ele>84</ele>
        <time>2019-09-05T13:25:20Z</time>
      </trkpt>
      <trkpt lat="47.33593" lon="-2.3971">
        <ele>84</ele>
        <time>2019-09-05T13:25:21Z</time>
      </trkpt>
      <trkpt lat="47.33588" lon="-2.39719">
        <ele>84</ele>
        <time>2019-09-05T13:25:22Z</time>
      </trkpt>
      <trkpt lat="47.33583" lon="-2.39728">
        <ele>84</ele>
        <time>2019-09-05T13:25:23Z</time>
      </trkpt>
      <trkpt lat="47.33579" lon="-2.39736">
        <ele>84</ele>
        <time>2019-09-05T13:25:24Z</time>
      </trkpt>
      <trkpt lat="47.33561" lon="-2.39753">
        <ele>84</ele>
        <time>2019-09-05T13:25:27Z</time>
      </trkpt>
      <trkpt lat="47.33556" lon="-2.39759">
        <ele>84</ele>
        <time>2019-09-05T13:25:28Z</time>
      </trkpt>
      <trkpt lat="47.33544" lon="-2.39771">
        <ele>85</ele>
        <time>2019-09-05T13:25:30Z</time>
      </trkpt>
      <trkpt lat="47.33528" lon="-2.3979">
        <ele>84</ele>
        <time>2019-09-05T13:25:33Z</time>
      </trkpt>
      <trkpt lat="47.33523" lon="-2.39797">
        <ele>85</ele>
        <time>2019-09-05T13:25:34Z</time>
      </trkpt>
      <trkpt lat="47.33518" lon="-2.39804">
        <ele>85</ele>
        <time>2019-09-05T13:25:35Z</time>
      </trkpt>
      <trkpt lat="47.33513" lon="-2.3981">
        <ele>85</ele>
        <time>2019-09-05T13:25:36Z</time>
      </trkpt>
      <trkpt lat="47.33508" lon="-2.39817">
        <ele>85</ele>
        <time>2019-09-05T13:25:37Z</time>
      </trkpt>
      <trkpt lat="47.33504" lon="-2.39825">
        <ele>86</ele>
        <time>2019-09-05T13:25:38Z</time>
      </trkpt>
      <trkpt lat="47.33499" lon="-2.39832">
        <ele>86</ele>
        <time>2019-09-05T13:25:39Z</time>
      </trkpt>
      <trkpt lat="47.33495" lon="-2.39839">
        <ele>86</ele>
        <time>2019-09-05T13:25:40Z</time>
      </trkpt>
      <trkpt lat="47.33487" lon="-2.39851">
        <ele>86</ele>
        <time>2019-09-05T13:25:42Z</time>
      </trkpt>
      <trkpt lat="47.33483" lon="-2.39857">
        <ele>86</ele>
        <time>2019-09-05T13:25:43Z</time>
      </trkpt>
      <trkpt lat="47.33479" lon="-2.39863">
        <ele>86</ele>
        <time>2019-09-05T13:25:44Z</time>
      </trkpt>
      <trkpt lat="47.33475" lon="-2.39869">
        <ele>87</ele>
        <time>2019-09-05T13:25:45Z</time>
      </trkpt>
      <trkpt lat="47.3347" lon="-2.39875">
        <ele>86</ele>
        <time>2019-09-05T13:25:46Z</time>
      </trkpt>
      <trkpt lat="47.33465" lon="-2.39881">
        <ele>87</ele>
        <time>2019-09-05T13:25:47Z</time>
      </trkpt>
      <trkpt lat="47.33461" lon="-2.39887">
        <ele>87</ele>
        <time>2019-09-05T13:25:48Z</time>
      </trkpt>
      <trkpt lat="47.33453" lon="-2.39898">
        <ele>87</ele>
        <time>2019-09-05T13:25:50Z</time>
      </trkpt>
      <trkpt lat="47.33445" lon="-2.39908">
        <ele>87</ele>
        <time>2019-09-05T13:25:52Z</time>
      </trkpt>
      <trkpt lat="47.33441" lon="-2.39914">
        <ele>87</ele>
        <time>2019-09-05T13:25:53Z</time>
      </trkpt>
      <trkpt lat="47.33433" lon="-2.39925">
        <ele>87</ele>
        <time>2019-09-05T13:25:55Z</time>
      </trkpt>
      <trkpt lat="47.3343" lon="-2.3993">
        <ele>87</ele>
        <time>2019-09-05T13:25:56Z</time>
      </trkpt>
      <trkpt lat="47.33426" lon="-2.39935">
        <ele>87</ele>
        <time>2019-09-05T13:25:57Z</time>
      </trkpt>
      <trkpt lat="47.33423" lon="-2.3994">
        <ele>88</ele>
        <time>2019-09-05T13:25:58Z</time>
      </trkpt>
      <trkpt lat="47.3342" lon="-2.39946">
        <ele>88</ele>
        <time>2019-09-05T13:25:59Z</time>
      </trkpt>
      <trkpt lat="47.33416" lon="-2.39951">
        <ele>88</ele>
        <time>2019-09-05T13:26:00Z</time>
      </trkpt>
      <trkpt lat="47.33405" lon="-2.39969">
        <ele>89</ele>
        <time>2019-09-05T13:26:03Z</time>
      </trkpt>
      <trkpt lat="47.33398" lon="-2.39979">
        <ele>89</ele>
        <time>2019-09-05T13:26:05Z</time>
      </trkpt>
      <trkpt lat="47.33395" lon="-2.39985">
        <ele>89</ele>
        <time>2019-09-05T13:26:06Z</time>
      </trkpt>
      <trkpt lat="47.33388" lon="-2.39995">
        <ele>89</ele>
        <time>2019-09-05T13:26:08Z</time>
      </trkpt>
      <trkpt lat="47.33385" lon="-2.39999">
        <ele>89</ele>
        <time>2019-09-05T13:26:09Z</time>
      </trkpt>
      <trkpt lat="47.33382" lon="-2.40004">
        <ele>90</ele>
        <time>2019-09-05T13:26:10Z</time>
      </trkpt>
      <trkpt lat="47.33378" lon="-2.40009">
        <ele>90</ele>
        <time>2019-09-05T13:26:11Z</time>
      </trkpt>
      <trkpt lat="47.33371" lon="-2.40019">
        <ele>91</ele>
        <time>2019-09-05T13:26:13Z</time>
      </trkpt>
      <trkpt lat="47.33366" lon="-2.40023">
        <ele>91</ele>
        <time>2019-09-05T13:26:14Z</time>
      </trkpt>
      <trkpt lat="47.33361" lon="-2.40041">
        <ele>92</ele>
        <time>2019-09-05T13:26:17Z</time>
      </trkpt>
      <trkpt lat="47.33358" lon="-2.40061">
        <ele>92</ele>
        <time>2019-09-05T13:26:20Z</time>
      </trkpt>
      <trkpt lat="47.33357" lon="-2.40069">
        <ele>93</ele>
        <time>2019-09-05T13:26:21Z</time>
      </trkpt>
      <trkpt lat="47.33356" lon="-2.40076">
        <ele>93</ele>
        <time>2019-09-05T13:26:22Z</time>
      </trkpt>
      <trkpt lat="47.33356" lon="-2.40084">
        <ele>93</ele>
        <time>2019-09-05T13:26:23Z</time>
      </trkpt>
      <trkpt lat="47.33355" lon="-2.40092">
        <ele>92</ele>
        <time>2019-09-05T13:26:24Z</time>
      </trkpt>
      <trkpt lat="47.33354" lon="-2.401">
        <ele>92</ele>
        <time>2019-09-05T13:26:25Z</time>
      </trkpt>
      <trkpt lat="47.33353" lon="-2.40108">
        <ele>92</ele>
        <time>2019-09-05T13:26:26Z</time>
      </trkpt>
      <trkpt lat="47.33353" lon="-2.40116">
        <ele>92</ele>
        <time>2019-09-05T13:26:27Z</time>
      </trkpt>
      <trkpt lat="47.33353" lon="-2.40124">
        <ele>91</ele>
        <time>2019-09-05T13:26:28Z</time>
      </trkpt>
      <trkpt lat="47.33352" lon="-2.40132">
        <ele>91</ele>
        <time>2019-09-05T13:26:29Z</time>
      </trkpt>
      <trkpt lat="47.33352" lon="-2.40147">
        <ele>91</ele>
        <time>2019-09-05T13:26:31Z</time>
      </trkpt>
      <trkpt lat="47.33351" lon="-2.40154">
        <ele>91</ele>
        <time>2019-09-05T13:26:32Z</time>
      </trkpt>
      <trkpt lat="47.3335" lon="-2.40162">
        <ele>91</ele>
        <time>2019-09-05T13:26:33Z</time>
      </trkpt>
      <trkpt lat="47.33348" lon="-2.40185">
        <ele>91</ele>
        <time>2019-09-05T13:26:36Z</time>
      </trkpt>
      <trkpt lat="47.33347" lon="-2.40193">
        <ele>91</ele>
        <time>2019-09-05T13:26:37Z</time>
      </trkpt>
      <trkpt lat="47.33346" lon="-2.40201">
        <ele>91</ele>
        <time>2019-09-05T13:26:38Z</time>
      </trkpt>
      <trkpt lat="47.33345" lon="-2.40209">
        <ele>92</ele>
        <time>2019-09-05T13:26:39Z</time>
      </trkpt>
      <trkpt lat="47.33344" lon="-2.40219">
        <ele>92</ele>
        <time>2019-09-05T13:26:40Z</time>
      </trkpt>
      <trkpt lat="47.33342" lon="-2.40236">
        <ele>92</ele>
        <time>2019-09-05T13:26:42Z</time>
      </trkpt>
      <trkpt lat="47.33341" lon="-2.40244">
        <ele>92</ele>
        <time>2019-09-05T13:26:43Z</time>
      </trkpt>
      <trkpt lat="47.33336" lon="-2.40267">
        <ele>91</ele>
        <time>2019-09-05T13:26:46Z</time>
      </trkpt>
      <trkpt lat="47.33335" lon="-2.40274">
        <ele>90</ele>
        <time>2019-09-05T13:26:47Z</time>
      </trkpt>
      <trkpt lat="47.33334" lon="-2.40282">
        <ele>91</ele>
        <time>2019-09-05T13:26:48Z</time>
      </trkpt>
      <trkpt lat="47.33333" lon="-2.40291">
        <ele>90</ele>
        <time>2019-09-05T13:26:49Z</time>
      </trkpt>
      <trkpt lat="47.3333" lon="-2.40308">
        <ele>90</ele>
        <time>2019-09-05T13:26:51Z</time>
      </trkpt>
      <trkpt lat="47.33326" lon="-2.40324">
        <ele>90</ele>
        <time>2019-09-05T13:26:53Z</time>
      </trkpt>
      <trkpt lat="47.33322" lon="-2.40333">
        <ele>90</ele>
        <time>2019-09-05T13:26:54Z</time>
      </trkpt>
      <trkpt lat="47.33318" lon="-2.40343">
        <ele>90</ele>
        <time>2019-09-05T13:26:55Z</time>
      </trkpt>
      <trkpt lat="47.33315" lon="-2.40353">
        <ele>90</ele>
        <time>2019-09-05T13:26:56Z</time>
      </trkpt>
      <trkpt lat="47.33313" lon="-2.40364">
        <ele>90</ele>
        <time>2019-09-05T13:26:57Z</time>
      </trkpt>
      <trkpt lat="47.3331" lon="-2.40396">
        <ele>90</ele>
        <time>2019-09-05T13:27:00Z</time>
      </trkpt>
      <trkpt lat="47.33311" lon="-2.40406">
        <ele>90</ele>
        <time>2019-09-05T13:27:01Z</time>
      </trkpt>
      <trkpt lat="47.33309" lon="-2.40444">
        <ele>90</ele>
        <time>2019-09-05T13:27:04Z</time>
      </trkpt>
      <trkpt lat="47.33308" lon="-2.40457">
        <ele>89</ele>
        <time>2019-09-05T13:27:05Z</time>
      </trkpt>
      <trkpt lat="47.33307" lon="-2.40471">
        <ele>88</ele>
        <time>2019-09-05T13:27:06Z</time>
      </trkpt>
      <trkpt lat="47.33307" lon="-2.40483">
        <ele>88</ele>
        <time>2019-09-05T13:27:07Z</time>
      </trkpt>
      <trkpt lat="47.33304" lon="-2.40493">
        <ele>88</ele>
        <time>2019-09-05T13:27:08Z</time>
      </trkpt>
      <trkpt lat="47.33297" lon="-2.40515">
        <ele>88</ele>
        <time>2019-09-05T13:27:10Z</time>
      </trkpt>
      <trkpt lat="47.33292" lon="-2.40524">
        <ele>88</ele>
        <time>2019-09-05T13:27:11Z</time>
      </trkpt>
      <trkpt lat="47.33287" lon="-2.40533">
        <ele>88</ele>
        <time>2019-09-05T13:27:12Z</time>
      </trkpt>
      <trkpt lat="47.3328" lon="-2.40551">
        <ele>88</ele>
        <time>2019-09-05T13:27:14Z</time>
      </trkpt>
      <trkpt lat="47.33277" lon="-2.40561">
        <ele>88</ele>
        <time>2019-09-05T13:27:15Z</time>
      </trkpt>
      <trkpt lat="47.33274" lon="-2.4057">
        <ele>88</ele>
        <time>2019-09-05T13:27:16Z</time>
      </trkpt>
      <trkpt lat="47.33271" lon="-2.4058">
        <ele>88</ele>
        <time>2019-09-05T13:27:17Z</time>
      </trkpt>
      <trkpt lat="47.33268" lon="-2.40591">
        <ele>87</ele>
        <time>2019-09-05T13:27:18Z</time>
      </trkpt>
      <trkpt lat="47.33266" lon="-2.406">
        <ele>86</ele>
        <time>2019-09-05T13:27:19Z</time>
      </trkpt>
      <trkpt lat="47.33264" lon="-2.40608">
        <ele>86</ele>
        <time>2019-09-05T13:27:20Z</time>
      </trkpt>
      <trkpt lat="47.33261" lon="-2.40616">
        <ele>86</ele>
        <time>2019-09-05T13:27:21Z</time>
      </trkpt>
      <trkpt lat="47.3325" lon="-2.4065">
        <ele>86</ele>
        <time>2019-09-05T13:27:25Z</time>
      </trkpt>
      <trkpt lat="47.33248" lon="-2.40658">
        <ele>86</ele>
        <time>2019-09-05T13:27:26Z</time>
      </trkpt>
      <trkpt lat="47.33245" lon="-2.40667">
        <ele>86</ele>
        <time>2019-09-05T13:27:27Z</time>
      </trkpt>
      <trkpt lat="47.33243" lon="-2.40675">
        <ele>86</ele>
        <time>2019-09-05T13:27:28Z</time>
      </trkpt>
      <trkpt lat="47.33241" lon="-2.40683">
        <ele>86</ele>
        <time>2019-09-05T13:27:29Z</time>
      </trkpt>
      <trkpt lat="47.3324" lon="-2.40691">
        <ele>86</ele>
        <time>2019-09-05T13:27:30Z</time>
      </trkpt>
      <trkpt lat="47.33238" lon="-2.40699">
        <ele>86</ele>
        <time>2019-09-05T13:27:31Z</time>
      </trkpt>
      <trkpt lat="47.33237" lon="-2.40708">
        <ele>86</ele>
        <time>2019-09-05T13:27:32Z</time>
      </trkpt>
      <trkpt lat="47.33236" lon="-2.40717">
        <ele>86</ele>
        <time>2019-09-05T13:27:33Z</time>
      </trkpt>
      <trkpt lat="47.33234" lon="-2.40726">
        <ele>86</ele>
        <time>2019-09-05T13:27:34Z</time>
      </trkpt>
      <trkpt lat="47.33234" lon="-2.40735">
        <ele>85</ele>
        <time>2019-09-05T13:27:35Z</time>
      </trkpt>
      <trkpt lat="47.33233" lon="-2.40744">
        <ele>86</ele>
        <time>2019-09-05T13:27:36Z</time>
      </trkpt>
      <trkpt lat="47.3323" lon="-2.4077">
        <ele>86</ele>
        <time>2019-09-05T13:27:39Z</time>
      </trkpt>
      <trkpt lat="47.33227" lon="-2.40779">
        <ele>86</ele>
        <time>2019-09-05T13:27:40Z</time>
      </trkpt>
      <trkpt lat="47.33225" lon="-2.40786">
        <ele>87</ele>
        <time>2019-09-05T13:27:41Z</time>
      </trkpt>
      <trkpt lat="47.33216" lon="-2.40805">
        <ele>87</ele>
        <time>2019-09-05T13:27:44Z</time>
      </trkpt>
      <trkpt lat="47.33213" lon="-2.40811">
        <ele>87</ele>
        <time>2019-09-05T13:27:45Z</time>
      </trkpt>
      <trkpt lat="47.33209" lon="-2.40816">
        <ele>87</ele>
        <time>2019-09-05T13:27:46Z</time>
      </trkpt>
      <trkpt lat="47.33198" lon="-2.40831">
        <ele>88</ele>
        <time>2019-09-05T13:27:49Z</time>
      </trkpt>
      <trkpt lat="47.33194" lon="-2.40836">
        <ele>88</ele>
        <time>2019-09-05T13:27:50Z</time>
      </trkpt>
      <trkpt lat="47.3319" lon="-2.40841">
        <ele>89</ele>
        <time>2019-09-05T13:27:51Z</time>
      </trkpt>
      <trkpt lat="47.33187" lon="-2.40847">
        <ele>89</ele>
        <time>2019-09-05T13:27:52Z</time>
      </trkpt>
      <trkpt lat="47.33183" lon="-2.40852">
        <ele>89</ele>
        <time>2019-09-05T13:27:53Z</time>
      </trkpt>
      <trkpt lat="47.3318" lon="-2.40857">
        <ele>89</ele>
        <time>2019-09-05T13:27:54Z</time>
      </trkpt>
      <trkpt lat="47.33176" lon="-2.40862">
        <ele>90</ele>
        <time>2019-09-05T13:27:55Z</time>
      </trkpt>
      <trkpt lat="47.33173" lon="-2.40868">
        <ele>90</ele>
        <time>2019-09-05T13:27:56Z</time>
      </trkpt>
      <trkpt lat="47.33169" lon="-2.40874">
        <ele>90</ele>
        <time>2019-09-05T13:27:57Z</time>
      </trkpt>
      <trkpt lat="47.33166" lon="-2.4088">
        <ele>90</ele>
        <time>2019-09-05T13:27:58Z</time>
      </trkpt>
      <trkpt lat="47.33162" lon="-2.40886">
        <ele>90</ele>
        <time>2019-09-05T13:27:59Z</time>
      </trkpt>
      <trkpt lat="47.33159" lon="-2.40892">
        <ele>90</ele>
        <time>2019-09-05T13:28:00Z</time>
      </trkpt>
      <trkpt lat="47.33155" lon="-2.40898">
        <ele>91</ele>
        <time>2019-09-05T13:28:01Z</time>
      </trkpt>
      <trkpt lat="47.33148" lon="-2.4091">
        <ele>91</ele>
        <time>2019-09-05T13:28:03Z</time>
      </trkpt>
      <trkpt lat="47.33145" lon="-2.40916">
        <ele>91</ele>
        <time>2019-09-05T13:28:04Z</time>
      </trkpt>
      <trkpt lat="47.33142" lon="-2.40922">
        <ele>91</ele>
        <time>2019-09-05T13:28:05Z</time>
      </trkpt>
      <trkpt lat="47.33138" lon="-2.40929">
        <ele>91</ele>
        <time>2019-09-05T13:28:06Z</time>
      </trkpt>
      <trkpt lat="47.33135" lon="-2.40935">
        <ele>91</ele>
        <time>2019-09-05T13:28:07Z</time>
      </trkpt>
      <trkpt lat="47.33132" lon="-2.40941">
        <ele>91</ele>
        <time>2019-09-05T13:28:08Z</time>
      </trkpt>
      <trkpt lat="47.33129" lon="-2.40947">
        <ele>91</ele>
        <time>2019-09-05T13:28:09Z</time>
      </trkpt>
      <trkpt lat="47.33125" lon="-2.40955">
        <ele>91</ele>
        <time>2019-09-05T13:28:10Z</time>
      </trkpt>
      <trkpt lat="47.33122" lon="-2.40962">
        <ele>91</ele>
        <time>2019-09-05T13:28:11Z</time>
      </trkpt>
      <trkpt lat="47.3312" lon="-2.40968">
        <ele>92</ele>
        <time>2019-09-05T13:28:12Z</time>
      </trkpt>
      <trkpt lat="47.33118" lon="-2.40975">
        <ele>92</ele>
        <time>2019-09-05T13:28:13Z</time>
      </trkpt>
      <trkpt lat="47.33115" lon="-2.40982">
        <ele>91</ele>
        <time>2019-09-05T13:28:14Z</time>
      </trkpt>
      <trkpt lat="47.33112" lon="-2.40989">
        <ele>91</ele>
        <time>2019-09-05T13:28:15Z</time>
      </trkpt>
      <trkpt lat="47.33109" lon="-2.40995">
        <ele>91</ele>
        <time>2019-09-05T13:28:16Z</time>
      </trkpt>
      <trkpt lat="47.33107" lon="-2.41002">
        <ele>91</ele>
        <time>2019-09-05T13:28:17Z</time>
      </trkpt>
      <trkpt lat="47.33105" lon="-2.41009">
        <ele>91</ele>
        <time>2019-09-05T13:28:18Z</time>
      </trkpt>
      <trkpt lat="47.33102" lon="-2.41016">
        <ele>91</ele>
        <time>2019-09-05T13:28:19Z</time>
      </trkpt>
      <trkpt lat="47.331" lon="-2.41023">
        <ele>91</ele>
        <time>2019-09-05T13:28:20Z</time>
      </trkpt>
      <trkpt lat="47.33097" lon="-2.41031">
        <ele>91</ele>
        <time>2019-09-05T13:28:21Z</time>
      </trkpt>
      <trkpt lat="47.33095" lon="-2.41038">
        <ele>91</ele>
        <time>2019-09-05T13:28:22Z</time>
      </trkpt>
      <trkpt lat="47.33093" lon="-2.41046">
        <ele>92</ele>
        <time>2019-09-05T13:28:23Z</time>
      </trkpt>
      <trkpt lat="47.3309" lon="-2.41054">
        <ele>91</ele>
        <time>2019-09-05T13:28:24Z</time>
      </trkpt>
      <trkpt lat="47.33088" lon="-2.41061">
        <ele>92</ele>
        <time>2019-09-05T13:28:25Z</time>
      </trkpt>
      <trkpt lat="47.33085" lon="-2.41069">
        <ele>92</ele>
        <time>2019-09-05T13:28:26Z</time>
      </trkpt>
      <trkpt lat="47.33083" lon="-2.41077">
        <ele>92</ele>
        <time>2019-09-05T13:28:27Z</time>
      </trkpt>
      <trkpt lat="47.33081" lon="-2.41085">
        <ele>92</ele>
        <time>2019-09-05T13:28:28Z</time>
      </trkpt>
      <trkpt lat="47.33078" lon="-2.41092">
        <ele>92</ele>
        <time>2019-09-05T13:28:29Z</time>
      </trkpt>
      <trkpt lat="47.33075" lon="-2.41099">
        <ele>92</ele>
        <time>2019-09-05T13:28:30Z</time>
      </trkpt>
      <trkpt lat="47.33072" lon="-2.41106">
        <ele>92</ele>
        <time>2019-09-05T13:28:31Z</time>
      </trkpt>
      <trkpt lat="47.33069" lon="-2.41114">
        <ele>92</ele>
        <time>2019-09-05T13:28:32Z</time>
      </trkpt>
      <trkpt lat="47.33066" lon="-2.41121">
        <ele>92</ele>
        <time>2019-09-05T13:28:33Z</time>
      </trkpt>
      <trkpt lat="47.33063" lon="-2.41129">
        <ele>92</ele>
        <time>2019-09-05T13:28:34Z</time>
      </trkpt>
      <trkpt lat="47.3306" lon="-2.41135">
        <ele>92</ele>
        <time>2019-09-05T13:28:35Z</time>
      </trkpt>
      <trkpt lat="47.33057" lon="-2.41142">
        <ele>92</ele>
        <time>2019-09-05T13:28:36Z</time>
      </trkpt>
      <trkpt lat="47.33053" lon="-2.41149">
        <ele>92</ele>
        <time>2019-09-05T13:28:37Z</time>
      </trkpt>
      <trkpt lat="47.3305" lon="-2.41154">
        <ele>93</ele>
        <time>2019-09-05T13:28:38Z</time>
      </trkpt>
      <trkpt lat="47.33046" lon="-2.41159">
        <ele>93</ele>
        <time>2019-09-05T13:28:39Z</time>
      </trkpt>
      <trkpt lat="47.33043" lon="-2.41165">
        <ele>93</ele>
        <time>2019-09-05T13:28:40Z</time>
      </trkpt>
      <trkpt lat="47.3304" lon="-2.41171">
        <ele>93</ele>
        <time>2019-09-05T13:28:41Z</time>
      </trkpt>
      <trkpt lat="47.33037" lon="-2.41178">
        <ele>92</ele>
        <time>2019-09-05T13:28:42Z</time>
      </trkpt>
      <trkpt lat="47.33033" lon="-2.41184">
        <ele>92</ele>
        <time>2019-09-05T13:28:43Z</time>
      </trkpt>
      <trkpt lat="47.3303" lon="-2.4119">
        <ele>92</ele>
        <time>2019-09-05T13:28:44Z</time>
      </trkpt>
      <trkpt lat="47.33027" lon="-2.41196">
        <ele>92</ele>
        <time>2019-09-05T13:28:45Z</time>
      </trkpt>
      <trkpt lat="47.33024" lon="-2.41202">
        <ele>92</ele>
        <time>2019-09-05T13:28:46Z</time>
      </trkpt>
      <trkpt lat="47.33021" lon="-2.41208">
        <ele>92</ele>
        <time>2019-09-05T13:28:47Z</time>
      </trkpt>
      <trkpt lat="47.33018" lon="-2.41214">
        <ele>93</ele>
        <time>2019-09-05T13:28:48Z</time>
      </trkpt>
      <trkpt lat="47.33015" lon="-2.4122">
        <ele>93</ele>
        <time>2019-09-05T13:28:49Z</time>
      </trkpt>
      <trkpt lat="47.33011" lon="-2.41225">
        <ele>93</ele>
        <time>2019-09-05T13:28:50Z</time>
      </trkpt>
      <trkpt lat="47.33008" lon="-2.41229">
        <ele>93</ele>
        <time>2019-09-05T13:28:51Z</time>
      </trkpt>
      <trkpt lat="47.33004" lon="-2.41234">
        <ele>93</ele>
        <time>2019-09-05T13:28:52Z</time>
      </trkpt>
      <trkpt lat="47.33" lon="-2.41238">
        <ele>93</ele>
        <time>2019-09-05T13:28:53Z</time>
      </trkpt>
      <trkpt lat="47.32996" lon="-2.41242">
        <ele>93</ele>
        <time>2019-09-05T13:28:54Z</time>
      </trkpt>
      <trkpt lat="47.32991" lon="-2.41245">
        <ele>93</ele>
        <time>2019-09-05T13:28:55Z</time>
      </trkpt>
      <trkpt lat="47.32986" lon="-2.41248">
        <ele>93</ele>
        <time>2019-09-05T13:28:56Z</time>
      </trkpt>
      <trkpt lat="47.32981" lon="-2.4125">
        <ele>93</ele>
        <time>2019-09-05T13:28:57Z</time>
      </trkpt>
      <trkpt lat="47.32976" lon="-2.41253">
        <ele>93</ele>
        <time>2019-09-05T13:28:58Z</time>
      </trkpt>
      <trkpt lat="47.32971" lon="-2.41256">
        <ele>93</ele>
        <time>2019-09-05T13:28:59Z</time>
      </trkpt>
      <trkpt lat="47.32965" lon="-2.41259">
        <ele>94</ele>
        <time>2019-09-05T13:29:00Z</time>
      </trkpt>
      <trkpt lat="47.3296" lon="-2.41261">
        <ele>93</ele>
        <time>2019-09-05T13:29:01Z</time>
      </trkpt>
      <trkpt lat="47.32955" lon="-2.41263">
        <ele>94</ele>
        <time>2019-09-05T13:29:02Z</time>
      </trkpt>
      <trkpt lat="47.3295" lon="-2.41264">
        <ele>94</ele>
        <time>2019-09-05T13:29:03Z</time>
      </trkpt>
      <trkpt lat="47.32945" lon="-2.41265">
        <ele>94</ele>
        <time>2019-09-05T13:29:04Z</time>
      </trkpt>
      <trkpt lat="47.3294" lon="-2.41267">
        <ele>94</ele>
        <time>2019-09-05T13:29:05Z</time>
      </trkpt>
      <trkpt lat="47.32935" lon="-2.41267">
        <ele>94</ele>
        <time>2019-09-05T13:29:06Z</time>
      </trkpt>
      <trkpt lat="47.32931" lon="-2.41266">
        <ele>95</ele>
        <time>2019-09-05T13:29:07Z</time>
      </trkpt>
      <trkpt lat="47.32927" lon="-2.41266">
        <ele>95</ele>
        <time>2019-09-05T13:29:08Z</time>
      </trkpt>
      <trkpt lat="47.32919" lon="-2.41268">
        <ele>96</ele>
        <time>2019-09-05T13:29:10Z</time>
      </trkpt>
      <trkpt lat="47.32915" lon="-2.41269">
        <ele>96</ele>
        <time>2019-09-05T13:29:11Z</time>
      </trkpt>
      <trkpt lat="47.3291" lon="-2.41269">
        <ele>96</ele>
        <time>2019-09-05T13:29:12Z</time>
      </trkpt>
      <trkpt lat="47.32901" lon="-2.41271">
        <ele>96</ele>
        <time>2019-09-05T13:29:14Z</time>
      </trkpt>
      <trkpt lat="47.32896" lon="-2.41272">
        <ele>96</ele>
        <time>2019-09-05T13:29:15Z</time>
      </trkpt>
      <trkpt lat="47.32891" lon="-2.41273">
        <ele>96</ele>
        <time>2019-09-05T13:29:16Z</time>
      </trkpt>
      <trkpt lat="47.32886" lon="-2.41273">
        <ele>96</ele>
        <time>2019-09-05T13:29:17Z</time>
      </trkpt>
      <trkpt lat="47.32881" lon="-2.41274">
        <ele>96</ele>
        <time>2019-09-05T13:29:18Z</time>
      </trkpt>
      <trkpt lat="47.32876" lon="-2.41274">
        <ele>96</ele>
        <time>2019-09-05T13:29:19Z</time>
      </trkpt>
      <trkpt lat="47.32871" lon="-2.41275">
        <ele>96</ele>
        <time>2019-09-05T13:29:20Z</time>
      </trkpt>
      <trkpt lat="47.32866" lon="-2.41275">
        <ele>96</ele>
        <time>2019-09-05T13:29:21Z</time>
      </trkpt>
      <trkpt lat="47.32861" lon="-2.41276">
        <ele>96</ele>
        <time>2019-09-05T13:29:22Z</time>
      </trkpt>
      <trkpt lat="47.32856" lon="-2.41277">
        <ele>96</ele>
        <time>2019-09-05T13:29:23Z</time>
      </trkpt>
      <trkpt lat="47.32852" lon="-2.41278">
        <ele>96</ele>
        <time>2019-09-05T13:29:24Z</time>
      </trkpt>
      <trkpt lat="47.32847" lon="-2.41278">
        <ele>96</ele>
        <time>2019-09-05T13:29:25Z</time>
      </trkpt>
      <trkpt lat="47.32843" lon="-2.41279">
        <ele>96</ele>
        <time>2019-09-05T13:29:26Z</time>
      </trkpt>
      <trkpt lat="47.32835" lon="-2.4128">
        <ele>96</ele>
        <time>2019-09-05T13:29:28Z</time>
      </trkpt>
      <trkpt lat="47.32826" lon="-2.41285">
        <ele>97</ele>
        <time>2019-09-05T13:29:31Z</time>
      </trkpt>
      <trkpt lat="47.32814" lon="-2.41285">
        <ele>97</ele>
        <time>2019-09-05T13:29:34Z</time>
      </trkpt>
      <trkpt lat="47.32805" lon="-2.41287">
        <ele>98</ele>
        <time>2019-09-05T13:29:36Z</time>
      </trkpt>
      <trkpt lat="47.32801" lon="-2.41287">
        <ele>98</ele>
        <time>2019-09-05T13:29:37Z</time>
      </trkpt>
      <trkpt lat="47.32786" lon="-2.41288">
        <ele>100</ele>
        <time>2019-09-05T13:29:40Z</time>
      </trkpt>
      <trkpt lat="47.32781" lon="-2.41289">
        <ele>100</ele>
        <time>2019-09-05T13:29:41Z</time>
      </trkpt>
      <trkpt lat="47.32776" lon="-2.41291">
        <ele>101</ele>
        <time>2019-09-05T13:29:42Z</time>
      </trkpt>
      <trkpt lat="47.32771" lon="-2.41293">
        <ele>101</ele>
        <time>2019-09-05T13:29:43Z</time>
      </trkpt>
      <trkpt lat="47.32767" lon="-2.41294">
        <ele>101</ele>
        <time>2019-09-05T13:29:44Z</time>
      </trkpt>
      <trkpt lat="47.32761" lon="-2.41296">
        <ele>102</ele>
        <time>2019-09-05T13:29:45Z</time>
      </trkpt>
      <trkpt lat="47.32757" lon="-2.41299">
        <ele>102</ele>
        <time>2019-09-05T13:29:46Z</time>
      </trkpt>
      <trkpt lat="47.32752" lon="-2.41301">
        <ele>102</ele>
        <time>2019-09-05T13:29:47Z</time>
      </trkpt>
      <trkpt lat="47.32746" lon="-2.41307">
        <ele>101</ele>
        <time>2019-09-05T13:29:49Z</time>
      </trkpt>
      <trkpt lat="47.32743" lon="-2.41316">
        <ele>101</ele>
        <time>2019-09-05T13:29:52Z</time>
      </trkpt>
      <trkpt lat="47.32742" lon="-2.41324">
        <ele>101</ele>
        <time>2019-09-05T13:29:55Z</time>
      </trkpt>
      <trkpt lat="47.3274" lon="-2.41336">
        <ele>100</ele>
        <time>2019-09-05T13:29:58Z</time>
      </trkpt>
      <trkpt lat="47.32733" lon="-2.41338">
        <ele>100</ele>
        <time>2019-09-05T13:30:00Z</time>
      </trkpt>
      <trkpt lat="47.32724" lon="-2.41333">
        <ele>100</ele>
        <time>2019-09-05T13:30:02Z</time>
      </trkpt>
      <trkpt lat="47.32716" lon="-2.41326">
        <ele>100</ele>
        <time>2019-09-05T13:30:04Z</time>
      </trkpt>
      <trkpt lat="47.3271" lon="-2.41325">
        <ele>99</ele>
        <time>2019-09-05T13:30:05Z</time>
      </trkpt>
      <trkpt lat="47.32704" lon="-2.41326">
        <ele>99</ele>
        <time>2019-09-05T13:30:06Z</time>
      </trkpt>
      <trkpt lat="47.32698" lon="-2.41328">
        <ele>99</ele>
        <time>2019-09-05T13:30:07Z</time>
      </trkpt>
      <trkpt lat="47.32692" lon="-2.4133">
        <ele>99</ele>
        <time>2019-09-05T13:30:08Z</time>
      </trkpt>
      <trkpt lat="47.32687" lon="-2.41332">
        <ele>100</ele>
        <time>2019-09-05T13:30:09Z</time>
      </trkpt>
      <trkpt lat="47.32681" lon="-2.41334">
        <ele>99</ele>
        <time>2019-09-05T13:30:10Z</time>
      </trkpt>
      <trkpt lat="47.32676" lon="-2.41337">
        <ele>99</ele>
        <time>2019-09-05T13:30:11Z</time>
      </trkpt>
      <trkpt lat="47.32671" lon="-2.41339">
        <ele>99</ele>
        <time>2019-09-05T13:30:12Z</time>
      </trkpt>
      <trkpt lat="47.32665" lon="-2.41342">
        <ele>100</ele>
        <time>2019-09-05T13:30:13Z</time>
      </trkpt>
      <trkpt lat="47.3266" lon="-2.41345">
        <ele>100</ele>
        <time>2019-09-05T13:30:14Z</time>
      </trkpt>
      <trkpt lat="47.32655" lon="-2.41349">
        <ele>100</ele>
        <time>2019-09-05T13:30:15Z</time>
      </trkpt>
      <trkpt lat="47.3265" lon="-2.41352">
        <ele>100</ele>
        <time>2019-09-05T13:30:16Z</time>
      </trkpt>
      <trkpt lat="47.32644" lon="-2.41356">
        <ele>100</ele>
        <time>2019-09-05T13:30:17Z</time>
      </trkpt>
      <trkpt lat="47.32639" lon="-2.41359">
        <ele>100</ele>
        <time>2019-09-05T13:30:18Z</time>
      </trkpt>
      <trkpt lat="47.32635" lon="-2.41362">
        <ele>100</ele>
        <time>2019-09-05T13:30:19Z</time>
      </trkpt>
      <trkpt lat="47.3263" lon="-2.41366">
        <ele>100</ele>
        <time>2019-09-05T13:30:20Z</time>
      </trkpt>
      <trkpt lat="47.32625" lon="-2.41369">
        <ele>100</ele>
        <time>2019-09-05T13:30:21Z</time>
      </trkpt>
      <trkpt lat="47.3262" lon="-2.41372">
        <ele>99</ele>
        <time>2019-09-05T13:30:22Z</time>
      </trkpt>
      <trkpt lat="47.32615" lon="-2.41376">
        <ele>100</ele>
        <time>2019-09-05T13:30:23Z</time>
      </trkpt>
      <trkpt lat="47.32611" lon="-2.41379">
        <ele>100</ele>
        <time>2019-09-05T13:30:24Z</time>
      </trkpt>
      <trkpt lat="47.32605" lon="-2.41382">
        <ele>100</ele>
        <time>2019-09-05T13:30:25Z</time>
      </trkpt>
      <trkpt lat="47.32601" lon="-2.41385">
        <ele>100</ele>
        <time>2019-09-05T13:30:26Z</time>
      </trkpt>
      <trkpt lat="47.32596" lon="-2.41388">
        <ele>100</ele>
        <time>2019-09-05T13:30:27Z</time>
      </trkpt>
      <trkpt lat="47.32592" lon="-2.41391">
        <ele>100</ele>
        <time>2019-09-05T13:30:28Z</time>
      </trkpt>
      <trkpt lat="47.32587" lon="-2.41394">
        <ele>100</ele>
        <time>2019-09-05T13:30:29Z</time>
      </trkpt>
      <trkpt lat="47.32582" lon="-2.41405">
        <ele>100</ele>
        <time>2019-09-05T13:30:31Z</time>
      </trkpt>
      <trkpt lat="47.3258" lon="-2.41411">
        <ele>100</ele>
        <time>2019-09-05T13:30:32Z</time>
      </trkpt>
      <trkpt lat="47.32579" lon="-2.41418">
        <ele>100</ele>
        <time>2019-09-05T13:30:33Z</time>
      </trkpt>
      <trkpt lat="47.32576" lon="-2.41431">
        <ele>100</ele>
        <time>2019-09-05T13:30:35Z</time>
      </trkpt>
      <trkpt lat="47.32575" lon="-2.41451">
        <ele>101</ele>
        <time>2019-09-05T13:30:38Z</time>
      </trkpt>
      <trkpt lat="47.32572" lon="-2.41461">
        <ele>102</ele>
        <time>2019-09-05T13:30:40Z</time>
      </trkpt>
      <trkpt lat="47.32562" lon="-2.41452">
        <ele>102</ele>
        <time>2019-09-05T13:30:44Z</time>
      </trkpt>
      <trkpt lat="47.32554" lon="-2.41436">
        <ele>102</ele>
        <time>2019-09-05T13:30:47Z</time>
      </trkpt>
      <trkpt lat="47.32551" lon="-2.4143">
        <ele>101</ele>
        <time>2019-09-05T13:30:48Z</time>
      </trkpt>
      <trkpt lat="47.32546" lon="-2.41418">
        <ele>103</ele>
        <time>2019-09-05T13:30:50Z</time>
      </trkpt>
      <trkpt lat="47.32543" lon="-2.41412">
        <ele>103</ele>
        <time>2019-09-05T13:30:51Z</time>
      </trkpt>
      <trkpt lat="47.32532" lon="-2.41393">
        <ele>103</ele>
        <time>2019-09-05T13:30:54Z</time>
      </trkpt>
      <trkpt lat="47.32529" lon="-2.41387">
        <ele>103</ele>
        <time>2019-09-05T13:30:55Z</time>
      </trkpt>
      <trkpt lat="47.32526" lon="-2.41381">
        <ele>104</ele>
        <time>2019-09-05T13:30:56Z</time>
      </trkpt>
      <trkpt lat="47.32522" lon="-2.41375">
        <ele>104</ele>
        <time>2019-09-05T13:30:57Z</time>
      </trkpt>
      <trkpt lat="47.32518" lon="-2.41369">
        <ele>104</ele>
        <time>2019-09-05T13:30:58Z</time>
      </trkpt>
      <trkpt lat="47.32515" lon="-2.41363">
        <ele>104</ele>
        <time>2019-09-05T13:30:59Z</time>
      </trkpt>
      <trkpt lat="47.32506" lon="-2.41344">
        <ele>104</ele>
        <time>2019-09-05T13:31:02Z</time>
      </trkpt>
      <trkpt lat="47.32502" lon="-2.41338">
        <ele>104</ele>
        <time>2019-09-05T13:31:03Z</time>
      </trkpt>
      <trkpt lat="47.32499" lon="-2.41332">
        <ele>104</ele>
        <time>2019-09-05T13:31:04Z</time>
      </trkpt>
      <trkpt lat="47.32496" lon="-2.41325">
        <ele>104</ele>
        <time>2019-09-05T13:31:05Z</time>
      </trkpt>
      <trkpt lat="47.3248" lon="-2.41292">
        <ele>104</ele>
        <time>2019-09-05T13:31:10Z</time>
      </trkpt>
      <trkpt lat="47.32477" lon="-2.41286">
        <ele>104</ele>
        <time>2019-09-05T13:31:12Z</time>
      </trkpt>
      <trkpt lat="47.3247" lon="-2.41272">
        <ele>104</ele>
        <time>2019-09-05T13:31:13Z</time>
      </trkpt>
      <trkpt lat="47.32467" lon="-2.41266">
        <ele>105</ele>
        <time>2019-09-05T13:31:14Z</time>
      </trkpt>
      <trkpt lat="47.32459" lon="-2.41253">
        <ele>105</ele>
        <time>2019-09-05T13:31:16Z</time>
      </trkpt>
      <trkpt lat="47.32456" lon="-2.41245">
        <ele>104</ele>
        <time>2019-09-05T13:31:17Z</time>
      </trkpt>
      <trkpt lat="47.32451" lon="-2.4124">
        <ele>103</ele>
        <time>2019-09-05T13:31:18Z</time>
      </trkpt>
      <trkpt lat="47.32447" lon="-2.41235">
        <ele>103</ele>
        <time>2019-09-05T13:31:19Z</time>
      </trkpt>
      <trkpt lat="47.32444" lon="-2.41229">
        <ele>103</ele>
        <time>2019-09-05T13:31:20Z</time>
      </trkpt>
      <trkpt lat="47.32441" lon="-2.41224">
        <ele>104</ele>
        <time>2019-09-05T13:31:21Z</time>
      </trkpt>
      <trkpt lat="47.32439" lon="-2.4122">
        <ele>104</ele>
        <time>2019-09-05T13:31:22Z</time>
      </trkpt>
      <trkpt lat="47.32437" lon="-2.41215">
        <ele>104</ele>
        <time>2019-09-05T13:31:23Z</time>
      </trkpt>
      <trkpt lat="47.32433" lon="-2.41204">
        <ele>104</ele>
        <time>2019-09-05T13:31:25Z</time>
      </trkpt>
      <trkpt lat="47.32428" lon="-2.41196">
        <ele>104</ele>
        <time>2019-09-05T13:31:27Z</time>
      </trkpt>
      <trkpt lat="47.32424" lon="-2.41191">
        <ele>105</ele>
        <time>2019-09-05T13:31:29Z</time>
      </trkpt>
      <trkpt lat="47.32421" lon="-2.41185">
        <ele>105</ele>
        <time>2019-09-05T13:31:32Z</time>
      </trkpt>
      <trkpt lat="47.32421" lon="-2.41185">
        <ele>54.5</ele>
        <time>2019-09-05T13:31:39Z</time>
      </trkpt>
      <trkpt lat="47.32421" lon="-2.41185">
        <ele>54.5</ele>
        <time>2019-09-05T13:31:43Z</time>
      </trkpt>
      <trkpt lat="47.32415" lon="-2.41178">
        <ele>105</ele>
        <time>2019-09-05T13:31:43Z</time>
      </trkpt>
      <trkpt lat="47.32405" lon="-2.41152">
        <ele>104</ele>
        <time>2019-09-05T13:31:48Z</time>
      </trkpt>
      <trkpt lat="47.324" lon="-2.41147">
        <ele>101</ele>
        <time>2019-09-05T13:31:50Z</time>
      </trkpt>
      <trkpt lat="47.32396" lon="-2.41138">
        <ele>103</ele>
        <time>2019-09-05T13:31:52Z</time>
      </trkpt>
      <trkpt lat="47.32393" lon="-2.41132">
        <ele>103</ele>
        <time>2019-09-05T13:31:53Z</time>
      </trkpt>
      <trkpt lat="47.32391" lon="-2.41128">
        <ele>103</ele>
        <time>2019-09-05T13:31:54Z</time>
      </trkpt>
      <trkpt lat="47.32388" lon="-2.41123">
        <ele>104</ele>
        <time>2019-09-05T13:31:55Z</time>
      </trkpt>
      <trkpt lat="47.32384" lon="-2.41115">
        <ele>105</ele>
        <time>2019-09-05T13:31:57Z</time>
      </trkpt>
      <trkpt lat="47.32376" lon="-2.41102">
        <ele>106</ele>
        <time>2019-09-05T13:32:00Z</time>
      </trkpt>
      <trkpt lat="47.32371" lon="-2.41094">
        <ele>106</ele>
        <time>2019-09-05T13:32:02Z</time>
      </trkpt>
      <trkpt lat="47.32369" lon="-2.4109">
        <ele>107</ele>
        <time>2019-09-05T13:32:03Z</time>
      </trkpt>
      <trkpt lat="47.32365" lon="-2.41083">
        <ele>107</ele>
        <time>2019-09-05T13:32:05Z</time>
      </trkpt>
      <trkpt lat="47.32359" lon="-2.41074">
        <ele>107</ele>
        <time>2019-09-05T13:32:08Z</time>
      </trkpt>
      <trkpt lat="47.32355" lon="-2.41064">
        <ele>106</ele>
        <time>2019-09-05T13:32:10Z</time>
      </trkpt>
      <trkpt lat="47.32353" lon="-2.41058">
        <ele>105</ele>
        <time>2019-09-05T13:32:11Z</time>
      </trkpt>
      <trkpt lat="47.32349" lon="-2.41053">
        <ele>105</ele>
        <time>2019-09-05T13:32:12Z</time>
      </trkpt>
      <trkpt lat="47.32346" lon="-2.41048">
        <ele>105</ele>
        <time>2019-09-05T13:32:13Z</time>
      </trkpt>
      <trkpt lat="47.32344" lon="-2.41042">
        <ele>106</ele>
        <time>2019-09-05T13:32:14Z</time>
      </trkpt>
      <trkpt lat="47.3234" lon="-2.41036">
        <ele>106</ele>
        <time>2019-09-05T13:32:15Z</time>
      </trkpt>
      <trkpt lat="47.32338" lon="-2.41031">
        <ele>106</ele>
        <time>2019-09-05T13:32:16Z</time>
      </trkpt>
      <trkpt lat="47.32335" lon="-2.41025">
        <ele>105</ele>
        <time>2019-09-05T13:32:17Z</time>
      </trkpt>
      <trkpt lat="47.32332" lon="-2.41019">
        <ele>105</ele>
        <time>2019-09-05T13:32:18Z</time>
      </trkpt>
      <trkpt lat="47.32325" lon="-2.41008">
        <ele>106</ele>
        <time>2019-09-05T13:32:20Z</time>
      </trkpt>
      <trkpt lat="47.32322" lon="-2.41002">
        <ele>106</ele>
        <time>2019-09-05T13:32:21Z</time>
      </trkpt>
      <trkpt lat="47.32319" lon="-2.40996">
        <ele>105</ele>
        <time>2019-09-05T13:32:22Z</time>
      </trkpt>
      <trkpt lat="47.32316" lon="-2.4099">
        <ele>105</ele>
        <time>2019-09-05T13:32:23Z</time>
      </trkpt>
      <trkpt lat="47.32313" lon="-2.40984">
        <ele>105</ele>
        <time>2019-09-05T13:32:24Z</time>
      </trkpt>
      <trkpt lat="47.3231" lon="-2.40978">
        <ele>105</ele>
        <time>2019-09-05T13:32:25Z</time>
      </trkpt>
      <trkpt lat="47.32307" lon="-2.40972">
        <ele>104</ele>
        <time>2019-09-05T13:32:26Z</time>
      </trkpt>
      <trkpt lat="47.32304" lon="-2.40966">
        <ele>104</ele>
        <time>2019-09-05T13:32:27Z</time>
      </trkpt>
      <trkpt lat="47.32301" lon="-2.40959">
        <ele>104</ele>
        <time>2019-09-05T13:32:28Z</time>
      </trkpt>
      <trkpt lat="47.32297" lon="-2.40954">
        <ele>104</ele>
        <time>2019-09-05T13:32:29Z</time>
      </trkpt>
      <trkpt lat="47.32294" lon="-2.40948">
        <ele>104</ele>
        <time>2019-09-05T13:32:30Z</time>
      </trkpt>
      <trkpt lat="47.32291" lon="-2.40942">
        <ele>104</ele>
        <time>2019-09-05T13:32:31Z</time>
      </trkpt>
      <trkpt lat="47.32288" lon="-2.40936">
        <ele>104</ele>
        <time>2019-09-05T13:32:32Z</time>
      </trkpt>
      <trkpt lat="47.32284" lon="-2.4093">
        <ele>103</ele>
        <time>2019-09-05T13:32:33Z</time>
      </trkpt>
      <trkpt lat="47.32282" lon="-2.40924">
        <ele>103</ele>
        <time>2019-09-05T13:32:34Z</time>
      </trkpt>
      <trkpt lat="47.32279" lon="-2.40918">
        <ele>103</ele>
        <time>2019-09-05T13:32:35Z</time>
      </trkpt>
      <trkpt lat="47.32276" lon="-2.40913">
        <ele>104</ele>
        <time>2019-09-05T13:32:36Z</time>
      </trkpt>
      <trkpt lat="47.32272" lon="-2.40907">
        <ele>104</ele>
        <time>2019-09-05T13:32:37Z</time>
      </trkpt>
      <trkpt lat="47.32269" lon="-2.40901">
        <ele>104</ele>
        <time>2019-09-05T13:32:38Z</time>
      </trkpt>
      <trkpt lat="47.32266" lon="-2.40895">
        <ele>103</ele>
        <time>2019-09-05T13:32:39Z</time>
      </trkpt>
      <trkpt lat="47.32263" lon="-2.4089">
        <ele>103</ele>
        <time>2019-09-05T13:32:40Z</time>
      </trkpt>
      <trkpt lat="47.32257" lon="-2.40879">
        <ele>103</ele>
        <time>2019-09-05T13:32:42Z</time>
      </trkpt>
      <trkpt lat="47.32253" lon="-2.40873">
        <ele>103</ele>
        <time>2019-09-05T13:32:43Z</time>
      </trkpt>
      <trkpt lat="47.3225" lon="-2.40867">
        <ele>103</ele>
        <time>2019-09-05T13:32:44Z</time>
      </trkpt>
      <trkpt lat="47.32247" lon="-2.40862">
        <ele>103</ele>
        <time>2019-09-05T13:32:45Z</time>
      </trkpt>
      <trkpt lat="47.32243" lon="-2.40856">
        <ele>103</ele>
        <time>2019-09-05T13:32:46Z</time>
      </trkpt>
      <trkpt lat="47.3224" lon="-2.4085">
        <ele>103</ele>
        <time>2019-09-05T13:32:47Z</time>
      </trkpt>
      <trkpt lat="47.32237" lon="-2.40844">
        <ele>103</ele>
        <time>2019-09-05T13:32:48Z</time>
      </trkpt>
      <trkpt lat="47.32234" lon="-2.40839">
        <ele>103</ele>
        <time>2019-09-05T13:32:49Z</time>
      </trkpt>
      <trkpt lat="47.32231" lon="-2.40834">
        <ele>103</ele>
        <time>2019-09-05T13:32:50Z</time>
      </trkpt>
      <trkpt lat="47.32228" lon="-2.4083">
        <ele>103</ele>
        <time>2019-09-05T13:32:51Z</time>
      </trkpt>
      <trkpt lat="47.32225" lon="-2.40825">
        <ele>103</ele>
        <time>2019-09-05T13:32:52Z</time>
      </trkpt>
      <trkpt lat="47.32222" lon="-2.40821">
        <ele>103</ele>
        <time>2019-09-05T13:32:53Z</time>
      </trkpt>
      <trkpt lat="47.32217" lon="-2.40815">
        <ele>103</ele>
        <time>2019-09-05T13:32:55Z</time>
      </trkpt>
      <trkpt lat="47.32211" lon="-2.40804">
        <ele>103</ele>
        <time>2019-09-05T13:32:58Z</time>
      </trkpt>
      <trkpt lat="47.32207" lon="-2.40797">
        <ele>103</ele>
        <time>2019-09-05T13:33:00Z</time>
      </trkpt>
      <trkpt lat="47.32202" lon="-2.40791">
        <ele>104</ele>
        <time>2019-09-05T13:33:02Z</time>
      </trkpt>
      <trkpt lat="47.32199" lon="-2.40789">
        <ele>104</ele>
        <time>2019-09-05T13:33:03Z</time>
      </trkpt>
      <trkpt lat="47.32192" lon="-2.40782">
        <ele>104</ele>
        <time>2019-09-05T13:33:05Z</time>
      </trkpt>
      <trkpt lat="47.32189" lon="-2.40776">
        <ele>104</ele>
        <time>2019-09-05T13:33:06Z</time>
      </trkpt>
      <trkpt lat="47.32187" lon="-2.40771">
        <ele>104</ele>
        <time>2019-09-05T13:33:07Z</time>
      </trkpt>
      <trkpt lat="47.32183" lon="-2.40766">
        <ele>104</ele>
        <time>2019-09-05T13:33:08Z</time>
      </trkpt>
      <trkpt lat="47.3218" lon="-2.40762">
        <ele>104</ele>
        <time>2019-09-05T13:33:09Z</time>
      </trkpt>
      <trkpt lat="47.32177" lon="-2.40757">
        <ele>103</ele>
        <time>2019-09-05T13:33:10Z</time>
      </trkpt>
      <trkpt lat="47.32174" lon="-2.40753">
        <ele>103</ele>
        <time>2019-09-05T13:33:11Z</time>
      </trkpt>
      <trkpt lat="47.32171" lon="-2.40749">
        <ele>103</ele>
        <time>2019-09-05T13:33:12Z</time>
      </trkpt>
      <trkpt lat="47.32168" lon="-2.40745">
        <ele>103</ele>
        <time>2019-09-05T13:33:13Z</time>
      </trkpt>
      <trkpt lat="47.32165" lon="-2.4074">
        <ele>103</ele>
        <time>2019-09-05T13:33:14Z</time>
      </trkpt>
      <trkpt lat="47.32158" lon="-2.40733">
        <ele>103</ele>
        <time>2019-09-05T13:33:16Z</time>
      </trkpt>
      <trkpt lat="47.32154" lon="-2.40729">
        <ele>104</ele>
        <time>2019-09-05T13:33:17Z</time>
      </trkpt>
      <trkpt lat="47.32151" lon="-2.40725">
        <ele>104</ele>
        <time>2019-09-05T13:33:18Z</time>
      </trkpt>
      <trkpt lat="47.32147" lon="-2.4072">
        <ele>104</ele>
        <time>2019-09-05T13:33:19Z</time>
      </trkpt>
      <trkpt lat="47.3214" lon="-2.40712">
        <ele>103</ele>
        <time>2019-09-05T13:33:21Z</time>
      </trkpt>
      <trkpt lat="47.32137" lon="-2.40708">
        <ele>104</ele>
        <time>2019-09-05T13:33:22Z</time>
      </trkpt>
      <trkpt lat="47.32133" lon="-2.40703">
        <ele>104</ele>
        <time>2019-09-05T13:33:23Z</time>
      </trkpt>
      <trkpt lat="47.3213" lon="-2.40699">
        <ele>103</ele>
        <time>2019-09-05T13:33:24Z</time>
      </trkpt>
      <trkpt lat="47.32126" lon="-2.40694">
        <ele>103</ele>
        <time>2019-09-05T13:33:25Z</time>
      </trkpt>
      <trkpt lat="47.32119" lon="-2.40686">
        <ele>103</ele>
        <time>2019-09-05T13:33:27Z</time>
      </trkpt>
      <trkpt lat="47.32115" lon="-2.40682">
        <ele>103</ele>
        <time>2019-09-05T13:33:28Z</time>
      </trkpt>
      <trkpt lat="47.3211" lon="-2.40678">
        <ele>103</ele>
        <time>2019-09-05T13:33:29Z</time>
      </trkpt>
      <trkpt lat="47.32106" lon="-2.40674">
        <ele>103</ele>
        <time>2019-09-05T13:33:30Z</time>
      </trkpt>
      <trkpt lat="47.32102" lon="-2.4067">
        <ele>103</ele>
        <time>2019-09-05T13:33:31Z</time>
      </trkpt>
      <trkpt lat="47.32098" lon="-2.40665">
        <ele>103</ele>
        <time>2019-09-05T13:33:32Z</time>
      </trkpt>
      <trkpt lat="47.32093" lon="-2.40661">
        <ele>103</ele>
        <time>2019-09-05T13:33:33Z</time>
      </trkpt>
      <trkpt lat="47.32089" lon="-2.40657">
        <ele>103</ele>
        <time>2019-09-05T13:33:34Z</time>
      </trkpt>
      <trkpt lat="47.32081" lon="-2.40648">
        <ele>103</ele>
        <time>2019-09-05T13:33:36Z</time>
      </trkpt>
      <trkpt lat="47.32076" lon="-2.40644">
        <ele>103</ele>
        <time>2019-09-05T13:33:37Z</time>
      </trkpt>
      <trkpt lat="47.32072" lon="-2.4064">
        <ele>103</ele>
        <time>2019-09-05T13:33:38Z</time>
      </trkpt>
      <trkpt lat="47.32065" lon="-2.40631">
        <ele>102</ele>
        <time>2019-09-05T13:33:40Z</time>
      </trkpt>
      <trkpt lat="47.32061" lon="-2.40627">
        <ele>102</ele>
        <time>2019-09-05T13:33:41Z</time>
      </trkpt>
      <trkpt lat="47.32053" lon="-2.40619">
        <ele>102</ele>
        <time>2019-09-05T13:33:43Z</time>
      </trkpt>
      <trkpt lat="47.32049" lon="-2.40616">
        <ele>103</ele>
        <time>2019-09-05T13:33:44Z</time>
      </trkpt>
      <trkpt lat="47.32045" lon="-2.40612">
        <ele>103</ele>
        <time>2019-09-05T13:33:45Z</time>
      </trkpt>
      <trkpt lat="47.32041" lon="-2.40608">
        <ele>103</ele>
        <time>2019-09-05T13:33:46Z</time>
      </trkpt>
      <trkpt lat="47.32034" lon="-2.406">
        <ele>103</ele>
        <time>2019-09-05T13:33:48Z</time>
      </trkpt>
      <trkpt lat="47.32025" lon="-2.40594">
        <ele>102</ele>
        <time>2019-09-05T13:33:50Z</time>
      </trkpt>
      <trkpt lat="47.3202" lon="-2.4059">
        <ele>102</ele>
        <time>2019-09-05T13:33:51Z</time>
      </trkpt>
      <trkpt lat="47.32007" lon="-2.40579">
        <ele>102</ele>
        <time>2019-09-05T13:33:54Z</time>
      </trkpt>
      <trkpt lat="47.32003" lon="-2.40576">
        <ele>102</ele>
        <time>2019-09-05T13:33:55Z</time>
      </trkpt>
      <trkpt lat="47.31999" lon="-2.40572">
        <ele>102</ele>
        <time>2019-09-05T13:33:56Z</time>
      </trkpt>
      <trkpt lat="47.31994" lon="-2.40569">
        <ele>102</ele>
        <time>2019-09-05T13:33:57Z</time>
      </trkpt>
      <trkpt lat="47.31985" lon="-2.40562">
        <ele>102</ele>
        <time>2019-09-05T13:33:59Z</time>
      </trkpt>
      <trkpt lat="47.3198" lon="-2.40559">
        <ele>102</ele>
        <time>2019-09-05T13:34:00Z</time>
      </trkpt>
      <trkpt lat="47.31976" lon="-2.40556">
        <ele>103</ele>
        <time>2019-09-05T13:34:01Z</time>
      </trkpt>
      <trkpt lat="47.31971" lon="-2.40552">
        <ele>103</ele>
        <time>2019-09-05T13:34:02Z</time>
      </trkpt>
      <trkpt lat="47.31962" lon="-2.40545">
        <ele>103</ele>
        <time>2019-09-05T13:34:04Z</time>
      </trkpt>
      <trkpt lat="47.31958" lon="-2.40542">
        <ele>103</ele>
        <time>2019-09-05T13:34:05Z</time>
      </trkpt>
      <trkpt lat="47.31954" lon="-2.40539">
        <ele>103</ele>
        <time>2019-09-05T13:34:06Z</time>
      </trkpt>
      <trkpt lat="47.31949" lon="-2.40536">
        <ele>103</ele>
        <time>2019-09-05T13:34:07Z</time>
      </trkpt>
      <trkpt lat="47.31936" lon="-2.40527">
        <ele>103</ele>
        <time>2019-09-05T13:34:10Z</time>
      </trkpt>
      <trkpt lat="47.31931" lon="-2.40525">
        <ele>103</ele>
        <time>2019-09-05T13:34:11Z</time>
      </trkpt>
      <trkpt lat="47.31926" lon="-2.40521">
        <ele>103</ele>
        <time>2019-09-05T13:34:12Z</time>
      </trkpt>
      <trkpt lat="47.31921" lon="-2.40517">
        <ele>103</ele>
        <time>2019-09-05T13:34:13Z</time>
      </trkpt>
      <trkpt lat="47.31916" lon="-2.40512">
        <ele>103</ele>
        <time>2019-09-05T13:34:14Z</time>
      </trkpt>
      <trkpt lat="47.31901" lon="-2.40501">
        <ele>103</ele>
        <time>2019-09-05T13:34:17Z</time>
      </trkpt>
      <trkpt lat="47.31895" lon="-2.40497">
        <ele>103</ele>
        <time>2019-09-05T13:34:18Z</time>
      </trkpt>
      <trkpt lat="47.31881" lon="-2.40486">
        <ele>103</ele>
        <time>2019-09-05T13:34:21Z</time>
      </trkpt>
      <trkpt lat="47.31877" lon="-2.40482">
        <ele>103</ele>
        <time>2019-09-05T13:34:22Z</time>
      </trkpt>
      <trkpt lat="47.31872" lon="-2.40478">
        <ele>103</ele>
        <time>2019-09-05T13:34:23Z</time>
      </trkpt>
      <trkpt lat="47.31868" lon="-2.40475">
        <ele>103</ele>
        <time>2019-09-05T13:34:24Z</time>
      </trkpt>
      <trkpt lat="47.31863" lon="-2.40471">
        <ele>103</ele>
        <time>2019-09-05T13:34:25Z</time>
      </trkpt>
      <trkpt lat="47.31859" lon="-2.40468">
        <ele>103</ele>
        <time>2019-09-05T13:34:26Z</time>
      </trkpt>
      <trkpt lat="47.31854" lon="-2.40465">
        <ele>102</ele>
        <time>2019-09-05T13:34:27Z</time>
      </trkpt>
      <trkpt lat="47.3185" lon="-2.40462">
        <ele>102</ele>
        <time>2019-09-05T13:34:28Z</time>
      </trkpt>
      <trkpt lat="47.31846" lon="-2.40458">
        <ele>102</ele>
        <time>2019-09-05T13:34:29Z</time>
      </trkpt>
      <trkpt lat="47.31841" lon="-2.40455">
        <ele>102</ele>
        <time>2019-09-05T13:34:30Z</time>
      </trkpt>
      <trkpt lat="47.31837" lon="-2.40452">
        <ele>102</ele>
        <time>2019-09-05T13:34:31Z</time>
      </trkpt>
      <trkpt lat="47.31833" lon="-2.40449">
        <ele>101</ele>
        <time>2019-09-05T13:34:32Z</time>
      </trkpt>
      <trkpt lat="47.3182" lon="-2.4044">
        <ele>101</ele>
        <time>2019-09-05T13:34:35Z</time>
      </trkpt>
      <trkpt lat="47.31815" lon="-2.40437">
        <ele>101</ele>
        <time>2019-09-05T13:34:36Z</time>
      </trkpt>
      <trkpt lat="47.31811" lon="-2.40433">
        <ele>101</ele>
        <time>2019-09-05T13:34:37Z</time>
      </trkpt>
      <trkpt lat="47.31807" lon="-2.40429">
        <ele>101</ele>
        <time>2019-09-05T13:34:38Z</time>
      </trkpt>
      <trkpt lat="47.31803" lon="-2.40425">
        <ele>101</ele>
        <time>2019-09-05T13:34:39Z</time>
      </trkpt>
      <trkpt lat="47.31798" lon="-2.40421">
        <ele>101</ele>
        <time>2019-09-05T13:34:40Z</time>
      </trkpt>
      <trkpt lat="47.31793" lon="-2.40418">
        <ele>100</ele>
        <time>2019-09-05T13:34:41Z</time>
      </trkpt>
      <trkpt lat="47.31789" lon="-2.40414">
        <ele>100</ele>
        <time>2019-09-05T13:34:42Z</time>
      </trkpt>
      <trkpt lat="47.31785" lon="-2.40411">
        <ele>100</ele>
        <time>2019-09-05T13:34:43Z</time>
      </trkpt>
      <trkpt lat="47.3178" lon="-2.40408">
        <ele>100</ele>
        <time>2019-09-05T13:34:44Z</time>
      </trkpt>
      <trkpt lat="47.31775" lon="-2.40404">
        <ele>99</ele>
        <time>2019-09-05T13:34:45Z</time>
      </trkpt>
      <trkpt lat="47.31771" lon="-2.404">
        <ele>99</ele>
        <time>2019-09-05T13:34:46Z</time>
      </trkpt>
      <trkpt lat="47.31762" lon="-2.40394">
        <ele>99</ele>
        <time>2019-09-05T13:34:48Z</time>
      </trkpt>
      <trkpt lat="47.31758" lon="-2.40391">
        <ele>98</ele>
        <time>2019-09-05T13:34:49Z</time>
      </trkpt>
      <trkpt lat="47.31744" lon="-2.40382">
        <ele>98</ele>
        <time>2019-09-05T13:34:52Z</time>
      </trkpt>
      <trkpt lat="47.3174" lon="-2.40379">
        <ele>98</ele>
        <time>2019-09-05T13:34:53Z</time>
      </trkpt>
      <trkpt lat="47.31731" lon="-2.40371">
        <ele>97</ele>
        <time>2019-09-05T13:34:55Z</time>
      </trkpt>
      <trkpt lat="47.31726" lon="-2.40368">
        <ele>97</ele>
        <time>2019-09-05T13:34:56Z</time>
      </trkpt>
      <trkpt lat="47.31721" lon="-2.40365">
        <ele>97</ele>
        <time>2019-09-05T13:34:57Z</time>
      </trkpt>
      <trkpt lat="47.31706" lon="-2.40356">
        <ele>96</ele>
        <time>2019-09-05T13:35:00Z</time>
      </trkpt>
      <trkpt lat="47.31696" lon="-2.40349">
        <ele>97</ele>
        <time>2019-09-05T13:35:02Z</time>
      </trkpt>
      <trkpt lat="47.31685" lon="-2.40341">
        <ele>96</ele>
        <time>2019-09-05T13:35:04Z</time>
      </trkpt>
      <trkpt lat="47.31679" lon="-2.40338">
        <ele>96</ele>
        <time>2019-09-05T13:35:05Z</time>
      </trkpt>
      <trkpt lat="47.31674" lon="-2.40336">
        <ele>96</ele>
        <time>2019-09-05T13:35:06Z</time>
      </trkpt>
      <trkpt lat="47.31669" lon="-2.40335">
        <ele>95</ele>
        <time>2019-09-05T13:35:07Z</time>
      </trkpt>
      <trkpt lat="47.31665" lon="-2.40334">
        <ele>95</ele>
        <time>2019-09-05T13:35:08Z</time>
      </trkpt>
      <trkpt lat="47.31652" lon="-2.40337">
        <ele>95</ele>
        <time>2019-09-05T13:35:11Z</time>
      </trkpt>
      <trkpt lat="47.31648" lon="-2.40339">
        <ele>95</ele>
        <time>2019-09-05T13:35:12Z</time>
      </trkpt>
      <trkpt lat="47.31643" lon="-2.4034">
        <ele>94</ele>
        <time>2019-09-05T13:35:13Z</time>
      </trkpt>
      <trkpt lat="47.31635" lon="-2.40349">
        <ele>95</ele>
        <time>2019-09-05T13:35:16Z</time>
      </trkpt>
      <trkpt lat="47.31635" lon="-2.40349">
        <ele>44.6</ele>
        <time>2019-09-05T13:35:21Z</time>
      </trkpt>
      <trkpt lat="47.31635" lon="-2.40349">
        <ele>44.6</ele>
        <time>2019-09-05T13:35:40Z</time>
      </trkpt>
      <trkpt lat="47.31653" lon="-2.40338">
        <ele>97</ele>
        <time>2019-09-05T13:35:40Z</time>
      </trkpt>
      <trkpt lat="47.31672" lon="-2.40332">
        <ele>92</ele>
        <time>2019-09-05T13:35:46Z</time>
      </trkpt>
      <trkpt lat="47.31674" lon="-2.40326">
        <ele>91</ele>
        <time>2019-09-05T13:35:48Z</time>
      </trkpt>
      <trkpt lat="47.31665" lon="-2.40317">
        <ele>93</ele>
        <time>2019-09-05T13:35:52Z</time>
      </trkpt>
      <trkpt lat="47.31654" lon="-2.40307">
        <ele>92</ele>
        <time>2019-09-05T13:35:55Z</time>
      </trkpt>
      <trkpt lat="47.31649" lon="-2.40304">
        <ele>92</ele>
        <time>2019-09-05T13:35:56Z</time>
      </trkpt>
      <trkpt lat="47.31641" lon="-2.40299">
        <ele>91</ele>
        <time>2019-09-05T13:35:58Z</time>
      </trkpt>
      <trkpt lat="47.31634" lon="-2.40292">
        <ele>91</ele>
        <time>2019-09-05T13:36:00Z</time>
      </trkpt>
      <trkpt lat="47.31627" lon="-2.40285">
        <ele>93</ele>
        <time>2019-09-05T13:36:02Z</time>
      </trkpt>
      <trkpt lat="47.31623" lon="-2.40283">
        <ele>92</ele>
        <time>2019-09-05T13:36:03Z</time>
      </trkpt>
      <trkpt lat="47.31612" lon="-2.40275">
        <ele>92</ele>
        <time>2019-09-05T13:36:06Z</time>
      </trkpt>
      <trkpt lat="47.31608" lon="-2.40272">
        <ele>91</ele>
        <time>2019-09-05T13:36:07Z</time>
      </trkpt>
      <trkpt lat="47.31604" lon="-2.40269">
        <ele>91</ele>
        <time>2019-09-05T13:36:08Z</time>
      </trkpt>
      <trkpt lat="47.316" lon="-2.40266">
        <ele>91</ele>
        <time>2019-09-05T13:36:09Z</time>
      </trkpt>
      <trkpt lat="47.31596" lon="-2.40263">
        <ele>91</ele>
        <time>2019-09-05T13:36:10Z</time>
      </trkpt>
      <trkpt lat="47.31592" lon="-2.4026">
        <ele>91</ele>
        <time>2019-09-05T13:36:11Z</time>
      </trkpt>
      <trkpt lat="47.31589" lon="-2.40258">
        <ele>91</ele>
        <time>2019-09-05T13:36:12Z</time>
      </trkpt>
      <trkpt lat="47.31578" lon="-2.4025">
        <ele>91</ele>
        <time>2019-09-05T13:36:15Z</time>
      </trkpt>
      <trkpt lat="47.31575" lon="-2.40247">
        <ele>91</ele>
        <time>2019-09-05T13:36:16Z</time>
      </trkpt>
      <trkpt lat="47.31571" lon="-2.40245">
        <ele>92</ele>
        <time>2019-09-05T13:36:17Z</time>
      </trkpt>
      <trkpt lat="47.31568" lon="-2.40242">
        <ele>93</ele>
        <time>2019-09-05T13:36:18Z</time>
      </trkpt>
      <trkpt lat="47.31564" lon="-2.40239">
        <ele>93</ele>
        <time>2019-09-05T13:36:19Z</time>
      </trkpt>
      <trkpt lat="47.3156" lon="-2.40237">
        <ele>92</ele>
        <time>2019-09-05T13:36:20Z</time>
      </trkpt>
      <trkpt lat="47.31557" lon="-2.40235">
        <ele>92</ele>
        <time>2019-09-05T13:36:21Z</time>
      </trkpt>
      <trkpt lat="47.3155" lon="-2.40229">
        <ele>92</ele>
        <time>2019-09-05T13:36:23Z</time>
      </trkpt>
      <trkpt lat="47.31538" lon="-2.40218">
        <ele>93</ele>
        <time>2019-09-05T13:36:27Z</time>
      </trkpt>
      <trkpt lat="47.3153" lon="-2.40213">
        <ele>93</ele>
        <time>2019-09-05T13:36:29Z</time>
      </trkpt>
      <trkpt lat="47.31526" lon="-2.4021">
        <ele>92</ele>
        <time>2019-09-05T13:36:30Z</time>
      </trkpt>
      <trkpt lat="47.31522" lon="-2.40207">
        <ele>92</ele>
        <time>2019-09-05T13:36:31Z</time>
      </trkpt>
      <trkpt lat="47.31515" lon="-2.402">
        <ele>91</ele>
        <time>2019-09-05T13:36:33Z</time>
      </trkpt>
      <trkpt lat="47.31507" lon="-2.40193">
        <ele>90</ele>
        <time>2019-09-05T13:36:35Z</time>
      </trkpt>
      <trkpt lat="47.31503" lon="-2.4019">
        <ele>90</ele>
        <time>2019-09-05T13:36:36Z</time>
      </trkpt>
      <trkpt lat="47.31494" lon="-2.40184">
        <ele>89</ele>
        <time>2019-09-05T13:36:38Z</time>
      </trkpt>
      <trkpt lat="47.31489" lon="-2.40182">
        <ele>89</ele>
        <time>2019-09-05T13:36:39Z</time>
      </trkpt>
      <trkpt lat="47.31484" lon="-2.4018">
        <ele>90</ele>
        <time>2019-09-05T13:36:40Z</time>
      </trkpt>
      <trkpt lat="47.3148" lon="-2.40177">
        <ele>90</ele>
        <time>2019-09-05T13:36:41Z</time>
      </trkpt>
      <trkpt lat="47.31475" lon="-2.40174">
        <ele>90</ele>
        <time>2019-09-05T13:36:42Z</time>
      </trkpt>
      <trkpt lat="47.31471" lon="-2.4017">
        <ele>90</ele>
        <time>2019-09-05T13:36:43Z</time>
      </trkpt>
      <trkpt lat="47.31466" lon="-2.40167">
        <ele>90</ele>
        <time>2019-09-05T13:36:44Z</time>
      </trkpt>
      <trkpt lat="47.31462" lon="-2.40161">
        <ele>89</ele>
        <time>2019-09-05T13:36:45Z</time>
      </trkpt>
      <trkpt lat="47.31459" lon="-2.40157">
        <ele>89</ele>
        <time>2019-09-05T13:36:46Z</time>
      </trkpt>
      <trkpt lat="47.31451" lon="-2.40153">
        <ele>88</ele>
        <time>2019-09-05T13:36:48Z</time>
      </trkpt>
      <trkpt lat="47.31443" lon="-2.40148">
        <ele>88</ele>
        <time>2019-09-05T13:36:50Z</time>
      </trkpt>
      <trkpt lat="47.31438" lon="-2.40146">
        <ele>88</ele>
        <time>2019-09-05T13:36:51Z</time>
      </trkpt>
      <trkpt lat="47.31434" lon="-2.40143">
        <ele>88</ele>
        <time>2019-09-05T13:36:52Z</time>
      </trkpt>
      <trkpt lat="47.31429" lon="-2.40139">
        <ele>88</ele>
        <time>2019-09-05T13:36:53Z</time>
      </trkpt>
      <trkpt lat="47.31421" lon="-2.40132">
        <ele>88</ele>
        <time>2019-09-05T13:36:55Z</time>
      </trkpt>
      <trkpt lat="47.31413" lon="-2.40127">
        <ele>88</ele>
        <time>2019-09-05T13:36:57Z</time>
      </trkpt>
      <trkpt lat="47.31402" lon="-2.40121">
        <ele>87</ele>
        <time>2019-09-05T13:37:00Z</time>
      </trkpt>
      <trkpt lat="47.31394" lon="-2.40115">
        <ele>87</ele>
        <time>2019-09-05T13:37:03Z</time>
      </trkpt>
      <trkpt lat="47.31384" lon="-2.40109">
        <ele>88</ele>
        <time>2019-09-05T13:37:06Z</time>
      </trkpt>
      <trkpt lat="47.31377" lon="-2.40104">
        <ele>88</ele>
        <time>2019-09-05T13:37:08Z</time>
      </trkpt>
      <trkpt lat="47.31373" lon="-2.40101">
        <ele>88</ele>
        <time>2019-09-05T13:37:09Z</time>
      </trkpt>
      <trkpt lat="47.31365" lon="-2.40098">
        <ele>88</ele>
        <time>2019-09-05T13:37:11Z</time>
      </trkpt>
      <trkpt lat="47.31361" lon="-2.40096">
        <ele>88</ele>
        <time>2019-09-05T13:37:12Z</time>
      </trkpt>
      <trkpt lat="47.31354" lon="-2.40092">
        <ele>87</ele>
        <time>2019-09-05T13:37:14Z</time>
      </trkpt>
      <trkpt lat="47.3135" lon="-2.4009">
        <ele>87</ele>
        <time>2019-09-05T13:37:15Z</time>
      </trkpt>
      <trkpt lat="47.31342" lon="-2.40085">
        <ele>87</ele>
        <time>2019-09-05T13:37:17Z</time>
      </trkpt>
      <trkpt lat="47.31335" lon="-2.40081">
        <ele>87</ele>
        <time>2019-09-05T13:37:19Z</time>
      </trkpt>
      <trkpt lat="47.31332" lon="-2.4008">
        <ele>87</ele>
        <time>2019-09-05T13:37:20Z</time>
      </trkpt>
      <trkpt lat="47.31329" lon="-2.40078">
        <ele>87</ele>
        <time>2019-09-05T13:37:21Z</time>
      </trkpt>
      <trkpt lat="47.31326" lon="-2.40076">
        <ele>87</ele>
        <time>2019-09-05T13:37:22Z</time>
      </trkpt>
      <trkpt lat="47.31311" lon="-2.40072">
        <ele>87</ele>
        <time>2019-09-05T13:37:26Z</time>
      </trkpt>
      <trkpt lat="47.31302" lon="-2.40069">
        <ele>88</ele>
        <time>2019-09-05T13:37:29Z</time>
      </trkpt>
      <trkpt lat="47.31294" lon="-2.40068">
        <ele>88</ele>
        <time>2019-09-05T13:37:32Z</time>
      </trkpt>
      <trkpt lat="47.31288" lon="-2.40066">
        <ele>88</ele>
        <time>2019-09-05T13:37:34Z</time>
      </trkpt>
      <trkpt lat="47.31285" lon="-2.40066">
        <ele>88</ele>
        <time>2019-09-05T13:37:36Z</time>
      </trkpt>
      <trkpt lat="47.31285" lon="-2.40066">
        <ele>88</ele>
        <time>2019-09-05T13:37:43Z</time>
      </trkpt>
      <trkpt lat="47.31285" lon="-2.40066">
        <ele>33.6</ele>
        <time>2019-09-05T13:37:43Z</time>
      </trkpt>
      <trkpt lat="47.31285" lon="-2.40066">
        <ele>33.6</ele>
        <time>2019-09-05T13:40:16Z</time>
      </trkpt>
      <trkpt lat="47.31268" lon="-2.40069">
        <ele>97</ele>
        <time>2019-09-05T13:40:16Z</time>
      </trkpt>
      <trkpt lat="47.31246" lon="-2.40048">
        <ele>89</ele>
        <time>2019-09-05T13:40:21Z</time>
      </trkpt>
      <trkpt lat="47.31236" lon="-2.40045">
        <ele>86</ele>
        <time>2019-09-05T13:40:23Z</time>
      </trkpt>
      <trkpt lat="47.31233" lon="-2.40039">
        <ele>82</ele>
        <time>2019-09-05T13:40:26Z</time>
      </trkpt>
      <trkpt lat="47.31231" lon="-2.4003">
        <ele>85</ele>
        <time>2019-09-05T13:40:28Z</time>
      </trkpt>
      <trkpt lat="47.31228" lon="-2.40021">
        <ele>87</ele>
        <time>2019-09-05T13:40:30Z</time>
      </trkpt>
      <trkpt lat="47.31227" lon="-2.40011">
        <ele>87</ele>
        <time>2019-09-05T13:40:32Z</time>
      </trkpt>
      <trkpt lat="47.31225" lon="-2.40001">
        <ele>88</ele>
        <time>2019-09-05T13:40:34Z</time>
      </trkpt>
      <trkpt lat="47.31223" lon="-2.39988">
        <ele>91</ele>
        <time>2019-09-05T13:40:37Z</time>
      </trkpt>
      <trkpt lat="47.31221" lon="-2.39983">
        <ele>91</ele>
        <time>2019-09-05T13:40:38Z</time>
      </trkpt>
      <trkpt lat="47.3122" lon="-2.39978">
        <ele>92</ele>
        <time>2019-09-05T13:40:39Z</time>
      </trkpt>
      <trkpt lat="47.31217" lon="-2.39965">
        <ele>94</ele>
        <time>2019-09-05T13:40:42Z</time>
      </trkpt>
      <trkpt lat="47.31214" lon="-2.39951">
        <ele>95</ele>
        <time>2019-09-05T13:40:45Z</time>
      </trkpt>
      <trkpt lat="47.31213" lon="-2.39946">
        <ele>96</ele>
        <time>2019-09-05T13:40:46Z</time>
      </trkpt>
      <trkpt lat="47.3121" lon="-2.39937">
        <ele>97</ele>
        <time>2019-09-05T13:40:48Z</time>
      </trkpt>
      <trkpt lat="47.31209" lon="-2.39932">
        <ele>96</ele>
        <time>2019-09-05T13:40:49Z</time>
      </trkpt>
      <trkpt lat="47.31208" lon="-2.39927">
        <ele>96</ele>
        <time>2019-09-05T13:40:50Z</time>
      </trkpt>
      <trkpt lat="47.31202" lon="-2.39915">
        <ele>95</ele>
        <time>2019-09-05T13:40:53Z</time>
      </trkpt>
      <trkpt lat="47.312" lon="-2.39911">
        <ele>95</ele>
        <time>2019-09-05T13:40:54Z</time>
      </trkpt>
      <trkpt lat="47.31197" lon="-2.39903">
        <ele>95</ele>
        <time>2019-09-05T13:40:56Z</time>
      </trkpt>
      <trkpt lat="47.31195" lon="-2.39898">
        <ele>95</ele>
        <time>2019-09-05T13:40:57Z</time>
      </trkpt>
      <trkpt lat="47.31193" lon="-2.39888">
        <ele>94</ele>
        <time>2019-09-05T13:40:59Z</time>
      </trkpt>
      <trkpt lat="47.31192" lon="-2.39885">
        <ele>94</ele>
        <time>2019-09-05T13:41:00Z</time>
      </trkpt>
      <trkpt lat="47.31188" lon="-2.39876">
        <ele>93</ele>
        <time>2019-09-05T13:41:03Z</time>
      </trkpt>
      <trkpt lat="47.31184" lon="-2.39865">
        <ele>93</ele>
        <time>2019-09-05T13:41:05Z</time>
      </trkpt>
      <trkpt lat="47.31182" lon="-2.39858">
        <ele>93</ele>
        <time>2019-09-05T13:41:06Z</time>
      </trkpt>
      <trkpt lat="47.31179" lon="-2.39853">
        <ele>93</ele>
        <time>2019-09-05T13:41:07Z</time>
      </trkpt>
      <trkpt lat="47.31178" lon="-2.39847">
        <ele>94</ele>
        <time>2019-09-05T13:41:08Z</time>
      </trkpt>
      <trkpt lat="47.31176" lon="-2.39841">
        <ele>93</ele>
        <time>2019-09-05T13:41:09Z</time>
      </trkpt>
      <trkpt lat="47.31174" lon="-2.39835">
        <ele>94</ele>
        <time>2019-09-05T13:41:10Z</time>
      </trkpt>
      <trkpt lat="47.31171" lon="-2.3983">
        <ele>94</ele>
        <time>2019-09-05T13:41:11Z</time>
      </trkpt>
      <trkpt lat="47.31168" lon="-2.39825">
        <ele>94</ele>
        <time>2019-09-05T13:41:12Z</time>
      </trkpt>
      <trkpt lat="47.31164" lon="-2.3982">
        <ele>93</ele>
        <time>2019-09-05T13:41:13Z</time>
      </trkpt>
      <trkpt lat="47.31162" lon="-2.39814">
        <ele>93</ele>
        <time>2019-09-05T13:41:14Z</time>
      </trkpt>
      <trkpt lat="47.31159" lon="-2.39809">
        <ele>94</ele>
        <time>2019-09-05T13:41:15Z</time>
      </trkpt>
      <trkpt lat="47.31157" lon="-2.39803">
        <ele>93</ele>
        <time>2019-09-05T13:41:16Z</time>
      </trkpt>
      <trkpt lat="47.31154" lon="-2.39798">
        <ele>93</ele>
        <time>2019-09-05T13:41:17Z</time>
      </trkpt>
      <trkpt lat="47.31152" lon="-2.39792">
        <ele>93</ele>
        <time>2019-09-05T13:41:18Z</time>
      </trkpt>
      <trkpt lat="47.3115" lon="-2.39786">
        <ele>93</ele>
        <time>2019-09-05T13:41:19Z</time>
      </trkpt>
      <trkpt lat="47.31148" lon="-2.3978">
        <ele>93</ele>
        <time>2019-09-05T13:41:20Z</time>
      </trkpt>
      <trkpt lat="47.31146" lon="-2.39774">
        <ele>92</ele>
        <time>2019-09-05T13:41:21Z</time>
      </trkpt>
      <trkpt lat="47.31144" lon="-2.39769">
        <ele>93</ele>
        <time>2019-09-05T13:41:22Z</time>
      </trkpt>
      <trkpt lat="47.31141" lon="-2.39763">
        <ele>93</ele>
        <time>2019-09-05T13:41:23Z</time>
      </trkpt>
      <trkpt lat="47.31139" lon="-2.39758">
        <ele>93</ele>
        <time>2019-09-05T13:41:24Z</time>
      </trkpt>
      <trkpt lat="47.31135" lon="-2.39748">
        <ele>93</ele>
        <time>2019-09-05T13:41:26Z</time>
      </trkpt>
      <trkpt lat="47.31131" lon="-2.39737">
        <ele>93</ele>
        <time>2019-09-05T13:41:28Z</time>
      </trkpt>
      <trkpt lat="47.3113" lon="-2.39732">
        <ele>93</ele>
        <time>2019-09-05T13:41:29Z</time>
      </trkpt>
      <trkpt lat="47.31124" lon="-2.39716">
        <ele>93</ele>
        <time>2019-09-05T13:41:32Z</time>
      </trkpt>
      <trkpt lat="47.31122" lon="-2.3971">
        <ele>93</ele>
        <time>2019-09-05T13:41:33Z</time>
      </trkpt>
      <trkpt lat="47.3112" lon="-2.39705">
        <ele>93</ele>
        <time>2019-09-05T13:41:34Z</time>
      </trkpt>
      <trkpt lat="47.31118" lon="-2.39699">
        <ele>94</ele>
        <time>2019-09-05T13:41:35Z</time>
      </trkpt>
      <trkpt lat="47.31116" lon="-2.39694">
        <ele>94</ele>
        <time>2019-09-05T13:41:36Z</time>
      </trkpt>
      <trkpt lat="47.31112" lon="-2.39683">
        <ele>95</ele>
        <time>2019-09-05T13:41:38Z</time>
      </trkpt>
      <trkpt lat="47.3111" lon="-2.39677">
        <ele>95</ele>
        <time>2019-09-05T13:41:39Z</time>
      </trkpt>
      <trkpt lat="47.31104" lon="-2.39659">
        <ele>95</ele>
        <time>2019-09-05T13:41:42Z</time>
      </trkpt>
      <trkpt lat="47.31102" lon="-2.39653">
        <ele>95</ele>
        <time>2019-09-05T13:41:43Z</time>
      </trkpt>
      <trkpt lat="47.311" lon="-2.39646">
        <ele>95</ele>
        <time>2019-09-05T13:41:44Z</time>
      </trkpt>
      <trkpt lat="47.31098" lon="-2.3964">
        <ele>95</ele>
        <time>2019-09-05T13:41:45Z</time>
      </trkpt>
      <trkpt lat="47.31094" lon="-2.39628">
        <ele>95</ele>
        <time>2019-09-05T13:41:47Z</time>
      </trkpt>
      <trkpt lat="47.31091" lon="-2.39622">
        <ele>95</ele>
        <time>2019-09-05T13:41:48Z</time>
      </trkpt>
      <trkpt lat="47.31089" lon="-2.39615">
        <ele>95</ele>
        <time>2019-09-05T13:41:49Z</time>
      </trkpt>
      <trkpt lat="47.31087" lon="-2.39608">
        <ele>95</ele>
        <time>2019-09-05T13:41:50Z</time>
      </trkpt>
      <trkpt lat="47.31085" lon="-2.39601">
        <ele>95</ele>
        <time>2019-09-05T13:41:51Z</time>
      </trkpt>
      <trkpt lat="47.31082" lon="-2.39594">
        <ele>95</ele>
        <time>2019-09-05T13:41:52Z</time>
      </trkpt>
      <trkpt lat="47.31074" lon="-2.39573">
        <ele>94</ele>
        <time>2019-09-05T13:41:55Z</time>
      </trkpt>
      <trkpt lat="47.31072" lon="-2.39566">
        <ele>94</ele>
        <time>2019-09-05T13:41:56Z</time>
      </trkpt>
      <trkpt lat="47.31069" lon="-2.39558">
        <ele>95</ele>
        <time>2019-09-05T13:41:57Z</time>
      </trkpt>
      <trkpt lat="47.31067" lon="-2.3955">
        <ele>94</ele>
        <time>2019-09-05T13:41:58Z</time>
      </trkpt>
      <trkpt lat="47.31064" lon="-2.39541">
        <ele>94</ele>
        <time>2019-09-05T13:41:59Z</time>
      </trkpt>
      <trkpt lat="47.31061" lon="-2.39532">
        <ele>94</ele>
        <time>2019-09-05T13:42:00Z</time>
      </trkpt>
      <trkpt lat="47.31058" lon="-2.39523">
        <ele>94</ele>
        <time>2019-09-05T13:42:01Z</time>
      </trkpt>
      <trkpt lat="47.31056" lon="-2.39514">
        <ele>94</ele>
        <time>2019-09-05T13:42:02Z</time>
      </trkpt>
      <trkpt lat="47.31053" lon="-2.39504">
        <ele>94</ele>
        <time>2019-09-05T13:42:03Z</time>
      </trkpt>
      <trkpt lat="47.3105" lon="-2.39495">
        <ele>93</ele>
        <time>2019-09-05T13:42:04Z</time>
      </trkpt>
      <trkpt lat="47.31046" lon="-2.39485">
        <ele>93</ele>
        <time>2019-09-05T13:42:05Z</time>
      </trkpt>
      <trkpt lat="47.31043" lon="-2.39475">
        <ele>93</ele>
        <time>2019-09-05T13:42:06Z</time>
      </trkpt>
      <trkpt lat="47.31039" lon="-2.39465">
        <ele>92</ele>
        <time>2019-09-05T13:42:07Z</time>
      </trkpt>
      <trkpt lat="47.31036" lon="-2.39456">
        <ele>92</ele>
        <time>2019-09-05T13:42:08Z</time>
      </trkpt>
      <trkpt lat="47.31033" lon="-2.39447">
        <ele>93</ele>
        <time>2019-09-05T13:42:09Z</time>
      </trkpt>
      <trkpt lat="47.31026" lon="-2.39423">
        <ele>93</ele>
        <time>2019-09-05T13:42:12Z</time>
      </trkpt>
      <trkpt lat="47.31023" lon="-2.39416">
        <ele>93</ele>
        <time>2019-09-05T13:42:13Z</time>
      </trkpt>
      <trkpt lat="47.31021" lon="-2.3941">
        <ele>93</ele>
        <time>2019-09-05T13:42:14Z</time>
      </trkpt>
      <trkpt lat="47.31018" lon="-2.39403">
        <ele>93</ele>
        <time>2019-09-05T13:42:15Z</time>
      </trkpt>
      <trkpt lat="47.31016" lon="-2.39396">
        <ele>93</ele>
        <time>2019-09-05T13:42:16Z</time>
      </trkpt>
      <trkpt lat="47.31013" lon="-2.39382">
        <ele>93</ele>
        <time>2019-09-05T13:42:18Z</time>
      </trkpt>
      <trkpt lat="47.3101" lon="-2.39375">
        <ele>93</ele>
        <time>2019-09-05T13:42:19Z</time>
      </trkpt>
      <trkpt lat="47.31008" lon="-2.39369">
        <ele>93</ele>
        <time>2019-09-05T13:42:20Z</time>
      </trkpt>
      <trkpt lat="47.31006" lon="-2.39362">
        <ele>93</ele>
        <time>2019-09-05T13:42:21Z</time>
      </trkpt>
      <trkpt lat="47.31004" lon="-2.39355">
        <ele>93</ele>
        <time>2019-09-05T13:42:22Z</time>
      </trkpt>
      <trkpt lat="47.31002" lon="-2.39349">
        <ele>93</ele>
        <time>2019-09-05T13:42:23Z</time>
      </trkpt>
      <trkpt lat="47.31001" lon="-2.39343">
        <ele>93</ele>
        <time>2019-09-05T13:42:24Z</time>
      </trkpt>
      <trkpt lat="47.30999" lon="-2.39337">
        <ele>93</ele>
        <time>2019-09-05T13:42:25Z</time>
      </trkpt>
      <trkpt lat="47.30996" lon="-2.39325">
        <ele>94</ele>
        <time>2019-09-05T13:42:27Z</time>
      </trkpt>
      <trkpt lat="47.30992" lon="-2.39314">
        <ele>94</ele>
        <time>2019-09-05T13:42:29Z</time>
      </trkpt>
      <trkpt lat="47.30988" lon="-2.39304">
        <ele>94</ele>
        <time>2019-09-05T13:42:31Z</time>
      </trkpt>
      <trkpt lat="47.30986" lon="-2.39298">
        <ele>94</ele>
        <time>2019-09-05T13:42:32Z</time>
      </trkpt>
      <trkpt lat="47.30981" lon="-2.39287">
        <ele>94</ele>
        <time>2019-09-05T13:42:34Z</time>
      </trkpt>
      <trkpt lat="47.30979" lon="-2.3928">
        <ele>94</ele>
        <time>2019-09-05T13:42:35Z</time>
      </trkpt>
      <trkpt lat="47.30977" lon="-2.39274">
        <ele>94</ele>
        <time>2019-09-05T13:42:36Z</time>
      </trkpt>
      <trkpt lat="47.30972" lon="-2.39261">
        <ele>94</ele>
        <time>2019-09-05T13:42:38Z</time>
      </trkpt>
      <trkpt lat="47.30969" lon="-2.39255">
        <ele>94</ele>
        <time>2019-09-05T13:42:39Z</time>
      </trkpt>
      <trkpt lat="47.30967" lon="-2.39248">
        <ele>94</ele>
        <time>2019-09-05T13:42:40Z</time>
      </trkpt>
      <trkpt lat="47.30964" lon="-2.39242">
        <ele>94</ele>
        <time>2019-09-05T13:42:41Z</time>
      </trkpt>
      <trkpt lat="47.30961" lon="-2.39236">
        <ele>94</ele>
        <time>2019-09-05T13:42:42Z</time>
      </trkpt>
      <trkpt lat="47.30958" lon="-2.3923">
        <ele>94</ele>
        <time>2019-09-05T13:42:43Z</time>
      </trkpt>
      <trkpt lat="47.30955" lon="-2.39224">
        <ele>94</ele>
        <time>2019-09-05T13:42:44Z</time>
      </trkpt>
      <trkpt lat="47.30946" lon="-2.39204">
        <ele>94</ele>
        <time>2019-09-05T13:42:47Z</time>
      </trkpt>
      <trkpt lat="47.30942" lon="-2.39197">
        <ele>94</ele>
        <time>2019-09-05T13:42:48Z</time>
      </trkpt>
      <trkpt lat="47.30939" lon="-2.39191">
        <ele>94</ele>
        <time>2019-09-05T13:42:49Z</time>
      </trkpt>
      <trkpt lat="47.30937" lon="-2.39184">
        <ele>94</ele>
        <time>2019-09-05T13:42:50Z</time>
      </trkpt>
      <trkpt lat="47.30934" lon="-2.39177">
        <ele>94</ele>
        <time>2019-09-05T13:42:51Z</time>
      </trkpt>
      <trkpt lat="47.30931" lon="-2.3917">
        <ele>94</ele>
        <time>2019-09-05T13:42:52Z</time>
      </trkpt>
      <trkpt lat="47.30929" lon="-2.39163">
        <ele>94</ele>
        <time>2019-09-05T13:42:53Z</time>
      </trkpt>
      <trkpt lat="47.30923" lon="-2.3915">
        <ele>94</ele>
        <time>2019-09-05T13:42:55Z</time>
      </trkpt>
      <trkpt lat="47.3092" lon="-2.39142">
        <ele>94</ele>
        <time>2019-09-05T13:42:56Z</time>
      </trkpt>
      <trkpt lat="47.30917" lon="-2.39135">
        <ele>94</ele>
        <time>2019-09-05T13:42:57Z</time>
      </trkpt>
      <trkpt lat="47.30915" lon="-2.39128">
        <ele>94</ele>
        <time>2019-09-05T13:42:58Z</time>
      </trkpt>
      <trkpt lat="47.30912" lon="-2.39121">
        <ele>94</ele>
        <time>2019-09-05T13:42:59Z</time>
      </trkpt>
      <trkpt lat="47.3091" lon="-2.39114">
        <ele>94</ele>
        <time>2019-09-05T13:43:00Z</time>
      </trkpt>
      <trkpt lat="47.30907" lon="-2.39107">
        <ele>94</ele>
        <time>2019-09-05T13:43:01Z</time>
      </trkpt>
      <trkpt lat="47.30905" lon="-2.39099">
        <ele>94</ele>
        <time>2019-09-05T13:43:02Z</time>
      </trkpt>
      <trkpt lat="47.30902" lon="-2.39092">
        <ele>94</ele>
        <time>2019-09-05T13:43:03Z</time>
      </trkpt>
      <trkpt lat="47.309" lon="-2.39085">
        <ele>94</ele>
        <time>2019-09-05T13:43:04Z</time>
      </trkpt>
      <trkpt lat="47.30899" lon="-2.39078">
        <ele>94</ele>
        <time>2019-09-05T13:43:05Z</time>
      </trkpt>
      <trkpt lat="47.30898" lon="-2.39062">
        <ele>93</ele>
        <time>2019-09-05T13:43:07Z</time>
      </trkpt>
      <trkpt lat="47.30899" lon="-2.39054">
        <ele>94</ele>
        <time>2019-09-05T13:43:08Z</time>
      </trkpt>
      <trkpt lat="47.30899" lon="-2.39039">
        <ele>94</ele>
        <time>2019-09-05T13:43:10Z</time>
      </trkpt>
      <trkpt lat="47.309" lon="-2.39032">
        <ele>94</ele>
        <time>2019-09-05T13:43:11Z</time>
      </trkpt>
      <trkpt lat="47.30901" lon="-2.39017">
        <ele>94</ele>
        <time>2019-09-05T13:43:13Z</time>
      </trkpt>
      <trkpt lat="47.30902" lon="-2.3901">
        <ele>94</ele>
        <time>2019-09-05T13:43:14Z</time>
      </trkpt>
      <trkpt lat="47.30902" lon="-2.39003">
        <ele>94</ele>
        <time>2019-09-05T13:43:15Z</time>
      </trkpt>
      <trkpt lat="47.30903" lon="-2.38991">
        <ele>94</ele>
        <time>2019-09-05T13:43:17Z</time>
      </trkpt>
      <trkpt lat="47.30905" lon="-2.38985">
        <ele>94</ele>
        <time>2019-09-05T13:43:18Z</time>
      </trkpt>
      <trkpt lat="47.30906" lon="-2.38978">
        <ele>94</ele>
        <time>2019-09-05T13:43:19Z</time>
      </trkpt>
      <trkpt lat="47.30908" lon="-2.38972">
        <ele>94</ele>
        <time>2019-09-05T13:43:20Z</time>
      </trkpt>
      <trkpt lat="47.30911" lon="-2.38966">
        <ele>94</ele>
        <time>2019-09-05T13:43:21Z</time>
      </trkpt>
      <trkpt lat="47.30913" lon="-2.3896">
        <ele>94</ele>
        <time>2019-09-05T13:43:22Z</time>
      </trkpt>
      <trkpt lat="47.30916" lon="-2.38955">
        <ele>94</ele>
        <time>2019-09-05T13:43:23Z</time>
      </trkpt>
      <trkpt lat="47.30918" lon="-2.38949">
        <ele>94</ele>
        <time>2019-09-05T13:43:24Z</time>
      </trkpt>
      <trkpt lat="47.3092" lon="-2.38943">
        <ele>94</ele>
        <time>2019-09-05T13:43:25Z</time>
      </trkpt>
      <trkpt lat="47.30923" lon="-2.38937">
        <ele>94</ele>
        <time>2019-09-05T13:43:26Z</time>
      </trkpt>
      <trkpt lat="47.30924" lon="-2.38931">
        <ele>93</ele>
        <time>2019-09-05T13:43:27Z</time>
      </trkpt>
      <trkpt lat="47.30925" lon="-2.38924">
        <ele>93</ele>
        <time>2019-09-05T13:43:28Z</time>
      </trkpt>
      <trkpt lat="47.30926" lon="-2.38917">
        <ele>93</ele>
        <time>2019-09-05T13:43:29Z</time>
      </trkpt>
      <trkpt lat="47.30925" lon="-2.3891">
        <ele>93</ele>
        <time>2019-09-05T13:43:30Z</time>
      </trkpt>
      <trkpt lat="47.30924" lon="-2.38903">
        <ele>93</ele>
        <time>2019-09-05T13:43:31Z</time>
      </trkpt>
      <trkpt lat="47.30919" lon="-2.38891">
        <ele>93</ele>
        <time>2019-09-05T13:43:33Z</time>
      </trkpt>
      <trkpt lat="47.30909" lon="-2.38882">
        <ele>93</ele>
        <time>2019-09-05T13:43:36Z</time>
      </trkpt>
      <trkpt lat="47.30904" lon="-2.38881">
        <ele>94</ele>
        <time>2019-09-05T13:43:40Z</time>
      </trkpt>
      <trkpt lat="47.30897" lon="-2.38883">
        <ele>95</ele>
        <time>2019-09-05T13:43:43Z</time>
      </trkpt>
      <trkpt lat="47.30891" lon="-2.38887">
        <ele>95</ele>
        <time>2019-09-05T13:43:45Z</time>
      </trkpt>
      <trkpt lat="47.30883" lon="-2.38887">
        <ele>94</ele>
        <time>2019-09-05T13:43:47Z</time>
      </trkpt>
      <trkpt lat="47.30878" lon="-2.38887">
        <ele>94</ele>
        <time>2019-09-05T13:43:48Z</time>
      </trkpt>
      <trkpt lat="47.30874" lon="-2.38887">
        <ele>94</ele>
        <time>2019-09-05T13:43:49Z</time>
      </trkpt>
      <trkpt lat="47.30868" lon="-2.38888">
        <ele>94</ele>
        <time>2019-09-05T13:43:50Z</time>
      </trkpt>
      <trkpt lat="47.30862" lon="-2.38888">
        <ele>93</ele>
        <time>2019-09-05T13:43:51Z</time>
      </trkpt>
      <trkpt lat="47.30856" lon="-2.3889">
        <ele>93</ele>
        <time>2019-09-05T13:43:52Z</time>
      </trkpt>
      <trkpt lat="47.3085" lon="-2.38893">
        <ele>93</ele>
        <time>2019-09-05T13:43:53Z</time>
      </trkpt>
      <trkpt lat="47.30836" lon="-2.38903">
        <ele>92</ele>
        <time>2019-09-05T13:43:55Z</time>
      </trkpt>
      <trkpt lat="47.30829" lon="-2.38908">
        <ele>91</ele>
        <time>2019-09-05T13:43:56Z</time>
      </trkpt>
      <trkpt lat="47.30822" lon="-2.38913">
        <ele>91</ele>
        <time>2019-09-05T13:43:57Z</time>
      </trkpt>
      <trkpt lat="47.30815" lon="-2.38918">
        <ele>91</ele>
        <time>2019-09-05T13:43:58Z</time>
      </trkpt>
      <trkpt lat="47.30794" lon="-2.38935">
        <ele>91</ele>
        <time>2019-09-05T13:44:01Z</time>
      </trkpt>
      <trkpt lat="47.30787" lon="-2.38941">
        <ele>92</ele>
        <time>2019-09-05T13:44:02Z</time>
      </trkpt>
      <trkpt lat="47.3078" lon="-2.38944">
        <ele>92</ele>
        <time>2019-09-05T13:44:03Z</time>
      </trkpt>
      <trkpt lat="47.30773" lon="-2.38949">
        <ele>92</ele>
        <time>2019-09-05T13:44:04Z</time>
      </trkpt>
      <trkpt lat="47.30766" lon="-2.38956">
        <ele>92</ele>
        <time>2019-09-05T13:44:05Z</time>
      </trkpt>
      <trkpt lat="47.30761" lon="-2.38963">
        <ele>92</ele>
        <time>2019-09-05T13:44:06Z</time>
      </trkpt>
      <trkpt lat="47.30756" lon="-2.3897">
        <ele>92</ele>
        <time>2019-09-05T13:44:07Z</time>
      </trkpt>
      <trkpt lat="47.30752" lon="-2.38977">
        <ele>92</ele>
        <time>2019-09-05T13:44:08Z</time>
      </trkpt>
      <trkpt lat="47.30749" lon="-2.38986">
        <ele>92</ele>
        <time>2019-09-05T13:44:09Z</time>
      </trkpt>
      <trkpt lat="47.30745" lon="-2.38993">
        <ele>92</ele>
        <time>2019-09-05T13:44:10Z</time>
      </trkpt>
      <trkpt lat="47.30728" lon="-2.38999">
        <ele>92</ele>
        <time>2019-09-05T13:44:13Z</time>
      </trkpt>
      <trkpt lat="47.30722" lon="-2.38996">
        <ele>91</ele>
        <time>2019-09-05T13:44:14Z</time>
      </trkpt>
      <trkpt lat="47.30718" lon="-2.38991">
        <ele>91</ele>
        <time>2019-09-05T13:44:15Z</time>
      </trkpt>
      <trkpt lat="47.30708" lon="-2.3897">
        <ele>91</ele>
        <time>2019-09-05T13:44:18Z</time>
      </trkpt>
      <trkpt lat="47.30703" lon="-2.38965">
        <ele>91</ele>
        <time>2019-09-05T13:44:19Z</time>
      </trkpt>
      <trkpt lat="47.307" lon="-2.38958">
        <ele>91</ele>
        <time>2019-09-05T13:44:20Z</time>
      </trkpt>
      <trkpt lat="47.30696" lon="-2.38951">
        <ele>91</ele>
        <time>2019-09-05T13:44:21Z</time>
      </trkpt>
      <trkpt lat="47.30695" lon="-2.38943">
        <ele>92</ele>
        <time>2019-09-05T13:44:22Z</time>
      </trkpt>
      <trkpt lat="47.30695" lon="-2.38934">
        <ele>92</ele>
        <time>2019-09-05T13:44:23Z</time>
      </trkpt>
      <trkpt lat="47.30695" lon="-2.38927">
        <ele>92</ele>
        <time>2019-09-05T13:44:24Z</time>
      </trkpt>
      <trkpt lat="47.30694" lon="-2.38919">
        <ele>92</ele>
        <time>2019-09-05T13:44:25Z</time>
      </trkpt>
      <trkpt lat="47.30691" lon="-2.38914">
        <ele>92</ele>
        <time>2019-09-05T13:44:26Z</time>
      </trkpt>
      <trkpt lat="47.30686" lon="-2.38913">
        <ele>92</ele>
        <time>2019-09-05T13:44:27Z</time>
      </trkpt>
      <trkpt lat="47.30675" lon="-2.38919">
        <ele>93</ele>
        <time>2019-09-05T13:44:29Z</time>
      </trkpt>
      <trkpt lat="47.30671" lon="-2.38924">
        <ele>93</ele>
        <time>2019-09-05T13:44:30Z</time>
      </trkpt>
      <trkpt lat="47.30666" lon="-2.38928">
        <ele>92</ele>
        <time>2019-09-05T13:44:31Z</time>
      </trkpt>
      <trkpt lat="47.3066" lon="-2.38933">
        <ele>93</ele>
        <time>2019-09-05T13:44:32Z</time>
      </trkpt>
      <trkpt lat="47.30655" lon="-2.38938">
        <ele>93</ele>
        <time>2019-09-05T13:44:33Z</time>
      </trkpt>
      <trkpt lat="47.30625" lon="-2.38966">
        <ele>93</ele>
        <time>2019-09-05T13:44:38Z</time>
      </trkpt>
      <trkpt lat="47.30618" lon="-2.38972">
        <ele>93</ele>
        <time>2019-09-05T13:44:39Z</time>
      </trkpt>
      <trkpt lat="47.30606" lon="-2.38985">
        <ele>93</ele>
        <time>2019-09-05T13:44:41Z</time>
      </trkpt>
      <trkpt lat="47.306" lon="-2.38993">
        <ele>92</ele>
        <time>2019-09-05T13:44:42Z</time>
      </trkpt>
      <trkpt lat="47.30594" lon="-2.39001">
        <ele>91</ele>
        <time>2019-09-05T13:44:43Z</time>
      </trkpt>
      <trkpt lat="47.30587" lon="-2.3901">
        <ele>90</ele>
        <time>2019-09-05T13:44:44Z</time>
      </trkpt>
      <trkpt lat="47.3058" lon="-2.39019">
        <ele>90</ele>
        <time>2019-09-05T13:44:45Z</time>
      </trkpt>
      <trkpt lat="47.30574" lon="-2.39027">
        <ele>90</ele>
        <time>2019-09-05T13:44:46Z</time>
      </trkpt>
      <trkpt lat="47.30568" lon="-2.39035">
        <ele>90</ele>
        <time>2019-09-05T13:44:47Z</time>
      </trkpt>
      <trkpt lat="47.30556" lon="-2.39051">
        <ele>90</ele>
        <time>2019-09-05T13:44:49Z</time>
      </trkpt>
      <trkpt lat="47.30549" lon="-2.39058">
        <ele>90</ele>
        <time>2019-09-05T13:44:50Z</time>
      </trkpt>
      <trkpt lat="47.30543" lon="-2.39064">
        <ele>90</ele>
        <time>2019-09-05T13:44:51Z</time>
      </trkpt>
      <trkpt lat="47.30536" lon="-2.39071">
        <ele>90</ele>
        <time>2019-09-05T13:44:52Z</time>
      </trkpt>
      <trkpt lat="47.30515" lon="-2.39089">
        <ele>89</ele>
        <time>2019-09-05T13:44:55Z</time>
      </trkpt>
      <trkpt lat="47.30508" lon="-2.39095">
        <ele>89</ele>
        <time>2019-09-05T13:44:56Z</time>
      </trkpt>
      <trkpt lat="47.30494" lon="-2.39108">
        <ele>89</ele>
        <time>2019-09-05T13:44:58Z</time>
      </trkpt>
      <trkpt lat="47.30487" lon="-2.39114">
        <ele>89</ele>
        <time>2019-09-05T13:44:59Z</time>
      </trkpt>
      <trkpt lat="47.3048" lon="-2.39121">
        <ele>89</ele>
        <time>2019-09-05T13:45:00Z</time>
      </trkpt>
      <trkpt lat="47.30473" lon="-2.39128">
        <ele>89</ele>
        <time>2019-09-05T13:45:01Z</time>
      </trkpt>
      <trkpt lat="47.30466" lon="-2.39136">
        <ele>89</ele>
        <time>2019-09-05T13:45:02Z</time>
      </trkpt>
      <trkpt lat="47.30459" lon="-2.39145">
        <ele>87</ele>
        <time>2019-09-05T13:45:03Z</time>
      </trkpt>
      <trkpt lat="47.30451" lon="-2.39152">
        <ele>86</ele>
        <time>2019-09-05T13:45:04Z</time>
      </trkpt>
      <trkpt lat="47.30444" lon="-2.39159">
        <ele>86</ele>
        <time>2019-09-05T13:45:05Z</time>
      </trkpt>
      <trkpt lat="47.30436" lon="-2.39166">
        <ele>86</ele>
        <time>2019-09-05T13:45:06Z</time>
      </trkpt>
      <trkpt lat="47.30428" lon="-2.39172">
        <ele>85</ele>
        <time>2019-09-05T13:45:07Z</time>
      </trkpt>
      <trkpt lat="47.30394" lon="-2.39167">
        <ele>84</ele>
        <time>2019-09-05T13:45:11Z</time>
      </trkpt>
      <trkpt lat="47.30386" lon="-2.39162">
        <ele>84</ele>
        <time>2019-09-05T13:45:12Z</time>
      </trkpt>
      <trkpt lat="47.3037" lon="-2.39133">
        <ele>84</ele>
        <time>2019-09-05T13:45:15Z</time>
      </trkpt>
      <trkpt lat="47.30367" lon="-2.39122">
        <ele>85</ele>
        <time>2019-09-05T13:45:16Z</time>
      </trkpt>
      <trkpt lat="47.30361" lon="-2.39101">
        <ele>85</ele>
        <time>2019-09-05T13:45:18Z</time>
      </trkpt>
      <trkpt lat="47.30359" lon="-2.3909">
        <ele>85</ele>
        <time>2019-09-05T13:45:19Z</time>
      </trkpt>
      <trkpt lat="47.30355" lon="-2.3907">
        <ele>85</ele>
        <time>2019-09-05T13:45:21Z</time>
      </trkpt>
      <trkpt lat="47.30352" lon="-2.3906">
        <ele>85</ele>
        <time>2019-09-05T13:45:22Z</time>
      </trkpt>
      <trkpt lat="47.30351" lon="-2.39052">
        <ele>85</ele>
        <time>2019-09-05T13:45:23Z</time>
      </trkpt>
      <trkpt lat="47.30349" lon="-2.39043">
        <ele>86</ele>
        <time>2019-09-05T13:45:24Z</time>
      </trkpt>
      <trkpt lat="47.30346" lon="-2.39033">
        <ele>86</ele>
        <time>2019-09-05T13:45:25Z</time>
      </trkpt>
      <trkpt lat="47.30343" lon="-2.39024">
        <ele>86</ele>
        <time>2019-09-05T13:45:26Z</time>
      </trkpt>
      <trkpt lat="47.30341" lon="-2.39015">
        <ele>85</ele>
        <time>2019-09-05T13:45:27Z</time>
      </trkpt>
      <trkpt lat="47.30338" lon="-2.39006">
        <ele>86</ele>
        <time>2019-09-05T13:45:28Z</time>
      </trkpt>
      <trkpt lat="47.30335" lon="-2.38996">
        <ele>86</ele>
        <time>2019-09-05T13:45:29Z</time>
      </trkpt>
      <trkpt lat="47.30332" lon="-2.38987">
        <ele>86</ele>
        <time>2019-09-05T13:45:30Z</time>
      </trkpt>
      <trkpt lat="47.30328" lon="-2.38978">
        <ele>86</ele>
        <time>2019-09-05T13:45:31Z</time>
      </trkpt>
      <trkpt lat="47.30324" lon="-2.38971">
        <ele>86</ele>
        <time>2019-09-05T13:45:32Z</time>
      </trkpt>
      <trkpt lat="47.30322" lon="-2.38966">
        <ele>86</ele>
        <time>2019-09-05T13:45:33Z</time>
      </trkpt>
      <trkpt lat="47.30323" lon="-2.38958">
        <ele>87</ele>
        <time>2019-09-05T13:45:37Z</time>
      </trkpt>
      <trkpt lat="47.30328" lon="-2.38956">
        <ele>87</ele>
        <time>2019-09-05T13:45:41Z</time>
      </trkpt>
      <trkpt lat="47.30332" lon="-2.38948">
        <ele>87</ele>
        <time>2019-09-05T13:45:44Z</time>
      </trkpt>
      <trkpt lat="47.30335" lon="-2.38937">
        <ele>87</ele>
        <time>2019-09-05T13:45:47Z</time>
      </trkpt>
      <trkpt lat="47.3034" lon="-2.3893">
        <ele>88</ele>
        <time>2019-09-05T13:45:49Z</time>
      </trkpt>
      <trkpt lat="47.30346" lon="-2.38923">
        <ele>88</ele>
        <time>2019-09-05T13:45:51Z</time>
      </trkpt>
      <trkpt lat="47.30352" lon="-2.38916">
        <ele>88</ele>
        <time>2019-09-05T13:45:53Z</time>
      </trkpt>
      <trkpt lat="47.30354" lon="-2.38912">
        <ele>88</ele>
        <time>2019-09-05T13:45:54Z</time>
      </trkpt>
      <trkpt lat="47.30362" lon="-2.38901">
        <ele>89</ele>
        <time>2019-09-05T13:45:57Z</time>
      </trkpt>
      <trkpt lat="47.30368" lon="-2.38893">
        <ele>88</ele>
        <time>2019-09-05T13:45:59Z</time>
      </trkpt>
      <trkpt lat="47.3037" lon="-2.38889">
        <ele>88</ele>
        <time>2019-09-05T13:46:00Z</time>
      </trkpt>
      <trkpt lat="47.30373" lon="-2.38885">
        <ele>88</ele>
        <time>2019-09-05T13:46:01Z</time>
      </trkpt>
      <trkpt lat="47.3038" lon="-2.38871">
        <ele>87</ele>
        <time>2019-09-05T13:46:04Z</time>
      </trkpt>
      <trkpt lat="47.30382" lon="-2.38867">
        <ele>87</ele>
        <time>2019-09-05T13:46:05Z</time>
      </trkpt>
      <trkpt lat="47.30388" lon="-2.38858">
        <ele>88</ele>
        <time>2019-09-05T13:46:07Z</time>
      </trkpt>
      <trkpt lat="47.30391" lon="-2.38853">
        <ele>88</ele>
        <time>2019-09-05T13:46:08Z</time>
      </trkpt>
      <trkpt lat="47.30394" lon="-2.38849">
        <ele>89</ele>
        <time>2019-09-05T13:46:09Z</time>
      </trkpt>
      <trkpt lat="47.30397" lon="-2.38844">
        <ele>89</ele>
        <time>2019-09-05T13:46:10Z</time>
      </trkpt>
      <trkpt lat="47.30402" lon="-2.38835">
        <ele>89</ele>
        <time>2019-09-05T13:46:12Z</time>
      </trkpt>
      <trkpt lat="47.30409" lon="-2.38822">
        <ele>90</ele>
        <time>2019-09-05T13:46:15Z</time>
      </trkpt>
      <trkpt lat="47.30413" lon="-2.38813">
        <ele>90</ele>
        <time>2019-09-05T13:46:17Z</time>
      </trkpt>
      <trkpt lat="47.30417" lon="-2.38803">
        <ele>91</ele>
        <time>2019-09-05T13:46:19Z</time>
      </trkpt>
      <trkpt lat="47.30418" lon="-2.38798">
        <ele>91</ele>
        <time>2019-09-05T13:46:20Z</time>
      </trkpt>
      <trkpt lat="47.30419" lon="-2.38786">
        <ele>92</ele>
        <time>2019-09-05T13:46:22Z</time>
      </trkpt>
      <trkpt lat="47.30417" lon="-2.38772">
        <ele>92</ele>
        <time>2019-09-05T13:46:24Z</time>
      </trkpt>
      <trkpt lat="47.30414" lon="-2.38765">
        <ele>92</ele>
        <time>2019-09-05T13:46:25Z</time>
      </trkpt>
      <trkpt lat="47.30412" lon="-2.38759">
        <ele>92</ele>
        <time>2019-09-05T13:46:26Z</time>
      </trkpt>
      <trkpt lat="47.30407" lon="-2.38745">
        <ele>92</ele>
        <time>2019-09-05T13:46:28Z</time>
      </trkpt>
      <trkpt lat="47.30404" lon="-2.38738">
        <ele>92</ele>
        <time>2019-09-05T13:46:29Z</time>
      </trkpt>
      <trkpt lat="47.30395" lon="-2.38708">
        <ele>93</ele>
        <time>2019-09-05T13:46:33Z</time>
      </trkpt>
      <trkpt lat="47.30393" lon="-2.387">
        <ele>93</ele>
        <time>2019-09-05T13:46:34Z</time>
      </trkpt>
      <trkpt lat="47.30388" lon="-2.38683">
        <ele>93</ele>
        <time>2019-09-05T13:46:36Z</time>
      </trkpt>
      <trkpt lat="47.30384" lon="-2.38675">
        <ele>93</ele>
        <time>2019-09-05T13:46:37Z</time>
      </trkpt>
      <trkpt lat="47.30381" lon="-2.38667">
        <ele>94</ele>
        <time>2019-09-05T13:46:38Z</time>
      </trkpt>
      <trkpt lat="47.30377" lon="-2.3866">
        <ele>94</ele>
        <time>2019-09-05T13:46:39Z</time>
      </trkpt>
      <trkpt lat="47.30374" lon="-2.38652">
        <ele>94</ele>
        <time>2019-09-05T13:46:40Z</time>
      </trkpt>
      <trkpt lat="47.30371" lon="-2.38644">
        <ele>94</ele>
        <time>2019-09-05T13:46:41Z</time>
      </trkpt>
      <trkpt lat="47.30368" lon="-2.38637">
        <ele>94</ele>
        <time>2019-09-05T13:46:42Z</time>
      </trkpt>
      <trkpt lat="47.30364" lon="-2.38629">
        <ele>94</ele>
        <time>2019-09-05T13:46:43Z</time>
      </trkpt>
      <trkpt lat="47.30361" lon="-2.38621">
        <ele>94</ele>
        <time>2019-09-05T13:46:44Z</time>
      </trkpt>
      <trkpt lat="47.30355" lon="-2.38605">
        <ele>94</ele>
        <time>2019-09-05T13:46:46Z</time>
      </trkpt>
      <trkpt lat="47.30352" lon="-2.38596">
        <ele>93</ele>
        <time>2019-09-05T13:46:47Z</time>
      </trkpt>
      <trkpt lat="47.30348" lon="-2.38587">
        <ele>93</ele>
        <time>2019-09-05T13:46:48Z</time>
      </trkpt>
      <trkpt lat="47.30345" lon="-2.38579">
        <ele>93</ele>
        <time>2019-09-05T13:46:49Z</time>
      </trkpt>
      <trkpt lat="47.30341" lon="-2.3857">
        <ele>93</ele>
        <time>2019-09-05T13:46:50Z</time>
      </trkpt>
      <trkpt lat="47.30331" lon="-2.38542">
        <ele>93</ele>
        <time>2019-09-05T13:46:53Z</time>
      </trkpt>
      <trkpt lat="47.30325" lon="-2.38522">
        <ele>92</ele>
        <time>2019-09-05T13:46:55Z</time>
      </trkpt>
      <trkpt lat="47.30314" lon="-2.38492">
        <ele>91</ele>
        <time>2019-09-05T13:46:58Z</time>
      </trkpt>
      <trkpt lat="47.30309" lon="-2.38485">
        <ele>91</ele>
        <time>2019-09-05T13:46:59Z</time>
      </trkpt>
      <trkpt lat="47.30304" lon="-2.38478">
        <ele>90</ele>
        <time>2019-09-05T13:47:00Z</time>
      </trkpt>
      <trkpt lat="47.30301" lon="-2.38471">
        <ele>90</ele>
        <time>2019-09-05T13:47:01Z</time>
      </trkpt>
      <trkpt lat="47.303" lon="-2.38464">
        <ele>90</ele>
        <time>2019-09-05T13:47:02Z</time>
      </trkpt>
      <trkpt lat="47.30301" lon="-2.38447">
        <ele>90</ele>
        <time>2019-09-05T13:47:04Z</time>
      </trkpt>
      <trkpt lat="47.303" lon="-2.38438">
        <ele>89</ele>
        <time>2019-09-05T13:47:05Z</time>
      </trkpt>
      <trkpt lat="47.30297" lon="-2.3843">
        <ele>89</ele>
        <time>2019-09-05T13:47:06Z</time>
      </trkpt>
      <trkpt lat="47.30296" lon="-2.38421">
        <ele>88</ele>
        <time>2019-09-05T13:47:07Z</time>
      </trkpt>
      <trkpt lat="47.30294" lon="-2.38414">
        <ele>88</ele>
        <time>2019-09-05T13:47:08Z</time>
      </trkpt>
      <trkpt lat="47.30291" lon="-2.38406">
        <ele>88</ele>
        <time>2019-09-05T13:47:09Z</time>
      </trkpt>
      <trkpt lat="47.30288" lon="-2.38398">
        <ele>88</ele>
        <time>2019-09-05T13:47:10Z</time>
      </trkpt>
      <trkpt lat="47.30285" lon="-2.38391">
        <ele>88</ele>
        <time>2019-09-05T13:47:11Z</time>
      </trkpt>
      <trkpt lat="47.3028" lon="-2.38375">
        <ele>88</ele>
        <time>2019-09-05T13:47:13Z</time>
      </trkpt>
      <trkpt lat="47.30272" lon="-2.38352">
        <ele>88</ele>
        <time>2019-09-05T13:47:16Z</time>
      </trkpt>
      <trkpt lat="47.3027" lon="-2.38343">
        <ele>88</ele>
        <time>2019-09-05T13:47:17Z</time>
      </trkpt>
      <trkpt lat="47.30268" lon="-2.38335">
        <ele>88</ele>
        <time>2019-09-05T13:47:18Z</time>
      </trkpt>
      <trkpt lat="47.30266" lon="-2.38327">
        <ele>89</ele>
        <time>2019-09-05T13:47:19Z</time>
      </trkpt>
      <trkpt lat="47.30265" lon="-2.38319">
        <ele>89</ele>
        <time>2019-09-05T13:47:20Z</time>
      </trkpt>
      <trkpt lat="47.30263" lon="-2.3831">
        <ele>89</ele>
        <time>2019-09-05T13:47:21Z</time>
      </trkpt>
      <trkpt lat="47.30262" lon="-2.38302">
        <ele>89</ele>
        <time>2019-09-05T13:47:22Z</time>
      </trkpt>
      <trkpt lat="47.3026" lon="-2.38294">
        <ele>89</ele>
        <time>2019-09-05T13:47:23Z</time>
      </trkpt>
      <trkpt lat="47.30259" lon="-2.38285">
        <ele>90</ele>
        <time>2019-09-05T13:47:24Z</time>
      </trkpt>
      <trkpt lat="47.30258" lon="-2.38277">
        <ele>90</ele>
        <time>2019-09-05T13:47:25Z</time>
      </trkpt>
      <trkpt lat="47.30256" lon="-2.38269">
        <ele>90</ele>
        <time>2019-09-05T13:47:26Z</time>
      </trkpt>
      <trkpt lat="47.30255" lon="-2.38261">
        <ele>90</ele>
        <time>2019-09-05T13:47:27Z</time>
      </trkpt>
      <trkpt lat="47.30253" lon="-2.38253">
        <ele>90</ele>
        <time>2019-09-05T13:47:28Z</time>
      </trkpt>
      <trkpt lat="47.30252" lon="-2.38245">
        <ele>91</ele>
        <time>2019-09-05T13:47:29Z</time>
      </trkpt>
      <trkpt lat="47.30251" lon="-2.38237">
        <ele>91</ele>
        <time>2019-09-05T13:47:30Z</time>
      </trkpt>
      <trkpt lat="47.30249" lon="-2.3822">
        <ele>91</ele>
        <time>2019-09-05T13:47:32Z</time>
      </trkpt>
      <trkpt lat="47.30248" lon="-2.38212">
        <ele>91</ele>
        <time>2019-09-05T13:47:33Z</time>
      </trkpt>
      <trkpt lat="47.30246" lon="-2.38203">
        <ele>91</ele>
        <time>2019-09-05T13:47:34Z</time>
      </trkpt>
      <trkpt lat="47.30245" lon="-2.38194">
        <ele>91</ele>
        <time>2019-09-05T13:47:35Z</time>
      </trkpt>
      <trkpt lat="47.30244" lon="-2.38185">
        <ele>91</ele>
        <time>2019-09-05T13:47:36Z</time>
      </trkpt>
      <trkpt lat="47.30243" lon="-2.38177">
        <ele>91</ele>
        <time>2019-09-05T13:47:37Z</time>
      </trkpt>
      <trkpt lat="47.30242" lon="-2.38168">
        <ele>91</ele>
        <time>2019-09-05T13:47:38Z</time>
      </trkpt>
      <trkpt lat="47.30242" lon="-2.3816">
        <ele>91</ele>
        <time>2019-09-05T13:47:39Z</time>
      </trkpt>
      <trkpt lat="47.30241" lon="-2.38151">
        <ele>91</ele>
        <time>2019-09-05T13:47:40Z</time>
      </trkpt>
      <trkpt lat="47.3024" lon="-2.38143">
        <ele>91</ele>
        <time>2019-09-05T13:47:41Z</time>
      </trkpt>
      <trkpt lat="47.30234" lon="-2.38128">
        <ele>90</ele>
        <time>2019-09-05T13:47:43Z</time>
      </trkpt>
      <trkpt lat="47.30231" lon="-2.3812">
        <ele>90</ele>
        <time>2019-09-05T13:47:44Z</time>
      </trkpt>
      <trkpt lat="47.30222" lon="-2.38107">
        <ele>90</ele>
        <time>2019-09-05T13:47:46Z</time>
      </trkpt>
      <trkpt lat="47.30216" lon="-2.38103">
        <ele>90</ele>
        <time>2019-09-05T13:47:47Z</time>
      </trkpt>
      <trkpt lat="47.3021" lon="-2.38101">
        <ele>90</ele>
        <time>2019-09-05T13:47:48Z</time>
      </trkpt>
      <trkpt lat="47.30204" lon="-2.38098">
        <ele>90</ele>
        <time>2019-09-05T13:47:49Z</time>
      </trkpt>
      <trkpt lat="47.30198" lon="-2.38095">
        <ele>89</ele>
        <time>2019-09-05T13:47:50Z</time>
      </trkpt>
      <trkpt lat="47.30192" lon="-2.38091">
        <ele>89</ele>
        <time>2019-09-05T13:47:51Z</time>
      </trkpt>
      <trkpt lat="47.30186" lon="-2.38088">
        <ele>89</ele>
        <time>2019-09-05T13:47:52Z</time>
      </trkpt>
      <trkpt lat="47.30179" lon="-2.38085">
        <ele>89</ele>
        <time>2019-09-05T13:47:53Z</time>
      </trkpt>
      <trkpt lat="47.30173" lon="-2.38082">
        <ele>89</ele>
        <time>2019-09-05T13:47:54Z</time>
      </trkpt>
      <trkpt lat="47.30166" lon="-2.38079">
        <ele>89</ele>
        <time>2019-09-05T13:47:55Z</time>
      </trkpt>
      <trkpt lat="47.30158" lon="-2.38076">
        <ele>88</ele>
        <time>2019-09-05T13:47:56Z</time>
      </trkpt>
      <trkpt lat="47.30151" lon="-2.38072">
        <ele>88</ele>
        <time>2019-09-05T13:47:57Z</time>
      </trkpt>
      <trkpt lat="47.30144" lon="-2.38068">
        <ele>88</ele>
        <time>2019-09-05T13:47:58Z</time>
      </trkpt>
      <trkpt lat="47.30136" lon="-2.38064">
        <ele>88</ele>
        <time>2019-09-05T13:47:59Z</time>
      </trkpt>
      <trkpt lat="47.30129" lon="-2.38061">
        <ele>87</ele>
        <time>2019-09-05T13:48:00Z</time>
      </trkpt>
      <trkpt lat="47.30121" lon="-2.38057">
        <ele>87</ele>
        <time>2019-09-05T13:48:01Z</time>
      </trkpt>
      <trkpt lat="47.30113" lon="-2.38053">
        <ele>87</ele>
        <time>2019-09-05T13:48:02Z</time>
      </trkpt>
      <trkpt lat="47.30105" lon="-2.38049">
        <ele>86</ele>
        <time>2019-09-05T13:48:03Z</time>
      </trkpt>
      <trkpt lat="47.30098" lon="-2.38045">
        <ele>86</ele>
        <time>2019-09-05T13:48:04Z</time>
      </trkpt>
      <trkpt lat="47.30089" lon="-2.38041">
        <ele>86</ele>
        <time>2019-09-05T13:48:05Z</time>
      </trkpt>
      <trkpt lat="47.30081" lon="-2.38036">
        <ele>85</ele>
        <time>2019-09-05T13:48:06Z</time>
      </trkpt>
      <trkpt lat="47.30073" lon="-2.38031">
        <ele>85</ele>
        <time>2019-09-05T13:48:07Z</time>
      </trkpt>
      <trkpt lat="47.30065" lon="-2.38026">
        <ele>84</ele>
        <time>2019-09-05T13:48:08Z</time>
      </trkpt>
      <trkpt lat="47.30058" lon="-2.38019">
        <ele>84</ele>
        <time>2019-09-05T13:48:09Z</time>
      </trkpt>
      <trkpt lat="47.30026" lon="-2.37987">
        <ele>82</ele>
        <time>2019-09-05T13:48:13Z</time>
      </trkpt>
      <trkpt lat="47.30019" lon="-2.37981">
        <ele>81</ele>
        <time>2019-09-05T13:48:14Z</time>
      </trkpt>
      <trkpt lat="47.30011" lon="-2.37975">
        <ele>80</ele>
        <time>2019-09-05T13:48:15Z</time>
      </trkpt>
      <trkpt lat="47.29989" lon="-2.37957">
        <ele>79</ele>
        <time>2019-09-05T13:48:18Z</time>
      </trkpt>
      <trkpt lat="47.29984" lon="-2.37947">
        <ele>79</ele>
        <time>2019-09-05T13:48:19Z</time>
      </trkpt>
      <trkpt lat="47.29978" lon="-2.37937">
        <ele>79</ele>
        <time>2019-09-05T13:48:20Z</time>
      </trkpt>
      <trkpt lat="47.29972" lon="-2.37928">
        <ele>79</ele>
        <time>2019-09-05T13:48:21Z</time>
      </trkpt>
      <trkpt lat="47.29953" lon="-2.37905">
        <ele>78</ele>
        <time>2019-09-05T13:48:24Z</time>
      </trkpt>
      <trkpt lat="47.29946" lon="-2.37898">
        <ele>78</ele>
        <time>2019-09-05T13:48:25Z</time>
      </trkpt>
      <trkpt lat="47.29941" lon="-2.37892">
        <ele>78</ele>
        <time>2019-09-05T13:48:26Z</time>
      </trkpt>
      <trkpt lat="47.29935" lon="-2.37885">
        <ele>79</ele>
        <time>2019-09-05T13:48:27Z</time>
      </trkpt>
      <trkpt lat="47.29929" lon="-2.37878">
        <ele>79</ele>
        <time>2019-09-05T13:48:28Z</time>
      </trkpt>
      <trkpt lat="47.29924" lon="-2.37872">
        <ele>79</ele>
        <time>2019-09-05T13:48:29Z</time>
      </trkpt>
      <trkpt lat="47.29914" lon="-2.3786">
        <ele>79</ele>
        <time>2019-09-05T13:48:31Z</time>
      </trkpt>
      <trkpt lat="47.29889" lon="-2.37828">
        <ele>81</ele>
        <time>2019-09-05T13:48:38Z</time>
      </trkpt>
      <trkpt lat="47.29884" lon="-2.37822">
        <ele>81</ele>
        <time>2019-09-05T13:48:40Z</time>
      </trkpt>
      <trkpt lat="47.29878" lon="-2.37815">
        <ele>81</ele>
        <time>2019-09-05T13:48:42Z</time>
      </trkpt>
      <trkpt lat="47.29867" lon="-2.37817">
        <ele>82</ele>
        <time>2019-09-05T13:48:46Z</time>
      </trkpt>
      <trkpt lat="47.29862" lon="-2.37828">
        <ele>83</ele>
        <time>2019-09-05T13:48:48Z</time>
      </trkpt>
      <trkpt lat="47.2986" lon="-2.37833">
        <ele>83</ele>
        <time>2019-09-05T13:48:49Z</time>
      </trkpt>
      <trkpt lat="47.29858" lon="-2.37838">
        <ele>83</ele>
        <time>2019-09-05T13:48:50Z</time>
      </trkpt>
      <trkpt lat="47.29853" lon="-2.37849">
        <ele>84</ele>
        <time>2019-09-05T13:48:52Z</time>
      </trkpt>
      <trkpt lat="47.29851" lon="-2.37856">
        <ele>83</ele>
        <time>2019-09-05T13:48:53Z</time>
      </trkpt>
      <trkpt lat="47.29848" lon="-2.37862">
        <ele>83</ele>
        <time>2019-09-05T13:48:54Z</time>
      </trkpt>
      <trkpt lat="47.29842" lon="-2.37872">
        <ele>83</ele>
        <time>2019-09-05T13:48:56Z</time>
      </trkpt>
      <trkpt lat="47.29835" lon="-2.37879">
        <ele>82</ele>
        <time>2019-09-05T13:48:58Z</time>
      </trkpt>
      <trkpt lat="47.29824" lon="-2.37888">
        <ele>84</ele>
        <time>2019-09-05T13:49:01Z</time>
      </trkpt>
      <trkpt lat="47.29816" lon="-2.37892">
        <ele>84</ele>
        <time>2019-09-05T13:49:03Z</time>
      </trkpt>
      <trkpt lat="47.29809" lon="-2.37895">
        <ele>84</ele>
        <time>2019-09-05T13:49:05Z</time>
      </trkpt>
      <trkpt lat="47.29802" lon="-2.37899">
        <ele>84</ele>
        <time>2019-09-05T13:49:07Z</time>
      </trkpt>
      <trkpt lat="47.298" lon="-2.37901">
        <ele>84</ele>
        <time>2019-09-05T13:49:08Z</time>
      </trkpt>
      <trkpt lat="47.29796" lon="-2.37903">
        <ele>85</ele>
        <time>2019-09-05T13:49:09Z</time>
      </trkpt>
      <trkpt lat="47.29791" lon="-2.37907">
        <ele>85</ele>
        <time>2019-09-05T13:49:11Z</time>
      </trkpt>
      <trkpt lat="47.29787" lon="-2.37911">
        <ele>85</ele>
        <time>2019-09-05T13:49:12Z</time>
      </trkpt>
      <trkpt lat="47.29782" lon="-2.37913">
        <ele>84</ele>
        <time>2019-09-05T13:49:13Z</time>
      </trkpt>
      <trkpt lat="47.29777" lon="-2.37916">
        <ele>84</ele>
        <time>2019-09-05T13:49:14Z</time>
      </trkpt>
      <trkpt lat="47.29772" lon="-2.37919">
        <ele>84</ele>
        <time>2019-09-05T13:49:15Z</time>
      </trkpt>
      <trkpt lat="47.29767" lon="-2.37922">
        <ele>84</ele>
        <time>2019-09-05T13:49:16Z</time>
      </trkpt>
      <trkpt lat="47.29763" lon="-2.37926">
        <ele>83</ele>
        <time>2019-09-05T13:49:17Z</time>
      </trkpt>
      <trkpt lat="47.29758" lon="-2.3793">
        <ele>82</ele>
        <time>2019-09-05T13:49:18Z</time>
      </trkpt>
      <trkpt lat="47.29754" lon="-2.37935">
        <ele>82</ele>
        <time>2019-09-05T13:49:19Z</time>
      </trkpt>
      <trkpt lat="47.2975" lon="-2.3794">
        <ele>82</ele>
        <time>2019-09-05T13:49:20Z</time>
      </trkpt>
      <trkpt lat="47.29746" lon="-2.37945">
        <ele>82</ele>
        <time>2019-09-05T13:49:21Z</time>
      </trkpt>
      <trkpt lat="47.29738" lon="-2.37964">
        <ele>81</ele>
        <time>2019-09-05T13:49:24Z</time>
      </trkpt>
      <trkpt lat="47.29735" lon="-2.37971">
        <ele>80</ele>
        <time>2019-09-05T13:49:25Z</time>
      </trkpt>
      <trkpt lat="47.29733" lon="-2.37976">
        <ele>79</ele>
        <time>2019-09-05T13:49:26Z</time>
      </trkpt>
      <trkpt lat="47.2973" lon="-2.37993">
        <ele>78</ele>
        <time>2019-09-05T13:49:29Z</time>
      </trkpt>
      <trkpt lat="47.29732" lon="-2.38014">
        <ele>78</ele>
        <time>2019-09-05T13:49:32Z</time>
      </trkpt>
      <trkpt lat="47.29731" lon="-2.3803">
        <ele>78</ele>
        <time>2019-09-05T13:49:35Z</time>
      </trkpt>
      <trkpt lat="47.29718" lon="-2.38042">
        <ele>78</ele>
        <time>2019-09-05T13:49:38Z</time>
      </trkpt>
      <trkpt lat="47.29712" lon="-2.38046">
        <ele>77</ele>
        <time>2019-09-05T13:49:39Z</time>
      </trkpt>
      <trkpt lat="47.29707" lon="-2.3805">
        <ele>77</ele>
        <time>2019-09-05T13:49:40Z</time>
      </trkpt>
      <trkpt lat="47.297" lon="-2.38056">
        <ele>76</ele>
        <time>2019-09-05T13:49:41Z</time>
      </trkpt>
      <trkpt lat="47.29678" lon="-2.38072">
        <ele>75</ele>
        <time>2019-09-05T13:49:44Z</time>
      </trkpt>
      <trkpt lat="47.29669" lon="-2.38077">
        <ele>75</ele>
        <time>2019-09-05T13:49:45Z</time>
      </trkpt>
      <trkpt lat="47.2966" lon="-2.38083">
        <ele>73</ele>
        <time>2019-09-05T13:49:46Z</time>
      </trkpt>
      <trkpt lat="47.29651" lon="-2.38089">
        <ele>72</ele>
        <time>2019-09-05T13:49:47Z</time>
      </trkpt>
      <trkpt lat="47.29642" lon="-2.38094">
        <ele>71</ele>
        <time>2019-09-05T13:49:48Z</time>
      </trkpt>
      <trkpt lat="47.29633" lon="-2.38099">
        <ele>69</ele>
        <time>2019-09-05T13:49:49Z</time>
      </trkpt>
      <trkpt lat="47.29624" lon="-2.38103">
        <ele>69</ele>
        <time>2019-09-05T13:49:50Z</time>
      </trkpt>
      <trkpt lat="47.29615" lon="-2.38106">
        <ele>68</ele>
        <time>2019-09-05T13:49:51Z</time>
      </trkpt>
      <trkpt lat="47.29605" lon="-2.38109">
        <ele>67</ele>
        <time>2019-09-05T13:49:52Z</time>
      </trkpt>
      <trkpt lat="47.29596" lon="-2.38111">
        <ele>67</ele>
        <time>2019-09-05T13:49:53Z</time>
      </trkpt>
      <trkpt lat="47.29586" lon="-2.38113">
        <ele>66</ele>
        <time>2019-09-05T13:49:54Z</time>
      </trkpt>
      <trkpt lat="47.29577" lon="-2.38114">
        <ele>65</ele>
        <time>2019-09-05T13:49:55Z</time>
      </trkpt>
      <trkpt lat="47.29569" lon="-2.38116">
        <ele>65</ele>
        <time>2019-09-05T13:49:56Z</time>
      </trkpt>
      <trkpt lat="47.2956" lon="-2.38118">
        <ele>64</ele>
        <time>2019-09-05T13:49:57Z</time>
      </trkpt>
      <trkpt lat="47.29551" lon="-2.38119">
        <ele>64</ele>
        <time>2019-09-05T13:49:58Z</time>
      </trkpt>
      <trkpt lat="47.29542" lon="-2.3812">
        <ele>63</ele>
        <time>2019-09-05T13:49:59Z</time>
      </trkpt>
      <trkpt lat="47.29533" lon="-2.38121">
        <ele>62</ele>
        <time>2019-09-05T13:50:00Z</time>
      </trkpt>
      <trkpt lat="47.29523" lon="-2.38121">
        <ele>62</ele>
        <time>2019-09-05T13:50:01Z</time>
      </trkpt>
      <trkpt lat="47.29515" lon="-2.3812">
        <ele>61</ele>
        <time>2019-09-05T13:50:02Z</time>
      </trkpt>
      <trkpt lat="47.29491" lon="-2.38123">
        <ele>61</ele>
        <time>2019-09-05T13:50:05Z</time>
      </trkpt>
      <trkpt lat="47.29483" lon="-2.38128">
        <ele>61</ele>
        <time>2019-09-05T13:50:06Z</time>
      </trkpt>
      <trkpt lat="47.29464" lon="-2.38141">
        <ele>61</ele>
        <time>2019-09-05T13:50:09Z</time>
      </trkpt>
      <trkpt lat="47.29458" lon="-2.38145">
        <ele>61</ele>
        <time>2019-09-05T13:50:11Z</time>
      </trkpt>
      <trkpt lat="47.29447" lon="-2.38149">
        <ele>61</ele>
        <time>2019-09-05T13:50:13Z</time>
      </trkpt>
      <trkpt lat="47.29441" lon="-2.38144">
        <ele>61</ele>
        <time>2019-09-05T13:50:15Z</time>
      </trkpt>
      <trkpt lat="47.29435" lon="-2.38126">
        <ele>59</ele>
        <time>2019-09-05T13:50:18Z</time>
      </trkpt>
      <trkpt lat="47.29433" lon="-2.38119">
        <ele>59</ele>
        <time>2019-09-05T13:50:19Z</time>
      </trkpt>
      <trkpt lat="47.29431" lon="-2.38112">
        <ele>58</ele>
        <time>2019-09-05T13:50:20Z</time>
      </trkpt>
      <trkpt lat="47.2943" lon="-2.38104">
        <ele>58</ele>
        <time>2019-09-05T13:50:21Z</time>
      </trkpt>
      <trkpt lat="47.29428" lon="-2.38097">
        <ele>58</ele>
        <time>2019-09-05T13:50:22Z</time>
      </trkpt>
      <trkpt lat="47.29426" lon="-2.3809">
        <ele>57</ele>
        <time>2019-09-05T13:50:23Z</time>
      </trkpt>
      <trkpt lat="47.29421" lon="-2.38077">
        <ele>56</ele>
        <time>2019-09-05T13:50:25Z</time>
      </trkpt>
      <trkpt lat="47.29419" lon="-2.38069">
        <ele>56</ele>
        <time>2019-09-05T13:50:26Z</time>
      </trkpt>
      <trkpt lat="47.2941" lon="-2.3805">
        <ele>55</ele>
        <time>2019-09-05T13:50:29Z</time>
      </trkpt>
      <trkpt lat="47.29407" lon="-2.38044">
        <ele>55</ele>
        <time>2019-09-05T13:50:30Z</time>
      </trkpt>
      <trkpt lat="47.29404" lon="-2.38037">
        <ele>55</ele>
        <time>2019-09-05T13:50:31Z</time>
      </trkpt>
      <trkpt lat="47.29402" lon="-2.3803">
        <ele>55</ele>
        <time>2019-09-05T13:50:32Z</time>
      </trkpt>
      <trkpt lat="47.294" lon="-2.38023">
        <ele>55</ele>
        <time>2019-09-05T13:50:33Z</time>
      </trkpt>
      <trkpt lat="47.29398" lon="-2.38017">
        <ele>54</ele>
        <time>2019-09-05T13:50:34Z</time>
      </trkpt>
      <trkpt lat="47.29396" lon="-2.3801">
        <ele>54</ele>
        <time>2019-09-05T13:50:35Z</time>
      </trkpt>
      <trkpt lat="47.29393" lon="-2.38004">
        <ele>55</ele>
        <time>2019-09-05T13:50:36Z</time>
      </trkpt>
      <trkpt lat="47.29391" lon="-2.37997">
        <ele>54</ele>
        <time>2019-09-05T13:50:37Z</time>
      </trkpt>
      <trkpt lat="47.29389" lon="-2.37991">
        <ele>54</ele>
        <time>2019-09-05T13:50:38Z</time>
      </trkpt>
      <trkpt lat="47.29387" lon="-2.37984">
        <ele>54</ele>
        <time>2019-09-05T13:50:39Z</time>
      </trkpt>
      <trkpt lat="47.29384" lon="-2.37977">
        <ele>55</ele>
        <time>2019-09-05T13:50:40Z</time>
      </trkpt>
      <trkpt lat="47.29382" lon="-2.37971">
        <ele>55</ele>
        <time>2019-09-05T13:50:41Z</time>
      </trkpt>
      <trkpt lat="47.29379" lon="-2.37964">
        <ele>55</ele>
        <time>2019-09-05T13:50:42Z</time>
      </trkpt>
      <trkpt lat="47.2937" lon="-2.37938">
        <ele>56</ele>
        <time>2019-09-05T13:50:46Z</time>
      </trkpt>
      <trkpt lat="47.29366" lon="-2.37923">
        <ele>57</ele>
        <time>2019-09-05T13:50:48Z</time>
      </trkpt>
      <trkpt lat="47.29361" lon="-2.3791">
        <ele>57</ele>
        <time>2019-09-05T13:50:50Z</time>
      </trkpt>
      <trkpt lat="47.29358" lon="-2.37903">
        <ele>57</ele>
        <time>2019-09-05T13:50:51Z</time>
      </trkpt>
      <trkpt lat="47.29352" lon="-2.37889">
        <ele>57</ele>
        <time>2019-09-05T13:50:53Z</time>
      </trkpt>
      <trkpt lat="47.2935" lon="-2.37883">
        <ele>57</ele>
        <time>2019-09-05T13:50:54Z</time>
      </trkpt>
      <trkpt lat="47.29348" lon="-2.37877">
        <ele>57</ele>
        <time>2019-09-05T13:50:55Z</time>
      </trkpt>
      <trkpt lat="47.29346" lon="-2.3787">
        <ele>57</ele>
        <time>2019-09-05T13:50:56Z</time>
      </trkpt>
      <trkpt lat="47.29344" lon="-2.37864">
        <ele>57</ele>
        <time>2019-09-05T13:50:57Z</time>
      </trkpt>
      <trkpt lat="47.29342" lon="-2.37857">
        <ele>57</ele>
        <time>2019-09-05T13:50:58Z</time>
      </trkpt>
      <trkpt lat="47.2934" lon="-2.3785">
        <ele>57</ele>
        <time>2019-09-05T13:50:59Z</time>
      </trkpt>
      <trkpt lat="47.29338" lon="-2.37842">
        <ele>57</ele>
        <time>2019-09-05T13:51:00Z</time>
      </trkpt>
      <trkpt lat="47.29337" lon="-2.37835">
        <ele>57</ele>
        <time>2019-09-05T13:51:01Z</time>
      </trkpt>
      <trkpt lat="47.29335" lon="-2.37828">
        <ele>57</ele>
        <time>2019-09-05T13:51:02Z</time>
      </trkpt>
      <trkpt lat="47.29335" lon="-2.3782">
        <ele>58</ele>
        <time>2019-09-05T13:51:03Z</time>
      </trkpt>
      <trkpt lat="47.29334" lon="-2.37812">
        <ele>58</ele>
        <time>2019-09-05T13:51:04Z</time>
      </trkpt>
      <trkpt lat="47.29334" lon="-2.3779">
        <ele>59</ele>
        <time>2019-09-05T13:51:07Z</time>
      </trkpt>
      <trkpt lat="47.29334" lon="-2.37783">
        <ele>59</ele>
        <time>2019-09-05T13:51:08Z</time>
      </trkpt>
      <trkpt lat="47.29334" lon="-2.37776">
        <ele>59</ele>
        <time>2019-09-05T13:51:09Z</time>
      </trkpt>
      <trkpt lat="47.29334" lon="-2.37769">
        <ele>59</ele>
        <time>2019-09-05T13:51:10Z</time>
      </trkpt>
      <trkpt lat="47.29334" lon="-2.37763">
        <ele>59</ele>
        <time>2019-09-05T13:51:11Z</time>
      </trkpt>
      <trkpt lat="47.29333" lon="-2.37757">
        <ele>59</ele>
        <time>2019-09-05T13:51:12Z</time>
      </trkpt>
      <trkpt lat="47.29333" lon="-2.37752">
        <ele>59</ele>
        <time>2019-09-05T13:51:13Z</time>
      </trkpt>
      <trkpt lat="47.29333" lon="-2.37747">
        <ele>60</ele>
        <time>2019-09-05T13:51:14Z</time>
      </trkpt>
      <trkpt lat="47.29332" lon="-2.37739">
        <ele>60</ele>
        <time>2019-09-05T13:51:16Z</time>
      </trkpt>
      <trkpt lat="47.29324" lon="-2.37734">
        <ele>60</ele>
        <time>2019-09-05T13:51:19Z</time>
      </trkpt>
      <trkpt lat="47.29317" lon="-2.37736">
        <ele>60</ele>
        <time>2019-09-05T13:51:21Z</time>
      </trkpt>
      <trkpt lat="47.29303" lon="-2.37742">
        <ele>61</ele>
        <time>2019-09-05T13:51:24Z</time>
      </trkpt>
      <trkpt lat="47.29296" lon="-2.37742">
        <ele>61</ele>
        <time>2019-09-05T13:51:25Z</time>
      </trkpt>
      <trkpt lat="47.2929" lon="-2.37741">
        <ele>61</ele>
        <time>2019-09-05T13:51:26Z</time>
      </trkpt>
      <trkpt lat="47.29283" lon="-2.3774">
        <ele>61</ele>
        <time>2019-09-05T13:51:27Z</time>
      </trkpt>
      <trkpt lat="47.29278" lon="-2.37738">
        <ele>61</ele>
        <time>2019-09-05T13:51:28Z</time>
      </trkpt>
      <trkpt lat="47.29272" lon="-2.37737">
        <ele>61</ele>
        <time>2019-09-05T13:51:29Z</time>
      </trkpt>
      <trkpt lat="47.29255" lon="-2.37732">
        <ele>62</ele>
        <time>2019-09-05T13:51:32Z</time>
      </trkpt>
      <trkpt lat="47.29249" lon="-2.3773">
        <ele>62</ele>
        <time>2019-09-05T13:51:33Z</time>
      </trkpt>
      <trkpt lat="47.29245" lon="-2.37728">
        <ele>61</ele>
        <time>2019-09-05T13:51:34Z</time>
      </trkpt>
      <trkpt lat="47.29229" lon="-2.37725">
        <ele>61</ele>
        <time>2019-09-05T13:51:37Z</time>
      </trkpt>
      <trkpt lat="47.29222" lon="-2.37727">
        <ele>60</ele>
        <time>2019-09-05T13:51:38Z</time>
      </trkpt>
      <trkpt lat="47.29215" lon="-2.37732">
        <ele>60</ele>
        <time>2019-09-05T13:51:39Z</time>
      </trkpt>
      <trkpt lat="47.29209" lon="-2.3774">
        <ele>61</ele>
        <time>2019-09-05T13:51:40Z</time>
      </trkpt>
      <trkpt lat="47.29203" lon="-2.37747">
        <ele>60</ele>
        <time>2019-09-05T13:51:41Z</time>
      </trkpt>
      <trkpt lat="47.29197" lon="-2.37756">
        <ele>59</ele>
        <time>2019-09-05T13:51:42Z</time>
      </trkpt>
      <trkpt lat="47.29192" lon="-2.37765">
        <ele>59</ele>
        <time>2019-09-05T13:51:43Z</time>
      </trkpt>
      <trkpt lat="47.29186" lon="-2.37774">
        <ele>58</ele>
        <time>2019-09-05T13:51:44Z</time>
      </trkpt>
      <trkpt lat="47.29182" lon="-2.37785">
        <ele>57</ele>
        <time>2019-09-05T13:51:45Z</time>
      </trkpt>
      <trkpt lat="47.29177" lon="-2.37794">
        <ele>57</ele>
        <time>2019-09-05T13:51:46Z</time>
      </trkpt>
      <trkpt lat="47.29173" lon="-2.37804">
        <ele>57</ele>
        <time>2019-09-05T13:51:47Z</time>
      </trkpt>
      <trkpt lat="47.29168" lon="-2.37813">
        <ele>56</ele>
        <time>2019-09-05T13:51:48Z</time>
      </trkpt>
      <trkpt lat="47.29164" lon="-2.37822">
        <ele>56</ele>
        <time>2019-09-05T13:51:49Z</time>
      </trkpt>
      <trkpt lat="47.2916" lon="-2.3783">
        <ele>56</ele>
        <time>2019-09-05T13:51:50Z</time>
      </trkpt>
      <trkpt lat="47.29156" lon="-2.37839">
        <ele>56</ele>
        <time>2019-09-05T13:51:51Z</time>
      </trkpt>
      <trkpt lat="47.29151" lon="-2.37845">
        <ele>56</ele>
        <time>2019-09-05T13:51:52Z</time>
      </trkpt>
      <trkpt lat="47.29139" lon="-2.37848">
        <ele>56</ele>
        <time>2019-09-05T13:51:54Z</time>
      </trkpt>
      <trkpt lat="47.29121" lon="-2.37837">
        <ele>55</ele>
        <time>2019-09-05T13:51:57Z</time>
      </trkpt>
      <trkpt lat="47.29115" lon="-2.37832">
        <ele>55</ele>
        <time>2019-09-05T13:51:58Z</time>
      </trkpt>
      <trkpt lat="47.2911" lon="-2.37826">
        <ele>55</ele>
        <time>2019-09-05T13:51:59Z</time>
      </trkpt>
      <trkpt lat="47.29105" lon="-2.37821">
        <ele>55</ele>
        <time>2019-09-05T13:52:00Z</time>
      </trkpt>
      <trkpt lat="47.291" lon="-2.37816">
        <ele>55</ele>
        <time>2019-09-05T13:52:01Z</time>
      </trkpt>
      <trkpt lat="47.29094" lon="-2.37811">
        <ele>54</ele>
        <time>2019-09-05T13:52:02Z</time>
      </trkpt>
      <trkpt lat="47.29089" lon="-2.37805">
        <ele>54</ele>
        <time>2019-09-05T13:52:03Z</time>
      </trkpt>
      <trkpt lat="47.29084" lon="-2.378">
        <ele>54</ele>
        <time>2019-09-05T13:52:04Z</time>
      </trkpt>
      <trkpt lat="47.29078" lon="-2.37796">
        <ele>54</ele>
        <time>2019-09-05T13:52:05Z</time>
      </trkpt>
      <trkpt lat="47.29073" lon="-2.37791">
        <ele>54</ele>
        <time>2019-09-05T13:52:06Z</time>
      </trkpt>
      <trkpt lat="47.29057" lon="-2.37775">
        <ele>54</ele>
        <time>2019-09-05T13:52:09Z</time>
      </trkpt>
      <trkpt lat="47.29052" lon="-2.37769">
        <ele>54</ele>
        <time>2019-09-05T13:52:10Z</time>
      </trkpt>
      <trkpt lat="47.29048" lon="-2.37764">
        <ele>54</ele>
        <time>2019-09-05T13:52:11Z</time>
      </trkpt>
      <trkpt lat="47.29034" lon="-2.37748">
        <ele>54</ele>
        <time>2019-09-05T13:52:14Z</time>
      </trkpt>
      <trkpt lat="47.29029" lon="-2.37742">
        <ele>54</ele>
        <time>2019-09-05T13:52:15Z</time>
      </trkpt>
      <trkpt lat="47.29025" lon="-2.37736">
        <ele>54</ele>
        <time>2019-09-05T13:52:16Z</time>
      </trkpt>
      <trkpt lat="47.29021" lon="-2.3773">
        <ele>54</ele>
        <time>2019-09-05T13:52:17Z</time>
      </trkpt>
      <trkpt lat="47.29017" lon="-2.37724">
        <ele>54</ele>
        <time>2019-09-05T13:52:18Z</time>
      </trkpt>
      <trkpt lat="47.29009" lon="-2.37711">
        <ele>54</ele>
        <time>2019-09-05T13:52:20Z</time>
      </trkpt>
      <trkpt lat="47.29005" lon="-2.37704">
        <ele>54</ele>
        <time>2019-09-05T13:52:21Z</time>
      </trkpt>
      <trkpt lat="47.29002" lon="-2.37699">
        <ele>54</ele>
        <time>2019-09-05T13:52:22Z</time>
      </trkpt>
      <trkpt lat="47.28988" lon="-2.37683">
        <ele>55</ele>
        <time>2019-09-05T13:52:25Z</time>
      </trkpt>
      <trkpt lat="47.28979" lon="-2.37673">
        <ele>55</ele>
        <time>2019-09-05T13:52:27Z</time>
      </trkpt>
      <trkpt lat="47.28975" lon="-2.37667">
        <ele>55</ele>
        <time>2019-09-05T13:52:28Z</time>
      </trkpt>
      <trkpt lat="47.2897" lon="-2.37662">
        <ele>55</ele>
        <time>2019-09-05T13:52:29Z</time>
      </trkpt>
      <trkpt lat="47.28966" lon="-2.37657">
        <ele>55</ele>
        <time>2019-09-05T13:52:30Z</time>
      </trkpt>
      <trkpt lat="47.28962" lon="-2.37651">
        <ele>55</ele>
        <time>2019-09-05T13:52:31Z</time>
      </trkpt>
      <trkpt lat="47.28958" lon="-2.37646">
        <ele>54</ele>
        <time>2019-09-05T13:52:32Z</time>
      </trkpt>
      <trkpt lat="47.28945" lon="-2.37642">
        <ele>55</ele>
        <time>2019-09-05T13:52:35Z</time>
      </trkpt>
      <trkpt lat="47.28938" lon="-2.37647">
        <ele>56</ele>
        <time>2019-09-05T13:52:37Z</time>
      </trkpt>
      <trkpt lat="47.2893" lon="-2.37649">
        <ele>55</ele>
        <time>2019-09-05T13:52:39Z</time>
      </trkpt>
      <trkpt lat="47.28922" lon="-2.37647">
        <ele>55</ele>
        <time>2019-09-05T13:52:41Z</time>
      </trkpt>
      <trkpt lat="47.28917" lon="-2.37648">
        <ele>55</ele>
        <time>2019-09-05T13:52:42Z</time>
      </trkpt>
      <trkpt lat="47.28912" lon="-2.37649">
        <ele>55</ele>
        <time>2019-09-05T13:52:43Z</time>
      </trkpt>
      <trkpt lat="47.28907" lon="-2.37651">
        <ele>55</ele>
        <time>2019-09-05T13:52:44Z</time>
      </trkpt>
      <trkpt lat="47.28902" lon="-2.37651">
        <ele>56</ele>
        <time>2019-09-05T13:52:45Z</time>
      </trkpt>
      <trkpt lat="47.28892" lon="-2.37653">
        <ele>56</ele>
        <time>2019-09-05T13:52:47Z</time>
      </trkpt>
      <trkpt lat="47.28888" lon="-2.37654">
        <ele>56</ele>
        <time>2019-09-05T13:52:48Z</time>
      </trkpt>
      <trkpt lat="47.28883" lon="-2.37655">
        <ele>56</ele>
        <time>2019-09-05T13:52:49Z</time>
      </trkpt>
      <trkpt lat="47.28872" lon="-2.37657">
        <ele>57</ele>
        <time>2019-09-05T13:52:51Z</time>
      </trkpt>
      <trkpt lat="47.28868" lon="-2.37657">
        <ele>57</ele>
        <time>2019-09-05T13:52:52Z</time>
      </trkpt>
      <trkpt lat="47.2886" lon="-2.3765">
        <ele>57</ele>
        <time>2019-09-05T13:52:54Z</time>
      </trkpt>
      <trkpt lat="47.28856" lon="-2.37645">
        <ele>57</ele>
        <time>2019-09-05T13:52:55Z</time>
      </trkpt>
      <trkpt lat="47.28853" lon="-2.37639">
        <ele>57</ele>
        <time>2019-09-05T13:52:56Z</time>
      </trkpt>
      <trkpt lat="47.28851" lon="-2.37636">
        <ele>57</ele>
        <time>2019-09-05T13:52:57Z</time>
      </trkpt>
      <trkpt lat="47.28846" lon="-2.37633">
        <ele>56</ele>
        <time>2019-09-05T13:52:59Z</time>
      </trkpt>
      <trkpt lat="47.28839" lon="-2.3764">
        <ele>56</ele>
        <time>2019-09-05T13:53:01Z</time>
      </trkpt>
      <trkpt lat="47.28833" lon="-2.37654">
        <ele>57</ele>
        <time>2019-09-05T13:53:03Z</time>
      </trkpt>
      <trkpt lat="47.2883" lon="-2.37661">
        <ele>56</ele>
        <time>2019-09-05T13:53:04Z</time>
      </trkpt>
      <trkpt lat="47.28827" lon="-2.37667">
        <ele>56</ele>
        <time>2019-09-05T13:53:05Z</time>
      </trkpt>
      <trkpt lat="47.28824" lon="-2.37674">
        <ele>57</ele>
        <time>2019-09-05T13:53:06Z</time>
      </trkpt>
      <trkpt lat="47.2882" lon="-2.37681">
        <ele>57</ele>
        <time>2019-09-05T13:53:07Z</time>
      </trkpt>
      <trkpt lat="47.28816" lon="-2.37686">
        <ele>57</ele>
        <time>2019-09-05T13:53:08Z</time>
      </trkpt>
      <trkpt lat="47.28811" lon="-2.3769">
        <ele>56</ele>
        <time>2019-09-05T13:53:09Z</time>
      </trkpt>
      <trkpt lat="47.28793" lon="-2.37699">
        <ele>56</ele>
        <time>2019-09-05T13:53:12Z</time>
      </trkpt>
      <trkpt lat="47.28788" lon="-2.37701">
        <ele>56</ele>
        <time>2019-09-05T13:53:13Z</time>
      </trkpt>
      <trkpt lat="47.28772" lon="-2.37708">
        <ele>56</ele>
        <time>2019-09-05T13:53:16Z</time>
      </trkpt>
      <trkpt lat="47.28767" lon="-2.37711">
        <ele>56</ele>
        <time>2019-09-05T13:53:17Z</time>
      </trkpt>
      <trkpt lat="47.28763" lon="-2.37716">
        <ele>56</ele>
        <time>2019-09-05T13:53:18Z</time>
      </trkpt>
      <trkpt lat="47.28759" lon="-2.37722">
        <ele>56</ele>
        <time>2019-09-05T13:53:19Z</time>
      </trkpt>
      <trkpt lat="47.28756" lon="-2.37728">
        <ele>56</ele>
        <time>2019-09-05T13:53:20Z</time>
      </trkpt>
      <trkpt lat="47.28752" lon="-2.37734">
        <ele>57</ele>
        <time>2019-09-05T13:53:21Z</time>
      </trkpt>
      <trkpt lat="47.28741" lon="-2.37753">
        <ele>56</ele>
        <time>2019-09-05T13:53:24Z</time>
      </trkpt>
      <trkpt lat="47.28737" lon="-2.3776">
        <ele>57</ele>
        <time>2019-09-05T13:53:25Z</time>
      </trkpt>
      <trkpt lat="47.28733" lon="-2.37766">
        <ele>56</ele>
        <time>2019-09-05T13:53:26Z</time>
      </trkpt>
      <trkpt lat="47.28729" lon="-2.37772">
        <ele>57</ele>
        <time>2019-09-05T13:53:27Z</time>
      </trkpt>
      <trkpt lat="47.28725" lon="-2.37779">
        <ele>56</ele>
        <time>2019-09-05T13:53:28Z</time>
      </trkpt>
      <trkpt lat="47.28721" lon="-2.37785">
        <ele>56</ele>
        <time>2019-09-05T13:53:29Z</time>
      </trkpt>
      <trkpt lat="47.28713" lon="-2.37798">
        <ele>56</ele>
        <time>2019-09-05T13:53:31Z</time>
      </trkpt>
      <trkpt lat="47.28705" lon="-2.37811">
        <ele>56</ele>
        <time>2019-09-05T13:53:33Z</time>
      </trkpt>
      <trkpt lat="47.287" lon="-2.37818">
        <ele>56</ele>
        <time>2019-09-05T13:53:34Z</time>
      </trkpt>
      <trkpt lat="47.28696" lon="-2.37824">
        <ele>55</ele>
        <time>2019-09-05T13:53:35Z</time>
      </trkpt>
      <trkpt lat="47.28692" lon="-2.3783">
        <ele>55</ele>
        <time>2019-09-05T13:53:36Z</time>
      </trkpt>
      <trkpt lat="47.28688" lon="-2.37836">
        <ele>56</ele>
        <time>2019-09-05T13:53:37Z</time>
      </trkpt>
      <trkpt lat="47.28685" lon="-2.37843">
        <ele>56</ele>
        <time>2019-09-05T13:53:38Z</time>
      </trkpt>
      <trkpt lat="47.28679" lon="-2.37853">
        <ele>56</ele>
        <time>2019-09-05T13:53:40Z</time>
      </trkpt>
      <trkpt lat="47.28677" lon="-2.3786">
        <ele>56</ele>
        <time>2019-09-05T13:53:42Z</time>
      </trkpt>
      <trkpt lat="47.28675" lon="-2.37865">
        <ele>56</ele>
        <time>2019-09-05T13:53:44Z</time>
      </trkpt>
      <trkpt lat="47.28675" lon="-2.37865">
        <ele>7</ele>
        <time>2019-09-05T13:53:50Z</time>
      </trkpt>
      <trkpt lat="47.28675" lon="-2.37865">
        <ele>7</ele>
        <time>2019-09-05T13:53:57Z</time>
      </trkpt>
      <trkpt lat="47.28666" lon="-2.37878">
        <ele>58</ele>
        <time>2019-09-05T13:53:57Z</time>
      </trkpt>
      <trkpt lat="47.28643" lon="-2.37913">
        <ele>53</ele>
        <time>2019-09-05T13:54:03Z</time>
      </trkpt>
      <trkpt lat="47.28641" lon="-2.37924">
        <ele>52</ele>
        <time>2019-09-05T13:54:04Z</time>
      </trkpt>
      <trkpt lat="47.28637" lon="-2.37929">
        <ele>52</ele>
        <time>2019-09-05T13:54:05Z</time>
      </trkpt>
      <trkpt lat="47.28633" lon="-2.37935">
        <ele>52</ele>
        <time>2019-09-05T13:54:06Z</time>
      </trkpt>
      <trkpt lat="47.28628" lon="-2.3794">
        <ele>53</ele>
        <time>2019-09-05T13:54:07Z</time>
      </trkpt>
      <trkpt lat="47.28623" lon="-2.37946">
        <ele>54</ele>
        <time>2019-09-05T13:54:08Z</time>
      </trkpt>
      <trkpt lat="47.28619" lon="-2.37953">
        <ele>54</ele>
        <time>2019-09-05T13:54:09Z</time>
      </trkpt>
      <trkpt lat="47.28614" lon="-2.37959">
        <ele>54</ele>
        <time>2019-09-05T13:54:10Z</time>
      </trkpt>
      <trkpt lat="47.28609" lon="-2.37966">
        <ele>54</ele>
        <time>2019-09-05T13:54:11Z</time>
      </trkpt>
      <trkpt lat="47.286" lon="-2.37979">
        <ele>54</ele>
        <time>2019-09-05T13:54:13Z</time>
      </trkpt>
      <trkpt lat="47.28595" lon="-2.37986">
        <ele>54</ele>
        <time>2019-09-05T13:54:14Z</time>
      </trkpt>
      <trkpt lat="47.2859" lon="-2.37992">
        <ele>54</ele>
        <time>2019-09-05T13:54:15Z</time>
      </trkpt>
      <trkpt lat="47.28585" lon="-2.37998">
        <ele>54</ele>
        <time>2019-09-05T13:54:16Z</time>
      </trkpt>
      <trkpt lat="47.28569" lon="-2.38017">
        <ele>53</ele>
        <time>2019-09-05T13:54:19Z</time>
      </trkpt>
      <trkpt lat="47.28565" lon="-2.38023">
        <ele>53</ele>
        <time>2019-09-05T13:54:20Z</time>
      </trkpt>
      <trkpt lat="47.2855" lon="-2.38038">
        <ele>53</ele>
        <time>2019-09-05T13:54:23Z</time>
      </trkpt>
      <trkpt lat="47.28545" lon="-2.38042">
        <ele>53</ele>
        <time>2019-09-05T13:54:24Z</time>
      </trkpt>
      <trkpt lat="47.28536" lon="-2.38051">
        <ele>54</ele>
        <time>2019-09-05T13:54:26Z</time>
      </trkpt>
      <trkpt lat="47.28532" lon="-2.38055">
        <ele>55</ele>
        <time>2019-09-05T13:54:27Z</time>
      </trkpt>
      <trkpt lat="47.28526" lon="-2.38061">
        <ele>55</ele>
        <time>2019-09-05T13:54:29Z</time>
      </trkpt>
      <trkpt lat="47.28522" lon="-2.38066">
        <ele>56</ele>
        <time>2019-09-05T13:54:32Z</time>
      </trkpt>
      <trkpt lat="47.28509" lon="-2.38076">
        <ele>56</ele>
        <time>2019-09-05T13:54:36Z</time>
      </trkpt>
      <trkpt lat="47.28496" lon="-2.38084">
        <ele>56</ele>
        <time>2019-09-05T13:54:39Z</time>
      </trkpt>
      <trkpt lat="47.28492" lon="-2.38088">
        <ele>56</ele>
        <time>2019-09-05T13:54:40Z</time>
      </trkpt>
      <trkpt lat="47.28486" lon="-2.38092">
        <ele>57</ele>
        <time>2019-09-05T13:54:41Z</time>
      </trkpt>
      <trkpt lat="47.28481" lon="-2.38095">
        <ele>57</ele>
        <time>2019-09-05T13:54:42Z</time>
      </trkpt>
      <trkpt lat="47.28476" lon="-2.38098">
        <ele>56</ele>
        <time>2019-09-05T13:54:43Z</time>
      </trkpt>
      <trkpt lat="47.28469" lon="-2.38101">
        <ele>56</ele>
        <time>2019-09-05T13:54:44Z</time>
      </trkpt>
      <trkpt lat="47.28464" lon="-2.38103">
        <ele>56</ele>
        <time>2019-09-05T13:54:45Z</time>
      </trkpt>
      <trkpt lat="47.28458" lon="-2.38106">
        <ele>56</ele>
        <time>2019-09-05T13:54:46Z</time>
      </trkpt>
      <trkpt lat="47.28453" lon="-2.38109">
        <ele>57</ele>
        <time>2019-09-05T13:54:47Z</time>
      </trkpt>
      <trkpt lat="47.28447" lon="-2.38112">
        <ele>57</ele>
        <time>2019-09-05T13:54:48Z</time>
      </trkpt>
      <trkpt lat="47.28441" lon="-2.38114">
        <ele>57</ele>
        <time>2019-09-05T13:54:49Z</time>
      </trkpt>
      <trkpt lat="47.28434" lon="-2.38115">
        <ele>57</ele>
        <time>2019-09-05T13:54:50Z</time>
      </trkpt>
      <trkpt lat="47.28428" lon="-2.38116">
        <ele>57</ele>
        <time>2019-09-05T13:54:51Z</time>
      </trkpt>
      <trkpt lat="47.28416" lon="-2.38114">
        <ele>57</ele>
        <time>2019-09-05T13:54:53Z</time>
      </trkpt>
      <trkpt lat="47.2841" lon="-2.38112">
        <ele>57</ele>
        <time>2019-09-05T13:54:54Z</time>
      </trkpt>
      <trkpt lat="47.28404" lon="-2.3811">
        <ele>57</ele>
        <time>2019-09-05T13:54:55Z</time>
      </trkpt>
      <trkpt lat="47.28398" lon="-2.3811">
        <ele>57</ele>
        <time>2019-09-05T13:54:56Z</time>
      </trkpt>
      <trkpt lat="47.28386" lon="-2.38106">
        <ele>57</ele>
        <time>2019-09-05T13:54:58Z</time>
      </trkpt>
      <trkpt lat="47.28381" lon="-2.38105">
        <ele>57</ele>
        <time>2019-09-05T13:54:59Z</time>
      </trkpt>
      <trkpt lat="47.28375" lon="-2.38103">
        <ele>57</ele>
        <time>2019-09-05T13:55:00Z</time>
      </trkpt>
      <trkpt lat="47.28369" lon="-2.381">
        <ele>57</ele>
        <time>2019-09-05T13:55:01Z</time>
      </trkpt>
      <trkpt lat="47.28357" lon="-2.3809">
        <ele>56</ele>
        <time>2019-09-05T13:55:03Z</time>
      </trkpt>
      <trkpt lat="47.28351" lon="-2.38083">
        <ele>56</ele>
        <time>2019-09-05T13:55:04Z</time>
      </trkpt>
      <trkpt lat="47.28346" lon="-2.38077">
        <ele>55</ele>
        <time>2019-09-05T13:55:05Z</time>
      </trkpt>
      <trkpt lat="47.28331" lon="-2.3806">
        <ele>56</ele>
        <time>2019-09-05T13:55:08Z</time>
      </trkpt>
      <trkpt lat="47.28325" lon="-2.38055">
        <ele>56</ele>
        <time>2019-09-05T13:55:09Z</time>
      </trkpt>
      <trkpt lat="47.2832" lon="-2.3805">
        <ele>56</ele>
        <time>2019-09-05T13:55:10Z</time>
      </trkpt>
      <trkpt lat="47.28315" lon="-2.38044">
        <ele>56</ele>
        <time>2019-09-05T13:55:11Z</time>
      </trkpt>
      <trkpt lat="47.2831" lon="-2.38039">
        <ele>56</ele>
        <time>2019-09-05T13:55:12Z</time>
      </trkpt>
      <trkpt lat="47.28304" lon="-2.38034">
        <ele>56</ele>
        <time>2019-09-05T13:55:13Z</time>
      </trkpt>
      <trkpt lat="47.28299" lon="-2.38029">
        <ele>56</ele>
        <time>2019-09-05T13:55:14Z</time>
      </trkpt>
      <trkpt lat="47.28292" lon="-2.38026">
        <ele>56</ele>
        <time>2019-09-05T13:55:15Z</time>
      </trkpt>
      <trkpt lat="47.28275" lon="-2.38016">
        <ele>56</ele>
        <time>2019-09-05T13:55:18Z</time>
      </trkpt>
      <trkpt lat="47.28264" lon="-2.38012">
        <ele>57</ele>
        <time>2019-09-05T13:55:20Z</time>
      </trkpt>
      <trkpt lat="47.28257" lon="-2.3801">
        <ele>57</ele>
        <time>2019-09-05T13:55:21Z</time>
      </trkpt>
      <trkpt lat="47.28251" lon="-2.3801">
        <ele>57</ele>
        <time>2019-09-05T13:55:22Z</time>
      </trkpt>
      <trkpt lat="47.28238" lon="-2.38012">
        <ele>56</ele>
        <time>2019-09-05T13:55:24Z</time>
      </trkpt>
      <trkpt lat="47.28232" lon="-2.38015">
        <ele>56</ele>
        <time>2019-09-05T13:55:25Z</time>
      </trkpt>
      <trkpt lat="47.28226" lon="-2.38016">
        <ele>56</ele>
        <time>2019-09-05T13:55:26Z</time>
      </trkpt>
      <trkpt lat="47.28221" lon="-2.38017">
        <ele>56</ele>
        <time>2019-09-05T13:55:27Z</time>
      </trkpt>
      <trkpt lat="47.28215" lon="-2.38018">
        <ele>57</ele>
        <time>2019-09-05T13:55:28Z</time>
      </trkpt>
      <trkpt lat="47.2821" lon="-2.3802">
        <ele>57</ele>
        <time>2019-09-05T13:55:29Z</time>
      </trkpt>
      <trkpt lat="47.28205" lon="-2.38022">
        <ele>57</ele>
        <time>2019-09-05T13:55:30Z</time>
      </trkpt>
      <trkpt lat="47.28189" lon="-2.38027">
        <ele>57</ele>
        <time>2019-09-05T13:55:33Z</time>
      </trkpt>
      <trkpt lat="47.28183" lon="-2.38029">
        <ele>57</ele>
        <time>2019-09-05T13:55:34Z</time>
      </trkpt>
      <trkpt lat="47.28178" lon="-2.38032">
        <ele>58</ele>
        <time>2019-09-05T13:55:35Z</time>
      </trkpt>
      <trkpt lat="47.28172" lon="-2.38034">
        <ele>58</ele>
        <time>2019-09-05T13:55:36Z</time>
      </trkpt>
      <trkpt lat="47.28167" lon="-2.38036">
        <ele>58</ele>
        <time>2019-09-05T13:55:37Z</time>
      </trkpt>
      <trkpt lat="47.28161" lon="-2.38039">
        <ele>58</ele>
        <time>2019-09-05T13:55:38Z</time>
      </trkpt>
      <trkpt lat="47.28156" lon="-2.38041">
        <ele>58</ele>
        <time>2019-09-05T13:55:39Z</time>
      </trkpt>
      <trkpt lat="47.28145" lon="-2.38045">
        <ele>58</ele>
        <time>2019-09-05T13:55:41Z</time>
      </trkpt>
      <trkpt lat="47.28139" lon="-2.38049">
        <ele>58</ele>
        <time>2019-09-05T13:55:42Z</time>
      </trkpt>
      <trkpt lat="47.28133" lon="-2.38052">
        <ele>58</ele>
        <time>2019-09-05T13:55:43Z</time>
      </trkpt>
      <trkpt lat="47.28127" lon="-2.38054">
        <ele>58</ele>
        <time>2019-09-05T13:55:44Z</time>
      </trkpt>
      <trkpt lat="47.28122" lon="-2.38057">
        <ele>57</ele>
        <time>2019-09-05T13:55:45Z</time>
      </trkpt>
      <trkpt lat="47.28116" lon="-2.3806">
        <ele>58</ele>
        <time>2019-09-05T13:55:46Z</time>
      </trkpt>
      <trkpt lat="47.28105" lon="-2.38066">
        <ele>57</ele>
        <time>2019-09-05T13:55:48Z</time>
      </trkpt>
      <trkpt lat="47.28099" lon="-2.38069">
        <ele>57</ele>
        <time>2019-09-05T13:55:49Z</time>
      </trkpt>
      <trkpt lat="47.28093" lon="-2.38071">
        <ele>57</ele>
        <time>2019-09-05T13:55:50Z</time>
      </trkpt>
      <trkpt lat="47.28081" lon="-2.38076">
        <ele>57</ele>
        <time>2019-09-05T13:55:52Z</time>
      </trkpt>
      <trkpt lat="47.28076" lon="-2.38079">
        <ele>57</ele>
        <time>2019-09-05T13:55:53Z</time>
      </trkpt>
      <trkpt lat="47.28071" lon="-2.38082">
        <ele>57</ele>
        <time>2019-09-05T13:55:54Z</time>
      </trkpt>
      <trkpt lat="47.28065" lon="-2.38084">
        <ele>57</ele>
        <time>2019-09-05T13:55:55Z</time>
      </trkpt>
      <trkpt lat="47.2806" lon="-2.38085">
        <ele>58</ele>
        <time>2019-09-05T13:55:56Z</time>
      </trkpt>
      <trkpt lat="47.28055" lon="-2.38087">
        <ele>58</ele>
        <time>2019-09-05T13:55:57Z</time>
      </trkpt>
      <trkpt lat="47.2805" lon="-2.38089">
        <ele>58</ele>
        <time>2019-09-05T13:55:58Z</time>
      </trkpt>
      <trkpt lat="47.28041" lon="-2.38093">
        <ele>58</ele>
        <time>2019-09-05T13:56:00Z</time>
      </trkpt>
      <trkpt lat="47.28035" lon="-2.38096">
        <ele>59</ele>
        <time>2019-09-05T13:56:02Z</time>
      </trkpt>
      <trkpt lat="47.28033" lon="-2.38098">
        <ele>59</ele>
        <time>2019-09-05T13:56:03Z</time>
      </trkpt>
      <trkpt lat="47.2803" lon="-2.38099">
        <ele>59</ele>
        <time>2019-09-05T13:56:04Z</time>
      </trkpt>
      <trkpt lat="47.28022" lon="-2.38098">
        <ele>59</ele>
        <time>2019-09-05T13:56:07Z</time>
      </trkpt>
      <trkpt lat="47.28016" lon="-2.38087">
        <ele>59</ele>
        <time>2019-09-05T13:56:10Z</time>
      </trkpt>
      <trkpt lat="47.28014" lon="-2.38075">
        <ele>59</ele>
        <time>2019-09-05T13:56:12Z</time>
      </trkpt>
      <trkpt lat="47.28013" lon="-2.38068">
        <ele>59</ele>
        <time>2019-09-05T13:56:13Z</time>
      </trkpt>
      <trkpt lat="47.28012" lon="-2.3806">
        <ele>59</ele>
        <time>2019-09-05T13:56:14Z</time>
      </trkpt>
      <trkpt lat="47.28011" lon="-2.38053">
        <ele>59</ele>
        <time>2019-09-05T13:56:15Z</time>
      </trkpt>
      <trkpt lat="47.2801" lon="-2.38045">
        <ele>59</ele>
        <time>2019-09-05T13:56:16Z</time>
      </trkpt>
      <trkpt lat="47.28009" lon="-2.38038">
        <ele>58</ele>
        <time>2019-09-05T13:56:17Z</time>
      </trkpt>
      <trkpt lat="47.28008" lon="-2.3803">
        <ele>58</ele>
        <time>2019-09-05T13:56:18Z</time>
      </trkpt>
      <trkpt lat="47.28007" lon="-2.38022">
        <ele>59</ele>
        <time>2019-09-05T13:56:19Z</time>
      </trkpt>
      <trkpt lat="47.28005" lon="-2.38014">
        <ele>59</ele>
        <time>2019-09-05T13:56:20Z</time>
      </trkpt>
      <trkpt lat="47.28003" lon="-2.38005">
        <ele>59</ele>
        <time>2019-09-05T13:56:21Z</time>
      </trkpt>
      <trkpt lat="47.28001" lon="-2.37997">
        <ele>59</ele>
        <time>2019-09-05T13:56:22Z</time>
      </trkpt>
      <trkpt lat="47.28" lon="-2.37989">
        <ele>59</ele>
        <time>2019-09-05T13:56:23Z</time>
      </trkpt>
      <trkpt lat="47.27998" lon="-2.37981">
        <ele>59</ele>
        <time>2019-09-05T13:56:24Z</time>
      </trkpt>
      <trkpt lat="47.27997" lon="-2.37973">
        <ele>59</ele>
        <time>2019-09-05T13:56:25Z</time>
      </trkpt>
      <trkpt lat="47.27994" lon="-2.37957">
        <ele>59</ele>
        <time>2019-09-05T13:56:27Z</time>
      </trkpt>
      <trkpt lat="47.27992" lon="-2.3795">
        <ele>58</ele>
        <time>2019-09-05T13:56:28Z</time>
      </trkpt>
      <trkpt lat="47.27991" lon="-2.37942">
        <ele>58</ele>
        <time>2019-09-05T13:56:29Z</time>
      </trkpt>
      <trkpt lat="47.2799" lon="-2.37935">
        <ele>58</ele>
        <time>2019-09-05T13:56:30Z</time>
      </trkpt>
      <trkpt lat="47.27989" lon="-2.37927">
        <ele>58</ele>
        <time>2019-09-05T13:56:31Z</time>
      </trkpt>
      <trkpt lat="47.27988" lon="-2.37919">
        <ele>58</ele>
        <time>2019-09-05T13:56:32Z</time>
      </trkpt>
      <trkpt lat="47.27986" lon="-2.37911">
        <ele>58</ele>
        <time>2019-09-05T13:56:33Z</time>
      </trkpt>
      <trkpt lat="47.27985" lon="-2.37903">
        <ele>58</ele>
        <time>2019-09-05T13:56:34Z</time>
      </trkpt>
      <trkpt lat="47.27983" lon="-2.37895">
        <ele>59</ele>
        <time>2019-09-05T13:56:35Z</time>
      </trkpt>
      <trkpt lat="47.2798" lon="-2.37878">
        <ele>59</ele>
        <time>2019-09-05T13:56:37Z</time>
      </trkpt>
      <trkpt lat="47.27979" lon="-2.37868">
        <ele>59</ele>
        <time>2019-09-05T13:56:38Z</time>
      </trkpt>
      <trkpt lat="47.27977" lon="-2.37858">
        <ele>60</ele>
        <time>2019-09-05T13:56:39Z</time>
      </trkpt>
      <trkpt lat="47.27975" lon="-2.37848">
        <ele>60</ele>
        <time>2019-09-05T13:56:40Z</time>
      </trkpt>
      <trkpt lat="47.27974" lon="-2.37839">
        <ele>60</ele>
        <time>2019-09-05T13:56:41Z</time>
      </trkpt>
      <trkpt lat="47.27973" lon="-2.37829">
        <ele>60</ele>
        <time>2019-09-05T13:56:42Z</time>
      </trkpt>
      <trkpt lat="47.27968" lon="-2.37811">
        <ele>60</ele>
        <time>2019-09-05T13:56:44Z</time>
      </trkpt>
      <trkpt lat="47.27965" lon="-2.37801">
        <ele>60</ele>
        <time>2019-09-05T13:56:45Z</time>
      </trkpt>
      <trkpt lat="47.27964" lon="-2.37792">
        <ele>60</ele>
        <time>2019-09-05T13:56:46Z</time>
      </trkpt>
      <trkpt lat="47.27962" lon="-2.37782">
        <ele>60</ele>
        <time>2019-09-05T13:56:47Z</time>
      </trkpt>
      <trkpt lat="47.27959" lon="-2.37774">
        <ele>60</ele>
        <time>2019-09-05T13:56:48Z</time>
      </trkpt>
      <trkpt lat="47.27956" lon="-2.37765">
        <ele>60</ele>
        <time>2019-09-05T13:56:49Z</time>
      </trkpt>
      <trkpt lat="47.27954" lon="-2.37757">
        <ele>60</ele>
        <time>2019-09-05T13:56:50Z</time>
      </trkpt>
      <trkpt lat="47.27952" lon="-2.37749">
        <ele>59</ele>
        <time>2019-09-05T13:56:51Z</time>
      </trkpt>
      <trkpt lat="47.2795" lon="-2.3774">
        <ele>59</ele>
        <time>2019-09-05T13:56:52Z</time>
      </trkpt>
      <trkpt lat="47.27948" lon="-2.37731">
        <ele>58</ele>
        <time>2019-09-05T13:56:53Z</time>
      </trkpt>
      <trkpt lat="47.27941" lon="-2.37707">
        <ele>59</ele>
        <time>2019-09-05T13:56:56Z</time>
      </trkpt>
      <trkpt lat="47.27939" lon="-2.37699">
        <ele>59</ele>
        <time>2019-09-05T13:56:57Z</time>
      </trkpt>
      <trkpt lat="47.27937" lon="-2.3769">
        <ele>59</ele>
        <time>2019-09-05T13:56:58Z</time>
      </trkpt>
      <trkpt lat="47.27935" lon="-2.37681">
        <ele>59</ele>
        <time>2019-09-05T13:56:59Z</time>
      </trkpt>
      <trkpt lat="47.27933" lon="-2.37673">
        <ele>59</ele>
        <time>2019-09-05T13:57:00Z</time>
      </trkpt>
      <trkpt lat="47.27927" lon="-2.37647">
        <ele>58</ele>
        <time>2019-09-05T13:57:03Z</time>
      </trkpt>
      <trkpt lat="47.27926" lon="-2.37639">
        <ele>57</ele>
        <time>2019-09-05T13:57:04Z</time>
      </trkpt>
      <trkpt lat="47.2792" lon="-2.37613">
        <ele>57</ele>
        <time>2019-09-05T13:57:07Z</time>
      </trkpt>
      <trkpt lat="47.27918" lon="-2.37605">
        <ele>57</ele>
        <time>2019-09-05T13:57:08Z</time>
      </trkpt>
      <trkpt lat="47.27916" lon="-2.37597">
        <ele>57</ele>
        <time>2019-09-05T13:57:09Z</time>
      </trkpt>
      <trkpt lat="47.27914" lon="-2.37588">
        <ele>57</ele>
        <time>2019-09-05T13:57:10Z</time>
      </trkpt>
      <trkpt lat="47.27911" lon="-2.37571">
        <ele>57</ele>
        <time>2019-09-05T13:57:12Z</time>
      </trkpt>
      <trkpt lat="47.27906" lon="-2.37547">
        <ele>57</ele>
        <time>2019-09-05T13:57:15Z</time>
      </trkpt>
      <trkpt lat="47.27904" lon="-2.37538">
        <ele>58</ele>
        <time>2019-09-05T13:57:16Z</time>
      </trkpt>
      <trkpt lat="47.27902" lon="-2.3753">
        <ele>58</ele>
        <time>2019-09-05T13:57:17Z</time>
      </trkpt>
      <trkpt lat="47.279" lon="-2.37521">
        <ele>58</ele>
        <time>2019-09-05T13:57:18Z</time>
      </trkpt>
      <trkpt lat="47.27898" lon="-2.37513">
        <ele>58</ele>
        <time>2019-09-05T13:57:19Z</time>
      </trkpt>
      <trkpt lat="47.27897" lon="-2.37504">
        <ele>57</ele>
        <time>2019-09-05T13:57:20Z</time>
      </trkpt>
      <trkpt lat="47.27894" lon="-2.37496">
        <ele>58</ele>
        <time>2019-09-05T13:57:21Z</time>
      </trkpt>
      <trkpt lat="47.27892" lon="-2.37488">
        <ele>58</ele>
        <time>2019-09-05T13:57:22Z</time>
      </trkpt>
      <trkpt lat="47.27891" lon="-2.3748">
        <ele>57</ele>
        <time>2019-09-05T13:57:23Z</time>
      </trkpt>
      <trkpt lat="47.27889" lon="-2.37471">
        <ele>57</ele>
        <time>2019-09-05T13:57:24Z</time>
      </trkpt>
      <trkpt lat="47.27887" lon="-2.37463">
        <ele>57</ele>
        <time>2019-09-05T13:57:25Z</time>
      </trkpt>
      <trkpt lat="47.27885" lon="-2.37455">
        <ele>57</ele>
        <time>2019-09-05T13:57:26Z</time>
      </trkpt>
      <trkpt lat="47.27883" lon="-2.37446">
        <ele>57</ele>
        <time>2019-09-05T13:57:27Z</time>
      </trkpt>
      <trkpt lat="47.27881" lon="-2.37438">
        <ele>57</ele>
        <time>2019-09-05T13:57:28Z</time>
      </trkpt>
      <trkpt lat="47.27879" lon="-2.3743">
        <ele>57</ele>
        <time>2019-09-05T13:57:29Z</time>
      </trkpt>
      <trkpt lat="47.27877" lon="-2.37421">
        <ele>57</ele>
        <time>2019-09-05T13:57:30Z</time>
      </trkpt>
      <trkpt lat="47.27875" lon="-2.37413">
        <ele>57</ele>
        <time>2019-09-05T13:57:31Z</time>
      </trkpt>
      <trkpt lat="47.27873" lon="-2.37404">
        <ele>56</ele>
        <time>2019-09-05T13:57:32Z</time>
      </trkpt>
      <trkpt lat="47.27871" lon="-2.37396">
        <ele>56</ele>
        <time>2019-09-05T13:57:33Z</time>
      </trkpt>
      <trkpt lat="47.27869" lon="-2.37388">
        <ele>56</ele>
        <time>2019-09-05T13:57:34Z</time>
      </trkpt>
      <trkpt lat="47.27867" lon="-2.37379">
        <ele>56</ele>
        <time>2019-09-05T13:57:35Z</time>
      </trkpt>
      <trkpt lat="47.27865" lon="-2.37371">
        <ele>56</ele>
        <time>2019-09-05T13:57:36Z</time>
      </trkpt>
      <trkpt lat="47.27863" lon="-2.37362">
        <ele>56</ele>
        <time>2019-09-05T13:57:37Z</time>
      </trkpt>
      <trkpt lat="47.2786" lon="-2.37354">
        <ele>56</ele>
        <time>2019-09-05T13:57:38Z</time>
      </trkpt>
      <trkpt lat="47.27857" lon="-2.37346">
        <ele>56</ele>
        <time>2019-09-05T13:57:39Z</time>
      </trkpt>
      <trkpt lat="47.27854" lon="-2.37338">
        <ele>56</ele>
        <time>2019-09-05T13:57:40Z</time>
      </trkpt>
      <trkpt lat="47.27852" lon="-2.37329">
        <ele>57</ele>
        <time>2019-09-05T13:57:41Z</time>
      </trkpt>
      <trkpt lat="47.2785" lon="-2.37321">
        <ele>56</ele>
        <time>2019-09-05T13:57:42Z</time>
      </trkpt>
      <trkpt lat="47.27848" lon="-2.37312">
        <ele>57</ele>
        <time>2019-09-05T13:57:43Z</time>
      </trkpt>
      <trkpt lat="47.27846" lon="-2.37304">
        <ele>57</ele>
        <time>2019-09-05T13:57:44Z</time>
      </trkpt>
      <trkpt lat="47.27844" lon="-2.37296">
        <ele>57</ele>
        <time>2019-09-05T13:57:45Z</time>
      </trkpt>
      <trkpt lat="47.27841" lon="-2.37288">
        <ele>57</ele>
        <time>2019-09-05T13:57:46Z</time>
      </trkpt>
      <trkpt lat="47.27839" lon="-2.3728">
        <ele>57</ele>
        <time>2019-09-05T13:57:47Z</time>
      </trkpt>
      <trkpt lat="47.27837" lon="-2.37272">
        <ele>57</ele>
        <time>2019-09-05T13:57:48Z</time>
      </trkpt>
      <trkpt lat="47.27834" lon="-2.37264">
        <ele>57</ele>
        <time>2019-09-05T13:57:49Z</time>
      </trkpt>
      <trkpt lat="47.27832" lon="-2.37255">
        <ele>57</ele>
        <time>2019-09-05T13:57:50Z</time>
      </trkpt>
      <trkpt lat="47.2783" lon="-2.37247">
        <ele>57</ele>
        <time>2019-09-05T13:57:51Z</time>
      </trkpt>
      <trkpt lat="47.27828" lon="-2.37238">
        <ele>57</ele>
        <time>2019-09-05T13:57:52Z</time>
      </trkpt>
      <trkpt lat="47.27826" lon="-2.3723">
        <ele>57</ele>
        <time>2019-09-05T13:57:53Z</time>
      </trkpt>
      <trkpt lat="47.27825" lon="-2.37222">
        <ele>57</ele>
        <time>2019-09-05T13:57:54Z</time>
      </trkpt>
      <trkpt lat="47.27823" lon="-2.37214">
        <ele>57</ele>
        <time>2019-09-05T13:57:55Z</time>
      </trkpt>
      <trkpt lat="47.27821" lon="-2.37207">
        <ele>57</ele>
        <time>2019-09-05T13:57:56Z</time>
      </trkpt>
      <trkpt lat="47.27818" lon="-2.372">
        <ele>57</ele>
        <time>2019-09-05T13:57:57Z</time>
      </trkpt>
      <trkpt lat="47.27816" lon="-2.37192">
        <ele>57</ele>
        <time>2019-09-05T13:57:58Z</time>
      </trkpt>
      <trkpt lat="47.27814" lon="-2.37183">
        <ele>57</ele>
        <time>2019-09-05T13:57:59Z</time>
      </trkpt>
      <trkpt lat="47.27813" lon="-2.37175">
        <ele>57</ele>
        <time>2019-09-05T13:58:00Z</time>
      </trkpt>
      <trkpt lat="47.27811" lon="-2.37167">
        <ele>57</ele>
        <time>2019-09-05T13:58:01Z</time>
      </trkpt>
      <trkpt lat="47.27808" lon="-2.37159">
        <ele>57</ele>
        <time>2019-09-05T13:58:02Z</time>
      </trkpt>
      <trkpt lat="47.27806" lon="-2.37151">
        <ele>57</ele>
        <time>2019-09-05T13:58:03Z</time>
      </trkpt>
      <trkpt lat="47.27803" lon="-2.37142">
        <ele>57</ele>
        <time>2019-09-05T13:58:04Z</time>
      </trkpt>
      <trkpt lat="47.27801" lon="-2.37134">
        <ele>57</ele>
        <time>2019-09-05T13:58:05Z</time>
      </trkpt>
      <trkpt lat="47.27799" lon="-2.37125">
        <ele>57</ele>
        <time>2019-09-05T13:58:06Z</time>
      </trkpt>
      <trkpt lat="47.27796" lon="-2.37117">
        <ele>57</ele>
        <time>2019-09-05T13:58:07Z</time>
      </trkpt>
      <trkpt lat="47.27794" lon="-2.37108">
        <ele>57</ele>
        <time>2019-09-05T13:58:08Z</time>
      </trkpt>
      <trkpt lat="47.27792" lon="-2.371">
        <ele>57</ele>
        <time>2019-09-05T13:58:09Z</time>
      </trkpt>
      <trkpt lat="47.27789" lon="-2.37092">
        <ele>57</ele>
        <time>2019-09-05T13:58:10Z</time>
      </trkpt>
      <trkpt lat="47.27786" lon="-2.37083">
        <ele>57</ele>
        <time>2019-09-05T13:58:11Z</time>
      </trkpt>
      <trkpt lat="47.27783" lon="-2.37075">
        <ele>56</ele>
        <time>2019-09-05T13:58:12Z</time>
      </trkpt>
      <trkpt lat="47.27781" lon="-2.37066">
        <ele>57</ele>
        <time>2019-09-05T13:58:13Z</time>
      </trkpt>
      <trkpt lat="47.27778" lon="-2.37058">
        <ele>57</ele>
        <time>2019-09-05T13:58:14Z</time>
      </trkpt>
      <trkpt lat="47.27776" lon="-2.37049">
        <ele>56</ele>
        <time>2019-09-05T13:58:15Z</time>
      </trkpt>
      <trkpt lat="47.27774" lon="-2.3704">
        <ele>56</ele>
        <time>2019-09-05T13:58:16Z</time>
      </trkpt>
      <trkpt lat="47.27772" lon="-2.37032">
        <ele>56</ele>
        <time>2019-09-05T13:58:17Z</time>
      </trkpt>
      <trkpt lat="47.2777" lon="-2.37023">
        <ele>56</ele>
        <time>2019-09-05T13:58:18Z</time>
      </trkpt>
      <trkpt lat="47.27766" lon="-2.37007">
        <ele>56</ele>
        <time>2019-09-05T13:58:20Z</time>
      </trkpt>
      <trkpt lat="47.27763" lon="-2.36999">
        <ele>56</ele>
        <time>2019-09-05T13:58:21Z</time>
      </trkpt>
      <trkpt lat="47.27761" lon="-2.3699">
        <ele>56</ele>
        <time>2019-09-05T13:58:22Z</time>
      </trkpt>
      <trkpt lat="47.27759" lon="-2.36982">
        <ele>56</ele>
        <time>2019-09-05T13:58:23Z</time>
      </trkpt>
      <trkpt lat="47.27755" lon="-2.36965">
        <ele>56</ele>
        <time>2019-09-05T13:58:25Z</time>
      </trkpt>
      <trkpt lat="47.27753" lon="-2.36956">
        <ele>57</ele>
        <time>2019-09-05T13:58:26Z</time>
      </trkpt>
      <trkpt lat="47.2775" lon="-2.36948">
        <ele>57</ele>
        <time>2019-09-05T13:58:27Z</time>
      </trkpt>
      <trkpt lat="47.27748" lon="-2.36939">
        <ele>57</ele>
        <time>2019-09-05T13:58:28Z</time>
      </trkpt>
      <trkpt lat="47.27742" lon="-2.36922">
        <ele>56</ele>
        <time>2019-09-05T13:58:30Z</time>
      </trkpt>
      <trkpt lat="47.2774" lon="-2.36913">
        <ele>56</ele>
        <time>2019-09-05T13:58:31Z</time>
      </trkpt>
      <trkpt lat="47.27737" lon="-2.36904">
        <ele>56</ele>
        <time>2019-09-05T13:58:32Z</time>
      </trkpt>
      <trkpt lat="47.27735" lon="-2.36895">
        <ele>56</ele>
        <time>2019-09-05T13:58:33Z</time>
      </trkpt>
      <trkpt lat="47.27732" lon="-2.36887">
        <ele>56</ele>
        <time>2019-09-05T13:58:34Z</time>
      </trkpt>
      <trkpt lat="47.2773" lon="-2.36878">
        <ele>57</ele>
        <time>2019-09-05T13:58:35Z</time>
      </trkpt>
      <trkpt lat="47.27725" lon="-2.36861">
        <ele>57</ele>
        <time>2019-09-05T13:58:37Z</time>
      </trkpt>
      <trkpt lat="47.27719" lon="-2.36844">
        <ele>58</ele>
        <time>2019-09-05T13:58:39Z</time>
      </trkpt>
      <trkpt lat="47.27717" lon="-2.36835">
        <ele>58</ele>
        <time>2019-09-05T13:58:40Z</time>
      </trkpt>
      <trkpt lat="47.27709" lon="-2.3681">
        <ele>57</ele>
        <time>2019-09-05T13:58:43Z</time>
      </trkpt>
      <trkpt lat="47.27707" lon="-2.36802">
        <ele>57</ele>
        <time>2019-09-05T13:58:44Z</time>
      </trkpt>
      <trkpt lat="47.27697" lon="-2.36769">
        <ele>57</ele>
        <time>2019-09-05T13:58:48Z</time>
      </trkpt>
      <trkpt lat="47.27693" lon="-2.36761">
        <ele>57</ele>
        <time>2019-09-05T13:58:49Z</time>
      </trkpt>
      <trkpt lat="47.27688" lon="-2.36745">
        <ele>57</ele>
        <time>2019-09-05T13:58:51Z</time>
      </trkpt>
      <trkpt lat="47.27685" lon="-2.36737">
        <ele>57</ele>
        <time>2019-09-05T13:58:52Z</time>
      </trkpt>
      <trkpt lat="47.27682" lon="-2.36728">
        <ele>57</ele>
        <time>2019-09-05T13:58:53Z</time>
      </trkpt>
      <trkpt lat="47.2768" lon="-2.3672">
        <ele>57</ele>
        <time>2019-09-05T13:58:54Z</time>
      </trkpt>
      <trkpt lat="47.27677" lon="-2.36712">
        <ele>57</ele>
        <time>2019-09-05T13:58:55Z</time>
      </trkpt>
      <trkpt lat="47.27674" lon="-2.36704">
        <ele>57</ele>
        <time>2019-09-05T13:58:56Z</time>
      </trkpt>
      <trkpt lat="47.27672" lon="-2.36695">
        <ele>56</ele>
        <time>2019-09-05T13:58:57Z</time>
      </trkpt>
      <trkpt lat="47.27669" lon="-2.36686">
        <ele>56</ele>
        <time>2019-09-05T13:58:58Z</time>
      </trkpt>
      <trkpt lat="47.27666" lon="-2.36678">
        <ele>56</ele>
        <time>2019-09-05T13:58:59Z</time>
      </trkpt>
      <trkpt lat="47.27663" lon="-2.3667">
        <ele>56</ele>
        <time>2019-09-05T13:59:00Z</time>
      </trkpt>
      <trkpt lat="47.2766" lon="-2.36662">
        <ele>57</ele>
        <time>2019-09-05T13:59:01Z</time>
      </trkpt>
      <trkpt lat="47.27654" lon="-2.36645">
        <ele>56</ele>
        <time>2019-09-05T13:59:03Z</time>
      </trkpt>
      <trkpt lat="47.27651" lon="-2.36637">
        <ele>56</ele>
        <time>2019-09-05T13:59:04Z</time>
      </trkpt>
      <trkpt lat="47.27646" lon="-2.3662">
        <ele>57</ele>
        <time>2019-09-05T13:59:06Z</time>
      </trkpt>
      <trkpt lat="47.2764" lon="-2.36603">
        <ele>56</ele>
        <time>2019-09-05T13:59:08Z</time>
      </trkpt>
      <trkpt lat="47.27637" lon="-2.36594">
        <ele>56</ele>
        <time>2019-09-05T13:59:09Z</time>
      </trkpt>
      <trkpt lat="47.27634" lon="-2.36585">
        <ele>56</ele>
        <time>2019-09-05T13:59:10Z</time>
      </trkpt>
      <trkpt lat="47.27631" lon="-2.36577">
        <ele>56</ele>
        <time>2019-09-05T13:59:11Z</time>
      </trkpt>
      <trkpt lat="47.27623" lon="-2.36552">
        <ele>56</ele>
        <time>2019-09-05T13:59:14Z</time>
      </trkpt>
      <trkpt lat="47.2762" lon="-2.36543">
        <ele>56</ele>
        <time>2019-09-05T13:59:15Z</time>
      </trkpt>
      <trkpt lat="47.27617" lon="-2.36535">
        <ele>56</ele>
        <time>2019-09-05T13:59:16Z</time>
      </trkpt>
      <trkpt lat="47.27614" lon="-2.36527">
        <ele>57</ele>
        <time>2019-09-05T13:59:17Z</time>
      </trkpt>
      <trkpt lat="47.27611" lon="-2.36518">
        <ele>57</ele>
        <time>2019-09-05T13:59:18Z</time>
      </trkpt>
      <trkpt lat="47.27608" lon="-2.3651">
        <ele>57</ele>
        <time>2019-09-05T13:59:19Z</time>
      </trkpt>
      <trkpt lat="47.27605" lon="-2.36502">
        <ele>56</ele>
        <time>2019-09-05T13:59:20Z</time>
      </trkpt>
      <trkpt lat="47.27602" lon="-2.36493">
        <ele>56</ele>
        <time>2019-09-05T13:59:21Z</time>
      </trkpt>
      <trkpt lat="47.27599" lon="-2.36485">
        <ele>56</ele>
        <time>2019-09-05T13:59:22Z</time>
      </trkpt>
      <trkpt lat="47.27596" lon="-2.36476">
        <ele>57</ele>
        <time>2019-09-05T13:59:23Z</time>
      </trkpt>
      <trkpt lat="47.27593" lon="-2.36468">
        <ele>57</ele>
        <time>2019-09-05T13:59:24Z</time>
      </trkpt>
      <trkpt lat="47.27584" lon="-2.36443">
        <ele>57</ele>
        <time>2019-09-05T13:59:27Z</time>
      </trkpt>
      <trkpt lat="47.27581" lon="-2.36435">
        <ele>57</ele>
        <time>2019-09-05T13:59:28Z</time>
      </trkpt>
      <trkpt lat="47.27578" lon="-2.36426">
        <ele>57</ele>
        <time>2019-09-05T13:59:29Z</time>
      </trkpt>
      <trkpt lat="47.27575" lon="-2.36418">
        <ele>57</ele>
        <time>2019-09-05T13:59:30Z</time>
      </trkpt>
      <trkpt lat="47.27572" lon="-2.36409">
        <ele>57</ele>
        <time>2019-09-05T13:59:31Z</time>
      </trkpt>
      <trkpt lat="47.27568" lon="-2.36402">
        <ele>58</ele>
        <time>2019-09-05T13:59:32Z</time>
      </trkpt>
      <trkpt lat="47.27565" lon="-2.36393">
        <ele>58</ele>
        <time>2019-09-05T13:59:33Z</time>
      </trkpt>
      <trkpt lat="47.27562" lon="-2.36385">
        <ele>58</ele>
        <time>2019-09-05T13:59:34Z</time>
      </trkpt>
      <trkpt lat="47.27556" lon="-2.36369">
        <ele>57</ele>
        <time>2019-09-05T13:59:36Z</time>
      </trkpt>
      <trkpt lat="47.27553" lon="-2.36361">
        <ele>57</ele>
        <time>2019-09-05T13:59:37Z</time>
      </trkpt>
      <trkpt lat="47.27547" lon="-2.36343">
        <ele>57</ele>
        <time>2019-09-05T13:59:39Z</time>
      </trkpt>
      <trkpt lat="47.27544" lon="-2.36334">
        <ele>57</ele>
        <time>2019-09-05T13:59:40Z</time>
      </trkpt>
      <trkpt lat="47.27541" lon="-2.36327">
        <ele>57</ele>
        <time>2019-09-05T13:59:41Z</time>
      </trkpt>
      <trkpt lat="47.27537" lon="-2.36318">
        <ele>57</ele>
        <time>2019-09-05T13:59:42Z</time>
      </trkpt>
      <trkpt lat="47.27534" lon="-2.3631">
        <ele>57</ele>
        <time>2019-09-05T13:59:43Z</time>
      </trkpt>
      <trkpt lat="47.27531" lon="-2.36302">
        <ele>57</ele>
        <time>2019-09-05T13:59:44Z</time>
      </trkpt>
      <trkpt lat="47.27528" lon="-2.36294">
        <ele>57</ele>
        <time>2019-09-05T13:59:45Z</time>
      </trkpt>
      <trkpt lat="47.27519" lon="-2.3627">
        <ele>57</ele>
        <time>2019-09-05T13:59:48Z</time>
      </trkpt>
      <trkpt lat="47.27513" lon="-2.36254">
        <ele>57</ele>
        <time>2019-09-05T13:59:50Z</time>
      </trkpt>
      <trkpt lat="47.2751" lon="-2.36245">
        <ele>57</ele>
        <time>2019-09-05T13:59:51Z</time>
      </trkpt>
      <trkpt lat="47.27504" lon="-2.36229">
        <ele>57</ele>
        <time>2019-09-05T13:59:53Z</time>
      </trkpt>
      <trkpt lat="47.27497" lon="-2.36213">
        <ele>57</ele>
        <time>2019-09-05T13:59:55Z</time>
      </trkpt>
      <trkpt lat="47.27494" lon="-2.36205">
        <ele>57</ele>
        <time>2019-09-05T13:59:56Z</time>
      </trkpt>
      <trkpt lat="47.27491" lon="-2.36197">
        <ele>57</ele>
        <time>2019-09-05T13:59:57Z</time>
      </trkpt>
      <trkpt lat="47.27489" lon="-2.36189">
        <ele>57</ele>
        <time>2019-09-05T13:59:58Z</time>
      </trkpt>
      <trkpt lat="47.27486" lon="-2.36182">
        <ele>57</ele>
        <time>2019-09-05T13:59:59Z</time>
      </trkpt>
      <trkpt lat="47.27482" lon="-2.36174">
        <ele>57</ele>
        <time>2019-09-05T14:00:00Z</time>
      </trkpt>
      <trkpt lat="47.27479" lon="-2.36166">
        <ele>57</ele>
        <time>2019-09-05T14:00:01Z</time>
      </trkpt>
      <trkpt lat="47.27476" lon="-2.36158">
        <ele>57</ele>
        <time>2019-09-05T14:00:02Z</time>
      </trkpt>
      <trkpt lat="47.27473" lon="-2.3615">
        <ele>57</ele>
        <time>2019-09-05T14:00:03Z</time>
      </trkpt>
      <trkpt lat="47.2747" lon="-2.36143">
        <ele>57</ele>
        <time>2019-09-05T14:00:04Z</time>
      </trkpt>
      <trkpt lat="47.27467" lon="-2.36135">
        <ele>57</ele>
        <time>2019-09-05T14:00:05Z</time>
      </trkpt>
      <trkpt lat="47.27465" lon="-2.36126">
        <ele>57</ele>
        <time>2019-09-05T14:00:06Z</time>
      </trkpt>
      <trkpt lat="47.27462" lon="-2.36118">
        <ele>57</ele>
        <time>2019-09-05T14:00:07Z</time>
      </trkpt>
      <trkpt lat="47.27459" lon="-2.3611">
        <ele>57</ele>
        <time>2019-09-05T14:00:08Z</time>
      </trkpt>
      <trkpt lat="47.27455" lon="-2.36103">
        <ele>58</ele>
        <time>2019-09-05T14:00:09Z</time>
      </trkpt>
      <trkpt lat="47.27451" lon="-2.36095">
        <ele>58</ele>
        <time>2019-09-05T14:00:10Z</time>
      </trkpt>
      <trkpt lat="47.27447" lon="-2.36088">
        <ele>58</ele>
        <time>2019-09-05T14:00:11Z</time>
      </trkpt>
      <trkpt lat="47.27444" lon="-2.36081">
        <ele>58</ele>
        <time>2019-09-05T14:00:12Z</time>
      </trkpt>
      <trkpt lat="47.27442" lon="-2.36073">
        <ele>57</ele>
        <time>2019-09-05T14:00:13Z</time>
      </trkpt>
      <trkpt lat="47.2744" lon="-2.36064">
        <ele>57</ele>
        <time>2019-09-05T14:00:14Z</time>
      </trkpt>
      <trkpt lat="47.27434" lon="-2.36048">
        <ele>57</ele>
        <time>2019-09-05T14:00:16Z</time>
      </trkpt>
      <trkpt lat="47.27431" lon="-2.3604">
        <ele>57</ele>
        <time>2019-09-05T14:00:17Z</time>
      </trkpt>
      <trkpt lat="47.27427" lon="-2.36032">
        <ele>57</ele>
        <time>2019-09-05T14:00:18Z</time>
      </trkpt>
      <trkpt lat="47.27423" lon="-2.36024">
        <ele>57</ele>
        <time>2019-09-05T14:00:19Z</time>
      </trkpt>
      <trkpt lat="47.2742" lon="-2.36017">
        <ele>56</ele>
        <time>2019-09-05T14:00:20Z</time>
      </trkpt>
      <trkpt lat="47.27417" lon="-2.36008">
        <ele>56</ele>
        <time>2019-09-05T14:00:21Z</time>
      </trkpt>
      <trkpt lat="47.27413" lon="-2.36">
        <ele>56</ele>
        <time>2019-09-05T14:00:22Z</time>
      </trkpt>
      <trkpt lat="47.27409" lon="-2.35992">
        <ele>57</ele>
        <time>2019-09-05T14:00:23Z</time>
      </trkpt>
      <trkpt lat="47.27405" lon="-2.35984">
        <ele>57</ele>
        <time>2019-09-05T14:00:24Z</time>
      </trkpt>
      <trkpt lat="47.27395" lon="-2.35957">
        <ele>56</ele>
        <time>2019-09-05T14:00:27Z</time>
      </trkpt>
      <trkpt lat="47.27392" lon="-2.35949">
        <ele>57</ele>
        <time>2019-09-05T14:00:28Z</time>
      </trkpt>
      <trkpt lat="47.27389" lon="-2.3594">
        <ele>56</ele>
        <time>2019-09-05T14:00:29Z</time>
      </trkpt>
      <trkpt lat="47.27385" lon="-2.35931">
        <ele>56</ele>
        <time>2019-09-05T14:00:30Z</time>
      </trkpt>
      <trkpt lat="47.27382" lon="-2.35922">
        <ele>57</ele>
        <time>2019-09-05T14:00:31Z</time>
      </trkpt>
      <trkpt lat="47.27378" lon="-2.35914">
        <ele>57</ele>
        <time>2019-09-05T14:00:32Z</time>
      </trkpt>
      <trkpt lat="47.27375" lon="-2.35905">
        <ele>57</ele>
        <time>2019-09-05T14:00:33Z</time>
      </trkpt>
      <trkpt lat="47.2736" lon="-2.3587">
        <ele>56</ele>
        <time>2019-09-05T14:00:37Z</time>
      </trkpt>
      <trkpt lat="47.27357" lon="-2.3586">
        <ele>56</ele>
        <time>2019-09-05T14:00:38Z</time>
      </trkpt>
      <trkpt lat="47.27353" lon="-2.35851">
        <ele>57</ele>
        <time>2019-09-05T14:00:39Z</time>
      </trkpt>
      <trkpt lat="47.2735" lon="-2.35842">
        <ele>56</ele>
        <time>2019-09-05T14:00:40Z</time>
      </trkpt>
      <trkpt lat="47.27346" lon="-2.35833">
        <ele>56</ele>
        <time>2019-09-05T14:00:41Z</time>
      </trkpt>
      <trkpt lat="47.27342" lon="-2.35825">
        <ele>56</ele>
        <time>2019-09-05T14:00:42Z</time>
      </trkpt>
      <trkpt lat="47.27339" lon="-2.35816">
        <ele>56</ele>
        <time>2019-09-05T14:00:43Z</time>
      </trkpt>
      <trkpt lat="47.27335" lon="-2.35808">
        <ele>56</ele>
        <time>2019-09-05T14:00:44Z</time>
      </trkpt>
      <trkpt lat="47.27331" lon="-2.358">
        <ele>56</ele>
        <time>2019-09-05T14:00:45Z</time>
      </trkpt>
      <trkpt lat="47.27328" lon="-2.35792">
        <ele>56</ele>
        <time>2019-09-05T14:00:46Z</time>
      </trkpt>
      <trkpt lat="47.27326" lon="-2.35783">
        <ele>56</ele>
        <time>2019-09-05T14:00:47Z</time>
      </trkpt>
      <trkpt lat="47.27321" lon="-2.35765">
        <ele>56</ele>
        <time>2019-09-05T14:00:49Z</time>
      </trkpt>
      <trkpt lat="47.27318" lon="-2.35758">
        <ele>56</ele>
        <time>2019-09-05T14:00:50Z</time>
      </trkpt>
      <trkpt lat="47.27314" lon="-2.3575">
        <ele>55</ele>
        <time>2019-09-05T14:00:51Z</time>
      </trkpt>
      <trkpt lat="47.27303" lon="-2.35726">
        <ele>56</ele>
        <time>2019-09-05T14:00:54Z</time>
      </trkpt>
      <trkpt lat="47.27297" lon="-2.35709">
        <ele>56</ele>
        <time>2019-09-05T14:00:56Z</time>
      </trkpt>
      <trkpt lat="47.27294" lon="-2.35701">
        <ele>56</ele>
        <time>2019-09-05T14:00:57Z</time>
      </trkpt>
      <trkpt lat="47.2729" lon="-2.35694">
        <ele>56</ele>
        <time>2019-09-05T14:00:58Z</time>
      </trkpt>
      <trkpt lat="47.27286" lon="-2.35687">
        <ele>56</ele>
        <time>2019-09-05T14:00:59Z</time>
      </trkpt>
      <trkpt lat="47.27282" lon="-2.35679">
        <ele>56</ele>
        <time>2019-09-05T14:01:00Z</time>
      </trkpt>
      <trkpt lat="47.27278" lon="-2.35671">
        <ele>56</ele>
        <time>2019-09-05T14:01:01Z</time>
      </trkpt>
      <trkpt lat="47.27275" lon="-2.35663">
        <ele>57</ele>
        <time>2019-09-05T14:01:02Z</time>
      </trkpt>
      <trkpt lat="47.27272" lon="-2.35655">
        <ele>56</ele>
        <time>2019-09-05T14:01:03Z</time>
      </trkpt>
      <trkpt lat="47.27269" lon="-2.35646">
        <ele>56</ele>
        <time>2019-09-05T14:01:04Z</time>
      </trkpt>
      <trkpt lat="47.27265" lon="-2.35638">
        <ele>57</ele>
        <time>2019-09-05T14:01:05Z</time>
      </trkpt>
      <trkpt lat="47.27262" lon="-2.3563">
        <ele>57</ele>
        <time>2019-09-05T14:01:06Z</time>
      </trkpt>
      <trkpt lat="47.27259" lon="-2.35621">
        <ele>57</ele>
        <time>2019-09-05T14:01:07Z</time>
      </trkpt>
      <trkpt lat="47.27256" lon="-2.35613">
        <ele>57</ele>
        <time>2019-09-05T14:01:08Z</time>
      </trkpt>
      <trkpt lat="47.27249" lon="-2.35597">
        <ele>57</ele>
        <time>2019-09-05T14:01:10Z</time>
      </trkpt>
      <trkpt lat="47.27245" lon="-2.3559">
        <ele>57</ele>
        <time>2019-09-05T14:01:11Z</time>
      </trkpt>
      <trkpt lat="47.27238" lon="-2.35573">
        <ele>57</ele>
        <time>2019-09-05T14:01:13Z</time>
      </trkpt>
      <trkpt lat="47.27234" lon="-2.35565">
        <ele>57</ele>
        <time>2019-09-05T14:01:14Z</time>
      </trkpt>
      <trkpt lat="47.27231" lon="-2.35557">
        <ele>57</ele>
        <time>2019-09-05T14:01:15Z</time>
      </trkpt>
      <trkpt lat="47.27227" lon="-2.35549">
        <ele>57</ele>
        <time>2019-09-05T14:01:16Z</time>
      </trkpt>
      <trkpt lat="47.27223" lon="-2.35541">
        <ele>57</ele>
        <time>2019-09-05T14:01:17Z</time>
      </trkpt>
      <trkpt lat="47.27219" lon="-2.35533">
        <ele>57</ele>
        <time>2019-09-05T14:01:18Z</time>
      </trkpt>
      <trkpt lat="47.27208" lon="-2.3551">
        <ele>57</ele>
        <time>2019-09-05T14:01:21Z</time>
      </trkpt>
      <trkpt lat="47.27204" lon="-2.35502">
        <ele>57</ele>
        <time>2019-09-05T14:01:22Z</time>
      </trkpt>
      <trkpt lat="47.272" lon="-2.35495">
        <ele>57</ele>
        <time>2019-09-05T14:01:23Z</time>
      </trkpt>
      <trkpt lat="47.27196" lon="-2.35487">
        <ele>57</ele>
        <time>2019-09-05T14:01:24Z</time>
      </trkpt>
      <trkpt lat="47.27192" lon="-2.35479">
        <ele>57</ele>
        <time>2019-09-05T14:01:25Z</time>
      </trkpt>
      <trkpt lat="47.2718" lon="-2.35455">
        <ele>56</ele>
        <time>2019-09-05T14:01:28Z</time>
      </trkpt>
      <trkpt lat="47.27176" lon="-2.35447">
        <ele>56</ele>
        <time>2019-09-05T14:01:29Z</time>
      </trkpt>
      <trkpt lat="47.27171" lon="-2.35439">
        <ele>56</ele>
        <time>2019-09-05T14:01:30Z</time>
      </trkpt>
      <trkpt lat="47.27163" lon="-2.35424">
        <ele>56</ele>
        <time>2019-09-05T14:01:32Z</time>
      </trkpt>
      <trkpt lat="47.27155" lon="-2.35409">
        <ele>56</ele>
        <time>2019-09-05T14:01:34Z</time>
      </trkpt>
      <trkpt lat="47.27141" lon="-2.35386">
        <ele>57</ele>
        <time>2019-09-05T14:01:37Z</time>
      </trkpt>
      <trkpt lat="47.27137" lon="-2.35378">
        <ele>57</ele>
        <time>2019-09-05T14:01:38Z</time>
      </trkpt>
      <trkpt lat="47.27132" lon="-2.35371">
        <ele>57</ele>
        <time>2019-09-05T14:01:39Z</time>
      </trkpt>
      <trkpt lat="47.27128" lon="-2.35363">
        <ele>57</ele>
        <time>2019-09-05T14:01:40Z</time>
      </trkpt>
      <trkpt lat="47.27123" lon="-2.35356">
        <ele>57</ele>
        <time>2019-09-05T14:01:41Z</time>
      </trkpt>
      <trkpt lat="47.27119" lon="-2.35348">
        <ele>57</ele>
        <time>2019-09-05T14:01:42Z</time>
      </trkpt>
      <trkpt lat="47.27114" lon="-2.3534">
        <ele>57</ele>
        <time>2019-09-05T14:01:43Z</time>
      </trkpt>
      <trkpt lat="47.27109" lon="-2.35333">
        <ele>57</ele>
        <time>2019-09-05T14:01:44Z</time>
      </trkpt>
      <trkpt lat="47.27105" lon="-2.35325">
        <ele>57</ele>
        <time>2019-09-05T14:01:45Z</time>
      </trkpt>
      <trkpt lat="47.27091" lon="-2.35303">
        <ele>57</ele>
        <time>2019-09-05T14:01:48Z</time>
      </trkpt>
      <trkpt lat="47.27086" lon="-2.35295">
        <ele>57</ele>
        <time>2019-09-05T14:01:49Z</time>
      </trkpt>
      <trkpt lat="47.27077" lon="-2.3528">
        <ele>57</ele>
        <time>2019-09-05T14:01:51Z</time>
      </trkpt>
      <trkpt lat="47.27072" lon="-2.35273">
        <ele>57</ele>
        <time>2019-09-05T14:01:52Z</time>
      </trkpt>
      <trkpt lat="47.27049" lon="-2.35236">
        <ele>56</ele>
        <time>2019-09-05T14:01:57Z</time>
      </trkpt>
      <trkpt lat="47.27043" lon="-2.35228">
        <ele>56</ele>
        <time>2019-09-05T14:01:58Z</time>
      </trkpt>
      <trkpt lat="47.27038" lon="-2.35221">
        <ele>56</ele>
        <time>2019-09-05T14:01:59Z</time>
      </trkpt>
      <trkpt lat="47.27033" lon="-2.35214">
        <ele>56</ele>
        <time>2019-09-05T14:02:00Z</time>
      </trkpt>
      <trkpt lat="47.27028" lon="-2.35206">
        <ele>56</ele>
        <time>2019-09-05T14:02:01Z</time>
      </trkpt>
      <trkpt lat="47.27023" lon="-2.35198">
        <ele>56</ele>
        <time>2019-09-05T14:02:02Z</time>
      </trkpt>
      <trkpt lat="47.27018" lon="-2.35191">
        <ele>56</ele>
        <time>2019-09-05T14:02:03Z</time>
      </trkpt>
      <trkpt lat="47.27012" lon="-2.35183">
        <ele>56</ele>
        <time>2019-09-05T14:02:04Z</time>
      </trkpt>
      <trkpt lat="47.27008" lon="-2.35176">
        <ele>56</ele>
        <time>2019-09-05T14:02:05Z</time>
      </trkpt>
      <trkpt lat="47.27003" lon="-2.35168">
        <ele>57</ele>
        <time>2019-09-05T14:02:06Z</time>
      </trkpt>
      <trkpt lat="47.26998" lon="-2.35161">
        <ele>57</ele>
        <time>2019-09-05T14:02:07Z</time>
      </trkpt>
      <trkpt lat="47.26993" lon="-2.35153">
        <ele>57</ele>
        <time>2019-09-05T14:02:08Z</time>
      </trkpt>
      <trkpt lat="47.26988" lon="-2.35145">
        <ele>57</ele>
        <time>2019-09-05T14:02:09Z</time>
      </trkpt>
      <trkpt lat="47.26983" lon="-2.35138">
        <ele>57</ele>
        <time>2019-09-05T14:02:10Z</time>
      </trkpt>
      <trkpt lat="47.26978" lon="-2.3513">
        <ele>57</ele>
        <time>2019-09-05T14:02:11Z</time>
      </trkpt>
      <trkpt lat="47.26973" lon="-2.35123">
        <ele>57</ele>
        <time>2019-09-05T14:02:12Z</time>
      </trkpt>
      <trkpt lat="47.26968" lon="-2.35115">
        <ele>57</ele>
        <time>2019-09-05T14:02:13Z</time>
      </trkpt>
      <trkpt lat="47.26964" lon="-2.35107">
        <ele>57</ele>
        <time>2019-09-05T14:02:14Z</time>
      </trkpt>
      <trkpt lat="47.26959" lon="-2.35099">
        <ele>57</ele>
        <time>2019-09-05T14:02:15Z</time>
      </trkpt>
      <trkpt lat="47.26955" lon="-2.35091">
        <ele>57</ele>
        <time>2019-09-05T14:02:16Z</time>
      </trkpt>
      <trkpt lat="47.2695" lon="-2.35084">
        <ele>56</ele>
        <time>2019-09-05T14:02:17Z</time>
      </trkpt>
      <trkpt lat="47.2694" lon="-2.3507">
        <ele>56</ele>
        <time>2019-09-05T14:02:19Z</time>
      </trkpt>
      <trkpt lat="47.26936" lon="-2.35064">
        <ele>56</ele>
        <time>2019-09-05T14:02:20Z</time>
      </trkpt>
      <trkpt lat="47.26932" lon="-2.35057">
        <ele>56</ele>
        <time>2019-09-05T14:02:21Z</time>
      </trkpt>
      <trkpt lat="47.26928" lon="-2.3505">
        <ele>56</ele>
        <time>2019-09-05T14:02:22Z</time>
      </trkpt>
      <trkpt lat="47.26923" lon="-2.35044">
        <ele>56</ele>
        <time>2019-09-05T14:02:23Z</time>
      </trkpt>
      <trkpt lat="47.26918" lon="-2.35038">
        <ele>56</ele>
        <time>2019-09-05T14:02:24Z</time>
      </trkpt>
      <trkpt lat="47.26914" lon="-2.35031">
        <ele>56</ele>
        <time>2019-09-05T14:02:25Z</time>
      </trkpt>
      <trkpt lat="47.2691" lon="-2.35024">
        <ele>56</ele>
        <time>2019-09-05T14:02:26Z</time>
      </trkpt>
      <trkpt lat="47.26906" lon="-2.35017">
        <ele>56</ele>
        <time>2019-09-05T14:02:27Z</time>
      </trkpt>
      <trkpt lat="47.26888" lon="-2.34989">
        <ele>57</ele>
        <time>2019-09-05T14:02:31Z</time>
      </trkpt>
      <trkpt lat="47.26873" lon="-2.34969">
        <ele>56</ele>
        <time>2019-09-05T14:02:34Z</time>
      </trkpt>
      <trkpt lat="47.26869" lon="-2.34962">
        <ele>57</ele>
        <time>2019-09-05T14:02:35Z</time>
      </trkpt>
      <trkpt lat="47.26864" lon="-2.34956">
        <ele>57</ele>
        <time>2019-09-05T14:02:36Z</time>
      </trkpt>
      <trkpt lat="47.26859" lon="-2.3495">
        <ele>57</ele>
        <time>2019-09-05T14:02:37Z</time>
      </trkpt>
      <trkpt lat="47.26855" lon="-2.34942">
        <ele>57</ele>
        <time>2019-09-05T14:02:38Z</time>
      </trkpt>
      <trkpt lat="47.2685" lon="-2.34936">
        <ele>57</ele>
        <time>2019-09-05T14:02:39Z</time>
      </trkpt>
      <trkpt lat="47.26845" lon="-2.34929">
        <ele>57</ele>
        <time>2019-09-05T14:02:40Z</time>
      </trkpt>
      <trkpt lat="47.26841" lon="-2.34922">
        <ele>57</ele>
        <time>2019-09-05T14:02:41Z</time>
      </trkpt>
      <trkpt lat="47.26832" lon="-2.34907">
        <ele>57</ele>
        <time>2019-09-05T14:02:43Z</time>
      </trkpt>
      <trkpt lat="47.26828" lon="-2.349">
        <ele>57</ele>
        <time>2019-09-05T14:02:44Z</time>
      </trkpt>
      <trkpt lat="47.26823" lon="-2.34894">
        <ele>57</ele>
        <time>2019-09-05T14:02:45Z</time>
      </trkpt>
      <trkpt lat="47.26819" lon="-2.34887">
        <ele>57</ele>
        <time>2019-09-05T14:02:46Z</time>
      </trkpt>
      <trkpt lat="47.26814" lon="-2.3488">
        <ele>57</ele>
        <time>2019-09-05T14:02:47Z</time>
      </trkpt>
      <trkpt lat="47.26809" lon="-2.34874">
        <ele>57</ele>
        <time>2019-09-05T14:02:48Z</time>
      </trkpt>
      <trkpt lat="47.26804" lon="-2.34868">
        <ele>57</ele>
        <time>2019-09-05T14:02:49Z</time>
      </trkpt>
      <trkpt lat="47.268" lon="-2.34861">
        <ele>57</ele>
        <time>2019-09-05T14:02:50Z</time>
      </trkpt>
      <trkpt lat="47.26795" lon="-2.34855">
        <ele>57</ele>
        <time>2019-09-05T14:02:51Z</time>
      </trkpt>
      <trkpt lat="47.26791" lon="-2.34849">
        <ele>56</ele>
        <time>2019-09-05T14:02:52Z</time>
      </trkpt>
      <trkpt lat="47.26787" lon="-2.34843">
        <ele>56</ele>
        <time>2019-09-05T14:02:53Z</time>
      </trkpt>
      <trkpt lat="47.26783" lon="-2.34836">
        <ele>56</ele>
        <time>2019-09-05T14:02:54Z</time>
      </trkpt>
      <trkpt lat="47.26779" lon="-2.34831">
        <ele>56</ele>
        <time>2019-09-05T14:02:55Z</time>
      </trkpt>
      <trkpt lat="47.26775" lon="-2.34826">
        <ele>56</ele>
        <time>2019-09-05T14:02:56Z</time>
      </trkpt>
      <trkpt lat="47.26771" lon="-2.34821">
        <ele>56</ele>
        <time>2019-09-05T14:02:57Z</time>
      </trkpt>
      <trkpt lat="47.26767" lon="-2.34817">
        <ele>56</ele>
        <time>2019-09-05T14:02:58Z</time>
      </trkpt>
      <trkpt lat="47.26763" lon="-2.34813">
        <ele>56</ele>
        <time>2019-09-05T14:02:59Z</time>
      </trkpt>
      <trkpt lat="47.2676" lon="-2.34806">
        <ele>56</ele>
        <time>2019-09-05T14:03:01Z</time>
      </trkpt>
      <trkpt lat="47.26757" lon="-2.34801">
        <ele>56</ele>
        <time>2019-09-05T14:03:04Z</time>
      </trkpt>
      <trkpt lat="47.26755" lon="-2.34797">
        <ele>57</ele>
        <time>2019-09-05T14:03:07Z</time>
      </trkpt>
      <trkpt lat="47.26751" lon="-2.34793">
        <ele>57</ele>
        <time>2019-09-05T14:03:09Z</time>
      </trkpt>
      <trkpt lat="47.26748" lon="-2.34791">
        <ele>57</ele>
        <time>2019-09-05T14:03:10Z</time>
      </trkpt>
      <trkpt lat="47.26742" lon="-2.34783">
        <ele>58</ele>
        <time>2019-09-05T14:03:12Z</time>
      </trkpt>
      <trkpt lat="47.26739" lon="-2.34778">
        <ele>57</ele>
        <time>2019-09-05T14:03:13Z</time>
      </trkpt>
      <trkpt lat="47.26736" lon="-2.34772">
        <ele>57</ele>
        <time>2019-09-05T14:03:14Z</time>
      </trkpt>
      <trkpt lat="47.26732" lon="-2.34767">
        <ele>57</ele>
        <time>2019-09-05T14:03:15Z</time>
      </trkpt>
      <trkpt lat="47.26728" lon="-2.34761">
        <ele>57</ele>
        <time>2019-09-05T14:03:16Z</time>
      </trkpt>
      <trkpt lat="47.26724" lon="-2.34757">
        <ele>57</ele>
        <time>2019-09-05T14:03:17Z</time>
      </trkpt>
      <trkpt lat="47.26719" lon="-2.34751">
        <ele>57</ele>
        <time>2019-09-05T14:03:18Z</time>
      </trkpt>
      <trkpt lat="47.26714" lon="-2.34745">
        <ele>57</ele>
        <time>2019-09-05T14:03:19Z</time>
      </trkpt>
      <trkpt lat="47.26709" lon="-2.34739">
        <ele>57</ele>
        <time>2019-09-05T14:03:20Z</time>
      </trkpt>
      <trkpt lat="47.26704" lon="-2.34733">
        <ele>57</ele>
        <time>2019-09-05T14:03:21Z</time>
      </trkpt>
      <trkpt lat="47.26699" lon="-2.34728">
        <ele>57</ele>
        <time>2019-09-05T14:03:22Z</time>
      </trkpt>
      <trkpt lat="47.2669" lon="-2.34716">
        <ele>57</ele>
        <time>2019-09-05T14:03:24Z</time>
      </trkpt>
      <trkpt lat="47.26685" lon="-2.34709">
        <ele>57</ele>
        <time>2019-09-05T14:03:25Z</time>
      </trkpt>
      <trkpt lat="47.26675" lon="-2.34698">
        <ele>57</ele>
        <time>2019-09-05T14:03:27Z</time>
      </trkpt>
      <trkpt lat="47.2667" lon="-2.34691">
        <ele>57</ele>
        <time>2019-09-05T14:03:28Z</time>
      </trkpt>
      <trkpt lat="47.26665" lon="-2.34685">
        <ele>57</ele>
        <time>2019-09-05T14:03:29Z</time>
      </trkpt>
      <trkpt lat="47.2666" lon="-2.34679">
        <ele>57</ele>
        <time>2019-09-05T14:03:30Z</time>
      </trkpt>
      <trkpt lat="47.26655" lon="-2.34674">
        <ele>57</ele>
        <time>2019-09-05T14:03:31Z</time>
      </trkpt>
      <trkpt lat="47.2665" lon="-2.34668">
        <ele>57</ele>
        <time>2019-09-05T14:03:32Z</time>
      </trkpt>
      <trkpt lat="47.26645" lon="-2.34663">
        <ele>57</ele>
        <time>2019-09-05T14:03:33Z</time>
      </trkpt>
      <trkpt lat="47.2664" lon="-2.34657">
        <ele>57</ele>
        <time>2019-09-05T14:03:34Z</time>
      </trkpt>
      <trkpt lat="47.26635" lon="-2.3465">
        <ele>57</ele>
        <time>2019-09-05T14:03:35Z</time>
      </trkpt>
      <trkpt lat="47.2663" lon="-2.34644">
        <ele>57</ele>
        <time>2019-09-05T14:03:36Z</time>
      </trkpt>
      <trkpt lat="47.26625" lon="-2.34637">
        <ele>57</ele>
        <time>2019-09-05T14:03:37Z</time>
      </trkpt>
      <trkpt lat="47.26621" lon="-2.34631">
        <ele>58</ele>
        <time>2019-09-05T14:03:38Z</time>
      </trkpt>
      <trkpt lat="47.26616" lon="-2.34625">
        <ele>58</ele>
        <time>2019-09-05T14:03:39Z</time>
      </trkpt>
      <trkpt lat="47.26611" lon="-2.34619">
        <ele>58</ele>
        <time>2019-09-05T14:03:40Z</time>
      </trkpt>
      <trkpt lat="47.26606" lon="-2.34614">
        <ele>58</ele>
        <time>2019-09-05T14:03:41Z</time>
      </trkpt>
      <trkpt lat="47.26601" lon="-2.34608">
        <ele>58</ele>
        <time>2019-09-05T14:03:42Z</time>
      </trkpt>
      <trkpt lat="47.26596" lon="-2.34602">
        <ele>58</ele>
        <time>2019-09-05T14:03:43Z</time>
      </trkpt>
      <trkpt lat="47.26591" lon="-2.34597">
        <ele>58</ele>
        <time>2019-09-05T14:03:44Z</time>
      </trkpt>
      <trkpt lat="47.26587" lon="-2.34591">
        <ele>58</ele>
        <time>2019-09-05T14:03:45Z</time>
      </trkpt>
      <trkpt lat="47.26582" lon="-2.34585">
        <ele>57</ele>
        <time>2019-09-05T14:03:46Z</time>
      </trkpt>
      <trkpt lat="47.26576" lon="-2.3458">
        <ele>57</ele>
        <time>2019-09-05T14:03:47Z</time>
      </trkpt>
      <trkpt lat="47.26571" lon="-2.34574">
        <ele>57</ele>
        <time>2019-09-05T14:03:48Z</time>
      </trkpt>
      <trkpt lat="47.26566" lon="-2.34569">
        <ele>57</ele>
        <time>2019-09-05T14:03:49Z</time>
      </trkpt>
      <trkpt lat="47.26561" lon="-2.34564">
        <ele>58</ele>
        <time>2019-09-05T14:03:50Z</time>
      </trkpt>
      <trkpt lat="47.26556" lon="-2.34559">
        <ele>58</ele>
        <time>2019-09-05T14:03:51Z</time>
      </trkpt>
      <trkpt lat="47.26551" lon="-2.34554">
        <ele>58</ele>
        <time>2019-09-05T14:03:52Z</time>
      </trkpt>
      <trkpt lat="47.26546" lon="-2.34548">
        <ele>58</ele>
        <time>2019-09-05T14:03:53Z</time>
      </trkpt>
      <trkpt lat="47.26541" lon="-2.34542">
        <ele>58</ele>
        <time>2019-09-05T14:03:54Z</time>
      </trkpt>
      <trkpt lat="47.26535" lon="-2.34537">
        <ele>58</ele>
        <time>2019-09-05T14:03:55Z</time>
      </trkpt>
      <trkpt lat="47.2653" lon="-2.34532">
        <ele>58</ele>
        <time>2019-09-05T14:03:56Z</time>
      </trkpt>
      <trkpt lat="47.26524" lon="-2.34528">
        <ele>58</ele>
        <time>2019-09-05T14:03:57Z</time>
      </trkpt>
      <trkpt lat="47.26519" lon="-2.34523">
        <ele>58</ele>
        <time>2019-09-05T14:03:58Z</time>
      </trkpt>
      <trkpt lat="47.26513" lon="-2.34519">
        <ele>58</ele>
        <time>2019-09-05T14:03:59Z</time>
      </trkpt>
      <trkpt lat="47.26495" lon="-2.34507">
        <ele>58</ele>
        <time>2019-09-05T14:04:02Z</time>
      </trkpt>
      <trkpt lat="47.26489" lon="-2.34502">
        <ele>58</ele>
        <time>2019-09-05T14:04:03Z</time>
      </trkpt>
      <trkpt lat="47.26483" lon="-2.34498">
        <ele>58</ele>
        <time>2019-09-05T14:04:04Z</time>
      </trkpt>
      <trkpt lat="47.26477" lon="-2.34494">
        <ele>57</ele>
        <time>2019-09-05T14:04:05Z</time>
      </trkpt>
      <trkpt lat="47.26472" lon="-2.3449">
        <ele>57</ele>
        <time>2019-09-05T14:04:06Z</time>
      </trkpt>
      <trkpt lat="47.26466" lon="-2.34485">
        <ele>57</ele>
        <time>2019-09-05T14:04:07Z</time>
      </trkpt>
      <trkpt lat="47.2646" lon="-2.34482">
        <ele>58</ele>
        <time>2019-09-05T14:04:08Z</time>
      </trkpt>
      <trkpt lat="47.26455" lon="-2.34478">
        <ele>57</ele>
        <time>2019-09-05T14:04:09Z</time>
      </trkpt>
      <trkpt lat="47.26449" lon="-2.34473">
        <ele>57</ele>
        <time>2019-09-05T14:04:10Z</time>
      </trkpt>
      <trkpt lat="47.26443" lon="-2.34469">
        <ele>56</ele>
        <time>2019-09-05T14:04:11Z</time>
      </trkpt>
      <trkpt lat="47.26437" lon="-2.34464">
        <ele>56</ele>
        <time>2019-09-05T14:04:12Z</time>
      </trkpt>
      <trkpt lat="47.26426" lon="-2.34455">
        <ele>56</ele>
        <time>2019-09-05T14:04:14Z</time>
      </trkpt>
      <trkpt lat="47.2642" lon="-2.34451">
        <ele>56</ele>
        <time>2019-09-05T14:04:15Z</time>
      </trkpt>
      <trkpt lat="47.26415" lon="-2.34447">
        <ele>56</ele>
        <time>2019-09-05T14:04:16Z</time>
      </trkpt>
      <trkpt lat="47.26409" lon="-2.34442">
        <ele>55</ele>
        <time>2019-09-05T14:04:17Z</time>
      </trkpt>
      <trkpt lat="47.26404" lon="-2.34438">
        <ele>55</ele>
        <time>2019-09-05T14:04:18Z</time>
      </trkpt>
      <trkpt lat="47.26398" lon="-2.34433">
        <ele>56</ele>
        <time>2019-09-05T14:04:19Z</time>
      </trkpt>
      <trkpt lat="47.26393" lon="-2.34429">
        <ele>56</ele>
        <time>2019-09-05T14:04:20Z</time>
      </trkpt>
      <trkpt lat="47.26387" lon="-2.34425">
        <ele>56</ele>
        <time>2019-09-05T14:04:21Z</time>
      </trkpt>
      <trkpt lat="47.26381" lon="-2.34421">
        <ele>56</ele>
        <time>2019-09-05T14:04:22Z</time>
      </trkpt>
      <trkpt lat="47.26365" lon="-2.34405">
        <ele>56</ele>
        <time>2019-09-05T14:04:25Z</time>
      </trkpt>
      <trkpt lat="47.26354" lon="-2.34396">
        <ele>56</ele>
        <time>2019-09-05T14:04:27Z</time>
      </trkpt>
      <trkpt lat="47.26349" lon="-2.34391">
        <ele>56</ele>
        <time>2019-09-05T14:04:28Z</time>
      </trkpt>
      <trkpt lat="47.26344" lon="-2.34387">
        <ele>56</ele>
        <time>2019-09-05T14:04:29Z</time>
      </trkpt>
      <trkpt lat="47.26338" lon="-2.34383">
        <ele>57</ele>
        <time>2019-09-05T14:04:30Z</time>
      </trkpt>
      <trkpt lat="47.26332" lon="-2.3438">
        <ele>57</ele>
        <time>2019-09-05T14:04:31Z</time>
      </trkpt>
      <trkpt lat="47.26326" lon="-2.34378">
        <ele>57</ele>
        <time>2019-09-05T14:04:32Z</time>
      </trkpt>
      <trkpt lat="47.26318" lon="-2.34368">
        <ele>57</ele>
        <time>2019-09-05T14:04:34Z</time>
      </trkpt>
      <trkpt lat="47.26314" lon="-2.34361">
        <ele>57</ele>
        <time>2019-09-05T14:04:35Z</time>
      </trkpt>
      <trkpt lat="47.26309" lon="-2.34355">
        <ele>57</ele>
        <time>2019-09-05T14:04:36Z</time>
      </trkpt>
      <trkpt lat="47.26304" lon="-2.3435">
        <ele>56</ele>
        <time>2019-09-05T14:04:37Z</time>
      </trkpt>
      <trkpt lat="47.26298" lon="-2.34344">
        <ele>56</ele>
        <time>2019-09-05T14:04:38Z</time>
      </trkpt>
      <trkpt lat="47.26293" lon="-2.34338">
        <ele>56</ele>
        <time>2019-09-05T14:04:39Z</time>
      </trkpt>
      <trkpt lat="47.26287" lon="-2.34332">
        <ele>56</ele>
        <time>2019-09-05T14:04:40Z</time>
      </trkpt>
      <trkpt lat="47.26282" lon="-2.34327">
        <ele>56</ele>
        <time>2019-09-05T14:04:41Z</time>
      </trkpt>
      <trkpt lat="47.26277" lon="-2.34322">
        <ele>56</ele>
        <time>2019-09-05T14:04:42Z</time>
      </trkpt>
      <trkpt lat="47.26272" lon="-2.34316">
        <ele>56</ele>
        <time>2019-09-05T14:04:43Z</time>
      </trkpt>
      <trkpt lat="47.26267" lon="-2.3431">
        <ele>56</ele>
        <time>2019-09-05T14:04:44Z</time>
      </trkpt>
      <trkpt lat="47.26262" lon="-2.34304">
        <ele>56</ele>
        <time>2019-09-05T14:04:45Z</time>
      </trkpt>
      <trkpt lat="47.26256" lon="-2.34298">
        <ele>56</ele>
        <time>2019-09-05T14:04:46Z</time>
      </trkpt>
      <trkpt lat="47.26251" lon="-2.34292">
        <ele>56</ele>
        <time>2019-09-05T14:04:47Z</time>
      </trkpt>
      <trkpt lat="47.26246" lon="-2.34287">
        <ele>56</ele>
        <time>2019-09-05T14:04:48Z</time>
      </trkpt>
      <trkpt lat="47.2624" lon="-2.34282">
        <ele>56</ele>
        <time>2019-09-05T14:04:49Z</time>
      </trkpt>
      <trkpt lat="47.26235" lon="-2.34277">
        <ele>56</ele>
        <time>2019-09-05T14:04:50Z</time>
      </trkpt>
      <trkpt lat="47.2623" lon="-2.34272">
        <ele>55</ele>
        <time>2019-09-05T14:04:51Z</time>
      </trkpt>
      <trkpt lat="47.26225" lon="-2.34266">
        <ele>55</ele>
        <time>2019-09-05T14:04:52Z</time>
      </trkpt>
      <trkpt lat="47.2622" lon="-2.3426">
        <ele>55</ele>
        <time>2019-09-05T14:04:53Z</time>
      </trkpt>
      <trkpt lat="47.26214" lon="-2.34255">
        <ele>55</ele>
        <time>2019-09-05T14:04:54Z</time>
      </trkpt>
      <trkpt lat="47.26209" lon="-2.3425">
        <ele>55</ele>
        <time>2019-09-05T14:04:55Z</time>
      </trkpt>
      <trkpt lat="47.26194" lon="-2.34233">
        <ele>55</ele>
        <time>2019-09-05T14:04:58Z</time>
      </trkpt>
      <trkpt lat="47.26189" lon="-2.34228">
        <ele>55</ele>
        <time>2019-09-05T14:04:59Z</time>
      </trkpt>
      <trkpt lat="47.26184" lon="-2.34223">
        <ele>56</ele>
        <time>2019-09-05T14:05:00Z</time>
      </trkpt>
      <trkpt lat="47.26178" lon="-2.34218">
        <ele>55</ele>
        <time>2019-09-05T14:05:01Z</time>
      </trkpt>
      <trkpt lat="47.26164" lon="-2.34204">
        <ele>55</ele>
        <time>2019-09-05T14:05:04Z</time>
      </trkpt>
      <trkpt lat="47.26159" lon="-2.34199">
        <ele>55</ele>
        <time>2019-09-05T14:05:05Z</time>
      </trkpt>
      <trkpt lat="47.26155" lon="-2.34194">
        <ele>55</ele>
        <time>2019-09-05T14:05:06Z</time>
      </trkpt>
      <trkpt lat="47.2615" lon="-2.3419">
        <ele>55</ele>
        <time>2019-09-05T14:05:07Z</time>
      </trkpt>
      <trkpt lat="47.26145" lon="-2.34187">
        <ele>56</ele>
        <time>2019-09-05T14:05:08Z</time>
      </trkpt>
      <trkpt lat="47.2614" lon="-2.34185">
        <ele>56</ele>
        <time>2019-09-05T14:05:09Z</time>
      </trkpt>
      <trkpt lat="47.26135" lon="-2.34182">
        <ele>56</ele>
        <time>2019-09-05T14:05:10Z</time>
      </trkpt>
      <trkpt lat="47.2613" lon="-2.34178">
        <ele>56</ele>
        <time>2019-09-05T14:05:11Z</time>
      </trkpt>
      <trkpt lat="47.26125" lon="-2.34173">
        <ele>56</ele>
        <time>2019-09-05T14:05:12Z</time>
      </trkpt>
      <trkpt lat="47.2612" lon="-2.34169">
        <ele>56</ele>
        <time>2019-09-05T14:05:13Z</time>
      </trkpt>
      <trkpt lat="47.26114" lon="-2.34165">
        <ele>56</ele>
        <time>2019-09-05T14:05:14Z</time>
      </trkpt>
      <trkpt lat="47.26107" lon="-2.34161">
        <ele>56</ele>
        <time>2019-09-05T14:05:15Z</time>
      </trkpt>
      <trkpt lat="47.26082" lon="-2.34147">
        <ele>56</ele>
        <time>2019-09-05T14:05:19Z</time>
      </trkpt>
      <trkpt lat="47.26068" lon="-2.34142">
        <ele>56</ele>
        <time>2019-09-05T14:05:21Z</time>
      </trkpt>
      <trkpt lat="47.26049" lon="-2.34132">
        <ele>56</ele>
        <time>2019-09-05T14:05:24Z</time>
      </trkpt>
      <trkpt lat="47.26041" lon="-2.34129">
        <ele>56</ele>
        <time>2019-09-05T14:05:25Z</time>
      </trkpt>
      <trkpt lat="47.26035" lon="-2.34126">
        <ele>56</ele>
        <time>2019-09-05T14:05:26Z</time>
      </trkpt>
      <trkpt lat="47.2603" lon="-2.34121">
        <ele>56</ele>
        <time>2019-09-05T14:05:27Z</time>
      </trkpt>
      <trkpt lat="47.26024" lon="-2.34118">
        <ele>56</ele>
        <time>2019-09-05T14:05:28Z</time>
      </trkpt>
      <trkpt lat="47.26017" lon="-2.34115">
        <ele>56</ele>
        <time>2019-09-05T14:05:29Z</time>
      </trkpt>
      <trkpt lat="47.2601" lon="-2.34112">
        <ele>56</ele>
        <time>2019-09-05T14:05:30Z</time>
      </trkpt>
      <trkpt lat="47.26004" lon="-2.34109">
        <ele>56</ele>
        <time>2019-09-05T14:05:31Z</time>
      </trkpt>
      <trkpt lat="47.25998" lon="-2.34106">
        <ele>56</ele>
        <time>2019-09-05T14:05:32Z</time>
      </trkpt>
      <trkpt lat="47.25991" lon="-2.34103">
        <ele>56</ele>
        <time>2019-09-05T14:05:33Z</time>
      </trkpt>
      <trkpt lat="47.25985" lon="-2.341">
        <ele>56</ele>
        <time>2019-09-05T14:05:34Z</time>
      </trkpt>
      <trkpt lat="47.25979" lon="-2.34096">
        <ele>56</ele>
        <time>2019-09-05T14:05:35Z</time>
      </trkpt>
      <trkpt lat="47.25966" lon="-2.34091">
        <ele>56</ele>
        <time>2019-09-05T14:05:37Z</time>
      </trkpt>
      <trkpt lat="47.2596" lon="-2.34088">
        <ele>57</ele>
        <time>2019-09-05T14:05:38Z</time>
      </trkpt>
      <trkpt lat="47.25954" lon="-2.34086">
        <ele>56</ele>
        <time>2019-09-05T14:05:39Z</time>
      </trkpt>
      <trkpt lat="47.25949" lon="-2.34082">
        <ele>56</ele>
        <time>2019-09-05T14:05:40Z</time>
      </trkpt>
      <trkpt lat="47.25942" lon="-2.3408">
        <ele>56</ele>
        <time>2019-09-05T14:05:41Z</time>
      </trkpt>
      <trkpt lat="47.25935" lon="-2.34077">
        <ele>57</ele>
        <time>2019-09-05T14:05:42Z</time>
      </trkpt>
      <trkpt lat="47.25916" lon="-2.34072">
        <ele>57</ele>
        <time>2019-09-05T14:05:45Z</time>
      </trkpt>
      <trkpt lat="47.25905" lon="-2.34067">
        <ele>57</ele>
        <time>2019-09-05T14:05:47Z</time>
      </trkpt>
      <trkpt lat="47.25901" lon="-2.3406">
        <ele>57</ele>
        <time>2019-09-05T14:05:48Z</time>
      </trkpt>
      <trkpt lat="47.25902" lon="-2.34031">
        <ele>56</ele>
        <time>2019-09-05T14:05:52Z</time>
      </trkpt>
      <trkpt lat="47.25904" lon="-2.34025">
        <ele>56</ele>
        <time>2019-09-05T14:05:53Z</time>
      </trkpt>
      <trkpt lat="47.25907" lon="-2.34018">
        <ele>56</ele>
        <time>2019-09-05T14:05:54Z</time>
      </trkpt>
      <trkpt lat="47.25909" lon="-2.34009">
        <ele>56</ele>
        <time>2019-09-05T14:05:55Z</time>
      </trkpt>
      <trkpt lat="47.25911" lon="-2.34001">
        <ele>56</ele>
        <time>2019-09-05T14:05:56Z</time>
      </trkpt>
      <trkpt lat="47.25912" lon="-2.33994">
        <ele>55</ele>
        <time>2019-09-05T14:05:57Z</time>
      </trkpt>
      <trkpt lat="47.25915" lon="-2.33986">
        <ele>55</ele>
        <time>2019-09-05T14:05:58Z</time>
      </trkpt>
      <trkpt lat="47.25917" lon="-2.33979">
        <ele>55</ele>
        <time>2019-09-05T14:05:59Z</time>
      </trkpt>
      <trkpt lat="47.25921" lon="-2.33972">
        <ele>55</ele>
        <time>2019-09-05T14:06:00Z</time>
      </trkpt>
      <trkpt lat="47.25926" lon="-2.33958">
        <ele>55</ele>
        <time>2019-09-05T14:06:02Z</time>
      </trkpt>
      <trkpt lat="47.25929" lon="-2.33951">
        <ele>55</ele>
        <time>2019-09-05T14:06:03Z</time>
      </trkpt>
      <trkpt lat="47.25936" lon="-2.33941">
        <ele>55</ele>
        <time>2019-09-05T14:06:05Z</time>
      </trkpt>
      <trkpt lat="47.2594" lon="-2.33936">
        <ele>55</ele>
        <time>2019-09-05T14:06:06Z</time>
      </trkpt>
      <trkpt lat="47.25943" lon="-2.33931">
        <ele>55</ele>
        <time>2019-09-05T14:06:07Z</time>
      </trkpt>
      <trkpt lat="47.25946" lon="-2.33923">
        <ele>56</ele>
        <time>2019-09-05T14:06:10Z</time>
      </trkpt>
      <trkpt lat="47.25947" lon="-2.33916">
        <ele>56</ele>
        <time>2019-09-05T14:06:12Z</time>
      </trkpt>
      <trkpt lat="47.25948" lon="-2.33906">
        <ele>56</ele>
        <time>2019-09-05T14:06:14Z</time>
      </trkpt>
      <trkpt lat="47.25951" lon="-2.33896">
        <ele>56</ele>
        <time>2019-09-05T14:06:16Z</time>
      </trkpt>
      <trkpt lat="47.25956" lon="-2.33885">
        <ele>55</ele>
        <time>2019-09-05T14:06:18Z</time>
      </trkpt>
      <trkpt lat="47.25958" lon="-2.33879">
        <ele>55</ele>
        <time>2019-09-05T14:06:19Z</time>
      </trkpt>
      <trkpt lat="47.2596" lon="-2.33873">
        <ele>56</ele>
        <time>2019-09-05T14:06:20Z</time>
      </trkpt>
      <trkpt lat="47.25966" lon="-2.33853">
        <ele>56</ele>
        <time>2019-09-05T14:06:23Z</time>
      </trkpt>
      <trkpt lat="47.25968" lon="-2.33846">
        <ele>56</ele>
        <time>2019-09-05T14:06:24Z</time>
      </trkpt>
      <trkpt lat="47.25973" lon="-2.33829">
        <ele>56</ele>
        <time>2019-09-05T14:06:27Z</time>
      </trkpt>
      <trkpt lat="47.25974" lon="-2.33822">
        <ele>57</ele>
        <time>2019-09-05T14:06:30Z</time>
      </trkpt>
      <trkpt lat="47.25977" lon="-2.33815">
        <ele>57</ele>
        <time>2019-09-05T14:06:33Z</time>
      </trkpt>
      <trkpt lat="47.25978" lon="-2.33812">
        <ele>57</ele>
        <time>2019-09-05T14:06:34Z</time>
      </trkpt>
      <trkpt lat="47.25979" lon="-2.33807">
        <ele>57</ele>
        <time>2019-09-05T14:06:35Z</time>
      </trkpt>
      <trkpt lat="47.25981" lon="-2.33803">
        <ele>58</ele>
        <time>2019-09-05T14:06:36Z</time>
      </trkpt>
      <trkpt lat="47.25985" lon="-2.33793">
        <ele>58</ele>
        <time>2019-09-05T14:06:38Z</time>
      </trkpt>
      <trkpt lat="47.25988" lon="-2.33787">
        <ele>58</ele>
        <time>2019-09-05T14:06:39Z</time>
      </trkpt>
      <trkpt lat="47.25993" lon="-2.33773">
        <ele>58</ele>
        <time>2019-09-05T14:06:41Z</time>
      </trkpt>
      <trkpt lat="47.25995" lon="-2.33767">
        <ele>58</ele>
        <time>2019-09-05T14:06:42Z</time>
      </trkpt>
      <trkpt lat="47.25997" lon="-2.33759">
        <ele>58</ele>
        <time>2019-09-05T14:06:43Z</time>
      </trkpt>
      <trkpt lat="47.26" lon="-2.33752">
        <ele>58</ele>
        <time>2019-09-05T14:06:44Z</time>
      </trkpt>
      <trkpt lat="47.26002" lon="-2.33745">
        <ele>58</ele>
        <time>2019-09-05T14:06:45Z</time>
      </trkpt>
      <trkpt lat="47.26004" lon="-2.33737">
        <ele>57</ele>
        <time>2019-09-05T14:06:46Z</time>
      </trkpt>
      <trkpt lat="47.26006" lon="-2.33729">
        <ele>57</ele>
        <time>2019-09-05T14:06:47Z</time>
      </trkpt>
      <trkpt lat="47.26009" lon="-2.33721">
        <ele>57</ele>
        <time>2019-09-05T14:06:48Z</time>
      </trkpt>
      <trkpt lat="47.26011" lon="-2.33715">
        <ele>57</ele>
        <time>2019-09-05T14:06:49Z</time>
      </trkpt>
      <trkpt lat="47.26013" lon="-2.33707">
        <ele>57</ele>
        <time>2019-09-05T14:06:50Z</time>
      </trkpt>
      <trkpt lat="47.26016" lon="-2.33699">
        <ele>57</ele>
        <time>2019-09-05T14:06:51Z</time>
      </trkpt>
      <trkpt lat="47.26018" lon="-2.33692">
        <ele>56</ele>
        <time>2019-09-05T14:06:52Z</time>
      </trkpt>
      <trkpt lat="47.2602" lon="-2.33685">
        <ele>56</ele>
        <time>2019-09-05T14:06:53Z</time>
      </trkpt>
      <trkpt lat="47.26024" lon="-2.3366">
        <ele>55</ele>
        <time>2019-09-05T14:06:56Z</time>
      </trkpt>
      <trkpt lat="47.26021" lon="-2.33625">
        <ele>55</ele>
        <time>2019-09-05T14:07:00Z</time>
      </trkpt>
      <trkpt lat="47.26019" lon="-2.33616">
        <ele>55</ele>
        <time>2019-09-05T14:07:01Z</time>
      </trkpt>
      <trkpt lat="47.26018" lon="-2.33608">
        <ele>55</ele>
        <time>2019-09-05T14:07:02Z</time>
      </trkpt>
      <trkpt lat="47.26013" lon="-2.33591">
        <ele>55</ele>
        <time>2019-09-05T14:07:04Z</time>
      </trkpt>
      <trkpt lat="47.2601" lon="-2.33584">
        <ele>55</ele>
        <time>2019-09-05T14:07:05Z</time>
      </trkpt>
      <trkpt lat="47.26007" lon="-2.33576">
        <ele>55</ele>
        <time>2019-09-05T14:07:06Z</time>
      </trkpt>
      <trkpt lat="47.26003" lon="-2.33569">
        <ele>55</ele>
        <time>2019-09-05T14:07:07Z</time>
      </trkpt>
      <trkpt lat="47.25999" lon="-2.33562">
        <ele>55</ele>
        <time>2019-09-05T14:07:08Z</time>
      </trkpt>
      <trkpt lat="47.25994" lon="-2.33555">
        <ele>55</ele>
        <time>2019-09-05T14:07:09Z</time>
      </trkpt>
      <trkpt lat="47.25987" lon="-2.33541">
        <ele>54</ele>
        <time>2019-09-05T14:07:11Z</time>
      </trkpt>
      <trkpt lat="47.25984" lon="-2.33533">
        <ele>54</ele>
        <time>2019-09-05T14:07:12Z</time>
      </trkpt>
      <trkpt lat="47.25981" lon="-2.33527">
        <ele>54</ele>
        <time>2019-09-05T14:07:13Z</time>
      </trkpt>
      <trkpt lat="47.25978" lon="-2.33521">
        <ele>53</ele>
        <time>2019-09-05T14:07:14Z</time>
      </trkpt>
      <trkpt lat="47.25968" lon="-2.33506">
        <ele>54</ele>
        <time>2019-09-05T14:07:17Z</time>
      </trkpt>
      <trkpt lat="47.2596" lon="-2.33488">
        <ele>54</ele>
        <time>2019-09-05T14:07:20Z</time>
      </trkpt>
      <trkpt lat="47.25955" lon="-2.33474">
        <ele>54</ele>
        <time>2019-09-05T14:07:22Z</time>
      </trkpt>
      <trkpt lat="47.25948" lon="-2.33459">
        <ele>54</ele>
        <time>2019-09-05T14:07:24Z</time>
      </trkpt>
      <trkpt lat="47.25945" lon="-2.33451">
        <ele>54</ele>
        <time>2019-09-05T14:07:25Z</time>
      </trkpt>
      <trkpt lat="47.25941" lon="-2.33443">
        <ele>54</ele>
        <time>2019-09-05T14:07:26Z</time>
      </trkpt>
      <trkpt lat="47.25938" lon="-2.33435">
        <ele>54</ele>
        <time>2019-09-05T14:07:27Z</time>
      </trkpt>
      <trkpt lat="47.25934" lon="-2.33426">
        <ele>54</ele>
        <time>2019-09-05T14:07:28Z</time>
      </trkpt>
      <trkpt lat="47.25931" lon="-2.33418">
        <ele>54</ele>
        <time>2019-09-05T14:07:29Z</time>
      </trkpt>
      <trkpt lat="47.25928" lon="-2.3341">
        <ele>54</ele>
        <time>2019-09-05T14:07:30Z</time>
      </trkpt>
      <trkpt lat="47.25923" lon="-2.33393">
        <ele>53</ele>
        <time>2019-09-05T14:07:32Z</time>
      </trkpt>
      <trkpt lat="47.25921" lon="-2.33385">
        <ele>53</ele>
        <time>2019-09-05T14:07:33Z</time>
      </trkpt>
      <trkpt lat="47.25918" lon="-2.33376">
        <ele>53</ele>
        <time>2019-09-05T14:07:34Z</time>
      </trkpt>
      <trkpt lat="47.25915" lon="-2.33368">
        <ele>53</ele>
        <time>2019-09-05T14:07:35Z</time>
      </trkpt>
      <trkpt lat="47.25914" lon="-2.3336">
        <ele>53</ele>
        <time>2019-09-05T14:07:36Z</time>
      </trkpt>
      <trkpt lat="47.25912" lon="-2.33352">
        <ele>53</ele>
        <time>2019-09-05T14:07:37Z</time>
      </trkpt>
      <trkpt lat="47.2591" lon="-2.33344">
        <ele>53</ele>
        <time>2019-09-05T14:07:38Z</time>
      </trkpt>
      <trkpt lat="47.25909" lon="-2.33335">
        <ele>53</ele>
        <time>2019-09-05T14:07:39Z</time>
      </trkpt>
      <trkpt lat="47.25908" lon="-2.33326">
        <ele>53</ele>
        <time>2019-09-05T14:07:40Z</time>
      </trkpt>
      <trkpt lat="47.25907" lon="-2.33317">
        <ele>53</ele>
        <time>2019-09-05T14:07:41Z</time>
      </trkpt>
      <trkpt lat="47.25905" lon="-2.33308">
        <ele>53</ele>
        <time>2019-09-05T14:07:42Z</time>
      </trkpt>
      <trkpt lat="47.25905" lon="-2.33299">
        <ele>53</ele>
        <time>2019-09-05T14:07:43Z</time>
      </trkpt>
      <trkpt lat="47.25905" lon="-2.3329">
        <ele>53</ele>
        <time>2019-09-05T14:07:44Z</time>
      </trkpt>
      <trkpt lat="47.25904" lon="-2.33281">
        <ele>53</ele>
        <time>2019-09-05T14:07:45Z</time>
      </trkpt>
      <trkpt lat="47.25905" lon="-2.33271">
        <ele>52</ele>
        <time>2019-09-05T14:07:46Z</time>
      </trkpt>
      <trkpt lat="47.25904" lon="-2.33244">
        <ele>53</ele>
        <time>2019-09-05T14:07:49Z</time>
      </trkpt>
      <trkpt lat="47.25904" lon="-2.33234">
        <ele>53</ele>
        <time>2019-09-05T14:07:50Z</time>
      </trkpt>
      <trkpt lat="47.25904" lon="-2.33225">
        <ele>53</ele>
        <time>2019-09-05T14:07:51Z</time>
      </trkpt>
      <trkpt lat="47.25904" lon="-2.33216">
        <ele>53</ele>
        <time>2019-09-05T14:07:52Z</time>
      </trkpt>
      <trkpt lat="47.25903" lon="-2.33206">
        <ele>53</ele>
        <time>2019-09-05T14:07:53Z</time>
      </trkpt>
      <trkpt lat="47.25903" lon="-2.33198">
        <ele>53</ele>
        <time>2019-09-05T14:07:54Z</time>
      </trkpt>
      <trkpt lat="47.25902" lon="-2.33189">
        <ele>53</ele>
        <time>2019-09-05T14:07:55Z</time>
      </trkpt>
      <trkpt lat="47.25902" lon="-2.3318">
        <ele>53</ele>
        <time>2019-09-05T14:07:56Z</time>
      </trkpt>
      <trkpt lat="47.25901" lon="-2.33172">
        <ele>52</ele>
        <time>2019-09-05T14:07:57Z</time>
      </trkpt>
      <trkpt lat="47.25898" lon="-2.33148">
        <ele>53</ele>
        <time>2019-09-05T14:08:00Z</time>
      </trkpt>
      <trkpt lat="47.25896" lon="-2.33141">
        <ele>53</ele>
        <time>2019-09-05T14:08:01Z</time>
      </trkpt>
      <trkpt lat="47.25893" lon="-2.33125">
        <ele>53</ele>
        <time>2019-09-05T14:08:03Z</time>
      </trkpt>
      <trkpt lat="47.25888" lon="-2.33109">
        <ele>54</ele>
        <time>2019-09-05T14:08:05Z</time>
      </trkpt>
      <trkpt lat="47.25886" lon="-2.33102">
        <ele>54</ele>
        <time>2019-09-05T14:08:06Z</time>
      </trkpt>
      <trkpt lat="47.25884" lon="-2.33095">
        <ele>54</ele>
        <time>2019-09-05T14:08:07Z</time>
      </trkpt>
      <trkpt lat="47.25881" lon="-2.33088">
        <ele>53</ele>
        <time>2019-09-05T14:08:08Z</time>
      </trkpt>
      <trkpt lat="47.25879" lon="-2.3308">
        <ele>54</ele>
        <time>2019-09-05T14:08:09Z</time>
      </trkpt>
      <trkpt lat="47.25876" lon="-2.33074">
        <ele>54</ele>
        <time>2019-09-05T14:08:10Z</time>
      </trkpt>
      <trkpt lat="47.25874" lon="-2.33067">
        <ele>54</ele>
        <time>2019-09-05T14:08:11Z</time>
      </trkpt>
      <trkpt lat="47.25872" lon="-2.3306">
        <ele>54</ele>
        <time>2019-09-05T14:08:12Z</time>
      </trkpt>
      <trkpt lat="47.25871" lon="-2.33052">
        <ele>54</ele>
        <time>2019-09-05T14:08:13Z</time>
      </trkpt>
      <trkpt lat="47.25869" lon="-2.33045">
        <ele>54</ele>
        <time>2019-09-05T14:08:14Z</time>
      </trkpt>
      <trkpt lat="47.25867" lon="-2.33037">
        <ele>54</ele>
        <time>2019-09-05T14:08:15Z</time>
      </trkpt>
      <trkpt lat="47.25865" lon="-2.33031">
        <ele>54</ele>
        <time>2019-09-05T14:08:16Z</time>
      </trkpt>
      <trkpt lat="47.25862" lon="-2.33024">
        <ele>54</ele>
        <time>2019-09-05T14:08:17Z</time>
      </trkpt>
      <trkpt lat="47.25859" lon="-2.33018">
        <ele>54</ele>
        <time>2019-09-05T14:08:18Z</time>
      </trkpt>
      <trkpt lat="47.25857" lon="-2.33011">
        <ele>55</ele>
        <time>2019-09-05T14:08:19Z</time>
      </trkpt>
      <trkpt lat="47.25847" lon="-2.32992">
        <ele>55</ele>
        <time>2019-09-05T14:08:22Z</time>
      </trkpt>
      <trkpt lat="47.25844" lon="-2.32986">
        <ele>55</ele>
        <time>2019-09-05T14:08:23Z</time>
      </trkpt>
      <trkpt lat="47.2584" lon="-2.3298">
        <ele>55</ele>
        <time>2019-09-05T14:08:24Z</time>
      </trkpt>
      <trkpt lat="47.25836" lon="-2.32975">
        <ele>56</ele>
        <time>2019-09-05T14:08:25Z</time>
      </trkpt>
      <trkpt lat="47.25833" lon="-2.32969">
        <ele>56</ele>
        <time>2019-09-05T14:08:26Z</time>
      </trkpt>
      <trkpt lat="47.25829" lon="-2.32963">
        <ele>55</ele>
        <time>2019-09-05T14:08:27Z</time>
      </trkpt>
      <trkpt lat="47.25821" lon="-2.32953">
        <ele>56</ele>
        <time>2019-09-05T14:08:29Z</time>
      </trkpt>
      <trkpt lat="47.25803" lon="-2.32934">
        <ele>57</ele>
        <time>2019-09-05T14:08:33Z</time>
      </trkpt>
      <trkpt lat="47.25799" lon="-2.32929">
        <ele>57</ele>
        <time>2019-09-05T14:08:34Z</time>
      </trkpt>
      <trkpt lat="47.25796" lon="-2.32923">
        <ele>57</ele>
        <time>2019-09-05T14:08:35Z</time>
      </trkpt>
      <trkpt lat="47.25792" lon="-2.32918">
        <ele>57</ele>
        <time>2019-09-05T14:08:36Z</time>
      </trkpt>
      <trkpt lat="47.25787" lon="-2.32913">
        <ele>57</ele>
        <time>2019-09-05T14:08:37Z</time>
      </trkpt>
      <trkpt lat="47.25783" lon="-2.32908">
        <ele>57</ele>
        <time>2019-09-05T14:08:38Z</time>
      </trkpt>
      <trkpt lat="47.2578" lon="-2.32903">
        <ele>57</ele>
        <time>2019-09-05T14:08:39Z</time>
      </trkpt>
      <trkpt lat="47.25766" lon="-2.32881">
        <ele>58</ele>
        <time>2019-09-05T14:08:43Z</time>
      </trkpt>
      <trkpt lat="47.25763" lon="-2.32875">
        <ele>58</ele>
        <time>2019-09-05T14:08:44Z</time>
      </trkpt>
      <trkpt lat="47.2576" lon="-2.32869">
        <ele>58</ele>
        <time>2019-09-05T14:08:45Z</time>
      </trkpt>
      <trkpt lat="47.25757" lon="-2.32863">
        <ele>58</ele>
        <time>2019-09-05T14:08:46Z</time>
      </trkpt>
      <trkpt lat="47.25754" lon="-2.32857">
        <ele>58</ele>
        <time>2019-09-05T14:08:47Z</time>
      </trkpt>
      <trkpt lat="47.25751" lon="-2.32851">
        <ele>58</ele>
        <time>2019-09-05T14:08:48Z</time>
      </trkpt>
      <trkpt lat="47.25748" lon="-2.32845">
        <ele>58</ele>
        <time>2019-09-05T14:08:49Z</time>
      </trkpt>
      <trkpt lat="47.25746" lon="-2.3284">
        <ele>58</ele>
        <time>2019-09-05T14:08:50Z</time>
      </trkpt>
      <trkpt lat="47.25744" lon="-2.32833">
        <ele>59</ele>
        <time>2019-09-05T14:08:51Z</time>
      </trkpt>
      <trkpt lat="47.25741" lon="-2.32827">
        <ele>58</ele>
        <time>2019-09-05T14:08:52Z</time>
      </trkpt>
      <trkpt lat="47.25738" lon="-2.3282">
        <ele>58</ele>
        <time>2019-09-05T14:08:53Z</time>
      </trkpt>
      <trkpt lat="47.25737" lon="-2.32805">
        <ele>59</ele>
        <time>2019-09-05T14:08:55Z</time>
      </trkpt>
      <trkpt lat="47.25736" lon="-2.32798">
        <ele>59</ele>
        <time>2019-09-05T14:08:56Z</time>
      </trkpt>
      <trkpt lat="47.25734" lon="-2.3279">
        <ele>59</ele>
        <time>2019-09-05T14:08:57Z</time>
      </trkpt>
      <trkpt lat="47.25732" lon="-2.32775">
        <ele>59</ele>
        <time>2019-09-05T14:08:59Z</time>
      </trkpt>
      <trkpt lat="47.25731" lon="-2.32767">
        <ele>59</ele>
        <time>2019-09-05T14:09:00Z</time>
      </trkpt>
      <trkpt lat="47.25728" lon="-2.3275">
        <ele>59</ele>
        <time>2019-09-05T14:09:02Z</time>
      </trkpt>
      <trkpt lat="47.25726" lon="-2.32742">
        <ele>59</ele>
        <time>2019-09-05T14:09:03Z</time>
      </trkpt>
      <trkpt lat="47.25724" lon="-2.32725">
        <ele>58</ele>
        <time>2019-09-05T14:09:05Z</time>
      </trkpt>
      <trkpt lat="47.25724" lon="-2.32717">
        <ele>59</ele>
        <time>2019-09-05T14:09:06Z</time>
      </trkpt>
      <trkpt lat="47.25723" lon="-2.32708">
        <ele>59</ele>
        <time>2019-09-05T14:09:07Z</time>
      </trkpt>
      <trkpt lat="47.25723" lon="-2.32699">
        <ele>59</ele>
        <time>2019-09-05T14:09:08Z</time>
      </trkpt>
      <trkpt lat="47.2572" lon="-2.32662">
        <ele>58</ele>
        <time>2019-09-05T14:09:12Z</time>
      </trkpt>
      <trkpt lat="47.25718" lon="-2.32644">
        <ele>58</ele>
        <time>2019-09-05T14:09:14Z</time>
      </trkpt>
      <trkpt lat="47.25716" lon="-2.32635">
        <ele>58</ele>
        <time>2019-09-05T14:09:15Z</time>
      </trkpt>
      <trkpt lat="47.25714" lon="-2.32627">
        <ele>58</ele>
        <time>2019-09-05T14:09:16Z</time>
      </trkpt>
      <trkpt lat="47.25712" lon="-2.32618">
        <ele>57</ele>
        <time>2019-09-05T14:09:17Z</time>
      </trkpt>
      <trkpt lat="47.2571" lon="-2.32609">
        <ele>57</ele>
        <time>2019-09-05T14:09:18Z</time>
      </trkpt>
      <trkpt lat="47.25708" lon="-2.32601">
        <ele>57</ele>
        <time>2019-09-05T14:09:19Z</time>
      </trkpt>
      <trkpt lat="47.25703" lon="-2.32584">
        <ele>57</ele>
        <time>2019-09-05T14:09:21Z</time>
      </trkpt>
      <trkpt lat="47.25701" lon="-2.32576">
        <ele>57</ele>
        <time>2019-09-05T14:09:22Z</time>
      </trkpt>
      <trkpt lat="47.25699" lon="-2.32569">
        <ele>57</ele>
        <time>2019-09-05T14:09:23Z</time>
      </trkpt>
      <trkpt lat="47.25694" lon="-2.32553">
        <ele>57</ele>
        <time>2019-09-05T14:09:25Z</time>
      </trkpt>
      <trkpt lat="47.25692" lon="-2.32545">
        <ele>57</ele>
        <time>2019-09-05T14:09:26Z</time>
      </trkpt>
      <trkpt lat="47.25689" lon="-2.32537">
        <ele>57</ele>
        <time>2019-09-05T14:09:27Z</time>
      </trkpt>
      <trkpt lat="47.25686" lon="-2.32528">
        <ele>57</ele>
        <time>2019-09-05T14:09:28Z</time>
      </trkpt>
      <trkpt lat="47.25683" lon="-2.32519">
        <ele>57</ele>
        <time>2019-09-05T14:09:29Z</time>
      </trkpt>
      <trkpt lat="47.25674" lon="-2.3249">
        <ele>57</ele>
        <time>2019-09-05T14:09:32Z</time>
      </trkpt>
      <trkpt lat="47.25671" lon="-2.3248">
        <ele>56</ele>
        <time>2019-09-05T14:09:33Z</time>
      </trkpt>
      <trkpt lat="47.25669" lon="-2.32471">
        <ele>56</ele>
        <time>2019-09-05T14:09:34Z</time>
      </trkpt>
      <trkpt lat="47.25666" lon="-2.3246">
        <ele>56</ele>
        <time>2019-09-05T14:09:35Z</time>
      </trkpt>
      <trkpt lat="47.25664" lon="-2.3245">
        <ele>56</ele>
        <time>2019-09-05T14:09:36Z</time>
      </trkpt>
      <trkpt lat="47.25661" lon="-2.3244">
        <ele>56</ele>
        <time>2019-09-05T14:09:37Z</time>
      </trkpt>
      <trkpt lat="47.25659" lon="-2.3243">
        <ele>56</ele>
        <time>2019-09-05T14:09:38Z</time>
      </trkpt>
      <trkpt lat="47.25657" lon="-2.32419">
        <ele>56</ele>
        <time>2019-09-05T14:09:39Z</time>
      </trkpt>
      <trkpt lat="47.25656" lon="-2.32409">
        <ele>56</ele>
        <time>2019-09-05T14:09:40Z</time>
      </trkpt>
      <trkpt lat="47.25655" lon="-2.32379">
        <ele>56</ele>
        <time>2019-09-05T14:09:43Z</time>
      </trkpt>
      <trkpt lat="47.25654" lon="-2.3237">
        <ele>56</ele>
        <time>2019-09-05T14:09:44Z</time>
      </trkpt>
      <trkpt lat="47.25654" lon="-2.32361">
        <ele>56</ele>
        <time>2019-09-05T14:09:45Z</time>
      </trkpt>
      <trkpt lat="47.25653" lon="-2.32352">
        <ele>56</ele>
        <time>2019-09-05T14:09:46Z</time>
      </trkpt>
      <trkpt lat="47.25652" lon="-2.32336">
        <ele>56</ele>
        <time>2019-09-05T14:09:48Z</time>
      </trkpt>
      <trkpt lat="47.25651" lon="-2.32314">
        <ele>57</ele>
        <time>2019-09-05T14:09:51Z</time>
      </trkpt>
      <trkpt lat="47.2565" lon="-2.32306">
        <ele>57</ele>
        <time>2019-09-05T14:09:52Z</time>
      </trkpt>
      <trkpt lat="47.2565" lon="-2.32299">
        <ele>57</ele>
        <time>2019-09-05T14:09:53Z</time>
      </trkpt>
      <trkpt lat="47.25649" lon="-2.32292">
        <ele>58</ele>
        <time>2019-09-05T14:09:54Z</time>
      </trkpt>
      <trkpt lat="47.25648" lon="-2.32285">
        <ele>58</ele>
        <time>2019-09-05T14:09:55Z</time>
      </trkpt>
      <trkpt lat="47.25648" lon="-2.32278">
        <ele>58</ele>
        <time>2019-09-05T14:09:56Z</time>
      </trkpt>
      <trkpt lat="47.25648" lon="-2.32271">
        <ele>58</ele>
        <time>2019-09-05T14:09:57Z</time>
      </trkpt>
      <trkpt lat="47.25647" lon="-2.32257">
        <ele>59</ele>
        <time>2019-09-05T14:09:59Z</time>
      </trkpt>
      <trkpt lat="47.25647" lon="-2.3225">
        <ele>59</ele>
        <time>2019-09-05T14:10:00Z</time>
      </trkpt>
      <trkpt lat="47.25646" lon="-2.32244">
        <ele>59</ele>
        <time>2019-09-05T14:10:01Z</time>
      </trkpt>
      <trkpt lat="47.25646" lon="-2.32237">
        <ele>60</ele>
        <time>2019-09-05T14:10:02Z</time>
      </trkpt>
      <trkpt lat="47.25645" lon="-2.3223">
        <ele>60</ele>
        <time>2019-09-05T14:10:03Z</time>
      </trkpt>
      <trkpt lat="47.25644" lon="-2.32223">
        <ele>60</ele>
        <time>2019-09-05T14:10:04Z</time>
      </trkpt>
      <trkpt lat="47.25644" lon="-2.32217">
        <ele>60</ele>
        <time>2019-09-05T14:10:05Z</time>
      </trkpt>
      <trkpt lat="47.25642" lon="-2.32204">
        <ele>61</ele>
        <time>2019-09-05T14:10:07Z</time>
      </trkpt>
      <trkpt lat="47.25639" lon="-2.32191">
        <ele>61</ele>
        <time>2019-09-05T14:10:09Z</time>
      </trkpt>
      <trkpt lat="47.25637" lon="-2.32184">
        <ele>61</ele>
        <time>2019-09-05T14:10:10Z</time>
      </trkpt>
      <trkpt lat="47.25636" lon="-2.32178">
        <ele>61</ele>
        <time>2019-09-05T14:10:11Z</time>
      </trkpt>
      <trkpt lat="47.25634" lon="-2.32172">
        <ele>61</ele>
        <time>2019-09-05T14:10:12Z</time>
      </trkpt>
      <trkpt lat="47.25632" lon="-2.32165">
        <ele>61</ele>
        <time>2019-09-05T14:10:13Z</time>
      </trkpt>
      <trkpt lat="47.25628" lon="-2.32152">
        <ele>62</ele>
        <time>2019-09-05T14:10:15Z</time>
      </trkpt>
      <trkpt lat="47.25624" lon="-2.32139">
        <ele>62</ele>
        <time>2019-09-05T14:10:17Z</time>
      </trkpt>
      <trkpt lat="47.25622" lon="-2.32133">
        <ele>62</ele>
        <time>2019-09-05T14:10:18Z</time>
      </trkpt>
      <trkpt lat="47.25617" lon="-2.3212">
        <ele>62</ele>
        <time>2019-09-05T14:10:20Z</time>
      </trkpt>
      <trkpt lat="47.25613" lon="-2.32107">
        <ele>63</ele>
        <time>2019-09-05T14:10:22Z</time>
      </trkpt>
      <trkpt lat="47.25611" lon="-2.32101">
        <ele>63</ele>
        <time>2019-09-05T14:10:23Z</time>
      </trkpt>
      <trkpt lat="47.25609" lon="-2.32094">
        <ele>63</ele>
        <time>2019-09-05T14:10:24Z</time>
      </trkpt>
      <trkpt lat="47.25606" lon="-2.32088">
        <ele>63</ele>
        <time>2019-09-05T14:10:25Z</time>
      </trkpt>
      <trkpt lat="47.25604" lon="-2.32082">
        <ele>63</ele>
        <time>2019-09-05T14:10:26Z</time>
      </trkpt>
      <trkpt lat="47.25599" lon="-2.32069">
        <ele>63</ele>
        <time>2019-09-05T14:10:28Z</time>
      </trkpt>
      <trkpt lat="47.25597" lon="-2.32063">
        <ele>63</ele>
        <time>2019-09-05T14:10:29Z</time>
      </trkpt>
      <trkpt lat="47.25595" lon="-2.32057">
        <ele>64</ele>
        <time>2019-09-05T14:10:30Z</time>
      </trkpt>
      <trkpt lat="47.25593" lon="-2.32051">
        <ele>64</ele>
        <time>2019-09-05T14:10:31Z</time>
      </trkpt>
      <trkpt lat="47.2559" lon="-2.32044">
        <ele>64</ele>
        <time>2019-09-05T14:10:32Z</time>
      </trkpt>
      <trkpt lat="47.25588" lon="-2.32038">
        <ele>64</ele>
        <time>2019-09-05T14:10:33Z</time>
      </trkpt>
      <trkpt lat="47.25586" lon="-2.32031">
        <ele>64</ele>
        <time>2019-09-05T14:10:34Z</time>
      </trkpt>
      <trkpt lat="47.25584" lon="-2.32025">
        <ele>64</ele>
        <time>2019-09-05T14:10:35Z</time>
      </trkpt>
      <trkpt lat="47.25582" lon="-2.32018">
        <ele>64</ele>
        <time>2019-09-05T14:10:36Z</time>
      </trkpt>
      <trkpt lat="47.25578" lon="-2.32004">
        <ele>64</ele>
        <time>2019-09-05T14:10:38Z</time>
      </trkpt>
      <trkpt lat="47.25576" lon="-2.31997">
        <ele>64</ele>
        <time>2019-09-05T14:10:39Z</time>
      </trkpt>
      <trkpt lat="47.25574" lon="-2.3199">
        <ele>64</ele>
        <time>2019-09-05T14:10:40Z</time>
      </trkpt>
      <trkpt lat="47.25573" lon="-2.31984">
        <ele>64</ele>
        <time>2019-09-05T14:10:41Z</time>
      </trkpt>
      <trkpt lat="47.25571" lon="-2.31978">
        <ele>64</ele>
        <time>2019-09-05T14:10:42Z</time>
      </trkpt>
      <trkpt lat="47.2557" lon="-2.31971">
        <ele>64</ele>
        <time>2019-09-05T14:10:43Z</time>
      </trkpt>
      <trkpt lat="47.25569" lon="-2.31965">
        <ele>64</ele>
        <time>2019-09-05T14:10:44Z</time>
      </trkpt>
      <trkpt lat="47.25568" lon="-2.31958">
        <ele>64</ele>
        <time>2019-09-05T14:10:45Z</time>
      </trkpt>
      <trkpt lat="47.25566" lon="-2.31952">
        <ele>64</ele>
        <time>2019-09-05T14:10:46Z</time>
      </trkpt>
      <trkpt lat="47.25565" lon="-2.31938">
        <ele>64</ele>
        <time>2019-09-05T14:10:48Z</time>
      </trkpt>
      <trkpt lat="47.25562" lon="-2.31916">
        <ele>65</ele>
        <time>2019-09-05T14:10:52Z</time>
      </trkpt>
      <trkpt lat="47.25551" lon="-2.31915">
        <ele>65</ele>
        <time>2019-09-05T14:10:55Z</time>
      </trkpt>
      <trkpt lat="47.25545" lon="-2.31917">
        <ele>65</ele>
        <time>2019-09-05T14:10:57Z</time>
      </trkpt>
      <trkpt lat="47.2554" lon="-2.31917">
        <ele>65</ele>
        <time>2019-09-05T14:10:59Z</time>
      </trkpt>
      <trkpt lat="47.25534" lon="-2.31903">
        <ele>66</ele>
        <time>2019-09-05T14:11:02Z</time>
      </trkpt>
      <trkpt lat="47.25531" lon="-2.31897">
        <ele>66</ele>
        <time>2019-09-05T14:11:03Z</time>
      </trkpt>
      <trkpt lat="47.25528" lon="-2.31886">
        <ele>67</ele>
        <time>2019-09-05T14:11:05Z</time>
      </trkpt>
      <trkpt lat="47.25525" lon="-2.31871">
        <ele>67</ele>
        <time>2019-09-05T14:11:08Z</time>
      </trkpt>
      <trkpt lat="47.25523" lon="-2.31861">
        <ele>67</ele>
        <time>2019-09-05T14:11:10Z</time>
      </trkpt>
      <trkpt lat="47.25522" lon="-2.31857">
        <ele>67</ele>
        <time>2019-09-05T14:11:11Z</time>
      </trkpt>
      <trkpt lat="47.25521" lon="-2.31853">
        <ele>67</ele>
        <time>2019-09-05T14:11:12Z</time>
      </trkpt>
      <trkpt lat="47.2552" lon="-2.31849">
        <ele>67</ele>
        <time>2019-09-05T14:11:13Z</time>
      </trkpt>
      <trkpt lat="47.25519" lon="-2.31846">
        <ele>67</ele>
        <time>2019-09-05T14:11:14Z</time>
      </trkpt>
      <trkpt lat="47.25517" lon="-2.31839">
        <ele>67</ele>
        <time>2019-09-05T14:11:16Z</time>
      </trkpt>
      <trkpt lat="47.25515" lon="-2.31834">
        <ele>67</ele>
        <time>2019-09-05T14:11:18Z</time>
      </trkpt>
      <trkpt lat="47.25515" lon="-2.31834">
        <ele>19</ele>
        <time>2019-09-05T14:11:23Z</time>
      </trkpt>
      <trkpt lat="47.25515" lon="-2.31834">
        <ele>19</ele>
        <time>2019-09-05T14:12:45Z</time>
      </trkpt>
      <trkpt lat="47.25543" lon="-2.31804">
        <ele>75</ele>
        <time>2019-09-05T14:12:51Z</time>
      </trkpt>
      <trkpt lat="47.25548" lon="-2.31801">
        <ele>70</ele>
        <time>2019-09-05T14:12:54Z</time>
      </trkpt>
      <trkpt lat="47.25555" lon="-2.31797">
        <ele>70</ele>
        <time>2019-09-05T14:12:57Z</time>
      </trkpt>
      <trkpt lat="47.25558" lon="-2.31794">
        <ele>70</ele>
        <time>2019-09-05T14:12:59Z</time>
      </trkpt>
      <trkpt lat="47.25562" lon="-2.31791">
        <ele>71</ele>
        <time>2019-09-05T14:13:01Z</time>
      </trkpt>
      <trkpt lat="47.25566" lon="-2.31783">
        <ele>70</ele>
        <time>2019-09-05T14:13:03Z</time>
      </trkpt>
      <trkpt lat="47.25568" lon="-2.3178">
        <ele>70</ele>
        <time>2019-09-05T14:13:04Z</time>
      </trkpt>
      <trkpt lat="47.25574" lon="-2.31773">
        <ele>69</ele>
        <time>2019-09-05T14:13:06Z</time>
      </trkpt>
      <trkpt lat="47.25579" lon="-2.31765">
        <ele>67</ele>
        <time>2019-09-05T14:13:08Z</time>
      </trkpt>
      <trkpt lat="47.25582" lon="-2.31761">
        <ele>66</ele>
        <time>2019-09-05T14:13:09Z</time>
      </trkpt>
      <trkpt lat="47.25586" lon="-2.31752">
        <ele>65</ele>
        <time>2019-09-05T14:13:13Z</time>
      </trkpt>
      <trkpt lat="47.25588" lon="-2.31748">
        <ele>64</ele>
        <time>2019-09-05T14:13:16Z</time>
      </trkpt>
      <trkpt lat="47.25592" lon="-2.3174">
        <ele>63</ele>
        <time>2019-09-05T14:13:19Z</time>
      </trkpt>
      <trkpt lat="47.25594" lon="-2.31731">
        <ele>63</ele>
        <time>2019-09-05T14:13:21Z</time>
      </trkpt>
      <trkpt lat="47.25598" lon="-2.31721">
        <ele>63</ele>
        <time>2019-09-05T14:13:23Z</time>
      </trkpt>
      <trkpt lat="47.25605" lon="-2.31714">
        <ele>62</ele>
        <time>2019-09-05T14:13:25Z</time>
      </trkpt>
      <trkpt lat="47.25613" lon="-2.31709">
        <ele>62</ele>
        <time>2019-09-05T14:13:27Z</time>
      </trkpt>
      <trkpt lat="47.25622" lon="-2.31709">
        <ele>61</ele>
        <time>2019-09-05T14:13:29Z</time>
      </trkpt>
      <trkpt lat="47.25631" lon="-2.31707">
        <ele>61</ele>
        <time>2019-09-05T14:13:31Z</time>
      </trkpt>
      <trkpt lat="47.2564" lon="-2.31702">
        <ele>61</ele>
        <time>2019-09-05T14:13:33Z</time>
      </trkpt>
      <trkpt lat="47.25644" lon="-2.31699">
        <ele>60</ele>
        <time>2019-09-05T14:13:34Z</time>
      </trkpt>
      <trkpt lat="47.25651" lon="-2.3169">
        <ele>60</ele>
        <time>2019-09-05T14:13:36Z</time>
      </trkpt>
      <trkpt lat="47.25658" lon="-2.31672">
        <ele>60</ele>
        <time>2019-09-05T14:13:39Z</time>
      </trkpt>
      <trkpt lat="47.2566" lon="-2.31666">
        <ele>60</ele>
        <time>2019-09-05T14:13:40Z</time>
      </trkpt>
      <trkpt lat="47.25668" lon="-2.31663">
        <ele>60</ele>
        <time>2019-09-05T14:13:42Z</time>
      </trkpt>
      <trkpt lat="47.25672" lon="-2.31666">
        <ele>60</ele>
        <time>2019-09-05T14:13:43Z</time>
      </trkpt>
      <trkpt lat="47.25676" lon="-2.3167">
        <ele>60</ele>
        <time>2019-09-05T14:13:44Z</time>
      </trkpt>
      <trkpt lat="47.2568" lon="-2.31674">
        <ele>61</ele>
        <time>2019-09-05T14:13:45Z</time>
      </trkpt>
      <trkpt lat="47.25685" lon="-2.31677">
        <ele>61</ele>
        <time>2019-09-05T14:13:46Z</time>
      </trkpt>
      <trkpt lat="47.2569" lon="-2.31679">
        <ele>61</ele>
        <time>2019-09-05T14:13:47Z</time>
      </trkpt>
      <trkpt lat="47.25695" lon="-2.31681">
        <ele>61</ele>
        <time>2019-09-05T14:13:48Z</time>
      </trkpt>
      <trkpt lat="47.257" lon="-2.31685">
        <ele>61</ele>
        <time>2019-09-05T14:13:49Z</time>
      </trkpt>
      <trkpt lat="47.25705" lon="-2.31688">
        <ele>61</ele>
        <time>2019-09-05T14:13:50Z</time>
      </trkpt>
      <trkpt lat="47.25711" lon="-2.31692">
        <ele>61</ele>
        <time>2019-09-05T14:13:51Z</time>
      </trkpt>
      <trkpt lat="47.25716" lon="-2.31696">
        <ele>62</ele>
        <time>2019-09-05T14:13:52Z</time>
      </trkpt>
      <trkpt lat="47.25721" lon="-2.31699">
        <ele>61</ele>
        <time>2019-09-05T14:13:53Z</time>
      </trkpt>
      <trkpt lat="47.25726" lon="-2.317">
        <ele>61</ele>
        <time>2019-09-05T14:13:54Z</time>
      </trkpt>
      <trkpt lat="47.25731" lon="-2.31699">
        <ele>61</ele>
        <time>2019-09-05T14:13:55Z</time>
      </trkpt>
      <trkpt lat="47.25741" lon="-2.31691">
        <ele>61</ele>
        <time>2019-09-05T14:13:57Z</time>
      </trkpt>
      <trkpt lat="47.25745" lon="-2.31687">
        <ele>61</ele>
        <time>2019-09-05T14:13:58Z</time>
      </trkpt>
      <trkpt lat="47.25749" lon="-2.31683">
        <ele>62</ele>
        <time>2019-09-05T14:13:59Z</time>
      </trkpt>
      <trkpt lat="47.25754" lon="-2.3168">
        <ele>62</ele>
        <time>2019-09-05T14:14:00Z</time>
      </trkpt>
      <trkpt lat="47.25758" lon="-2.31677">
        <ele>62</ele>
        <time>2019-09-05T14:14:01Z</time>
      </trkpt>
      <trkpt lat="47.25763" lon="-2.31674">
        <ele>62</ele>
        <time>2019-09-05T14:14:02Z</time>
      </trkpt>
      <trkpt lat="47.25767" lon="-2.3167">
        <ele>62</ele>
        <time>2019-09-05T14:14:03Z</time>
      </trkpt>
      <trkpt lat="47.25775" lon="-2.31664">
        <ele>63</ele>
        <time>2019-09-05T14:14:05Z</time>
      </trkpt>
      <trkpt lat="47.25779" lon="-2.3166">
        <ele>63</ele>
        <time>2019-09-05T14:14:06Z</time>
      </trkpt>
      <trkpt lat="47.25783" lon="-2.31657">
        <ele>63</ele>
        <time>2019-09-05T14:14:07Z</time>
      </trkpt>
      <trkpt lat="47.25787" lon="-2.31654">
        <ele>63</ele>
        <time>2019-09-05T14:14:08Z</time>
      </trkpt>
      <trkpt lat="47.25791" lon="-2.31651">
        <ele>64</ele>
        <time>2019-09-05T14:14:09Z</time>
      </trkpt>
      <trkpt lat="47.25796" lon="-2.31648">
        <ele>63</ele>
        <time>2019-09-05T14:14:10Z</time>
      </trkpt>
      <trkpt lat="47.25801" lon="-2.31645">
        <ele>63</ele>
        <time>2019-09-05T14:14:11Z</time>
      </trkpt>
      <trkpt lat="47.25805" lon="-2.31641">
        <ele>63</ele>
        <time>2019-09-05T14:14:12Z</time>
      </trkpt>
      <trkpt lat="47.25809" lon="-2.31638">
        <ele>64</ele>
        <time>2019-09-05T14:14:13Z</time>
      </trkpt>
      <trkpt lat="47.25813" lon="-2.31634">
        <ele>64</ele>
        <time>2019-09-05T14:14:14Z</time>
      </trkpt>
      <trkpt lat="47.25827" lon="-2.31623">
        <ele>64</ele>
        <time>2019-09-05T14:14:17Z</time>
      </trkpt>
      <trkpt lat="47.25831" lon="-2.31619">
        <ele>64</ele>
        <time>2019-09-05T14:14:18Z</time>
      </trkpt>
      <trkpt lat="47.25835" lon="-2.31615">
        <ele>63</ele>
        <time>2019-09-05T14:14:19Z</time>
      </trkpt>
      <trkpt lat="47.2584" lon="-2.31612">
        <ele>63</ele>
        <time>2019-09-05T14:14:20Z</time>
      </trkpt>
      <trkpt lat="47.25844" lon="-2.31608">
        <ele>63</ele>
        <time>2019-09-05T14:14:21Z</time>
      </trkpt>
      <trkpt lat="47.25849" lon="-2.31603">
        <ele>63</ele>
        <time>2019-09-05T14:14:22Z</time>
      </trkpt>
      <trkpt lat="47.25853" lon="-2.31598">
        <ele>63</ele>
        <time>2019-09-05T14:14:23Z</time>
      </trkpt>
      <trkpt lat="47.25858" lon="-2.31594">
        <ele>62</ele>
        <time>2019-09-05T14:14:24Z</time>
      </trkpt>
      <trkpt lat="47.25863" lon="-2.3159">
        <ele>62</ele>
        <time>2019-09-05T14:14:25Z</time>
      </trkpt>
      <trkpt lat="47.25868" lon="-2.31585">
        <ele>61</ele>
        <time>2019-09-05T14:14:26Z</time>
      </trkpt>
      <trkpt lat="47.25873" lon="-2.3158">
        <ele>61</ele>
        <time>2019-09-05T14:14:27Z</time>
      </trkpt>
      <trkpt lat="47.25877" lon="-2.31575">
        <ele>61</ele>
        <time>2019-09-05T14:14:28Z</time>
      </trkpt>
      <trkpt lat="47.25882" lon="-2.31569">
        <ele>61</ele>
        <time>2019-09-05T14:14:29Z</time>
      </trkpt>
      <trkpt lat="47.2589" lon="-2.3155">
        <ele>60</ele>
        <time>2019-09-05T14:14:32Z</time>
      </trkpt>
      <trkpt lat="47.25896" lon="-2.31534">
        <ele>59</ele>
        <time>2019-09-05T14:14:35Z</time>
      </trkpt>
      <trkpt lat="47.259" lon="-2.31525">
        <ele>59</ele>
        <time>2019-09-05T14:14:37Z</time>
      </trkpt>
      <trkpt lat="47.25904" lon="-2.31519">
        <ele>59</ele>
        <time>2019-09-05T14:14:39Z</time>
      </trkpt>
      <trkpt lat="47.25908" lon="-2.31513">
        <ele>59</ele>
        <time>2019-09-05T14:14:41Z</time>
      </trkpt>
      <trkpt lat="47.2591" lon="-2.31511">
        <ele>60</ele>
        <time>2019-09-05T14:14:42Z</time>
      </trkpt>
      <trkpt lat="47.25912" lon="-2.31503">
        <ele>60</ele>
        <time>2019-09-05T14:14:47Z</time>
      </trkpt>
      <trkpt lat="47.25915" lon="-2.31494">
        <ele>60</ele>
        <time>2019-09-05T14:14:50Z</time>
      </trkpt>
      <trkpt lat="47.2592" lon="-2.31483">
        <ele>61</ele>
        <time>2019-09-05T14:14:53Z</time>
      </trkpt>
      <trkpt lat="47.25923" lon="-2.31473">
        <ele>60</ele>
        <time>2019-09-05T14:14:55Z</time>
      </trkpt>
      <trkpt lat="47.25927" lon="-2.31464">
        <ele>60</ele>
        <time>2019-09-05T14:14:57Z</time>
      </trkpt>
      <trkpt lat="47.25932" lon="-2.31459">
        <ele>60</ele>
        <time>2019-09-05T14:14:59Z</time>
      </trkpt>
      <trkpt lat="47.25942" lon="-2.31461">
        <ele>60</ele>
        <time>2019-09-05T14:15:02Z</time>
      </trkpt>
      <trkpt lat="47.25949" lon="-2.31467">
        <ele>59</ele>
        <time>2019-09-05T14:15:04Z</time>
      </trkpt>
      <trkpt lat="47.25955" lon="-2.31474">
        <ele>59</ele>
        <time>2019-09-05T14:15:06Z</time>
      </trkpt>
      <trkpt lat="47.25959" lon="-2.31477">
        <ele>59</ele>
        <time>2019-09-05T14:15:07Z</time>
      </trkpt>
      <trkpt lat="47.25966" lon="-2.31484">
        <ele>59</ele>
        <time>2019-09-05T14:15:09Z</time>
      </trkpt>
      <trkpt lat="47.25971" lon="-2.31493">
        <ele>59</ele>
        <time>2019-09-05T14:15:11Z</time>
      </trkpt>
      <trkpt lat="47.25977" lon="-2.31509">
        <ele>58</ele>
        <time>2019-09-05T14:15:14Z</time>
      </trkpt>
      <trkpt lat="47.25982" lon="-2.31518">
        <ele>58</ele>
        <time>2019-09-05T14:15:16Z</time>
      </trkpt>
      <trkpt lat="47.25985" lon="-2.31523">
        <ele>58</ele>
        <time>2019-09-05T14:15:17Z</time>
      </trkpt>
      <trkpt lat="47.25988" lon="-2.31529">
        <ele>58</ele>
        <time>2019-09-05T14:15:18Z</time>
      </trkpt>
      <trkpt lat="47.25993" lon="-2.31538">
        <ele>58</ele>
        <time>2019-09-05T14:15:20Z</time>
      </trkpt>
      <trkpt lat="47.25996" lon="-2.31543">
        <ele>58</ele>
        <time>2019-09-05T14:15:21Z</time>
      </trkpt>
      <trkpt lat="47.25999" lon="-2.31548">
        <ele>58</ele>
        <time>2019-09-05T14:15:22Z</time>
      </trkpt>
      <trkpt lat="47.26002" lon="-2.31552">
        <ele>57</ele>
        <time>2019-09-05T14:15:23Z</time>
      </trkpt>
      <trkpt lat="47.26004" lon="-2.31557">
        <ele>57</ele>
        <time>2019-09-05T14:15:24Z</time>
      </trkpt>
      <trkpt lat="47.26013" lon="-2.31566">
        <ele>58</ele>
        <time>2019-09-05T14:15:27Z</time>
      </trkpt>
      <trkpt lat="47.2602" lon="-2.31561">
        <ele>58</ele>
        <time>2019-09-05T14:15:29Z</time>
      </trkpt>
      <trkpt lat="47.26023" lon="-2.31555">
        <ele>59</ele>
        <time>2019-09-05T14:15:30Z</time>
      </trkpt>
      <trkpt lat="47.26025" lon="-2.31549">
        <ele>59</ele>
        <time>2019-09-05T14:15:31Z</time>
      </trkpt>
      <trkpt lat="47.26026" lon="-2.31543">
        <ele>59</ele>
        <time>2019-09-05T14:15:32Z</time>
      </trkpt>
      <trkpt lat="47.26031" lon="-2.31533">
        <ele>59</ele>
        <time>2019-09-05T14:15:34Z</time>
      </trkpt>
      <trkpt lat="47.2605" lon="-2.31536">
        <ele>59</ele>
        <time>2019-09-05T14:15:38Z</time>
      </trkpt>
      <trkpt lat="47.26057" lon="-2.3154">
        <ele>59</ele>
        <time>2019-09-05T14:15:40Z</time>
      </trkpt>
      <trkpt lat="47.26061" lon="-2.31549">
        <ele>58</ele>
        <time>2019-09-05T14:15:42Z</time>
      </trkpt>
      <trkpt lat="47.26065" lon="-2.31558">
        <ele>58</ele>
        <time>2019-09-05T14:15:44Z</time>
      </trkpt>
      <trkpt lat="47.26068" lon="-2.31566">
        <ele>58</ele>
        <time>2019-09-05T14:15:46Z</time>
      </trkpt>
      <trkpt lat="47.26069" lon="-2.3157">
        <ele>58</ele>
        <time>2019-09-05T14:15:47Z</time>
      </trkpt>
      <trkpt lat="47.26074" lon="-2.31576">
        <ele>58</ele>
        <time>2019-09-05T14:15:49Z</time>
      </trkpt>
      <trkpt lat="47.26079" lon="-2.31578">
        <ele>58</ele>
        <time>2019-09-05T14:15:52Z</time>
      </trkpt>
      <trkpt lat="47.26083" lon="-2.31579">
        <ele>58</ele>
        <time>2019-09-05T14:15:54Z</time>
      </trkpt>
      <trkpt lat="47.26087" lon="-2.31584">
        <ele>58</ele>
        <time>2019-09-05T14:15:56Z</time>
      </trkpt>
      <trkpt lat="47.26093" lon="-2.31592">
        <ele>58</ele>
        <time>2019-09-05T14:15:58Z</time>
      </trkpt>
      <trkpt lat="47.26096" lon="-2.31597">
        <ele>58</ele>
        <time>2019-09-05T14:15:59Z</time>
      </trkpt>
      <trkpt lat="47.26098" lon="-2.31601">
        <ele>57</ele>
        <time>2019-09-05T14:16:00Z</time>
      </trkpt>
      <trkpt lat="47.261" lon="-2.31605">
        <ele>57</ele>
        <time>2019-09-05T14:16:01Z</time>
      </trkpt>
      <trkpt lat="47.26103" lon="-2.31609">
        <ele>57</ele>
        <time>2019-09-05T14:16:02Z</time>
      </trkpt>
      <trkpt lat="47.26106" lon="-2.31613">
        <ele>57</ele>
        <time>2019-09-05T14:16:03Z</time>
      </trkpt>
      <trkpt lat="47.26113" lon="-2.31616">
        <ele>58</ele>
        <time>2019-09-05T14:16:05Z</time>
      </trkpt>
      <trkpt lat="47.2612" lon="-2.31615">
        <ele>56</ele>
        <time>2019-09-05T14:16:07Z</time>
      </trkpt>
      <trkpt lat="47.26125" lon="-2.31615">
        <ele>56</ele>
        <time>2019-09-05T14:16:08Z</time>
      </trkpt>
      <trkpt lat="47.2613" lon="-2.31614">
        <ele>56</ele>
        <time>2019-09-05T14:16:09Z</time>
      </trkpt>
      <trkpt lat="47.26134" lon="-2.31613">
        <ele>56</ele>
        <time>2019-09-05T14:16:10Z</time>
      </trkpt>
      <trkpt lat="47.26143" lon="-2.31613">
        <ele>56</ele>
        <time>2019-09-05T14:16:12Z</time>
      </trkpt>
      <trkpt lat="47.26148" lon="-2.31612">
        <ele>56</ele>
        <time>2019-09-05T14:16:13Z</time>
      </trkpt>
      <trkpt lat="47.26153" lon="-2.31609">
        <ele>56</ele>
        <time>2019-09-05T14:16:14Z</time>
      </trkpt>
      <trkpt lat="47.26158" lon="-2.31606">
        <ele>56</ele>
        <time>2019-09-05T14:16:15Z</time>
      </trkpt>
      <trkpt lat="47.26163" lon="-2.31604">
        <ele>56</ele>
        <time>2019-09-05T14:16:16Z</time>
      </trkpt>
      <trkpt lat="47.26168" lon="-2.31602">
        <ele>56</ele>
        <time>2019-09-05T14:16:17Z</time>
      </trkpt>
      <trkpt lat="47.26173" lon="-2.316">
        <ele>56</ele>
        <time>2019-09-05T14:16:18Z</time>
      </trkpt>
      <trkpt lat="47.26178" lon="-2.31599">
        <ele>56</ele>
        <time>2019-09-05T14:16:19Z</time>
      </trkpt>
      <trkpt lat="47.26183" lon="-2.31597">
        <ele>56</ele>
        <time>2019-09-05T14:16:20Z</time>
      </trkpt>
      <trkpt lat="47.26188" lon="-2.31595">
        <ele>56</ele>
        <time>2019-09-05T14:16:21Z</time>
      </trkpt>
      <trkpt lat="47.26193" lon="-2.31594">
        <ele>55</ele>
        <time>2019-09-05T14:16:22Z</time>
      </trkpt>
      <trkpt lat="47.26198" lon="-2.31592">
        <ele>55</ele>
        <time>2019-09-05T14:16:23Z</time>
      </trkpt>
      <trkpt lat="47.26203" lon="-2.31591">
        <ele>55</ele>
        <time>2019-09-05T14:16:24Z</time>
      </trkpt>
      <trkpt lat="47.26208" lon="-2.3159">
        <ele>55</ele>
        <time>2019-09-05T14:16:25Z</time>
      </trkpt>
      <trkpt lat="47.26213" lon="-2.31591">
        <ele>55</ele>
        <time>2019-09-05T14:16:26Z</time>
      </trkpt>
      <trkpt lat="47.26224" lon="-2.31595">
        <ele>55</ele>
        <time>2019-09-05T14:16:28Z</time>
      </trkpt>
      <trkpt lat="47.26233" lon="-2.316">
        <ele>54</ele>
        <time>2019-09-05T14:16:30Z</time>
      </trkpt>
      <trkpt lat="47.26246" lon="-2.31614">
        <ele>54</ele>
        <time>2019-09-05T14:16:33Z</time>
      </trkpt>
      <trkpt lat="47.26254" lon="-2.31624">
        <ele>54</ele>
        <time>2019-09-05T14:16:35Z</time>
      </trkpt>
      <trkpt lat="47.26257" lon="-2.31629">
        <ele>54</ele>
        <time>2019-09-05T14:16:36Z</time>
      </trkpt>
      <trkpt lat="47.2626" lon="-2.31635">
        <ele>54</ele>
        <time>2019-09-05T14:16:37Z</time>
      </trkpt>
      <trkpt lat="47.26263" lon="-2.31641">
        <ele>54</ele>
        <time>2019-09-05T14:16:38Z</time>
      </trkpt>
      <trkpt lat="47.26266" lon="-2.31648">
        <ele>54</ele>
        <time>2019-09-05T14:16:39Z</time>
      </trkpt>
      <trkpt lat="47.26268" lon="-2.31655">
        <ele>54</ele>
        <time>2019-09-05T14:16:40Z</time>
      </trkpt>
      <trkpt lat="47.26271" lon="-2.31661">
        <ele>54</ele>
        <time>2019-09-05T14:16:41Z</time>
      </trkpt>
      <trkpt lat="47.26277" lon="-2.31674">
        <ele>54</ele>
        <time>2019-09-05T14:16:43Z</time>
      </trkpt>
      <trkpt lat="47.2628" lon="-2.3168">
        <ele>55</ele>
        <time>2019-09-05T14:16:44Z</time>
      </trkpt>
      <trkpt lat="47.26282" lon="-2.31687">
        <ele>55</ele>
        <time>2019-09-05T14:16:45Z</time>
      </trkpt>
      <trkpt lat="47.2629" lon="-2.31707">
        <ele>55</ele>
        <time>2019-09-05T14:16:48Z</time>
      </trkpt>
      <trkpt lat="47.26294" lon="-2.31711">
        <ele>55</ele>
        <time>2019-09-05T14:16:49Z</time>
      </trkpt>
      <trkpt lat="47.26302" lon="-2.31717">
        <ele>55</ele>
        <time>2019-09-05T14:16:51Z</time>
      </trkpt>
      <trkpt lat="47.26307" lon="-2.31718">
        <ele>55</ele>
        <time>2019-09-05T14:16:52Z</time>
      </trkpt>
      <trkpt lat="47.26311" lon="-2.31718">
        <ele>55</ele>
        <time>2019-09-05T14:16:53Z</time>
      </trkpt>
      <trkpt lat="47.26316" lon="-2.31716">
        <ele>56</ele>
        <time>2019-09-05T14:16:54Z</time>
      </trkpt>
      <trkpt lat="47.26325" lon="-2.31713">
        <ele>57</ele>
        <time>2019-09-05T14:16:56Z</time>
      </trkpt>
      <trkpt lat="47.26336" lon="-2.31705">
        <ele>58</ele>
        <time>2019-09-05T14:16:59Z</time>
      </trkpt>
      <trkpt lat="47.2634" lon="-2.31702">
        <ele>58</ele>
        <time>2019-09-05T14:17:00Z</time>
      </trkpt>
      <trkpt lat="47.26349" lon="-2.31698">
        <ele>58</ele>
        <time>2019-09-05T14:17:02Z</time>
      </trkpt>
      <trkpt lat="47.26354" lon="-2.31695">
        <ele>58</ele>
        <time>2019-09-05T14:17:03Z</time>
      </trkpt>
      <trkpt lat="47.26358" lon="-2.31693">
        <ele>58</ele>
        <time>2019-09-05T14:17:04Z</time>
      </trkpt>
      <trkpt lat="47.26362" lon="-2.31691">
        <ele>58</ele>
        <time>2019-09-05T14:17:05Z</time>
      </trkpt>
      <trkpt lat="47.26375" lon="-2.31685">
        <ele>58</ele>
        <time>2019-09-05T14:17:08Z</time>
      </trkpt>
      <trkpt lat="47.26387" lon="-2.31676">
        <ele>59</ele>
        <time>2019-09-05T14:17:11Z</time>
      </trkpt>
      <trkpt lat="47.26395" lon="-2.31671">
        <ele>59</ele>
        <time>2019-09-05T14:17:13Z</time>
      </trkpt>
      <trkpt lat="47.26398" lon="-2.31669">
        <ele>58</ele>
        <time>2019-09-05T14:17:14Z</time>
      </trkpt>
      <trkpt lat="47.26408" lon="-2.31655">
        <ele>59</ele>
        <time>2019-09-05T14:17:18Z</time>
      </trkpt>
      <trkpt lat="47.26407" lon="-2.31648">
        <ele>59</ele>
        <time>2019-09-05T14:17:19Z</time>
      </trkpt>
      <trkpt lat="47.26406" lon="-2.31636">
        <ele>59</ele>
        <time>2019-09-05T14:17:21Z</time>
      </trkpt>
      <trkpt lat="47.26407" lon="-2.31629">
        <ele>58</ele>
        <time>2019-09-05T14:17:22Z</time>
      </trkpt>
      <trkpt lat="47.26407" lon="-2.31622">
        <ele>58</ele>
        <time>2019-09-05T14:17:23Z</time>
      </trkpt>
      <trkpt lat="47.26408" lon="-2.31614">
        <ele>57</ele>
        <time>2019-09-05T14:17:24Z</time>
      </trkpt>
      <trkpt lat="47.26408" lon="-2.31608">
        <ele>58</ele>
        <time>2019-09-05T14:17:25Z</time>
      </trkpt>
      <trkpt lat="47.26408" lon="-2.31601">
        <ele>58</ele>
        <time>2019-09-05T14:17:26Z</time>
      </trkpt>
      <trkpt lat="47.26409" lon="-2.31596">
        <ele>58</ele>
        <time>2019-09-05T14:17:27Z</time>
      </trkpt>
      <trkpt lat="47.26407" lon="-2.31577">
        <ele>58</ele>
        <time>2019-09-05T14:17:30Z</time>
      </trkpt>
      <trkpt lat="47.26407" lon="-2.31572">
        <ele>58</ele>
        <time>2019-09-05T14:17:31Z</time>
      </trkpt>
      <trkpt lat="47.26407" lon="-2.31567">
        <ele>58</ele>
        <time>2019-09-05T14:17:32Z</time>
      </trkpt>
      <trkpt lat="47.26411" lon="-2.31552">
        <ele>58</ele>
        <time>2019-09-05T14:17:36Z</time>
      </trkpt>
      <trkpt lat="47.26417" lon="-2.31552">
        <ele>59</ele>
        <time>2019-09-05T14:17:38Z</time>
      </trkpt>
      <trkpt lat="47.26417" lon="-2.31552">
        <ele>10.2</ele>
        <time>2019-09-05T14:17:43Z</time>
      </trkpt>
      <trkpt lat="47.26417" lon="-2.31552">
        <ele>10.2</ele>
        <time>2019-09-05T14:20:15Z</time>
      </trkpt>
    </trkseg>
  </trk>
</gpx>